<?xml version="1.0" encoding="UTF-8" standalone="no" ?><gpx xmlns="http://www.topografix.com/GPX/1/1" xmlns:gpxx="http://www.garmin.com/xmlschemas/GpxExtensions/v3" xmlns:wptx1="http://www.garmin.com/xmlschemas/WaypointExtension/v1" xmlns:gpxtpx="http://www.garmin.com/xmlschemas/TrackPointExtension/v1" creator="GuideVTT.com" version="1.1" xmlns:xsi="http://www.w3.org/2001/XMLSchema-instance" xsi:schemaLocation="http://www.topografix.com/GPX/1/1 http://www.topografix.com/GPX/1/1/gpx.xsd http://www.garmin.com/xmlschemas/GpxExtensions/v3 http://www8.garmin.com/xmlschemas/GpxExtensionsv3.xsd http://www.garmin.com/xmlschemas/WaypointExtension/v1 http://www8.garmin.com/xmlschemas/WaypointExtensionv1.xsd http://www.garmin.com/xmlschemas/TrackPointExtension/v1 http://www.garmin.com/xmlschemas/TrackPointExtensionv1.xsd">
<metadata><link href="http://www.garmin.com"><text>Garmin International</text></link><time>2013-06-22T15:13:50Z</time></metadata>
<trk><name>2024rp06.gpx</name><extensions><gpxx:TrackExtension><gpxx:DisplayColor>Cyan</gpxx:DisplayColor></gpxx:TrackExtension></extensions><trkseg>
<trkpt lat="46.60043" lon="6.36935"><ele></ele><time>2024-5-29T21:11:5Z</time></trkpt>
<trkpt lat="46.60043" lon="6.36917"><ele></ele><time>2024-5-29T21:11:8Z</time></trkpt>
<trkpt lat="46.60043" lon="6.36914"><ele></ele><time>2024-5-29T21:11:11Z</time></trkpt>
<trkpt lat="46.60045" lon="6.36902"><ele></ele><time>2024-5-29T21:11:14Z</time></trkpt>
<trkpt lat="46.60045" lon="6.36887"><ele></ele><time>2024-5-29T21:11:17Z</time></trkpt>
<trkpt lat="46.60045" lon="6.36885"><ele></ele><time>2024-5-29T21:11:20Z</time></trkpt>
<trkpt lat="46.60045" lon="6.36874"><ele></ele><time>2024-5-29T21:11:23Z</time></trkpt>
<trkpt lat="46.60045" lon="6.36867"><ele></ele><time>2024-5-29T21:11:26Z</time></trkpt>
<trkpt lat="46.60045" lon="6.36865"><ele></ele><time>2024-5-29T21:11:29Z</time></trkpt>
<trkpt lat="46.60047" lon="6.36851"><ele></ele><time>2024-5-29T21:11:32Z</time></trkpt>
<trkpt lat="46.60048" lon="6.36836"><ele></ele><time>2024-5-29T21:11:35Z</time></trkpt>
<trkpt lat="46.60049" lon="6.36832"><ele></ele><time>2024-5-29T21:11:38Z</time></trkpt>
<trkpt lat="46.60048" lon="6.36817"><ele></ele><time>2024-5-29T21:11:41Z</time></trkpt>
<trkpt lat="46.60049" lon="6.36807"><ele></ele><time>2024-5-29T21:11:44Z</time></trkpt>
<trkpt lat="46.6005" lon="6.36794"><ele></ele><time>2024-5-29T21:11:47Z</time></trkpt>
<trkpt lat="46.60051" lon="6.36781"><ele></ele><time>2024-5-29T21:11:50Z</time></trkpt>
<trkpt lat="46.60055" lon="6.36764"><ele></ele><time>2024-5-29T21:11:53Z</time></trkpt>
<trkpt lat="46.60057" lon="6.36753"><ele></ele><time>2024-5-29T21:11:56Z</time></trkpt>
<trkpt lat="46.60058" lon="6.36743"><ele></ele><time>2024-5-29T21:11:59Z</time></trkpt>
<trkpt lat="46.60061" lon="6.36725"><ele></ele><time>2024-5-29T21:12:2Z</time></trkpt>
<trkpt lat="46.60062" lon="6.3672"><ele></ele><time>2024-5-29T21:12:5Z</time></trkpt>
<trkpt lat="46.60065" lon="6.367"><ele></ele><time>2024-5-29T21:12:8Z</time></trkpt>
<trkpt lat="46.60066" lon="6.36692"><ele></ele><time>2024-5-29T21:12:11Z</time></trkpt>
<trkpt lat="46.60066" lon="6.36683"><ele></ele><time>2024-5-29T21:12:14Z</time></trkpt>
<trkpt lat="46.60066" lon="6.3667"><ele></ele><time>2024-5-29T21:12:17Z</time></trkpt>
<trkpt lat="46.60067" lon="6.36667"><ele></ele><time>2024-5-29T21:12:20Z</time></trkpt>
<trkpt lat="46.6007" lon="6.36653"><ele></ele><time>2024-5-29T21:12:23Z</time></trkpt>
<trkpt lat="46.6007" lon="6.36648"><ele></ele><time>2024-5-29T21:12:26Z</time></trkpt>
<trkpt lat="46.60071" lon="6.36635"><ele></ele><time>2024-5-29T21:12:29Z</time></trkpt>
<trkpt lat="46.60072" lon="6.36625"><ele></ele><time>2024-5-29T21:12:32Z</time></trkpt>
<trkpt lat="46.60073" lon="6.36621"><ele></ele><time>2024-5-29T21:12:35Z</time></trkpt>
<trkpt lat="46.60076" lon="6.36606"><ele></ele><time>2024-5-29T21:12:38Z</time></trkpt>
<trkpt lat="46.6008" lon="6.36592"><ele></ele><time>2024-5-29T21:12:41Z</time></trkpt>
<trkpt lat="46.60081" lon="6.36587"><ele></ele><time>2024-5-29T21:12:44Z</time></trkpt>
<trkpt lat="46.60081" lon="6.36572"><ele></ele><time>2024-5-29T21:12:47Z</time></trkpt>
<trkpt lat="46.60082" lon="6.36566"><ele></ele><time>2024-5-29T21:12:50Z</time></trkpt>
<trkpt lat="46.60083" lon="6.36552"><ele></ele><time>2024-5-29T21:12:53Z</time></trkpt>
<trkpt lat="46.60083" lon="6.3655"><ele></ele><time>2024-5-29T21:12:56Z</time></trkpt>
<trkpt lat="46.60085" lon="6.36538"><ele></ele><time>2024-5-29T21:12:59Z</time></trkpt>
<trkpt lat="46.60086" lon="6.36536"><ele></ele><time>2024-5-29T21:13:2Z</time></trkpt>
<trkpt lat="46.60089" lon="6.36522"><ele></ele><time>2024-5-29T21:13:5Z</time></trkpt>
<trkpt lat="46.60089" lon="6.36521"><ele></ele><time>2024-5-29T21:13:8Z</time></trkpt>
<trkpt lat="46.60093" lon="6.36509"><ele></ele><time>2024-5-29T21:13:11Z</time></trkpt>
<trkpt lat="46.60096" lon="6.36499"><ele></ele><time>2024-5-29T21:13:14Z</time></trkpt>
<trkpt lat="46.60098" lon="6.36494"><ele></ele><time>2024-5-29T21:13:17Z</time></trkpt>
<trkpt lat="46.60101" lon="6.36483"><ele></ele><time>2024-5-29T21:13:20Z</time></trkpt>
<trkpt lat="46.60103" lon="6.36475"><ele></ele><time>2024-5-29T21:13:23Z</time></trkpt>
<trkpt lat="46.60103" lon="6.36474"><ele></ele><time>2024-5-29T21:13:26Z</time></trkpt>
<trkpt lat="46.60104" lon="6.3647"><ele></ele><time>2024-5-29T21:13:29Z</time></trkpt>
<trkpt lat="46.60105" lon="6.36465"><ele></ele><time>2024-5-29T21:13:32Z</time></trkpt>
<trkpt lat="46.60107" lon="6.36456"><ele></ele><time>2024-5-29T21:13:35Z</time></trkpt>
<trkpt lat="46.60109" lon="6.36448"><ele></ele><time>2024-5-29T21:13:38Z</time></trkpt>
<trkpt lat="46.60111" lon="6.3644"><ele></ele><time>2024-5-29T21:13:41Z</time></trkpt>
<trkpt lat="46.60113" lon="6.3643"><ele></ele><time>2024-5-29T21:13:44Z</time></trkpt>
<trkpt lat="46.60115" lon="6.36423"><ele></ele><time>2024-5-29T21:13:47Z</time></trkpt>
<trkpt lat="46.60118" lon="6.3641"><ele></ele><time>2024-5-29T21:13:50Z</time></trkpt>
<trkpt lat="46.60119" lon="6.36409"><ele></ele><time>2024-5-29T21:13:53Z</time></trkpt>
<trkpt lat="46.60122" lon="6.364"><ele></ele><time>2024-5-29T21:13:56Z</time></trkpt>
<trkpt lat="46.60122" lon="6.36398"><ele></ele><time>2024-5-29T21:13:59Z</time></trkpt>
<trkpt lat="46.60125" lon="6.36385"><ele></ele><time>2024-5-29T21:14:2Z</time></trkpt>
<trkpt lat="46.60122" lon="6.36369"><ele></ele><time>2024-5-29T21:14:5Z</time></trkpt>
<trkpt lat="46.60116" lon="6.36357"><ele></ele><time>2024-5-29T21:14:8Z</time></trkpt>
<trkpt lat="46.60115" lon="6.36355"><ele></ele><time>2024-5-29T21:14:11Z</time></trkpt>
<trkpt lat="46.60105" lon="6.36351"><ele></ele><time>2024-5-29T21:14:14Z</time></trkpt>
<trkpt lat="46.60093" lon="6.36354"><ele></ele><time>2024-5-29T21:14:17Z</time></trkpt>
<trkpt lat="46.60091" lon="6.36355"><ele></ele><time>2024-5-29T21:14:20Z</time></trkpt>
<trkpt lat="46.60086" lon="6.36357"><ele></ele><time>2024-5-29T21:14:23Z</time></trkpt>
<trkpt lat="46.60085" lon="6.36357"><ele></ele><time>2024-5-29T21:14:26Z</time></trkpt>
<trkpt lat="46.60081" lon="6.36359"><ele></ele><time>2024-5-29T21:14:29Z</time></trkpt>
<trkpt lat="46.6008" lon="6.3636"><ele></ele><time>2024-5-29T21:14:32Z</time></trkpt>
<trkpt lat="46.6007" lon="6.36368"><ele></ele><time>2024-5-29T21:14:35Z</time></trkpt>
<trkpt lat="46.60063" lon="6.36376"><ele></ele><time>2024-5-29T21:14:38Z</time></trkpt>
<trkpt lat="46.60061" lon="6.36379"><ele></ele><time>2024-5-29T21:14:41Z</time></trkpt>
<trkpt lat="46.60055" lon="6.36385"><ele></ele><time>2024-5-29T21:14:44Z</time></trkpt>
<trkpt lat="46.60051" lon="6.36388"><ele></ele><time>2024-5-29T21:14:47Z</time></trkpt>
<trkpt lat="46.60047" lon="6.36392"><ele></ele><time>2024-5-29T21:14:50Z</time></trkpt>
<trkpt lat="46.60042" lon="6.36397"><ele></ele><time>2024-5-29T21:14:53Z</time></trkpt>
<trkpt lat="46.60037" lon="6.364"><ele></ele><time>2024-5-29T21:14:56Z</time></trkpt>
<trkpt lat="46.60032" lon="6.36401"><ele></ele><time>2024-5-29T21:14:59Z</time></trkpt>
<trkpt lat="46.60028" lon="6.36401"><ele></ele><time>2024-5-29T21:15:2Z</time></trkpt>
<trkpt lat="46.60022" lon="6.36402"><ele></ele><time>2024-5-29T21:15:5Z</time></trkpt>
<trkpt lat="46.60018" lon="6.36402"><ele></ele><time>2024-5-29T21:15:8Z</time></trkpt>
<trkpt lat="46.6001" lon="6.36401"><ele></ele><time>2024-5-29T21:15:11Z</time></trkpt>
<trkpt lat="46.60007" lon="6.36401"><ele></ele><time>2024-5-29T21:15:14Z</time></trkpt>
<trkpt lat="46.60001" lon="6.36402"><ele></ele><time>2024-5-29T21:15:17Z</time></trkpt>
<trkpt lat="46.59999" lon="6.36401"><ele></ele><time>2024-5-29T21:15:20Z</time></trkpt>
<trkpt lat="46.59996" lon="6.36401"><ele></ele><time>2024-5-29T21:15:23Z</time></trkpt>
<trkpt lat="46.59995" lon="6.364"><ele></ele><time>2024-5-29T21:15:26Z</time></trkpt>
<trkpt lat="46.59992" lon="6.364"><ele></ele><time>2024-5-29T21:15:29Z</time></trkpt>
<trkpt lat="46.59983" lon="6.36397"><ele></ele><time>2024-5-29T21:15:32Z</time></trkpt>
<trkpt lat="46.5998" lon="6.36397"><ele></ele><time>2024-5-29T21:15:35Z</time></trkpt>
<trkpt lat="46.59975" lon="6.36401"><ele></ele><time>2024-5-29T21:15:38Z</time></trkpt>
<trkpt lat="46.59973" lon="6.36404"><ele></ele><time>2024-5-29T21:15:41Z</time></trkpt>
<trkpt lat="46.5997" lon="6.36406"><ele></ele><time>2024-5-29T21:15:44Z</time></trkpt>
<trkpt lat="46.59969" lon="6.36409"><ele></ele><time>2024-5-29T21:15:47Z</time></trkpt>
<trkpt lat="46.59969" lon="6.36413"><ele></ele><time>2024-5-29T21:15:50Z</time></trkpt>
<trkpt lat="46.59967" lon="6.3642"><ele></ele><time>2024-5-29T21:15:53Z</time></trkpt>
<trkpt lat="46.59966" lon="6.36424"><ele></ele><time>2024-5-29T21:15:56Z</time></trkpt>
<trkpt lat="46.59964" lon="6.3643"><ele></ele><time>2024-5-29T21:15:59Z</time></trkpt>
<trkpt lat="46.59962" lon="6.36433"><ele></ele><time>2024-5-29T21:16:2Z</time></trkpt>
<trkpt lat="46.59959" lon="6.36443"><ele></ele><time>2024-5-29T21:16:5Z</time></trkpt>
<trkpt lat="46.59958" lon="6.36444"><ele></ele><time>2024-5-29T21:16:8Z</time></trkpt>
<trkpt lat="46.59955" lon="6.36453"><ele></ele><time>2024-5-29T21:16:11Z</time></trkpt>
<trkpt lat="46.59953" lon="6.36456"><ele></ele><time>2024-5-29T21:16:14Z</time></trkpt>
<trkpt lat="46.59948" lon="6.36465"><ele></ele><time>2024-5-29T21:16:17Z</time></trkpt>
<trkpt lat="46.59946" lon="6.36469"><ele></ele><time>2024-5-29T21:16:20Z</time></trkpt>
<trkpt lat="46.59941" lon="6.36477"><ele></ele><time>2024-5-29T21:16:23Z</time></trkpt>
<trkpt lat="46.5994" lon="6.3648"><ele></ele><time>2024-5-29T21:16:26Z</time></trkpt>
<trkpt lat="46.59934" lon="6.3649"><ele></ele><time>2024-5-29T21:16:29Z</time></trkpt>
<trkpt lat="46.59928" lon="6.36499"><ele></ele><time>2024-5-29T21:16:32Z</time></trkpt>
<trkpt lat="46.59927" lon="6.36503"><ele></ele><time>2024-5-29T21:16:35Z</time></trkpt>
<trkpt lat="46.59925" lon="6.36506"><ele></ele><time>2024-5-29T21:16:38Z</time></trkpt>
<trkpt lat="46.59924" lon="6.36509"><ele></ele><time>2024-5-29T21:16:41Z</time></trkpt>
<trkpt lat="46.59921" lon="6.36513"><ele></ele><time>2024-5-29T21:16:44Z</time></trkpt>
<trkpt lat="46.59917" lon="6.36519"><ele></ele><time>2024-5-29T21:16:47Z</time></trkpt>
<trkpt lat="46.59914" lon="6.36523"><ele></ele><time>2024-5-29T21:16:50Z</time></trkpt>
<trkpt lat="46.59909" lon="6.36528"><ele></ele><time>2024-5-29T21:16:53Z</time></trkpt>
<trkpt lat="46.59906" lon="6.3653"><ele></ele><time>2024-5-29T21:16:56Z</time></trkpt>
<trkpt lat="46.59899" lon="6.36531"><ele></ele><time>2024-5-29T21:16:59Z</time></trkpt>
<trkpt lat="46.59891" lon="6.36526"><ele></ele><time>2024-5-29T21:17:2Z</time></trkpt>
<trkpt lat="46.59889" lon="6.36524"><ele></ele><time>2024-5-29T21:17:5Z</time></trkpt>
<trkpt lat="46.59886" lon="6.36517"><ele></ele><time>2024-5-29T21:17:8Z</time></trkpt>
<trkpt lat="46.59883" lon="6.36514"><ele></ele><time>2024-5-29T21:17:11Z</time></trkpt>
<trkpt lat="46.59878" lon="6.36507"><ele></ele><time>2024-5-29T21:17:14Z</time></trkpt>
<trkpt lat="46.59874" lon="6.36502"><ele></ele><time>2024-5-29T21:17:17Z</time></trkpt>
<trkpt lat="46.59871" lon="6.36498"><ele></ele><time>2024-5-29T21:17:20Z</time></trkpt>
<trkpt lat="46.59865" lon="6.36493"><ele></ele><time>2024-5-29T21:17:23Z</time></trkpt>
<trkpt lat="46.59863" lon="6.36489"><ele></ele><time>2024-5-29T21:17:26Z</time></trkpt>
<trkpt lat="46.59858" lon="6.36483"><ele></ele><time>2024-5-29T21:17:29Z</time></trkpt>
<trkpt lat="46.59857" lon="6.36481"><ele></ele><time>2024-5-29T21:17:32Z</time></trkpt>
<trkpt lat="46.5985" lon="6.36469"><ele></ele><time>2024-5-29T21:17:35Z</time></trkpt>
<trkpt lat="46.59843" lon="6.3646"><ele></ele><time>2024-5-29T21:17:38Z</time></trkpt>
<trkpt lat="46.5984" lon="6.36453"><ele></ele><time>2024-5-29T21:17:41Z</time></trkpt>
<trkpt lat="46.59839" lon="6.36452"><ele></ele><time>2024-5-29T21:17:44Z</time></trkpt>
<trkpt lat="46.59838" lon="6.36448"><ele></ele><time>2024-5-29T21:17:47Z</time></trkpt>
<trkpt lat="46.59836" lon="6.36443"><ele></ele><time>2024-5-29T21:17:50Z</time></trkpt>
<trkpt lat="46.59832" lon="6.36435"><ele></ele><time>2024-5-29T21:17:53Z</time></trkpt>
<trkpt lat="46.59831" lon="6.36432"><ele></ele><time>2024-5-29T21:17:56Z</time></trkpt>
<trkpt lat="46.59825" lon="6.36424"><ele></ele><time>2024-5-29T21:17:59Z</time></trkpt>
<trkpt lat="46.59822" lon="6.36419"><ele></ele><time>2024-5-29T21:18:2Z</time></trkpt>
<trkpt lat="46.59819" lon="6.36414"><ele></ele><time>2024-5-29T21:18:5Z</time></trkpt>
<trkpt lat="46.59816" lon="6.36405"><ele></ele><time>2024-5-29T21:18:8Z</time></trkpt>
<trkpt lat="46.59815" lon="6.36402"><ele></ele><time>2024-5-29T21:18:11Z</time></trkpt>
<trkpt lat="46.59813" lon="6.36395"><ele></ele><time>2024-5-29T21:18:14Z</time></trkpt>
<trkpt lat="46.59812" lon="6.36391"><ele></ele><time>2024-5-29T21:18:17Z</time></trkpt>
<trkpt lat="46.59808" lon="6.36381"><ele></ele><time>2024-5-29T21:18:20Z</time></trkpt>
<trkpt lat="46.59807" lon="6.3638"><ele></ele><time>2024-5-29T21:18:23Z</time></trkpt>
<trkpt lat="46.59803" lon="6.3637"><ele></ele><time>2024-5-29T21:18:26Z</time></trkpt>
<trkpt lat="46.598" lon="6.36366"><ele></ele><time>2024-5-29T21:18:29Z</time></trkpt>
<trkpt lat="46.59798" lon="6.36363"><ele></ele><time>2024-5-29T21:18:32Z</time></trkpt>
<trkpt lat="46.59795" lon="6.36358"><ele></ele><time>2024-5-29T21:18:35Z</time></trkpt>
<trkpt lat="46.59791" lon="6.36353"><ele></ele><time>2024-5-29T21:18:38Z</time></trkpt>
<trkpt lat="46.59788" lon="6.3635"><ele></ele><time>2024-5-29T21:18:41Z</time></trkpt>
<trkpt lat="46.59782" lon="6.36342"><ele></ele><time>2024-5-29T21:18:44Z</time></trkpt>
<trkpt lat="46.5978" lon="6.36341"><ele></ele><time>2024-5-29T21:18:47Z</time></trkpt>
<trkpt lat="46.59775" lon="6.36329"><ele></ele><time>2024-5-29T21:18:50Z</time></trkpt>
<trkpt lat="46.59774" lon="6.36326"><ele></ele><time>2024-5-29T21:18:53Z</time></trkpt>
<trkpt lat="46.59771" lon="6.36315"><ele></ele><time>2024-5-29T21:18:56Z</time></trkpt>
<trkpt lat="46.5977" lon="6.3631"><ele></ele><time>2024-5-29T21:18:59Z</time></trkpt>
<trkpt lat="46.59768" lon="6.36302"><ele></ele><time>2024-5-29T21:19:2Z</time></trkpt>
<trkpt lat="46.59766" lon="6.36294"><ele></ele><time>2024-5-29T21:19:5Z</time></trkpt>
<trkpt lat="46.59764" lon="6.36288"><ele></ele><time>2024-5-29T21:19:8Z</time></trkpt>
<trkpt lat="46.59761" lon="6.36278"><ele></ele><time>2024-5-29T21:19:11Z</time></trkpt>
<trkpt lat="46.59761" lon="6.36274"><ele></ele><time>2024-5-29T21:19:14Z</time></trkpt>
<trkpt lat="46.59759" lon="6.36271"><ele></ele><time>2024-5-29T21:19:17Z</time></trkpt>
<trkpt lat="46.59759" lon="6.3627"><ele></ele><time>2024-5-29T21:19:20Z</time></trkpt>
<trkpt lat="46.59758" lon="6.36268"><ele></ele><time>2024-5-29T21:19:23Z</time></trkpt>
<trkpt lat="46.59757" lon="6.36265"><ele></ele><time>2024-5-29T21:19:26Z</time></trkpt>
<trkpt lat="46.59755" lon="6.36261"><ele></ele><time>2024-5-29T21:19:29Z</time></trkpt>
<trkpt lat="46.59751" lon="6.36252"><ele></ele><time>2024-5-29T21:19:32Z</time></trkpt>
<trkpt lat="46.59745" lon="6.36243"><ele></ele><time>2024-5-29T21:19:35Z</time></trkpt>
<trkpt lat="46.59743" lon="6.36241"><ele></ele><time>2024-5-29T21:19:38Z</time></trkpt>
<trkpt lat="46.59741" lon="6.36236"><ele></ele><time>2024-5-29T21:19:41Z</time></trkpt>
<trkpt lat="46.59738" lon="6.36233"><ele></ele><time>2024-5-29T21:19:44Z</time></trkpt>
<trkpt lat="46.59737" lon="6.36232"><ele></ele><time>2024-5-29T21:19:47Z</time></trkpt>
<trkpt lat="46.59729" lon="6.36228"><ele></ele><time>2024-5-29T21:19:50Z</time></trkpt>
<trkpt lat="46.59726" lon="6.36226"><ele></ele><time>2024-5-29T21:19:53Z</time></trkpt>
<trkpt lat="46.59717" lon="6.36224"><ele></ele><time>2024-5-29T21:19:56Z</time></trkpt>
<trkpt lat="46.59716" lon="6.36224"><ele></ele><time>2024-5-29T21:19:59Z</time></trkpt>
<trkpt lat="46.59707" lon="6.36223"><ele></ele><time>2024-5-29T21:20:2Z</time></trkpt>
<trkpt lat="46.59704" lon="6.36223"><ele></ele><time>2024-5-29T21:20:5Z</time></trkpt>
<trkpt lat="46.59696" lon="6.36223"><ele></ele><time>2024-5-29T21:20:8Z</time></trkpt>
<trkpt lat="46.59692" lon="6.36223"><ele></ele><time>2024-5-29T21:20:11Z</time></trkpt>
<trkpt lat="46.59685" lon="6.3622"><ele></ele><time>2024-5-29T21:20:14Z</time></trkpt>
<trkpt lat="46.59683" lon="6.36219"><ele></ele><time>2024-5-29T21:20:17Z</time></trkpt>
<trkpt lat="46.59673" lon="6.36215"><ele></ele><time>2024-5-29T21:20:20Z</time></trkpt>
<trkpt lat="46.59663" lon="6.3621"><ele></ele><time>2024-5-29T21:20:23Z</time></trkpt>
<trkpt lat="46.59663" lon="6.36208"><ele></ele><time>2024-5-29T21:20:26Z</time></trkpt>
<trkpt lat="46.5966" lon="6.36196"><ele></ele><time>2024-5-29T21:20:29Z</time></trkpt>
<trkpt lat="46.5966" lon="6.36193"><ele></ele><time>2024-5-29T21:20:32Z</time></trkpt>
<trkpt lat="46.59666" lon="6.3618"><ele></ele><time>2024-5-29T21:20:35Z</time></trkpt>
<trkpt lat="46.59671" lon="6.36178"><ele></ele><time>2024-5-29T21:20:38Z</time></trkpt>
<trkpt lat="46.59679" lon="6.36176"><ele></ele><time>2024-5-29T21:20:41Z</time></trkpt>
<trkpt lat="46.59682" lon="6.36177"><ele></ele><time>2024-5-29T21:20:44Z</time></trkpt>
<trkpt lat="46.5969" lon="6.36178"><ele></ele><time>2024-5-29T21:20:47Z</time></trkpt>
<trkpt lat="46.59695" lon="6.36178"><ele></ele><time>2024-5-29T21:20:50Z</time></trkpt>
<trkpt lat="46.597" lon="6.36179"><ele></ele><time>2024-5-29T21:20:53Z</time></trkpt>
<trkpt lat="46.59706" lon="6.36179"><ele></ele><time>2024-5-29T21:20:56Z</time></trkpt>
<trkpt lat="46.59709" lon="6.36178"><ele></ele><time>2024-5-29T21:20:59Z</time></trkpt>
<trkpt lat="46.5971" lon="6.36178"><ele></ele><time>2024-5-29T21:21:2Z</time></trkpt>
<trkpt lat="46.59711" lon="6.36177"><ele></ele><time>2024-5-29T21:21:5Z</time></trkpt>
<trkpt lat="46.59712" lon="6.36177"><ele></ele><time>2024-5-29T21:21:8Z</time></trkpt>
<trkpt lat="46.59716" lon="6.36179"><ele></ele><time>2024-5-29T21:21:11Z</time></trkpt>
<trkpt lat="46.59719" lon="6.36179"><ele></ele><time>2024-5-29T21:21:14Z</time></trkpt>
<trkpt lat="46.59728" lon="6.3618"><ele></ele><time>2024-5-29T21:21:17Z</time></trkpt>
<trkpt lat="46.59731" lon="6.3618"><ele></ele><time>2024-5-29T21:21:20Z</time></trkpt>
<trkpt lat="46.59738" lon="6.36179"><ele></ele><time>2024-5-29T21:21:23Z</time></trkpt>
<trkpt lat="46.59741" lon="6.36178"><ele></ele><time>2024-5-29T21:21:26Z</time></trkpt>
<trkpt lat="46.59748" lon="6.36177"><ele></ele><time>2024-5-29T21:21:29Z</time></trkpt>
<trkpt lat="46.59751" lon="6.36176"><ele></ele><time>2024-5-29T21:21:32Z</time></trkpt>
<trkpt lat="46.59759" lon="6.36175"><ele></ele><time>2024-5-29T21:21:35Z</time></trkpt>
<trkpt lat="46.59763" lon="6.36174"><ele></ele><time>2024-5-29T21:21:38Z</time></trkpt>
<trkpt lat="46.59771" lon="6.36172"><ele></ele><time>2024-5-29T21:21:41Z</time></trkpt>
<trkpt lat="46.59778" lon="6.36173"><ele></ele><time>2024-5-29T21:21:44Z</time></trkpt>
<trkpt lat="46.59781" lon="6.36174"><ele></ele><time>2024-5-29T21:21:47Z</time></trkpt>
<trkpt lat="46.59782" lon="6.36174"><ele></ele><time>2024-5-29T21:21:50Z</time></trkpt>
<trkpt lat="46.59791" lon="6.36173"><ele></ele><time>2024-5-29T21:21:53Z</time></trkpt>
<trkpt lat="46.59793" lon="6.36172"><ele></ele><time>2024-5-29T21:21:56Z</time></trkpt>
<trkpt lat="46.598" lon="6.36172"><ele></ele><time>2024-5-29T21:21:59Z</time></trkpt>
<trkpt lat="46.59804" lon="6.36173"><ele></ele><time>2024-5-29T21:22:2Z</time></trkpt>
<trkpt lat="46.59809" lon="6.36172"><ele></ele><time>2024-5-29T21:22:5Z</time></trkpt>
<trkpt lat="46.59816" lon="6.36168"><ele></ele><time>2024-5-29T21:22:8Z</time></trkpt>
<trkpt lat="46.5982" lon="6.36169"><ele></ele><time>2024-5-29T21:22:11Z</time></trkpt>
<trkpt lat="46.59826" lon="6.36169"><ele></ele><time>2024-5-29T21:22:14Z</time></trkpt>
<trkpt lat="46.59831" lon="6.36169"><ele></ele><time>2024-5-29T21:22:17Z</time></trkpt>
<trkpt lat="46.59838" lon="6.3617"><ele></ele><time>2024-5-29T21:22:20Z</time></trkpt>
<trkpt lat="46.5984" lon="6.3617"><ele></ele><time>2024-5-29T21:22:23Z</time></trkpt>
<trkpt lat="46.59849" lon="6.36171"><ele></ele><time>2024-5-29T21:22:26Z</time></trkpt>
<trkpt lat="46.59857" lon="6.36166"><ele></ele><time>2024-5-29T21:22:29Z</time></trkpt>
<trkpt lat="46.59863" lon="6.36158"><ele></ele><time>2024-5-29T21:22:32Z</time></trkpt>
<trkpt lat="46.59864" lon="6.36156"><ele></ele><time>2024-5-29T21:22:35Z</time></trkpt>
<trkpt lat="46.59867" lon="6.36144"><ele></ele><time>2024-5-29T21:22:38Z</time></trkpt>
<trkpt lat="46.5987" lon="6.36131"><ele></ele><time>2024-5-29T21:22:41Z</time></trkpt>
<trkpt lat="46.59871" lon="6.36129"><ele></ele><time>2024-5-29T21:22:44Z</time></trkpt>
<trkpt lat="46.59873" lon="6.36117"><ele></ele><time>2024-5-29T21:22:47Z</time></trkpt>
<trkpt lat="46.59873" lon="6.36115"><ele></ele><time>2024-5-29T21:22:50Z</time></trkpt>
<trkpt lat="46.59875" lon="6.36106"><ele></ele><time>2024-5-29T21:22:53Z</time></trkpt>
<trkpt lat="46.59876" lon="6.36103"><ele></ele><time>2024-5-29T21:22:56Z</time></trkpt>
<trkpt lat="46.59878" lon="6.36092"><ele></ele><time>2024-5-29T21:22:59Z</time></trkpt>
<trkpt lat="46.5988" lon="6.36085"><ele></ele><time>2024-5-29T21:23:2Z</time></trkpt>
<trkpt lat="46.5988" lon="6.3608"><ele></ele><time>2024-5-29T21:23:5Z</time></trkpt>
<trkpt lat="46.59881" lon="6.36078"><ele></ele><time>2024-5-29T21:23:8Z</time></trkpt>
<trkpt lat="46.59881" lon="6.36076"><ele></ele><time>2024-5-29T21:23:11Z</time></trkpt>
<trkpt lat="46.59883" lon="6.36065"><ele></ele><time>2024-5-29T21:23:14Z</time></trkpt>
<trkpt lat="46.59884" lon="6.36062"><ele></ele><time>2024-5-29T21:23:17Z</time></trkpt>
<trkpt lat="46.59887" lon="6.36054"><ele></ele><time>2024-5-29T21:23:20Z</time></trkpt>
<trkpt lat="46.59889" lon="6.36049"><ele></ele><time>2024-5-29T21:23:23Z</time></trkpt>
<trkpt lat="46.59891" lon="6.36042"><ele></ele><time>2024-5-29T21:23:26Z</time></trkpt>
<trkpt lat="46.59894" lon="6.36034"><ele></ele><time>2024-5-29T21:23:29Z</time></trkpt>
<trkpt lat="46.59894" lon="6.36032"><ele></ele><time>2024-5-29T21:23:32Z</time></trkpt>
<trkpt lat="46.59896" lon="6.36027"><ele></ele><time>2024-5-29T21:23:35Z</time></trkpt>
<trkpt lat="46.59898" lon="6.3602"><ele></ele><time>2024-5-29T21:23:38Z</time></trkpt>
<trkpt lat="46.59901" lon="6.36015"><ele></ele><time>2024-5-29T21:23:41Z</time></trkpt>
<trkpt lat="46.59903" lon="6.3601"><ele></ele><time>2024-5-29T21:23:44Z</time></trkpt>
<trkpt lat="46.59906" lon="6.36005"><ele></ele><time>2024-5-29T21:23:47Z</time></trkpt>
<trkpt lat="46.59909" lon="6.36"><ele></ele><time>2024-5-29T21:23:50Z</time></trkpt>
<trkpt lat="46.59911" lon="6.35995"><ele></ele><time>2024-5-29T21:23:53Z</time></trkpt>
<trkpt lat="46.59915" lon="6.35986"><ele></ele><time>2024-5-29T21:23:56Z</time></trkpt>
<trkpt lat="46.59917" lon="6.35984"><ele></ele><time>2024-5-29T21:23:59Z</time></trkpt>
<trkpt lat="46.59921" lon="6.35977"><ele></ele><time>2024-5-29T21:24:2Z</time></trkpt>
<trkpt lat="46.59923" lon="6.35974"><ele></ele><time>2024-5-29T21:24:5Z</time></trkpt>
<trkpt lat="46.59926" lon="6.35967"><ele></ele><time>2024-5-29T21:24:8Z</time></trkpt>
<trkpt lat="46.59928" lon="6.35962"><ele></ele><time>2024-5-29T21:24:11Z</time></trkpt>
<trkpt lat="46.59932" lon="6.35957"><ele></ele><time>2024-5-29T21:24:14Z</time></trkpt>
<trkpt lat="46.59935" lon="6.35951"><ele></ele><time>2024-5-29T21:24:17Z</time></trkpt>
<trkpt lat="46.59939" lon="6.35945"><ele></ele><time>2024-5-29T21:24:20Z</time></trkpt>
<trkpt lat="46.5994" lon="6.35942"><ele></ele><time>2024-5-29T21:24:23Z</time></trkpt>
<trkpt lat="46.59943" lon="6.35933"><ele></ele><time>2024-5-29T21:24:26Z</time></trkpt>
<trkpt lat="46.59946" lon="6.3593"><ele></ele><time>2024-5-29T21:24:29Z</time></trkpt>
<trkpt lat="46.5995" lon="6.35921"><ele></ele><time>2024-5-29T21:24:32Z</time></trkpt>
<trkpt lat="46.59951" lon="6.3592"><ele></ele><time>2024-5-29T21:24:35Z</time></trkpt>
<trkpt lat="46.59955" lon="6.3591"><ele></ele><time>2024-5-29T21:24:38Z</time></trkpt>
<trkpt lat="46.5996" lon="6.35899"><ele></ele><time>2024-5-29T21:24:41Z</time></trkpt>
<trkpt lat="46.59966" lon="6.35891"><ele></ele><time>2024-5-29T21:24:44Z</time></trkpt>
<trkpt lat="46.59967" lon="6.35889"><ele></ele><time>2024-5-29T21:24:47Z</time></trkpt>
<trkpt lat="46.59974" lon="6.3588"><ele></ele><time>2024-5-29T21:24:50Z</time></trkpt>
<trkpt lat="46.59976" lon="6.35879"><ele></ele><time>2024-5-29T21:24:53Z</time></trkpt>
<trkpt lat="46.5998" lon="6.35877"><ele></ele><time>2024-5-29T21:24:56Z</time></trkpt>
<trkpt lat="46.59985" lon="6.35875"><ele></ele><time>2024-5-29T21:24:59Z</time></trkpt>
<trkpt lat="46.59986" lon="6.35875"><ele></ele><time>2024-5-29T21:25:2Z</time></trkpt>
<trkpt lat="46.59994" lon="6.35882"><ele></ele><time>2024-5-29T21:25:5Z</time></trkpt>
<trkpt lat="46.59995" lon="6.35884"><ele></ele><time>2024-5-29T21:25:8Z</time></trkpt>
<trkpt lat="46.60001" lon="6.35898"><ele></ele><time>2024-5-29T21:25:11Z</time></trkpt>
<trkpt lat="46.60005" lon="6.3591"><ele></ele><time>2024-5-29T21:25:14Z</time></trkpt>
<trkpt lat="46.60006" lon="6.35912"><ele></ele><time>2024-5-29T21:25:17Z</time></trkpt>
<trkpt lat="46.60008" lon="6.35915"><ele></ele><time>2024-5-29T21:25:20Z</time></trkpt>
<trkpt lat="46.60009" lon="6.35917"><ele></ele><time>2024-5-29T21:25:23Z</time></trkpt>
<trkpt lat="46.60009" lon="6.35918"><ele></ele><time>2024-5-29T21:25:26Z</time></trkpt>
<trkpt lat="46.6001" lon="6.3592"><ele></ele><time>2024-5-29T21:25:29Z</time></trkpt>
<trkpt lat="46.60011" lon="6.35923"><ele></ele><time>2024-5-29T21:25:32Z</time></trkpt>
<trkpt lat="46.60013" lon="6.35929"><ele></ele><time>2024-5-29T21:25:35Z</time></trkpt>
<trkpt lat="46.60013" lon="6.35931"><ele></ele><time>2024-5-29T21:25:38Z</time></trkpt>
<trkpt lat="46.60016" lon="6.35932"><ele></ele><time>2024-5-29T21:25:41Z</time></trkpt>
<trkpt lat="46.60018" lon="6.35932"><ele></ele><time>2024-5-29T21:25:44Z</time></trkpt>
<trkpt lat="46.60018" lon="6.35931"><ele></ele><time>2024-5-29T21:25:47Z</time></trkpt>
<trkpt lat="46.6002" lon="6.35928"><ele></ele><time>2024-5-29T21:25:50Z</time></trkpt>
<trkpt lat="46.60022" lon="6.35929"><ele></ele><time>2024-5-29T21:25:53Z</time></trkpt>
<trkpt lat="46.60023" lon="6.35929"><ele></ele><time>2024-5-29T21:25:56Z</time></trkpt>
<trkpt lat="46.60025" lon="6.35924"><ele></ele><time>2024-5-29T21:25:59Z</time></trkpt>
<trkpt lat="46.60026" lon="6.35918"><ele></ele><time>2024-5-29T21:26:2Z</time></trkpt>
<trkpt lat="46.60025" lon="6.35912"><ele></ele><time>2024-5-29T21:26:5Z</time></trkpt>
<trkpt lat="46.60024" lon="6.35907"><ele></ele><time>2024-5-29T21:26:8Z</time></trkpt>
<trkpt lat="46.6002" lon="6.35903"><ele></ele><time>2024-5-29T21:26:11Z</time></trkpt>
<trkpt lat="46.60016" lon="6.35896"><ele></ele><time>2024-5-29T21:26:14Z</time></trkpt>
<trkpt lat="46.60015" lon="6.35893"><ele></ele><time>2024-5-29T21:26:17Z</time></trkpt>
<trkpt lat="46.60013" lon="6.35882"><ele></ele><time>2024-5-29T21:26:20Z</time></trkpt>
<trkpt lat="46.60013" lon="6.35868"><ele></ele><time>2024-5-29T21:26:23Z</time></trkpt>
<trkpt lat="46.60013" lon="6.35866"><ele></ele><time>2024-5-29T21:26:26Z</time></trkpt>
<trkpt lat="46.60013" lon="6.35861"><ele></ele><time>2024-5-29T21:26:29Z</time></trkpt>
<trkpt lat="46.60013" lon="6.35851"><ele></ele><time>2024-5-29T21:26:32Z</time></trkpt>
<trkpt lat="46.60013" lon="6.35848"><ele></ele><time>2024-5-29T21:26:35Z</time></trkpt>
<trkpt lat="46.60013" lon="6.35839"><ele></ele><time>2024-5-29T21:26:38Z</time></trkpt>
<trkpt lat="46.60014" lon="6.35835"><ele></ele><time>2024-5-29T21:26:41Z</time></trkpt>
<trkpt lat="46.60015" lon="6.35827"><ele></ele><time>2024-5-29T21:26:44Z</time></trkpt>
<trkpt lat="46.60014" lon="6.35821"><ele></ele><time>2024-5-29T21:26:47Z</time></trkpt>
<trkpt lat="46.60014" lon="6.35814"><ele></ele><time>2024-5-29T21:26:50Z</time></trkpt>
<trkpt lat="46.60013" lon="6.35802"><ele></ele><time>2024-5-29T21:26:53Z</time></trkpt>
<trkpt lat="46.60013" lon="6.35799"><ele></ele><time>2024-5-29T21:26:56Z</time></trkpt>
<trkpt lat="46.60008" lon="6.35792"><ele></ele><time>2024-5-29T21:26:59Z</time></trkpt>
<trkpt lat="46.60008" lon="6.35793"><ele></ele><time>2024-5-29T21:27:2Z</time></trkpt>
<trkpt lat="46.60003" lon="6.35796"><ele></ele><time>2024-5-29T21:27:5Z</time></trkpt>
<trkpt lat="46.59998" lon="6.358"><ele></ele><time>2024-5-29T21:27:8Z</time></trkpt>
<trkpt lat="46.59997" lon="6.35802"><ele></ele><time>2024-5-29T21:27:11Z</time></trkpt>
<trkpt lat="46.59992" lon="6.35805"><ele></ele><time>2024-5-29T21:27:14Z</time></trkpt>
<trkpt lat="46.59991" lon="6.35805"><ele></ele><time>2024-5-29T21:27:17Z</time></trkpt>
<trkpt lat="46.59988" lon="6.3581"><ele></ele><time>2024-5-29T21:27:20Z</time></trkpt>
<trkpt lat="46.59987" lon="6.35812"><ele></ele><time>2024-5-29T21:27:23Z</time></trkpt>
<trkpt lat="46.59985" lon="6.35812"><ele></ele><time>2024-5-29T21:27:26Z</time></trkpt>
<trkpt lat="46.59981" lon="6.35815"><ele></ele><time>2024-5-29T21:27:29Z</time></trkpt>
<trkpt lat="46.59975" lon="6.35818"><ele></ele><time>2024-5-29T21:27:32Z</time></trkpt>
<trkpt lat="46.59973" lon="6.3582"><ele></ele><time>2024-5-29T21:27:35Z</time></trkpt>
<trkpt lat="46.59966" lon="6.35825"><ele></ele><time>2024-5-29T21:27:38Z</time></trkpt>
<trkpt lat="46.59964" lon="6.35826"><ele></ele><time>2024-5-29T21:27:41Z</time></trkpt>
<trkpt lat="46.59955" lon="6.3583"><ele></ele><time>2024-5-29T21:27:44Z</time></trkpt>
<trkpt lat="46.59943" lon="6.35836"><ele></ele><time>2024-5-29T21:27:47Z</time></trkpt>
<trkpt lat="46.59937" lon="6.35837"><ele></ele><time>2024-5-29T21:27:50Z</time></trkpt>
<trkpt lat="46.59931" lon="6.35838"><ele></ele><time>2024-5-29T21:27:53Z</time></trkpt>
<trkpt lat="46.59927" lon="6.35838"><ele></ele><time>2024-5-29T21:27:56Z</time></trkpt>
<trkpt lat="46.59923" lon="6.35837"><ele></ele><time>2024-5-29T21:27:59Z</time></trkpt>
<trkpt lat="46.59921" lon="6.35838"><ele></ele><time>2024-5-29T21:28:2Z</time></trkpt>
<trkpt lat="46.59919" lon="6.3584"><ele></ele><time>2024-5-29T21:28:5Z</time></trkpt>
<trkpt lat="46.59916" lon="6.35842"><ele></ele><time>2024-5-29T21:28:8Z</time></trkpt>
<trkpt lat="46.59911" lon="6.35844"><ele></ele><time>2024-5-29T21:28:11Z</time></trkpt>
<trkpt lat="46.59906" lon="6.35849"><ele></ele><time>2024-5-29T21:28:14Z</time></trkpt>
<trkpt lat="46.59903" lon="6.35852"><ele></ele><time>2024-5-29T21:28:17Z</time></trkpt>
<trkpt lat="46.59901" lon="6.35856"><ele></ele><time>2024-5-29T21:28:20Z</time></trkpt>
<trkpt lat="46.59897" lon="6.35859"><ele></ele><time>2024-5-29T21:28:23Z</time></trkpt>
<trkpt lat="46.59894" lon="6.35863"><ele></ele><time>2024-5-29T21:28:26Z</time></trkpt>
<trkpt lat="46.59886" lon="6.35869"><ele></ele><time>2024-5-29T21:28:29Z</time></trkpt>
<trkpt lat="46.59885" lon="6.3587"><ele></ele><time>2024-5-29T21:28:32Z</time></trkpt>
<trkpt lat="46.59876" lon="6.35876"><ele></ele><time>2024-5-29T21:28:35Z</time></trkpt>
<trkpt lat="46.59867" lon="6.35878"><ele></ele><time>2024-5-29T21:28:38Z</time></trkpt>
<trkpt lat="46.59858" lon="6.35878"><ele></ele><time>2024-5-29T21:28:41Z</time></trkpt>
<trkpt lat="46.59853" lon="6.3588"><ele></ele><time>2024-5-29T21:28:44Z</time></trkpt>
<trkpt lat="46.59847" lon="6.35881"><ele></ele><time>2024-5-29T21:28:47Z</time></trkpt>
<trkpt lat="46.5984" lon="6.35882"><ele></ele><time>2024-5-29T21:28:50Z</time></trkpt>
<trkpt lat="46.59835" lon="6.35881"><ele></ele><time>2024-5-29T21:28:53Z</time></trkpt>
<trkpt lat="46.59829" lon="6.35881"><ele></ele><time>2024-5-29T21:28:56Z</time></trkpt>
<trkpt lat="46.59825" lon="6.35879"><ele></ele><time>2024-5-29T21:28:59Z</time></trkpt>
<trkpt lat="46.59821" lon="6.35877"><ele></ele><time>2024-5-29T21:29:2Z</time></trkpt>
<trkpt lat="46.59817" lon="6.35875"><ele></ele><time>2024-5-29T21:29:5Z</time></trkpt>
<trkpt lat="46.5981" lon="6.35874"><ele></ele><time>2024-5-29T21:29:8Z</time></trkpt>
<trkpt lat="46.59806" lon="6.35872"><ele></ele><time>2024-5-29T21:29:11Z</time></trkpt>
<trkpt lat="46.59802" lon="6.35871"><ele></ele><time>2024-5-29T21:29:14Z</time></trkpt>
<trkpt lat="46.59796" lon="6.3587"><ele></ele><time>2024-5-29T21:29:17Z</time></trkpt>
<trkpt lat="46.59792" lon="6.3587"><ele></ele><time>2024-5-29T21:29:20Z</time></trkpt>
<trkpt lat="46.59787" lon="6.3587"><ele></ele><time>2024-5-29T21:29:23Z</time></trkpt>
<trkpt lat="46.59783" lon="6.35871"><ele></ele><time>2024-5-29T21:29:26Z</time></trkpt>
<trkpt lat="46.59778" lon="6.35875"><ele></ele><time>2024-5-29T21:29:29Z</time></trkpt>
<trkpt lat="46.59774" lon="6.35877"><ele></ele><time>2024-5-29T21:29:32Z</time></trkpt>
<trkpt lat="46.59772" lon="6.35879"><ele></ele><time>2024-5-29T21:29:35Z</time></trkpt>
<trkpt lat="46.59767" lon="6.35882"><ele></ele><time>2024-5-29T21:29:38Z</time></trkpt>
<trkpt lat="46.59762" lon="6.35883"><ele></ele><time>2024-5-29T21:29:41Z</time></trkpt>
<trkpt lat="46.59756" lon="6.35883"><ele></ele><time>2024-5-29T21:29:44Z</time></trkpt>
<trkpt lat="46.59752" lon="6.35881"><ele></ele><time>2024-5-29T21:29:47Z</time></trkpt>
<trkpt lat="46.59749" lon="6.35877"><ele></ele><time>2024-5-29T21:29:50Z</time></trkpt>
<trkpt lat="46.59748" lon="6.35872"><ele></ele><time>2024-5-29T21:29:53Z</time></trkpt>
<trkpt lat="46.59748" lon="6.35866"><ele></ele><time>2024-5-29T21:29:56Z</time></trkpt>
<trkpt lat="46.5975" lon="6.35861"><ele></ele><time>2024-5-29T21:29:59Z</time></trkpt>
<trkpt lat="46.59753" lon="6.35855"><ele></ele><time>2024-5-29T21:30:2Z</time></trkpt>
<trkpt lat="46.59757" lon="6.35851"><ele></ele><time>2024-5-29T21:30:5Z</time></trkpt>
<trkpt lat="46.59761" lon="6.35847"><ele></ele><time>2024-5-29T21:30:8Z</time></trkpt>
<trkpt lat="46.59766" lon="6.35844"><ele></ele><time>2024-5-29T21:30:11Z</time></trkpt>
<trkpt lat="46.59774" lon="6.35841"><ele></ele><time>2024-5-29T21:30:14Z</time></trkpt>
<trkpt lat="46.59776" lon="6.3584"><ele></ele><time>2024-5-29T21:30:17Z</time></trkpt>
<trkpt lat="46.59788" lon="6.35837"><ele></ele><time>2024-5-29T21:30:20Z</time></trkpt>
<trkpt lat="46.59789" lon="6.35836"><ele></ele><time>2024-5-29T21:30:23Z</time></trkpt>
<trkpt lat="46.59802" lon="6.3583"><ele></ele><time>2024-5-29T21:30:26Z</time></trkpt>
<trkpt lat="46.59807" lon="6.35827"><ele></ele><time>2024-5-29T21:30:29Z</time></trkpt>
<trkpt lat="46.59813" lon="6.35821"><ele></ele><time>2024-5-29T21:30:32Z</time></trkpt>
<trkpt lat="46.59816" lon="6.35817"><ele></ele><time>2024-5-29T21:30:35Z</time></trkpt>
<trkpt lat="46.59824" lon="6.35812"><ele></ele><time>2024-5-29T21:30:38Z</time></trkpt>
<trkpt lat="46.59828" lon="6.35809"><ele></ele><time>2024-5-29T21:30:41Z</time></trkpt>
<trkpt lat="46.59834" lon="6.35803"><ele></ele><time>2024-5-29T21:30:44Z</time></trkpt>
<trkpt lat="46.59837" lon="6.35798"><ele></ele><time>2024-5-29T21:30:47Z</time></trkpt>
<trkpt lat="46.59841" lon="6.35792"><ele></ele><time>2024-5-29T21:30:50Z</time></trkpt>
<trkpt lat="46.59845" lon="6.35786"><ele></ele><time>2024-5-29T21:30:53Z</time></trkpt>
<trkpt lat="46.59847" lon="6.3578"><ele></ele><time>2024-5-29T21:30:56Z</time></trkpt>
<trkpt lat="46.59849" lon="6.35773"><ele></ele><time>2024-5-29T21:30:59Z</time></trkpt>
<trkpt lat="46.59852" lon="6.35768"><ele></ele><time>2024-5-29T21:31:2Z</time></trkpt>
<trkpt lat="46.59854" lon="6.35764"><ele></ele><time>2024-5-29T21:31:5Z</time></trkpt>
<trkpt lat="46.59859" lon="6.35749"><ele></ele><time>2024-5-29T21:31:8Z</time></trkpt>
<trkpt lat="46.5986" lon="6.35745"><ele></ele><time>2024-5-29T21:31:11Z</time></trkpt>
<trkpt lat="46.59863" lon="6.35736"><ele></ele><time>2024-5-29T21:31:14Z</time></trkpt>
<trkpt lat="46.59863" lon="6.3573"><ele></ele><time>2024-5-29T21:31:17Z</time></trkpt>
<trkpt lat="46.59865" lon="6.35725"><ele></ele><time>2024-5-29T21:31:20Z</time></trkpt>
<trkpt lat="46.59866" lon="6.35715"><ele></ele><time>2024-5-29T21:31:23Z</time></trkpt>
<trkpt lat="46.59867" lon="6.3571"><ele></ele><time>2024-5-29T21:31:26Z</time></trkpt>
<trkpt lat="46.59869" lon="6.357"><ele></ele><time>2024-5-29T21:31:29Z</time></trkpt>
<trkpt lat="46.5987" lon="6.35694"><ele></ele><time>2024-5-29T21:31:32Z</time></trkpt>
<trkpt lat="46.59873" lon="6.35684"><ele></ele><time>2024-5-29T21:31:35Z</time></trkpt>
<trkpt lat="46.59875" lon="6.35678"><ele></ele><time>2024-5-29T21:31:38Z</time></trkpt>
<trkpt lat="46.59879" lon="6.35669"><ele></ele><time>2024-5-29T21:31:41Z</time></trkpt>
<trkpt lat="46.59879" lon="6.35667"><ele></ele><time>2024-5-29T21:31:44Z</time></trkpt>
<trkpt lat="46.59883" lon="6.35658"><ele></ele><time>2024-5-29T21:31:47Z</time></trkpt>
<trkpt lat="46.59885" lon="6.35655"><ele></ele><time>2024-5-29T21:31:50Z</time></trkpt>
<trkpt lat="46.59888" lon="6.35647"><ele></ele><time>2024-5-29T21:31:53Z</time></trkpt>
<trkpt lat="46.5989" lon="6.35643"><ele></ele><time>2024-5-29T21:31:56Z</time></trkpt>
<trkpt lat="46.59893" lon="6.35636"><ele></ele><time>2024-5-29T21:31:59Z</time></trkpt>
<trkpt lat="46.59894" lon="6.35635"><ele></ele><time>2024-5-29T21:32:2Z</time></trkpt>
<trkpt lat="46.59899" lon="6.35628"><ele></ele><time>2024-5-29T21:32:5Z</time></trkpt>
<trkpt lat="46.599" lon="6.35627"><ele></ele><time>2024-5-29T21:32:8Z</time></trkpt>
<trkpt lat="46.59907" lon="6.35624"><ele></ele><time>2024-5-29T21:32:11Z</time></trkpt>
<trkpt lat="46.59909" lon="6.35623"><ele></ele><time>2024-5-29T21:32:14Z</time></trkpt>
<trkpt lat="46.5991" lon="6.35622"><ele></ele><time>2024-5-29T21:32:17Z</time></trkpt>
<trkpt lat="46.59916" lon="6.35622"><ele></ele><time>2024-5-29T21:32:20Z</time></trkpt>
<trkpt lat="46.59918" lon="6.35621"><ele></ele><time>2024-5-29T21:32:23Z</time></trkpt>
<trkpt lat="46.59924" lon="6.3562"><ele></ele><time>2024-5-29T21:32:26Z</time></trkpt>
<trkpt lat="46.5993" lon="6.35617"><ele></ele><time>2024-5-29T21:32:29Z</time></trkpt>
<trkpt lat="46.59933" lon="6.35617"><ele></ele><time>2024-5-29T21:32:32Z</time></trkpt>
<trkpt lat="46.59933" lon="6.35616"><ele></ele><time>2024-5-29T21:32:35Z</time></trkpt>
<trkpt lat="46.59937" lon="6.35613"><ele></ele><time>2024-5-29T21:32:38Z</time></trkpt>
<trkpt lat="46.59938" lon="6.35612"><ele></ele><time>2024-5-29T21:32:41Z</time></trkpt>
<trkpt lat="46.5994" lon="6.35611"><ele></ele><time>2024-5-29T21:32:44Z</time></trkpt>
<trkpt lat="46.59941" lon="6.35611"><ele></ele><time>2024-5-29T21:32:47Z</time></trkpt>
<trkpt lat="46.59945" lon="6.35611"><ele></ele><time>2024-5-29T21:32:50Z</time></trkpt>
<trkpt lat="46.59946" lon="6.3561"><ele></ele><time>2024-5-29T21:32:53Z</time></trkpt>
<trkpt lat="46.5995" lon="6.35609"><ele></ele><time>2024-5-29T21:32:56Z</time></trkpt>
<trkpt lat="46.59953" lon="6.35608"><ele></ele><time>2024-5-29T21:32:59Z</time></trkpt>
<trkpt lat="46.5996" lon="6.35604"><ele></ele><time>2024-5-29T21:33:2Z</time></trkpt>
<trkpt lat="46.59962" lon="6.35601"><ele></ele><time>2024-5-29T21:33:5Z</time></trkpt>
<trkpt lat="46.59967" lon="6.35597"><ele></ele><time>2024-5-29T21:33:8Z</time></trkpt>
<trkpt lat="46.5997" lon="6.35597"><ele></ele><time>2024-5-29T21:33:11Z</time></trkpt>
<trkpt lat="46.59975" lon="6.35596"><ele></ele><time>2024-5-29T21:33:14Z</time></trkpt>
<trkpt lat="46.5998" lon="6.35594"><ele></ele><time>2024-5-29T21:33:17Z</time></trkpt>
<trkpt lat="46.59984" lon="6.35589"><ele></ele><time>2024-5-29T21:33:20Z</time></trkpt>
<trkpt lat="46.59986" lon="6.35586"><ele></ele><time>2024-5-29T21:33:23Z</time></trkpt>
<trkpt lat="46.5999" lon="6.35578"><ele></ele><time>2024-5-29T21:33:26Z</time></trkpt>
<trkpt lat="46.59993" lon="6.35571"><ele></ele><time>2024-5-29T21:33:29Z</time></trkpt>
<trkpt lat="46.59996" lon="6.35567"><ele></ele><time>2024-5-29T21:33:32Z</time></trkpt>
<trkpt lat="46.59997" lon="6.35566"><ele></ele><time>2024-5-29T21:33:35Z</time></trkpt>
<trkpt lat="46.6" lon="6.35561"><ele></ele><time>2024-5-29T21:33:38Z</time></trkpt>
<trkpt lat="46.60003" lon="6.35556"><ele></ele><time>2024-5-29T21:33:41Z</time></trkpt>
<trkpt lat="46.60005" lon="6.35553"><ele></ele><time>2024-5-29T21:33:44Z</time></trkpt>
<trkpt lat="46.6001" lon="6.35546"><ele></ele><time>2024-5-29T21:33:47Z</time></trkpt>
<trkpt lat="46.60011" lon="6.35544"><ele></ele><time>2024-5-29T21:33:50Z</time></trkpt>
<trkpt lat="46.60016" lon="6.35535"><ele></ele><time>2024-5-29T21:33:53Z</time></trkpt>
<trkpt lat="46.60016" lon="6.35534"><ele></ele><time>2024-5-29T21:33:56Z</time></trkpt>
<trkpt lat="46.6002" lon="6.35524"><ele></ele><time>2024-5-29T21:33:59Z</time></trkpt>
<trkpt lat="46.60021" lon="6.35521"><ele></ele><time>2024-5-29T21:34:2Z</time></trkpt>
<trkpt lat="46.60025" lon="6.35509"><ele></ele><time>2024-5-29T21:34:5Z</time></trkpt>
<trkpt lat="46.60029" lon="6.35499"><ele></ele><time>2024-5-29T21:34:8Z</time></trkpt>
<trkpt lat="46.60029" lon="6.35497"><ele></ele><time>2024-5-29T21:34:11Z</time></trkpt>
<trkpt lat="46.60032" lon="6.35484"><ele></ele><time>2024-5-29T21:34:14Z</time></trkpt>
<trkpt lat="46.60033" lon="6.35483"><ele></ele><time>2024-5-29T21:34:17Z</time></trkpt>
<trkpt lat="46.60041" lon="6.35477"><ele></ele><time>2024-5-29T21:34:20Z</time></trkpt>
<trkpt lat="46.60044" lon="6.35476"><ele></ele><time>2024-5-29T21:34:23Z</time></trkpt>
<trkpt lat="46.60055" lon="6.35476"><ele></ele><time>2024-5-29T21:34:26Z</time></trkpt>
<trkpt lat="46.60057" lon="6.35476"><ele></ele><time>2024-5-29T21:34:29Z</time></trkpt>
<trkpt lat="46.60063" lon="6.35479"><ele></ele><time>2024-5-29T21:34:32Z</time></trkpt>
<trkpt lat="46.6007" lon="6.35487"><ele></ele><time>2024-5-29T21:34:35Z</time></trkpt>
<trkpt lat="46.60077" lon="6.35495"><ele></ele><time>2024-5-29T21:34:38Z</time></trkpt>
<trkpt lat="46.60082" lon="6.35504"><ele></ele><time>2024-5-29T21:34:41Z</time></trkpt>
<trkpt lat="46.60084" lon="6.35508"><ele></ele><time>2024-5-29T21:34:44Z</time></trkpt>
<trkpt lat="46.60092" lon="6.3552"><ele></ele><time>2024-5-29T21:34:47Z</time></trkpt>
<trkpt lat="46.60093" lon="6.35521"><ele></ele><time>2024-5-29T21:34:50Z</time></trkpt>
<trkpt lat="46.60099" lon="6.3553"><ele></ele><time>2024-5-29T21:34:53Z</time></trkpt>
<trkpt lat="46.601" lon="6.35531"><ele></ele><time>2024-5-29T21:34:56Z</time></trkpt>
<trkpt lat="46.60107" lon="6.3554"><ele></ele><time>2024-5-29T21:34:59Z</time></trkpt>
<trkpt lat="46.60113" lon="6.35547"><ele></ele><time>2024-5-29T21:35:2Z</time></trkpt>
<trkpt lat="46.60115" lon="6.35548"><ele></ele><time>2024-5-29T21:35:5Z</time></trkpt>
<trkpt lat="46.60123" lon="6.35555"><ele></ele><time>2024-5-29T21:35:8Z</time></trkpt>
<trkpt lat="46.60126" lon="6.35558"><ele></ele><time>2024-5-29T21:35:11Z</time></trkpt>
<trkpt lat="46.60132" lon="6.35561"><ele></ele><time>2024-5-29T21:35:14Z</time></trkpt>
<trkpt lat="46.60134" lon="6.35561"><ele></ele><time>2024-5-29T21:35:17Z</time></trkpt>
<trkpt lat="46.60141" lon="6.35562"><ele></ele><time>2024-5-29T21:35:20Z</time></trkpt>
<trkpt lat="46.60143" lon="6.35562"><ele></ele><time>2024-5-29T21:35:23Z</time></trkpt>
<trkpt lat="46.60149" lon="6.35562"><ele></ele><time>2024-5-29T21:35:26Z</time></trkpt>
<trkpt lat="46.60151" lon="6.35561"><ele></ele><time>2024-5-29T21:35:29Z</time></trkpt>
<trkpt lat="46.60158" lon="6.35553"><ele></ele><time>2024-5-29T21:35:32Z</time></trkpt>
<trkpt lat="46.60159" lon="6.35553"><ele></ele><time>2024-5-29T21:35:35Z</time></trkpt>
<trkpt lat="46.60165" lon="6.35547"><ele></ele><time>2024-5-29T21:35:38Z</time></trkpt>
<trkpt lat="46.60167" lon="6.35545"><ele></ele><time>2024-5-29T21:35:41Z</time></trkpt>
<trkpt lat="46.60172" lon="6.35541"><ele></ele><time>2024-5-29T21:35:44Z</time></trkpt>
<trkpt lat="46.60174" lon="6.35538"><ele></ele><time>2024-5-29T21:35:47Z</time></trkpt>
<trkpt lat="46.60181" lon="6.35535"><ele></ele><time>2024-5-29T21:35:50Z</time></trkpt>
<trkpt lat="46.60191" lon="6.35541"><ele></ele><time>2024-5-29T21:35:53Z</time></trkpt>
<trkpt lat="46.60197" lon="6.35552"><ele></ele><time>2024-5-29T21:35:56Z</time></trkpt>
<trkpt lat="46.60202" lon="6.35562"><ele></ele><time>2024-5-29T21:35:59Z</time></trkpt>
<trkpt lat="46.60203" lon="6.35564"><ele></ele><time>2024-5-29T21:36:2Z</time></trkpt>
<trkpt lat="46.60209" lon="6.35571"><ele></ele><time>2024-5-29T21:36:5Z</time></trkpt>
<trkpt lat="46.60212" lon="6.35572"><ele></ele><time>2024-5-29T21:36:8Z</time></trkpt>
<trkpt lat="46.60218" lon="6.35569"><ele></ele><time>2024-5-29T21:36:11Z</time></trkpt>
<trkpt lat="46.60218" lon="6.35565"><ele></ele><time>2024-5-29T21:36:14Z</time></trkpt>
<trkpt lat="46.60219" lon="6.35563"><ele></ele><time>2024-5-29T21:36:17Z</time></trkpt>
<trkpt lat="46.60219" lon="6.3556"><ele></ele><time>2024-5-29T21:36:20Z</time></trkpt>
<trkpt lat="46.60219" lon="6.35555"><ele></ele><time>2024-5-29T21:36:23Z</time></trkpt>
<trkpt lat="46.60218" lon="6.35552"><ele></ele><time>2024-5-29T21:36:26Z</time></trkpt>
<trkpt lat="46.60217" lon="6.35546"><ele></ele><time>2024-5-29T21:36:29Z</time></trkpt>
<trkpt lat="46.60215" lon="6.35541"><ele></ele><time>2024-5-29T21:36:32Z</time></trkpt>
<trkpt lat="46.60211" lon="6.35531"><ele></ele><time>2024-5-29T21:36:35Z</time></trkpt>
<trkpt lat="46.60211" lon="6.35529"><ele></ele><time>2024-5-29T21:36:38Z</time></trkpt>
<trkpt lat="46.60206" lon="6.35518"><ele></ele><time>2024-5-29T21:36:41Z</time></trkpt>
<trkpt lat="46.60205" lon="6.35515"><ele></ele><time>2024-5-29T21:36:44Z</time></trkpt>
<trkpt lat="46.60203" lon="6.35509"><ele></ele><time>2024-5-29T21:36:47Z</time></trkpt>
<trkpt lat="46.60201" lon="6.35505"><ele></ele><time>2024-5-29T21:36:50Z</time></trkpt>
<trkpt lat="46.60201" lon="6.35504"><ele></ele><time>2024-5-29T21:36:53Z</time></trkpt>
<trkpt lat="46.60194" lon="6.35494"><ele></ele><time>2024-5-29T21:36:56Z</time></trkpt>
<trkpt lat="46.60191" lon="6.35492"><ele></ele><time>2024-5-29T21:36:59Z</time></trkpt>
<trkpt lat="46.60185" lon="6.3549"><ele></ele><time>2024-5-29T21:37:2Z</time></trkpt>
<trkpt lat="46.6018" lon="6.35488"><ele></ele><time>2024-5-29T21:37:5Z</time></trkpt>
<trkpt lat="46.60176" lon="6.35488"><ele></ele><time>2024-5-29T21:37:8Z</time></trkpt>
<trkpt lat="46.60168" lon="6.35487"><ele></ele><time>2024-5-29T21:37:11Z</time></trkpt>
<trkpt lat="46.60164" lon="6.35484"><ele></ele><time>2024-5-29T21:37:14Z</time></trkpt>
<trkpt lat="46.60158" lon="6.35479"><ele></ele><time>2024-5-29T21:37:17Z</time></trkpt>
<trkpt lat="46.60156" lon="6.35473"><ele></ele><time>2024-5-29T21:37:20Z</time></trkpt>
<trkpt lat="46.60153" lon="6.35465"><ele></ele><time>2024-5-29T21:37:23Z</time></trkpt>
<trkpt lat="46.60151" lon="6.35459"><ele></ele><time>2024-5-29T21:37:26Z</time></trkpt>
<trkpt lat="46.6015" lon="6.35453"><ele></ele><time>2024-5-29T21:37:29Z</time></trkpt>
<trkpt lat="46.60148" lon="6.35448"><ele></ele><time>2024-5-29T21:37:32Z</time></trkpt>
<trkpt lat="46.60148" lon="6.35447"><ele></ele><time>2024-5-29T21:37:35Z</time></trkpt>
<trkpt lat="46.60148" lon="6.35443"><ele></ele><time>2024-5-29T21:37:38Z</time></trkpt>
<trkpt lat="46.60149" lon="6.35434"><ele></ele><time>2024-5-29T21:37:41Z</time></trkpt>
<trkpt lat="46.60149" lon="6.35427"><ele></ele><time>2024-5-29T21:37:44Z</time></trkpt>
<trkpt lat="46.60148" lon="6.35418"><ele></ele><time>2024-5-29T21:37:47Z</time></trkpt>
<trkpt lat="46.60149" lon="6.35412"><ele></ele><time>2024-5-29T21:37:50Z</time></trkpt>
<trkpt lat="46.60149" lon="6.354"><ele></ele><time>2024-5-29T21:37:53Z</time></trkpt>
<trkpt lat="46.60149" lon="6.35393"><ele></ele><time>2024-5-29T21:37:56Z</time></trkpt>
<trkpt lat="46.60149" lon="6.35389"><ele></ele><time>2024-5-29T21:37:59Z</time></trkpt>
<trkpt lat="46.60149" lon="6.35388"><ele></ele><time>2024-5-29T21:38:2Z</time></trkpt>
<trkpt lat="46.60148" lon="6.35378"><ele></ele><time>2024-5-29T21:38:5Z</time></trkpt>
<trkpt lat="46.60148" lon="6.35377"><ele></ele><time>2024-5-29T21:38:8Z</time></trkpt>
<trkpt lat="46.60146" lon="6.35373"><ele></ele><time>2024-5-29T21:38:11Z</time></trkpt>
<trkpt lat="46.60145" lon="6.35372"><ele></ele><time>2024-5-29T21:38:14Z</time></trkpt>
<trkpt lat="46.60144" lon="6.35371"><ele></ele><time>2024-5-29T21:38:17Z</time></trkpt>
<trkpt lat="46.60144" lon="6.35361"><ele></ele><time>2024-5-29T21:38:20Z</time></trkpt>
<trkpt lat="46.60143" lon="6.35361"><ele></ele><time>2024-5-29T21:38:23Z</time></trkpt>
<trkpt lat="46.60139" lon="6.35355"><ele></ele><time>2024-5-29T21:38:26Z</time></trkpt>
<trkpt lat="46.60138" lon="6.35355"><ele></ele><time>2024-5-29T21:38:29Z</time></trkpt>
<trkpt lat="46.60137" lon="6.35353"><ele></ele><time>2024-5-29T21:38:32Z</time></trkpt>
<trkpt lat="46.60136" lon="6.35351"><ele></ele><time>2024-5-29T21:38:35Z</time></trkpt>
<trkpt lat="46.60134" lon="6.35343"><ele></ele><time>2024-5-29T21:38:38Z</time></trkpt>
<trkpt lat="46.60133" lon="6.35342"><ele></ele><time>2024-5-29T21:38:41Z</time></trkpt>
<trkpt lat="46.60131" lon="6.35332"><ele></ele><time>2024-5-29T21:38:44Z</time></trkpt>
<trkpt lat="46.6013" lon="6.35326"><ele></ele><time>2024-5-29T21:38:47Z</time></trkpt>
<trkpt lat="46.60128" lon="6.3532"><ele></ele><time>2024-5-29T21:38:50Z</time></trkpt>
<trkpt lat="46.60126" lon="6.35313"><ele></ele><time>2024-5-29T21:38:53Z</time></trkpt>
<trkpt lat="46.60126" lon="6.35308"><ele></ele><time>2024-5-29T21:38:56Z</time></trkpt>
<trkpt lat="46.60124" lon="6.35297"><ele></ele><time>2024-5-29T21:38:59Z</time></trkpt>
<trkpt lat="46.60123" lon="6.35295"><ele></ele><time>2024-5-29T21:39:2Z</time></trkpt>
<trkpt lat="46.60122" lon="6.35287"><ele></ele><time>2024-5-29T21:39:5Z</time></trkpt>
<trkpt lat="46.6012" lon="6.35281"><ele></ele><time>2024-5-29T21:39:8Z</time></trkpt>
<trkpt lat="46.60119" lon="6.35276"><ele></ele><time>2024-5-29T21:39:11Z</time></trkpt>
<trkpt lat="46.60115" lon="6.35273"><ele></ele><time>2024-5-29T21:39:14Z</time></trkpt>
<trkpt lat="46.60112" lon="6.35274"><ele></ele><time>2024-5-29T21:39:17Z</time></trkpt>
<trkpt lat="46.60105" lon="6.35274"><ele></ele><time>2024-5-29T21:39:20Z</time></trkpt>
<trkpt lat="46.60104" lon="6.35275"><ele></ele><time>2024-5-29T21:39:23Z</time></trkpt>
<trkpt lat="46.60094" lon="6.35277"><ele></ele><time>2024-5-29T21:39:26Z</time></trkpt>
<trkpt lat="46.60085" lon="6.35278"><ele></ele><time>2024-5-29T21:39:29Z</time></trkpt>
<trkpt lat="46.60083" lon="6.35278"><ele></ele><time>2024-5-29T21:39:32Z</time></trkpt>
<trkpt lat="46.60075" lon="6.35273"><ele></ele><time>2024-5-29T21:39:35Z</time></trkpt>
<trkpt lat="46.60074" lon="6.35272"><ele></ele><time>2024-5-29T21:39:38Z</time></trkpt>
<trkpt lat="46.60067" lon="6.35266"><ele></ele><time>2024-5-29T21:39:41Z</time></trkpt>
<trkpt lat="46.60062" lon="6.35254"><ele></ele><time>2024-5-29T21:39:44Z</time></trkpt>
<trkpt lat="46.6006" lon="6.35252"><ele></ele><time>2024-5-29T21:39:47Z</time></trkpt>
<trkpt lat="46.60055" lon="6.35243"><ele></ele><time>2024-5-29T21:39:50Z</time></trkpt>
<trkpt lat="46.60054" lon="6.35241"><ele></ele><time>2024-5-29T21:39:53Z</time></trkpt>
<trkpt lat="46.6005" lon="6.35234"><ele></ele><time>2024-5-29T21:39:56Z</time></trkpt>
<trkpt lat="46.6005" lon="6.35232"><ele></ele><time>2024-5-29T21:39:59Z</time></trkpt>
<trkpt lat="46.60049" lon="6.35229"><ele></ele><time>2024-5-29T21:40:2Z</time></trkpt>
<trkpt lat="46.60047" lon="6.35227"><ele></ele><time>2024-5-29T21:40:5Z</time></trkpt>
<trkpt lat="46.60044" lon="6.35223"><ele></ele><time>2024-5-29T21:40:8Z</time></trkpt>
<trkpt lat="46.60042" lon="6.3522"><ele></ele><time>2024-5-29T21:40:11Z</time></trkpt>
<trkpt lat="46.60038" lon="6.35213"><ele></ele><time>2024-5-29T21:40:14Z</time></trkpt>
<trkpt lat="46.60035" lon="6.35205"><ele></ele><time>2024-5-29T21:40:17Z</time></trkpt>
<trkpt lat="46.60033" lon="6.352"><ele></ele><time>2024-5-29T21:40:20Z</time></trkpt>
<trkpt lat="46.60033" lon="6.35198"><ele></ele><time>2024-5-29T21:40:23Z</time></trkpt>
<trkpt lat="46.60032" lon="6.35197"><ele></ele><time>2024-5-29T21:40:26Z</time></trkpt>
<trkpt lat="46.6003" lon="6.35194"><ele></ele><time>2024-5-29T21:40:29Z</time></trkpt>
<trkpt lat="46.60025" lon="6.35189"><ele></ele><time>2024-5-29T21:40:32Z</time></trkpt>
<trkpt lat="46.60023" lon="6.35187"><ele></ele><time>2024-5-29T21:40:35Z</time></trkpt>
<trkpt lat="46.60017" lon="6.35183"><ele></ele><time>2024-5-29T21:40:38Z</time></trkpt>
<trkpt lat="46.60015" lon="6.35183"><ele></ele><time>2024-5-29T21:40:41Z</time></trkpt>
<trkpt lat="46.6001" lon="6.35181"><ele></ele><time>2024-5-29T21:40:44Z</time></trkpt>
<trkpt lat="46.60008" lon="6.35181"><ele></ele><time>2024-5-29T21:40:47Z</time></trkpt>
<trkpt lat="46.60008" lon="6.35182"><ele></ele><time>2024-5-29T21:40:50Z</time></trkpt>
<trkpt lat="46.60003" lon="6.35183"><ele></ele><time>2024-5-29T21:40:53Z</time></trkpt>
<trkpt lat="46.6" lon="6.35183"><ele></ele><time>2024-5-29T21:40:56Z</time></trkpt>
<trkpt lat="46.59997" lon="6.35185"><ele></ele><time>2024-5-29T21:40:59Z</time></trkpt>
<trkpt lat="46.59992" lon="6.35184"><ele></ele><time>2024-5-29T21:41:2Z</time></trkpt>
<trkpt lat="46.59989" lon="6.35183"><ele></ele><time>2024-5-29T21:41:5Z</time></trkpt>
<trkpt lat="46.59985" lon="6.35186"><ele></ele><time>2024-5-29T21:41:8Z</time></trkpt>
<trkpt lat="46.5998" lon="6.35188"><ele></ele><time>2024-5-29T21:41:11Z</time></trkpt>
<trkpt lat="46.59977" lon="6.35187"><ele></ele><time>2024-5-29T21:41:14Z</time></trkpt>
<trkpt lat="46.59972" lon="6.3519"><ele></ele><time>2024-5-29T21:41:17Z</time></trkpt>
<trkpt lat="46.59968" lon="6.35191"><ele></ele><time>2024-5-29T21:41:20Z</time></trkpt>
<trkpt lat="46.59962" lon="6.35195"><ele></ele><time>2024-5-29T21:41:23Z</time></trkpt>
<trkpt lat="46.59961" lon="6.35196"><ele></ele><time>2024-5-29T21:41:26Z</time></trkpt>
<trkpt lat="46.59957" lon="6.35198"><ele></ele><time>2024-5-29T21:41:29Z</time></trkpt>
<trkpt lat="46.59955" lon="6.352"><ele></ele><time>2024-5-29T21:41:32Z</time></trkpt>
<trkpt lat="46.59953" lon="6.35202"><ele></ele><time>2024-5-29T21:41:35Z</time></trkpt>
<trkpt lat="46.59948" lon="6.35207"><ele></ele><time>2024-5-29T21:41:38Z</time></trkpt>
<trkpt lat="46.59944" lon="6.35209"><ele></ele><time>2024-5-29T21:41:41Z</time></trkpt>
<trkpt lat="46.59938" lon="6.35211"><ele></ele><time>2024-5-29T21:41:44Z</time></trkpt>
<trkpt lat="46.59937" lon="6.35212"><ele></ele><time>2024-5-29T21:41:47Z</time></trkpt>
<trkpt lat="46.5993" lon="6.35215"><ele></ele><time>2024-5-29T21:41:50Z</time></trkpt>
<trkpt lat="46.59928" lon="6.35215"><ele></ele><time>2024-5-29T21:41:53Z</time></trkpt>
<trkpt lat="46.5992" lon="6.35215"><ele></ele><time>2024-5-29T21:41:56Z</time></trkpt>
<trkpt lat="46.59919" lon="6.35216"><ele></ele><time>2024-5-29T21:41:59Z</time></trkpt>
<trkpt lat="46.5991" lon="6.35221"><ele></ele><time>2024-5-29T21:42:2Z</time></trkpt>
<trkpt lat="46.59907" lon="6.35222"><ele></ele><time>2024-5-29T21:42:5Z</time></trkpt>
<trkpt lat="46.59901" lon="6.35224"><ele></ele><time>2024-5-29T21:42:8Z</time></trkpt>
<trkpt lat="46.59898" lon="6.35226"><ele></ele><time>2024-5-29T21:42:11Z</time></trkpt>
<trkpt lat="46.59892" lon="6.35228"><ele></ele><time>2024-5-29T21:42:14Z</time></trkpt>
<trkpt lat="46.59886" lon="6.35229"><ele></ele><time>2024-5-29T21:42:17Z</time></trkpt>
<trkpt lat="46.59881" lon="6.35231"><ele></ele><time>2024-5-29T21:42:20Z</time></trkpt>
<trkpt lat="46.59879" lon="6.35231"><ele></ele><time>2024-5-29T21:42:23Z</time></trkpt>
<trkpt lat="46.59877" lon="6.35233"><ele></ele><time>2024-5-29T21:42:26Z</time></trkpt>
<trkpt lat="46.59872" lon="6.35235"><ele></ele><time>2024-5-29T21:42:29Z</time></trkpt>
<trkpt lat="46.59871" lon="6.35236"><ele></ele><time>2024-5-29T21:42:32Z</time></trkpt>
<trkpt lat="46.59865" lon="6.35238"><ele></ele><time>2024-5-29T21:42:35Z</time></trkpt>
<trkpt lat="46.59862" lon="6.35239"><ele></ele><time>2024-5-29T21:42:38Z</time></trkpt>
<trkpt lat="46.5986" lon="6.3524"><ele></ele><time>2024-5-29T21:42:41Z</time></trkpt>
<trkpt lat="46.59853" lon="6.35242"><ele></ele><time>2024-5-29T21:42:44Z</time></trkpt>
<trkpt lat="46.59851" lon="6.35243"><ele></ele><time>2024-5-29T21:42:47Z</time></trkpt>
<trkpt lat="46.59845" lon="6.35244"><ele></ele><time>2024-5-29T21:42:50Z</time></trkpt>
<trkpt lat="46.59843" lon="6.35244"><ele></ele><time>2024-5-29T21:42:53Z</time></trkpt>
<trkpt lat="46.59836" lon="6.35247"><ele></ele><time>2024-5-29T21:42:56Z</time></trkpt>
<trkpt lat="46.59835" lon="6.35248"><ele></ele><time>2024-5-29T21:42:59Z</time></trkpt>
<trkpt lat="46.59828" lon="6.35253"><ele></ele><time>2024-5-29T21:43:2Z</time></trkpt>
<trkpt lat="46.59827" lon="6.35254"><ele></ele><time>2024-5-29T21:43:5Z</time></trkpt>
<trkpt lat="46.59822" lon="6.35259"><ele></ele><time>2024-5-29T21:43:8Z</time></trkpt>
<trkpt lat="46.59822" lon="6.35261"><ele></ele><time>2024-5-29T21:43:11Z</time></trkpt>
<trkpt lat="46.59813" lon="6.35269"><ele></ele><time>2024-5-29T21:43:14Z</time></trkpt>
<trkpt lat="46.59806" lon="6.35274"><ele></ele><time>2024-5-29T21:43:17Z</time></trkpt>
<trkpt lat="46.59805" lon="6.35275"><ele></ele><time>2024-5-29T21:43:20Z</time></trkpt>
<trkpt lat="46.59797" lon="6.35281"><ele></ele><time>2024-5-29T21:43:23Z</time></trkpt>
<trkpt lat="46.59796" lon="6.35281"><ele></ele><time>2024-5-29T21:43:26Z</time></trkpt>
<trkpt lat="46.59789" lon="6.35288"><ele></ele><time>2024-5-29T21:43:29Z</time></trkpt>
<trkpt lat="46.59786" lon="6.35289"><ele></ele><time>2024-5-29T21:43:32Z</time></trkpt>
<trkpt lat="46.5978" lon="6.35295"><ele></ele><time>2024-5-29T21:43:35Z</time></trkpt>
<trkpt lat="46.59778" lon="6.35297"><ele></ele><time>2024-5-29T21:43:38Z</time></trkpt>
<trkpt lat="46.59771" lon="6.35303"><ele></ele><time>2024-5-29T21:43:41Z</time></trkpt>
<trkpt lat="46.59769" lon="6.35306"><ele></ele><time>2024-5-29T21:43:44Z</time></trkpt>
<trkpt lat="46.59763" lon="6.35312"><ele></ele><time>2024-5-29T21:43:47Z</time></trkpt>
<trkpt lat="46.59762" lon="6.35313"><ele></ele><time>2024-5-29T21:43:50Z</time></trkpt>
<trkpt lat="46.59754" lon="6.35319"><ele></ele><time>2024-5-29T21:43:53Z</time></trkpt>
<trkpt lat="46.59753" lon="6.3532"><ele></ele><time>2024-5-29T21:43:56Z</time></trkpt>
<trkpt lat="46.59742" lon="6.35326"><ele></ele><time>2024-5-29T21:43:59Z</time></trkpt>
<trkpt lat="46.59739" lon="6.35327"><ele></ele><time>2024-5-29T21:44:2Z</time></trkpt>
<trkpt lat="46.59729" lon="6.35332"><ele></ele><time>2024-5-29T21:44:5Z</time></trkpt>
<trkpt lat="46.59728" lon="6.35332"><ele></ele><time>2024-5-29T21:44:8Z</time></trkpt>
<trkpt lat="46.59719" lon="6.35332"><ele></ele><time>2024-5-29T21:44:11Z</time></trkpt>
<trkpt lat="46.59716" lon="6.3533"><ele></ele><time>2024-5-29T21:44:14Z</time></trkpt>
<trkpt lat="46.59711" lon="6.35328"><ele></ele><time>2024-5-29T21:44:17Z</time></trkpt>
<trkpt lat="46.59705" lon="6.35325"><ele></ele><time>2024-5-29T21:44:20Z</time></trkpt>
<trkpt lat="46.59701" lon="6.35322"><ele></ele><time>2024-5-29T21:44:23Z</time></trkpt>
<trkpt lat="46.59696" lon="6.35319"><ele></ele><time>2024-5-29T21:44:26Z</time></trkpt>
<trkpt lat="46.59693" lon="6.35317"><ele></ele><time>2024-5-29T21:44:29Z</time></trkpt>
<trkpt lat="46.59687" lon="6.35312"><ele></ele><time>2024-5-29T21:44:32Z</time></trkpt>
<trkpt lat="46.59686" lon="6.35311"><ele></ele><time>2024-5-29T21:44:35Z</time></trkpt>
<trkpt lat="46.59683" lon="6.3531"><ele></ele><time>2024-5-29T21:44:38Z</time></trkpt>
<trkpt lat="46.59679" lon="6.35306"><ele></ele><time>2024-5-29T21:44:41Z</time></trkpt>
<trkpt lat="46.59678" lon="6.35304"><ele></ele><time>2024-5-29T21:44:44Z</time></trkpt>
<trkpt lat="46.59672" lon="6.353"><ele></ele><time>2024-5-29T21:44:47Z</time></trkpt>
<trkpt lat="46.5967" lon="6.35298"><ele></ele><time>2024-5-29T21:44:50Z</time></trkpt>
<trkpt lat="46.59666" lon="6.35293"><ele></ele><time>2024-5-29T21:44:53Z</time></trkpt>
<trkpt lat="46.59665" lon="6.3529"><ele></ele><time>2024-5-29T21:44:56Z</time></trkpt>
<trkpt lat="46.59664" lon="6.35289"><ele></ele><time>2024-5-29T21:44:59Z</time></trkpt>
<trkpt lat="46.59659" lon="6.35278"><ele></ele><time>2024-5-29T21:45:2Z</time></trkpt>
<trkpt lat="46.59651" lon="6.35268"><ele></ele><time>2024-5-29T21:45:5Z</time></trkpt>
<trkpt lat="46.59649" lon="6.35266"><ele></ele><time>2024-5-29T21:45:8Z</time></trkpt>
<trkpt lat="46.59643" lon="6.3526"><ele></ele><time>2024-5-29T21:45:11Z</time></trkpt>
<trkpt lat="46.59641" lon="6.35258"><ele></ele><time>2024-5-29T21:45:14Z</time></trkpt>
<trkpt lat="46.59634" lon="6.35253"><ele></ele><time>2024-5-29T21:45:17Z</time></trkpt>
<trkpt lat="46.59631" lon="6.3525"><ele></ele><time>2024-5-29T21:45:20Z</time></trkpt>
<trkpt lat="46.59626" lon="6.35244"><ele></ele><time>2024-5-29T21:45:23Z</time></trkpt>
<trkpt lat="46.59625" lon="6.35244"><ele></ele><time>2024-5-29T21:45:26Z</time></trkpt>
<trkpt lat="46.59624" lon="6.35243"><ele></ele><time>2024-5-29T21:45:29Z</time></trkpt>
<trkpt lat="46.59617" lon="6.35238"><ele></ele><time>2024-5-29T21:45:32Z</time></trkpt>
<trkpt lat="46.59614" lon="6.35235"><ele></ele><time>2024-5-29T21:45:35Z</time></trkpt>
<trkpt lat="46.59608" lon="6.35232"><ele></ele><time>2024-5-29T21:45:38Z</time></trkpt>
<trkpt lat="46.59605" lon="6.35228"><ele></ele><time>2024-5-29T21:45:41Z</time></trkpt>
<trkpt lat="46.596" lon="6.35223"><ele></ele><time>2024-5-29T21:45:44Z</time></trkpt>
<trkpt lat="46.59597" lon="6.35219"><ele></ele><time>2024-5-29T21:45:47Z</time></trkpt>
<trkpt lat="46.59592" lon="6.35213"><ele></ele><time>2024-5-29T21:45:50Z</time></trkpt>
<trkpt lat="46.59589" lon="6.3521"><ele></ele><time>2024-5-29T21:45:53Z</time></trkpt>
<trkpt lat="46.59584" lon="6.35204"><ele></ele><time>2024-5-29T21:45:56Z</time></trkpt>
<trkpt lat="46.5958" lon="6.35198"><ele></ele><time>2024-5-29T21:45:59Z</time></trkpt>
<trkpt lat="46.59578" lon="6.35195"><ele></ele><time>2024-5-29T21:46:2Z</time></trkpt>
<trkpt lat="46.59574" lon="6.35189"><ele></ele><time>2024-5-29T21:46:5Z</time></trkpt>
<trkpt lat="46.59574" lon="6.35187"><ele></ele><time>2024-5-29T21:46:8Z</time></trkpt>
<trkpt lat="46.59569" lon="6.35177"><ele></ele><time>2024-5-29T21:46:11Z</time></trkpt>
<trkpt lat="46.59568" lon="6.35176"><ele></ele><time>2024-5-29T21:46:14Z</time></trkpt>
<trkpt lat="46.59563" lon="6.3517"><ele></ele><time>2024-5-29T21:46:17Z</time></trkpt>
<trkpt lat="46.59561" lon="6.35168"><ele></ele><time>2024-5-29T21:46:20Z</time></trkpt>
<trkpt lat="46.59556" lon="6.3516"><ele></ele><time>2024-5-29T21:46:23Z</time></trkpt>
<trkpt lat="46.59553" lon="6.35155"><ele></ele><time>2024-5-29T21:46:26Z</time></trkpt>
<trkpt lat="46.59549" lon="6.35149"><ele></ele><time>2024-5-29T21:46:29Z</time></trkpt>
<trkpt lat="46.59548" lon="6.35148"><ele></ele><time>2024-5-29T21:46:32Z</time></trkpt>
<trkpt lat="46.59548" lon="6.35148"><ele></ele><time>2024-5-29T21:46:35Z</time></trkpt>
<trkpt lat="46.59546" lon="6.35145"><ele></ele><time>2024-5-29T21:46:38Z</time></trkpt>
<trkpt lat="46.59543" lon="6.35137"><ele></ele><time>2024-5-29T21:46:41Z</time></trkpt>
<trkpt lat="46.59541" lon="6.3513"><ele></ele><time>2024-5-29T21:46:44Z</time></trkpt>
<trkpt lat="46.5954" lon="6.35124"><ele></ele><time>2024-5-29T21:46:47Z</time></trkpt>
<trkpt lat="46.59535" lon="6.35118"><ele></ele><time>2024-5-29T21:46:50Z</time></trkpt>
<trkpt lat="46.59532" lon="6.35113"><ele></ele><time>2024-5-29T21:46:53Z</time></trkpt>
<trkpt lat="46.5953" lon="6.35108"><ele></ele><time>2024-5-29T21:46:56Z</time></trkpt>
<trkpt lat="46.59528" lon="6.35103"><ele></ele><time>2024-5-29T21:46:59Z</time></trkpt>
<trkpt lat="46.59523" lon="6.35097"><ele></ele><time>2024-5-29T21:47:2Z</time></trkpt>
<trkpt lat="46.59522" lon="6.35092"><ele></ele><time>2024-5-29T21:47:5Z</time></trkpt>
<trkpt lat="46.5952" lon="6.35089"><ele></ele><time>2024-5-29T21:47:8Z</time></trkpt>
<trkpt lat="46.59518" lon="6.35085"><ele></ele><time>2024-5-29T21:47:11Z</time></trkpt>
<trkpt lat="46.59515" lon="6.3508"><ele></ele><time>2024-5-29T21:47:14Z</time></trkpt>
<trkpt lat="46.59509" lon="6.3507"><ele></ele><time>2024-5-29T21:47:17Z</time></trkpt>
<trkpt lat="46.59504" lon="6.35059"><ele></ele><time>2024-5-29T21:47:20Z</time></trkpt>
<trkpt lat="46.595" lon="6.35046"><ele></ele><time>2024-5-29T21:47:23Z</time></trkpt>
<trkpt lat="46.59499" lon="6.35045"><ele></ele><time>2024-5-29T21:47:26Z</time></trkpt>
<trkpt lat="46.59498" lon="6.35042"><ele></ele><time>2024-5-29T21:47:29Z</time></trkpt>
<trkpt lat="46.59498" lon="6.35035"><ele></ele><time>2024-5-29T21:47:32Z</time></trkpt>
<trkpt lat="46.59497" lon="6.35033"><ele></ele><time>2024-5-29T21:47:35Z</time></trkpt>
<trkpt lat="46.59495" lon="6.35023"><ele></ele><time>2024-5-29T21:47:38Z</time></trkpt>
<trkpt lat="46.59494" lon="6.35019"><ele></ele><time>2024-5-29T21:47:41Z</time></trkpt>
<trkpt lat="46.59492" lon="6.35011"><ele></ele><time>2024-5-29T21:47:44Z</time></trkpt>
<trkpt lat="46.59491" lon="6.35"><ele></ele><time>2024-5-29T21:47:47Z</time></trkpt>
<trkpt lat="46.59491" lon="6.34997"><ele></ele><time>2024-5-29T21:47:50Z</time></trkpt>
<trkpt lat="46.5949" lon="6.34994"><ele></ele><time>2024-5-29T21:47:53Z</time></trkpt>
<trkpt lat="46.5949" lon="6.3499"><ele></ele><time>2024-5-29T21:47:56Z</time></trkpt>
<trkpt lat="46.5949" lon="6.34983"><ele></ele><time>2024-5-29T21:47:59Z</time></trkpt>
<trkpt lat="46.5949" lon="6.3498"><ele></ele><time>2024-5-29T21:48:2Z</time></trkpt>
<trkpt lat="46.59489" lon="6.34969"><ele></ele><time>2024-5-29T21:48:5Z</time></trkpt>
<trkpt lat="46.59489" lon="6.34965"><ele></ele><time>2024-5-29T21:48:8Z</time></trkpt>
<trkpt lat="46.59489" lon="6.34954"><ele></ele><time>2024-5-29T21:48:11Z</time></trkpt>
<trkpt lat="46.5949" lon="6.3495"><ele></ele><time>2024-5-29T21:48:14Z</time></trkpt>
<trkpt lat="46.59489" lon="6.34943"><ele></ele><time>2024-5-29T21:48:17Z</time></trkpt>
<trkpt lat="46.5949" lon="6.34941"><ele></ele><time>2024-5-29T21:48:20Z</time></trkpt>
<trkpt lat="46.59489" lon="6.34928"><ele></ele><time>2024-5-29T21:48:23Z</time></trkpt>
<trkpt lat="46.5949" lon="6.34926"><ele></ele><time>2024-5-29T21:48:26Z</time></trkpt>
<trkpt lat="46.5949" lon="6.34916"><ele></ele><time>2024-5-29T21:48:29Z</time></trkpt>
<trkpt lat="46.59489" lon="6.34904"><ele></ele><time>2024-5-29T21:48:32Z</time></trkpt>
<trkpt lat="46.59489" lon="6.34902"><ele></ele><time>2024-5-29T21:48:35Z</time></trkpt>
<trkpt lat="46.59486" lon="6.34893"><ele></ele><time>2024-5-29T21:48:38Z</time></trkpt>
<trkpt lat="46.5948" lon="6.34885"><ele></ele><time>2024-5-29T21:48:41Z</time></trkpt>
<trkpt lat="46.59479" lon="6.34884"><ele></ele><time>2024-5-29T21:48:44Z</time></trkpt>
<trkpt lat="46.59475" lon="6.34877"><ele></ele><time>2024-5-29T21:48:47Z</time></trkpt>
<trkpt lat="46.59473" lon="6.34875"><ele></ele><time>2024-5-29T21:48:50Z</time></trkpt>
<trkpt lat="46.5947" lon="6.34869"><ele></ele><time>2024-5-29T21:48:53Z</time></trkpt>
<trkpt lat="46.59466" lon="6.34864"><ele></ele><time>2024-5-29T21:48:56Z</time></trkpt>
<trkpt lat="46.59463" lon="6.34859"><ele></ele><time>2024-5-29T21:48:59Z</time></trkpt>
<trkpt lat="46.59459" lon="6.34853"><ele></ele><time>2024-5-29T21:49:2Z</time></trkpt>
<trkpt lat="46.59459" lon="6.34852"><ele></ele><time>2024-5-29T21:49:5Z</time></trkpt>
<trkpt lat="46.59455" lon="6.34844"><ele></ele><time>2024-5-29T21:49:8Z</time></trkpt>
<trkpt lat="46.59454" lon="6.34842"><ele></ele><time>2024-5-29T21:49:11Z</time></trkpt>
<trkpt lat="46.5945" lon="6.34833"><ele></ele><time>2024-5-29T21:49:14Z</time></trkpt>
<trkpt lat="46.59449" lon="6.34832"><ele></ele><time>2024-5-29T21:49:17Z</time></trkpt>
<trkpt lat="46.59445" lon="6.34822"><ele></ele><time>2024-5-29T21:49:20Z</time></trkpt>
<trkpt lat="46.59445" lon="6.3482"><ele></ele><time>2024-5-29T21:49:23Z</time></trkpt>
<trkpt lat="46.5944" lon="6.3481"><ele></ele><time>2024-5-29T21:49:26Z</time></trkpt>
<trkpt lat="46.59439" lon="6.34806"><ele></ele><time>2024-5-29T21:49:29Z</time></trkpt>
<trkpt lat="46.59436" lon="6.34799"><ele></ele><time>2024-5-29T21:49:32Z</time></trkpt>
<trkpt lat="46.59434" lon="6.34795"><ele></ele><time>2024-5-29T21:49:35Z</time></trkpt>
<trkpt lat="46.59431" lon="6.34791"><ele></ele><time>2024-5-29T21:49:38Z</time></trkpt>
<trkpt lat="46.59424" lon="6.34786"><ele></ele><time>2024-5-29T21:49:41Z</time></trkpt>
<trkpt lat="46.59423" lon="6.34784"><ele></ele><time>2024-5-29T21:49:44Z</time></trkpt>
<trkpt lat="46.59417" lon="6.34779"><ele></ele><time>2024-5-29T21:49:47Z</time></trkpt>
<trkpt lat="46.59415" lon="6.34777"><ele></ele><time>2024-5-29T21:49:50Z</time></trkpt>
<trkpt lat="46.59409" lon="6.34772"><ele></ele><time>2024-5-29T21:49:53Z</time></trkpt>
<trkpt lat="46.59406" lon="6.34769"><ele></ele><time>2024-5-29T21:49:56Z</time></trkpt>
<trkpt lat="46.59399" lon="6.34762"><ele></ele><time>2024-5-29T21:49:59Z</time></trkpt>
<trkpt lat="46.59393" lon="6.34754"><ele></ele><time>2024-5-29T21:50:2Z</time></trkpt>
<trkpt lat="46.59392" lon="6.34752"><ele></ele><time>2024-5-29T21:50:5Z</time></trkpt>
<trkpt lat="46.5939" lon="6.34749"><ele></ele><time>2024-5-29T21:50:8Z</time></trkpt>
<trkpt lat="46.59389" lon="6.34747"><ele></ele><time>2024-5-29T21:50:11Z</time></trkpt>
<trkpt lat="46.59389" lon="6.34744"><ele></ele><time>2024-5-29T21:50:14Z</time></trkpt>
<trkpt lat="46.59386" lon="6.34733"><ele></ele><time>2024-5-29T21:50:17Z</time></trkpt>
<trkpt lat="46.59384" lon="6.34728"><ele></ele><time>2024-5-29T21:50:20Z</time></trkpt>
<trkpt lat="46.5938" lon="6.34721"><ele></ele><time>2024-5-29T21:50:23Z</time></trkpt>
<trkpt lat="46.59377" lon="6.34718"><ele></ele><time>2024-5-29T21:50:26Z</time></trkpt>
<trkpt lat="46.59375" lon="6.34712"><ele></ele><time>2024-5-29T21:50:29Z</time></trkpt>
<trkpt lat="46.59374" lon="6.34704"><ele></ele><time>2024-5-29T21:50:32Z</time></trkpt>
<trkpt lat="46.59373" lon="6.34698"><ele></ele><time>2024-5-29T21:50:35Z</time></trkpt>
<trkpt lat="46.59371" lon="6.34692"><ele></ele><time>2024-5-29T21:50:38Z</time></trkpt>
<trkpt lat="46.59369" lon="6.34688"><ele></ele><time>2024-5-29T21:50:41Z</time></trkpt>
<trkpt lat="46.59367" lon="6.34684"><ele></ele><time>2024-5-29T21:50:44Z</time></trkpt>
<trkpt lat="46.59365" lon="6.3468"><ele></ele><time>2024-5-29T21:50:47Z</time></trkpt>
<trkpt lat="46.59363" lon="6.34675"><ele></ele><time>2024-5-29T21:50:50Z</time></trkpt>
<trkpt lat="46.59362" lon="6.34672"><ele></ele><time>2024-5-29T21:50:53Z</time></trkpt>
<trkpt lat="46.59361" lon="6.34669"><ele></ele><time>2024-5-29T21:50:56Z</time></trkpt>
<trkpt lat="46.5936" lon="6.34661"><ele></ele><time>2024-5-29T21:50:59Z</time></trkpt>
<trkpt lat="46.5936" lon="6.34659"><ele></ele><time>2024-5-29T21:51:2Z</time></trkpt>
<trkpt lat="46.59359" lon="6.34653"><ele></ele><time>2024-5-29T21:51:5Z</time></trkpt>
<trkpt lat="46.59357" lon="6.34649"><ele></ele><time>2024-5-29T21:51:8Z</time></trkpt>
<trkpt lat="46.59352" lon="6.34638"><ele></ele><time>2024-5-29T21:51:11Z</time></trkpt>
<trkpt lat="46.59348" lon="6.34628"><ele></ele><time>2024-5-29T21:51:14Z</time></trkpt>
<trkpt lat="46.59347" lon="6.34625"><ele></ele><time>2024-5-29T21:51:17Z</time></trkpt>
<trkpt lat="46.59342" lon="6.3462"><ele></ele><time>2024-5-29T21:51:20Z</time></trkpt>
<trkpt lat="46.5934" lon="6.34617"><ele></ele><time>2024-5-29T21:51:23Z</time></trkpt>
<trkpt lat="46.59334" lon="6.3461"><ele></ele><time>2024-5-29T21:51:26Z</time></trkpt>
<trkpt lat="46.59333" lon="6.34608"><ele></ele><time>2024-5-29T21:51:29Z</time></trkpt>
<trkpt lat="46.5933" lon="6.34602"><ele></ele><time>2024-5-29T21:51:32Z</time></trkpt>
<trkpt lat="46.59329" lon="6.34597"><ele></ele><time>2024-5-29T21:51:35Z</time></trkpt>
<trkpt lat="46.59324" lon="6.34592"><ele></ele><time>2024-5-29T21:51:38Z</time></trkpt>
<trkpt lat="46.59321" lon="6.34588"><ele></ele><time>2024-5-29T21:51:41Z</time></trkpt>
<trkpt lat="46.59318" lon="6.34586"><ele></ele><time>2024-5-29T21:51:44Z</time></trkpt>
<trkpt lat="46.59315" lon="6.34582"><ele></ele><time>2024-5-29T21:51:47Z</time></trkpt>
<trkpt lat="46.59313" lon="6.34579"><ele></ele><time>2024-5-29T21:51:50Z</time></trkpt>
<trkpt lat="46.59307" lon="6.3457"><ele></ele><time>2024-5-29T21:51:53Z</time></trkpt>
<trkpt lat="46.59307" lon="6.34569"><ele></ele><time>2024-5-29T21:51:56Z</time></trkpt>
<trkpt lat="46.59304" lon="6.3456"><ele></ele><time>2024-5-29T21:51:59Z</time></trkpt>
<trkpt lat="46.59302" lon="6.34556"><ele></ele><time>2024-5-29T21:52:2Z</time></trkpt>
<trkpt lat="46.59299" lon="6.3455"><ele></ele><time>2024-5-29T21:52:5Z</time></trkpt>
<trkpt lat="46.59297" lon="6.34544"><ele></ele><time>2024-5-29T21:52:8Z</time></trkpt>
<trkpt lat="46.59296" lon="6.34542"><ele></ele><time>2024-5-29T21:52:11Z</time></trkpt>
<trkpt lat="46.59294" lon="6.34534"><ele></ele><time>2024-5-29T21:52:14Z</time></trkpt>
<trkpt lat="46.59293" lon="6.34532"><ele></ele><time>2024-5-29T21:52:17Z</time></trkpt>
<trkpt lat="46.5929" lon="6.34526"><ele></ele><time>2024-5-29T21:52:20Z</time></trkpt>
<trkpt lat="46.5929" lon="6.34524"><ele></ele><time>2024-5-29T21:52:23Z</time></trkpt>
<trkpt lat="46.59289" lon="6.34522"><ele></ele><time>2024-5-29T21:52:26Z</time></trkpt>
<trkpt lat="46.59286" lon="6.34518"><ele></ele><time>2024-5-29T21:52:29Z</time></trkpt>
<trkpt lat="46.59285" lon="6.34513"><ele></ele><time>2024-5-29T21:52:32Z</time></trkpt>
<trkpt lat="46.59283" lon="6.3451"><ele></ele><time>2024-5-29T21:52:35Z</time></trkpt>
<trkpt lat="46.59279" lon="6.34502"><ele></ele><time>2024-5-29T21:52:38Z</time></trkpt>
<trkpt lat="46.59275" lon="6.34494"><ele></ele><time>2024-5-29T21:52:41Z</time></trkpt>
<trkpt lat="46.59274" lon="6.34491"><ele></ele><time>2024-5-29T21:52:44Z</time></trkpt>
<trkpt lat="46.59273" lon="6.34489"><ele></ele><time>2024-5-29T21:52:47Z</time></trkpt>
<trkpt lat="46.59273" lon="6.34488"><ele></ele><time>2024-5-29T21:52:50Z</time></trkpt>
<trkpt lat="46.59268" lon="6.34481"><ele></ele><time>2024-5-29T21:52:53Z</time></trkpt>
<trkpt lat="46.59268" lon="6.3448"><ele></ele><time>2024-5-29T21:52:56Z</time></trkpt>
<trkpt lat="46.59263" lon="6.34469"><ele></ele><time>2024-5-29T21:52:59Z</time></trkpt>
<trkpt lat="46.59258" lon="6.34461"><ele></ele><time>2024-5-29T21:53:2Z</time></trkpt>
<trkpt lat="46.59257" lon="6.3446"><ele></ele><time>2024-5-29T21:53:5Z</time></trkpt>
<trkpt lat="46.59254" lon="6.34452"><ele></ele><time>2024-5-29T21:53:8Z</time></trkpt>
<trkpt lat="46.59251" lon="6.34448"><ele></ele><time>2024-5-29T21:53:11Z</time></trkpt>
<trkpt lat="46.5925" lon="6.34447"><ele></ele><time>2024-5-29T21:53:14Z</time></trkpt>
<trkpt lat="46.59247" lon="6.34442"><ele></ele><time>2024-5-29T21:53:17Z</time></trkpt>
<trkpt lat="46.59245" lon="6.34439"><ele></ele><time>2024-5-29T21:53:20Z</time></trkpt>
<trkpt lat="46.59245" lon="6.34436"><ele></ele><time>2024-5-29T21:53:23Z</time></trkpt>
<trkpt lat="46.59244" lon="6.34433"><ele></ele><time>2024-5-29T21:53:26Z</time></trkpt>
<trkpt lat="46.59242" lon="6.34428"><ele></ele><time>2024-5-29T21:53:29Z</time></trkpt>
<trkpt lat="46.59238" lon="6.34419"><ele></ele><time>2024-5-29T21:53:32Z</time></trkpt>
<trkpt lat="46.59236" lon="6.34415"><ele></ele><time>2024-5-29T21:53:35Z</time></trkpt>
<trkpt lat="46.59234" lon="6.34412"><ele></ele><time>2024-5-29T21:53:38Z</time></trkpt>
<trkpt lat="46.59233" lon="6.34412"><ele></ele><time>2024-5-29T21:53:41Z</time></trkpt>
<trkpt lat="46.59228" lon="6.34406"><ele></ele><time>2024-5-29T21:53:44Z</time></trkpt>
<trkpt lat="46.59227" lon="6.34403"><ele></ele><time>2024-5-29T21:53:47Z</time></trkpt>
<trkpt lat="46.59222" lon="6.34396"><ele></ele><time>2024-5-29T21:53:50Z</time></trkpt>
<trkpt lat="46.59221" lon="6.34396"><ele></ele><time>2024-5-29T21:53:53Z</time></trkpt>
<trkpt lat="46.59218" lon="6.3439"><ele></ele><time>2024-5-29T21:53:56Z</time></trkpt>
<trkpt lat="46.59217" lon="6.34387"><ele></ele><time>2024-5-29T21:53:59Z</time></trkpt>
<trkpt lat="46.59215" lon="6.34384"><ele></ele><time>2024-5-29T21:54:2Z</time></trkpt>
<trkpt lat="46.59215" lon="6.34382"><ele></ele><time>2024-5-29T21:54:5Z</time></trkpt>
<trkpt lat="46.59213" lon="6.34378"><ele></ele><time>2024-5-29T21:54:8Z</time></trkpt>
<trkpt lat="46.59212" lon="6.34376"><ele></ele><time>2024-5-29T21:54:11Z</time></trkpt>
<trkpt lat="46.59209" lon="6.34372"><ele></ele><time>2024-5-29T21:54:14Z</time></trkpt>
<trkpt lat="46.59208" lon="6.34369"><ele></ele><time>2024-5-29T21:54:17Z</time></trkpt>
<trkpt lat="46.59207" lon="6.34364"><ele></ele><time>2024-5-29T21:54:20Z</time></trkpt>
<trkpt lat="46.59205" lon="6.34359"><ele></ele><time>2024-5-29T21:54:23Z</time></trkpt>
<trkpt lat="46.59201" lon="6.3435"><ele></ele><time>2024-5-29T21:54:26Z</time></trkpt>
<trkpt lat="46.59201" lon="6.34348"><ele></ele><time>2024-5-29T21:54:29Z</time></trkpt>
<trkpt lat="46.59199" lon="6.34344"><ele></ele><time>2024-5-29T21:54:32Z</time></trkpt>
<trkpt lat="46.59196" lon="6.34339"><ele></ele><time>2024-5-29T21:54:35Z</time></trkpt>
<trkpt lat="46.59195" lon="6.34333"><ele></ele><time>2024-5-29T21:54:38Z</time></trkpt>
<trkpt lat="46.59194" lon="6.34333"><ele></ele><time>2024-5-29T21:54:41Z</time></trkpt>
<trkpt lat="46.59193" lon="6.34331"><ele></ele><time>2024-5-29T21:54:44Z</time></trkpt>
<trkpt lat="46.5919" lon="6.34327"><ele></ele><time>2024-5-29T21:54:47Z</time></trkpt>
<trkpt lat="46.59188" lon="6.34323"><ele></ele><time>2024-5-29T21:54:50Z</time></trkpt>
<trkpt lat="46.59187" lon="6.34321"><ele></ele><time>2024-5-29T21:54:53Z</time></trkpt>
<trkpt lat="46.59184" lon="6.34316"><ele></ele><time>2024-5-29T21:54:56Z</time></trkpt>
<trkpt lat="46.59182" lon="6.34311"><ele></ele><time>2024-5-29T21:54:59Z</time></trkpt>
<trkpt lat="46.59181" lon="6.34309"><ele></ele><time>2024-5-29T21:55:2Z</time></trkpt>
<trkpt lat="46.59179" lon="6.34303"><ele></ele><time>2024-5-29T21:55:5Z</time></trkpt>
<trkpt lat="46.59177" lon="6.343"><ele></ele><time>2024-5-29T21:55:8Z</time></trkpt>
<trkpt lat="46.59176" lon="6.34297"><ele></ele><time>2024-5-29T21:55:11Z</time></trkpt>
<trkpt lat="46.59172" lon="6.34286"><ele></ele><time>2024-5-29T21:55:14Z</time></trkpt>
<trkpt lat="46.5917" lon="6.34273"><ele></ele><time>2024-5-29T21:55:17Z</time></trkpt>
<trkpt lat="46.59169" lon="6.34271"><ele></ele><time>2024-5-29T21:55:20Z</time></trkpt>
<trkpt lat="46.59167" lon="6.34267"><ele></ele><time>2024-5-29T21:55:23Z</time></trkpt>
<trkpt lat="46.59165" lon="6.34263"><ele></ele><time>2024-5-29T21:55:26Z</time></trkpt>
<trkpt lat="46.59164" lon="6.34259"><ele></ele><time>2024-5-29T21:55:29Z</time></trkpt>
<trkpt lat="46.59162" lon="6.34255"><ele></ele><time>2024-5-29T21:55:32Z</time></trkpt>
<trkpt lat="46.59161" lon="6.34247"><ele></ele><time>2024-5-29T21:55:35Z</time></trkpt>
<trkpt lat="46.5916" lon="6.34245"><ele></ele><time>2024-5-29T21:55:38Z</time></trkpt>
<trkpt lat="46.59158" lon="6.34242"><ele></ele><time>2024-5-29T21:55:41Z</time></trkpt>
<trkpt lat="46.59154" lon="6.34236"><ele></ele><time>2024-5-29T21:55:44Z</time></trkpt>
<trkpt lat="46.59154" lon="6.34233"><ele></ele><time>2024-5-29T21:55:47Z</time></trkpt>
<trkpt lat="46.59149" lon="6.34226"><ele></ele><time>2024-5-29T21:55:50Z</time></trkpt>
<trkpt lat="46.59149" lon="6.34224"><ele></ele><time>2024-5-29T21:55:53Z</time></trkpt>
<trkpt lat="46.59145" lon="6.34209"><ele></ele><time>2024-5-29T21:55:56Z</time></trkpt>
<trkpt lat="46.59139" lon="6.34198"><ele></ele><time>2024-5-29T21:55:59Z</time></trkpt>
<trkpt lat="46.59138" lon="6.34194"><ele></ele><time>2024-5-29T21:56:2Z</time></trkpt>
<trkpt lat="46.59135" lon="6.34188"><ele></ele><time>2024-5-29T21:56:5Z</time></trkpt>
<trkpt lat="46.59134" lon="6.34187"><ele></ele><time>2024-5-29T21:56:8Z</time></trkpt>
<trkpt lat="46.5913" lon="6.34181"><ele></ele><time>2024-5-29T21:56:11Z</time></trkpt>
<trkpt lat="46.59127" lon="6.34179"><ele></ele><time>2024-5-29T21:56:14Z</time></trkpt>
<trkpt lat="46.59122" lon="6.34174"><ele></ele><time>2024-5-29T21:56:17Z</time></trkpt>
<trkpt lat="46.59121" lon="6.34173"><ele></ele><time>2024-5-29T21:56:20Z</time></trkpt>
<trkpt lat="46.59115" lon="6.3417"><ele></ele><time>2024-5-29T21:56:23Z</time></trkpt>
<trkpt lat="46.59114" lon="6.3417"><ele></ele><time>2024-5-29T21:56:26Z</time></trkpt>
<trkpt lat="46.59108" lon="6.34168"><ele></ele><time>2024-5-29T21:56:29Z</time></trkpt>
<trkpt lat="46.59105" lon="6.34167"><ele></ele><time>2024-5-29T21:56:32Z</time></trkpt>
<trkpt lat="46.59097" lon="6.34165"><ele></ele><time>2024-5-29T21:56:35Z</time></trkpt>
<trkpt lat="46.59097" lon="6.34164"><ele></ele><time>2024-5-29T21:56:38Z</time></trkpt>
<trkpt lat="46.59091" lon="6.34159"><ele></ele><time>2024-5-29T21:56:41Z</time></trkpt>
<trkpt lat="46.59088" lon="6.34157"><ele></ele><time>2024-5-29T21:56:44Z</time></trkpt>
<trkpt lat="46.59084" lon="6.34152"><ele></ele><time>2024-5-29T21:56:47Z</time></trkpt>
<trkpt lat="46.5908" lon="6.34148"><ele></ele><time>2024-5-29T21:56:50Z</time></trkpt>
<trkpt lat="46.59078" lon="6.34144"><ele></ele><time>2024-5-29T21:56:53Z</time></trkpt>
<trkpt lat="46.59074" lon="6.34136"><ele></ele><time>2024-5-29T21:56:56Z</time></trkpt>
<trkpt lat="46.59073" lon="6.34135"><ele></ele><time>2024-5-29T21:56:59Z</time></trkpt>
<trkpt lat="46.59073" lon="6.34133"><ele></ele><time>2024-5-29T21:57:2Z</time></trkpt>
<trkpt lat="46.59071" lon="6.34127"><ele></ele><time>2024-5-29T21:57:5Z</time></trkpt>
<trkpt lat="46.59071" lon="6.34124"><ele></ele><time>2024-5-29T21:57:8Z</time></trkpt>
<trkpt lat="46.59066" lon="6.34116"><ele></ele><time>2024-5-29T21:57:11Z</time></trkpt>
<trkpt lat="46.59064" lon="6.34113"><ele></ele><time>2024-5-29T21:57:14Z</time></trkpt>
<trkpt lat="46.59059" lon="6.34104"><ele></ele><time>2024-5-29T21:57:17Z</time></trkpt>
<trkpt lat="46.59058" lon="6.34102"><ele></ele><time>2024-5-29T21:57:20Z</time></trkpt>
<trkpt lat="46.59056" lon="6.34099"><ele></ele><time>2024-5-29T21:57:23Z</time></trkpt>
<trkpt lat="46.59056" lon="6.34098"><ele></ele><time>2024-5-29T21:57:26Z</time></trkpt>
<trkpt lat="46.59054" lon="6.34091"><ele></ele><time>2024-5-29T21:57:29Z</time></trkpt>
<trkpt lat="46.59054" lon="6.34089"><ele></ele><time>2024-5-29T21:57:32Z</time></trkpt>
<trkpt lat="46.59051" lon="6.3408"><ele></ele><time>2024-5-29T21:57:35Z</time></trkpt>
<trkpt lat="46.59051" lon="6.34079"><ele></ele><time>2024-5-29T21:57:38Z</time></trkpt>
<trkpt lat="46.59047" lon="6.3407"><ele></ele><time>2024-5-29T21:57:41Z</time></trkpt>
<trkpt lat="46.59045" lon="6.34069"><ele></ele><time>2024-5-29T21:57:44Z</time></trkpt>
<trkpt lat="46.59043" lon="6.34062"><ele></ele><time>2024-5-29T21:57:47Z</time></trkpt>
<trkpt lat="46.5904" lon="6.34057"><ele></ele><time>2024-5-29T21:57:50Z</time></trkpt>
<trkpt lat="46.59039" lon="6.34056"><ele></ele><time>2024-5-29T21:57:53Z</time></trkpt>
<trkpt lat="46.59039" lon="6.34054"><ele></ele><time>2024-5-29T21:57:56Z</time></trkpt>
<trkpt lat="46.59037" lon="6.34052"><ele></ele><time>2024-5-29T21:57:59Z</time></trkpt>
<trkpt lat="46.59034" lon="6.34046"><ele></ele><time>2024-5-29T21:58:2Z</time></trkpt>
<trkpt lat="46.59034" lon="6.34045"><ele></ele><time>2024-5-29T21:58:5Z</time></trkpt>
<trkpt lat="46.59033" lon="6.34043"><ele></ele><time>2024-5-29T21:58:8Z</time></trkpt>
<trkpt lat="46.59032" lon="6.34039"><ele></ele><time>2024-5-29T21:58:11Z</time></trkpt>
<trkpt lat="46.59032" lon="6.34032"><ele></ele><time>2024-5-29T21:58:14Z</time></trkpt>
<trkpt lat="46.59032" lon="6.3403"><ele></ele><time>2024-5-29T21:58:17Z</time></trkpt>
<trkpt lat="46.59032" lon="6.34028"><ele></ele><time>2024-5-29T21:58:20Z</time></trkpt>
<trkpt lat="46.59033" lon="6.34027"><ele></ele><time>2024-5-29T21:58:23Z</time></trkpt>
<trkpt lat="46.59034" lon="6.34022"><ele></ele><time>2024-5-29T21:58:26Z</time></trkpt>
<trkpt lat="46.59037" lon="6.34019"><ele></ele><time>2024-5-29T21:58:29Z</time></trkpt>
<trkpt lat="46.59039" lon="6.34018"><ele></ele><time>2024-5-29T21:58:32Z</time></trkpt>
<trkpt lat="46.59044" lon="6.34022"><ele></ele><time>2024-5-29T21:58:35Z</time></trkpt>
<trkpt lat="46.59047" lon="6.34025"><ele></ele><time>2024-5-29T21:58:38Z</time></trkpt>
<trkpt lat="46.59057" lon="6.34034"><ele></ele><time>2024-5-29T21:58:41Z</time></trkpt>
<trkpt lat="46.59064" lon="6.34039"><ele></ele><time>2024-5-29T21:58:44Z</time></trkpt>
<trkpt lat="46.59073" lon="6.34039"><ele></ele><time>2024-5-29T21:58:47Z</time></trkpt>
<trkpt lat="46.59081" lon="6.34035"><ele></ele><time>2024-5-29T21:58:50Z</time></trkpt>
<trkpt lat="46.59082" lon="6.34034"><ele></ele><time>2024-5-29T21:58:53Z</time></trkpt>
<trkpt lat="46.59087" lon="6.34028"><ele></ele><time>2024-5-29T21:58:56Z</time></trkpt>
<trkpt lat="46.59093" lon="6.34018"><ele></ele><time>2024-5-29T21:58:59Z</time></trkpt>
<trkpt lat="46.59094" lon="6.34015"><ele></ele><time>2024-5-29T21:59:2Z</time></trkpt>
<trkpt lat="46.59099" lon="6.34002"><ele></ele><time>2024-5-29T21:59:5Z</time></trkpt>
<trkpt lat="46.59101" lon="6.33999"><ele></ele><time>2024-5-29T21:59:8Z</time></trkpt>
<trkpt lat="46.59105" lon="6.3399"><ele></ele><time>2024-5-29T21:59:11Z</time></trkpt>
<trkpt lat="46.59106" lon="6.33986"><ele></ele><time>2024-5-29T21:59:14Z</time></trkpt>
<trkpt lat="46.59108" lon="6.33976"><ele></ele><time>2024-5-29T21:59:17Z</time></trkpt>
<trkpt lat="46.59109" lon="6.33975"><ele></ele><time>2024-5-29T21:59:20Z</time></trkpt>
<trkpt lat="46.59113" lon="6.33966"><ele></ele><time>2024-5-29T21:59:23Z</time></trkpt>
<trkpt lat="46.59114" lon="6.33965"><ele></ele><time>2024-5-29T21:59:26Z</time></trkpt>
<trkpt lat="46.59114" lon="6.33963"><ele></ele><time>2024-5-29T21:59:29Z</time></trkpt>
<trkpt lat="46.59115" lon="6.33957"><ele></ele><time>2024-5-29T21:59:32Z</time></trkpt>
<trkpt lat="46.59115" lon="6.33954"><ele></ele><time>2024-5-29T21:59:35Z</time></trkpt>
<trkpt lat="46.59116" lon="6.33951"><ele></ele><time>2024-5-29T21:59:38Z</time></trkpt>
<trkpt lat="46.59116" lon="6.33949"><ele></ele><time>2024-5-29T21:59:41Z</time></trkpt>
<trkpt lat="46.59116" lon="6.33948"><ele></ele><time>2024-5-29T21:59:44Z</time></trkpt>
<trkpt lat="46.59116" lon="6.33944"><ele></ele><time>2024-5-29T21:59:47Z</time></trkpt>
<trkpt lat="46.59116" lon="6.33942"><ele></ele><time>2024-5-29T21:59:50Z</time></trkpt>
<trkpt lat="46.59117" lon="6.33932"><ele></ele><time>2024-5-29T21:59:53Z</time></trkpt>
<trkpt lat="46.59116" lon="6.3393"><ele></ele><time>2024-5-29T21:59:56Z</time></trkpt>
<trkpt lat="46.59116" lon="6.33928"><ele></ele><time>2024-5-29T21:59:59Z</time></trkpt>
<trkpt lat="46.59116" lon="6.33927"><ele></ele><time>2024-5-29T22:0:2Z</time></trkpt>
<trkpt lat="46.59114" lon="6.33922"><ele></ele><time>2024-5-29T22:0:5Z</time></trkpt>
<trkpt lat="46.59114" lon="6.33916"><ele></ele><time>2024-5-29T22:0:8Z</time></trkpt>
<trkpt lat="46.59113" lon="6.33915"><ele></ele><time>2024-5-29T22:0:11Z</time></trkpt>
<trkpt lat="46.59113" lon="6.33915"><ele></ele><time>2024-5-29T22:0:14Z</time></trkpt>
<trkpt lat="46.59111" lon="6.3391"><ele></ele><time>2024-5-29T22:0:17Z</time></trkpt>
<trkpt lat="46.59109" lon="6.33908"><ele></ele><time>2024-5-29T22:0:20Z</time></trkpt>
<trkpt lat="46.59109" lon="6.33906"><ele></ele><time>2024-5-29T22:0:23Z</time></trkpt>
<trkpt lat="46.59108" lon="6.33905"><ele></ele><time>2024-5-29T22:0:26Z</time></trkpt>
<trkpt lat="46.59107" lon="6.33904"><ele></ele><time>2024-5-29T22:0:29Z</time></trkpt>
<trkpt lat="46.59107" lon="6.33902"><ele></ele><time>2024-5-29T22:0:32Z</time></trkpt>
<trkpt lat="46.59106" lon="6.339"><ele></ele><time>2024-5-29T22:0:35Z</time></trkpt>
<trkpt lat="46.59103" lon="6.33893"><ele></ele><time>2024-5-29T22:0:38Z</time></trkpt>
<trkpt lat="46.591" lon="6.33886"><ele></ele><time>2024-5-29T22:0:41Z</time></trkpt>
<trkpt lat="46.59099" lon="6.33882"><ele></ele><time>2024-5-29T22:0:44Z</time></trkpt>
<trkpt lat="46.59096" lon="6.33875"><ele></ele><time>2024-5-29T22:0:47Z</time></trkpt>
<trkpt lat="46.59094" lon="6.33873"><ele></ele><time>2024-5-29T22:0:50Z</time></trkpt>
<trkpt lat="46.59092" lon="6.33868"><ele></ele><time>2024-5-29T22:0:53Z</time></trkpt>
<trkpt lat="46.59091" lon="6.33863"><ele></ele><time>2024-5-29T22:0:56Z</time></trkpt>
<trkpt lat="46.5909" lon="6.3386"><ele></ele><time>2024-5-29T22:0:59Z</time></trkpt>
<trkpt lat="46.59088" lon="6.33854"><ele></ele><time>2024-5-29T22:1:2Z</time></trkpt>
<trkpt lat="46.59087" lon="6.3385"><ele></ele><time>2024-5-29T22:1:5Z</time></trkpt>
<trkpt lat="46.59087" lon="6.33847"><ele></ele><time>2024-5-29T22:1:8Z</time></trkpt>
<trkpt lat="46.59084" lon="6.33834"><ele></ele><time>2024-5-29T22:1:11Z</time></trkpt>
<trkpt lat="46.59084" lon="6.33821"><ele></ele><time>2024-5-29T22:1:14Z</time></trkpt>
<trkpt lat="46.59084" lon="6.33816"><ele></ele><time>2024-5-29T22:1:17Z</time></trkpt>
<trkpt lat="46.59083" lon="6.33811"><ele></ele><time>2024-5-29T22:1:20Z</time></trkpt>
<trkpt lat="46.59083" lon="6.33799"><ele></ele><time>2024-5-29T22:1:23Z</time></trkpt>
<trkpt lat="46.59084" lon="6.33798"><ele></ele><time>2024-5-29T22:1:26Z</time></trkpt>
<trkpt lat="46.59084" lon="6.33793"><ele></ele><time>2024-5-29T22:1:29Z</time></trkpt>
<trkpt lat="46.59085" lon="6.33788"><ele></ele><time>2024-5-29T22:1:32Z</time></trkpt>
<trkpt lat="46.59085" lon="6.33786"><ele></ele><time>2024-5-29T22:1:35Z</time></trkpt>
<trkpt lat="46.59086" lon="6.33778"><ele></ele><time>2024-5-29T22:1:38Z</time></trkpt>
<trkpt lat="46.59088" lon="6.33772"><ele></ele><time>2024-5-29T22:1:41Z</time></trkpt>
<trkpt lat="46.59089" lon="6.33763"><ele></ele><time>2024-5-29T22:1:44Z</time></trkpt>
<trkpt lat="46.59091" lon="6.33755"><ele></ele><time>2024-5-29T22:1:47Z</time></trkpt>
<trkpt lat="46.59091" lon="6.33754"><ele></ele><time>2024-5-29T22:1:50Z</time></trkpt>
<trkpt lat="46.59093" lon="6.33745"><ele></ele><time>2024-5-29T22:1:53Z</time></trkpt>
<trkpt lat="46.59094" lon="6.33741"><ele></ele><time>2024-5-29T22:1:56Z</time></trkpt>
<trkpt lat="46.59094" lon="6.33736"><ele></ele><time>2024-5-29T22:1:59Z</time></trkpt>
<trkpt lat="46.59095" lon="6.33727"><ele></ele><time>2024-5-29T22:2:2Z</time></trkpt>
<trkpt lat="46.59096" lon="6.33723"><ele></ele><time>2024-5-29T22:2:5Z</time></trkpt>
<trkpt lat="46.59096" lon="6.33719"><ele></ele><time>2024-5-29T22:2:8Z</time></trkpt>
<trkpt lat="46.59097" lon="6.33716"><ele></ele><time>2024-5-29T22:2:11Z</time></trkpt>
<trkpt lat="46.59097" lon="6.33711"><ele></ele><time>2024-5-29T22:2:14Z</time></trkpt>
<trkpt lat="46.59097" lon="6.33708"><ele></ele><time>2024-5-29T22:2:17Z</time></trkpt>
<trkpt lat="46.59097" lon="6.33705"><ele></ele><time>2024-5-29T22:2:20Z</time></trkpt>
<trkpt lat="46.59097" lon="6.33691"><ele></ele><time>2024-5-29T22:2:23Z</time></trkpt>
<trkpt lat="46.59097" lon="6.33688"><ele></ele><time>2024-5-29T22:2:26Z</time></trkpt>
<trkpt lat="46.59097" lon="6.33684"><ele></ele><time>2024-5-29T22:2:29Z</time></trkpt>
<trkpt lat="46.59097" lon="6.33683"><ele></ele><time>2024-5-29T22:2:32Z</time></trkpt>
<trkpt lat="46.59097" lon="6.33681"><ele></ele><time>2024-5-29T22:2:35Z</time></trkpt>
<trkpt lat="46.59096" lon="6.33676"><ele></ele><time>2024-5-29T22:2:38Z</time></trkpt>
<trkpt lat="46.59095" lon="6.33675"><ele></ele><time>2024-5-29T22:2:41Z</time></trkpt>
<trkpt lat="46.59095" lon="6.33671"><ele></ele><time>2024-5-29T22:2:44Z</time></trkpt>
<trkpt lat="46.59094" lon="6.33662"><ele></ele><time>2024-5-29T22:2:47Z</time></trkpt>
<trkpt lat="46.59094" lon="6.33659"><ele></ele><time>2024-5-29T22:2:50Z</time></trkpt>
<trkpt lat="46.59093" lon="6.33648"><ele></ele><time>2024-5-29T22:2:53Z</time></trkpt>
<trkpt lat="46.59093" lon="6.33635"><ele></ele><time>2024-5-29T22:2:56Z</time></trkpt>
<trkpt lat="46.59092" lon="6.33622"><ele></ele><time>2024-5-29T22:2:59Z</time></trkpt>
<trkpt lat="46.59092" lon="6.3362"><ele></ele><time>2024-5-29T22:3:2Z</time></trkpt>
<trkpt lat="46.5909" lon="6.33609"><ele></ele><time>2024-5-29T22:3:5Z</time></trkpt>
<trkpt lat="46.59089" lon="6.33606"><ele></ele><time>2024-5-29T22:3:8Z</time></trkpt>
<trkpt lat="46.59086" lon="6.33598"><ele></ele><time>2024-5-29T22:3:11Z</time></trkpt>
<trkpt lat="46.59084" lon="6.33594"><ele></ele><time>2024-5-29T22:3:14Z</time></trkpt>
<trkpt lat="46.59082" lon="6.33588"><ele></ele><time>2024-5-29T22:3:17Z</time></trkpt>
<trkpt lat="46.5908" lon="6.33583"><ele></ele><time>2024-5-29T22:3:20Z</time></trkpt>
<trkpt lat="46.59078" lon="6.33578"><ele></ele><time>2024-5-29T22:3:23Z</time></trkpt>
<trkpt lat="46.59077" lon="6.33574"><ele></ele><time>2024-5-29T22:3:26Z</time></trkpt>
<trkpt lat="46.59074" lon="6.33567"><ele></ele><time>2024-5-29T22:3:29Z</time></trkpt>
<trkpt lat="46.59074" lon="6.33565"><ele></ele><time>2024-5-29T22:3:32Z</time></trkpt>
<trkpt lat="46.59071" lon="6.33555"><ele></ele><time>2024-5-29T22:3:35Z</time></trkpt>
<trkpt lat="46.59071" lon="6.33553"><ele></ele><time>2024-5-29T22:3:38Z</time></trkpt>
<trkpt lat="46.59068" lon="6.33542"><ele></ele><time>2024-5-29T22:3:41Z</time></trkpt>
<trkpt lat="46.59069" lon="6.33541"><ele></ele><time>2024-5-29T22:3:44Z</time></trkpt>
<trkpt lat="46.59069" lon="6.33529"><ele></ele><time>2024-5-29T22:3:47Z</time></trkpt>
<trkpt lat="46.59069" lon="6.33526"><ele></ele><time>2024-5-29T22:3:50Z</time></trkpt>
<trkpt lat="46.5907" lon="6.3351"><ele></ele><time>2024-5-29T22:3:53Z</time></trkpt>
<trkpt lat="46.59072" lon="6.335"><ele></ele><time>2024-5-29T22:3:56Z</time></trkpt>
<trkpt lat="46.59073" lon="6.33497"><ele></ele><time>2024-5-29T22:3:59Z</time></trkpt>
<trkpt lat="46.59073" lon="6.33487"><ele></ele><time>2024-5-29T22:4:2Z</time></trkpt>
<trkpt lat="46.59073" lon="6.33481"><ele></ele><time>2024-5-29T22:4:5Z</time></trkpt>
<trkpt lat="46.59071" lon="6.33474"><ele></ele><time>2024-5-29T22:4:8Z</time></trkpt>
<trkpt lat="46.5907" lon="6.33472"><ele></ele><time>2024-5-29T22:4:11Z</time></trkpt>
<trkpt lat="46.59069" lon="6.33469"><ele></ele><time>2024-5-29T22:4:14Z</time></trkpt>
<trkpt lat="46.59062" lon="6.33459"><ele></ele><time>2024-5-29T22:4:17Z</time></trkpt>
<trkpt lat="46.5906" lon="6.33456"><ele></ele><time>2024-5-29T22:4:20Z</time></trkpt>
<trkpt lat="46.59058" lon="6.33453"><ele></ele><time>2024-5-29T22:4:23Z</time></trkpt>
<trkpt lat="46.59055" lon="6.33449"><ele></ele><time>2024-5-29T22:4:26Z</time></trkpt>
<trkpt lat="46.59053" lon="6.33443"><ele></ele><time>2024-5-29T22:4:29Z</time></trkpt>
<trkpt lat="46.59052" lon="6.33435"><ele></ele><time>2024-5-29T22:4:32Z</time></trkpt>
<trkpt lat="46.59051" lon="6.33428"><ele></ele><time>2024-5-29T22:4:35Z</time></trkpt>
<trkpt lat="46.59051" lon="6.3342"><ele></ele><time>2024-5-29T22:4:38Z</time></trkpt>
<trkpt lat="46.59052" lon="6.33411"><ele></ele><time>2024-5-29T22:4:41Z</time></trkpt>
<trkpt lat="46.59053" lon="6.33407"><ele></ele><time>2024-5-29T22:4:44Z</time></trkpt>
<trkpt lat="46.59054" lon="6.33398"><ele></ele><time>2024-5-29T22:4:47Z</time></trkpt>
<trkpt lat="46.59054" lon="6.33396"><ele></ele><time>2024-5-29T22:4:50Z</time></trkpt>
<trkpt lat="46.59056" lon="6.33386"><ele></ele><time>2024-5-29T22:4:53Z</time></trkpt>
<trkpt lat="46.59057" lon="6.33384"><ele></ele><time>2024-5-29T22:4:56Z</time></trkpt>
<trkpt lat="46.59057" lon="6.33374"><ele></ele><time>2024-5-29T22:4:59Z</time></trkpt>
<trkpt lat="46.59057" lon="6.33369"><ele></ele><time>2024-5-29T22:5:2Z</time></trkpt>
<trkpt lat="46.59057" lon="6.33363"><ele></ele><time>2024-5-29T22:5:5Z</time></trkpt>
<trkpt lat="46.59056" lon="6.33357"><ele></ele><time>2024-5-29T22:5:8Z</time></trkpt>
<trkpt lat="46.59056" lon="6.3335"><ele></ele><time>2024-5-29T22:5:11Z</time></trkpt>
<trkpt lat="46.59057" lon="6.33346"><ele></ele><time>2024-5-29T22:5:14Z</time></trkpt>
<trkpt lat="46.5906" lon="6.33337"><ele></ele><time>2024-5-29T22:5:17Z</time></trkpt>
<trkpt lat="46.59066" lon="6.33327"><ele></ele><time>2024-5-29T22:5:20Z</time></trkpt>
<trkpt lat="46.59067" lon="6.33326"><ele></ele><time>2024-5-29T22:5:23Z</time></trkpt>
<trkpt lat="46.59075" lon="6.33322"><ele></ele><time>2024-5-29T22:5:26Z</time></trkpt>
<trkpt lat="46.59078" lon="6.33321"><ele></ele><time>2024-5-29T22:5:29Z</time></trkpt>
<trkpt lat="46.59081" lon="6.33318"><ele></ele><time>2024-5-29T22:5:32Z</time></trkpt>
<trkpt lat="46.59084" lon="6.33314"><ele></ele><time>2024-5-29T22:5:35Z</time></trkpt>
<trkpt lat="46.59085" lon="6.33309"><ele></ele><time>2024-5-29T22:5:38Z</time></trkpt>
<trkpt lat="46.59086" lon="6.33306"><ele></ele><time>2024-5-29T22:5:41Z</time></trkpt>
<trkpt lat="46.59088" lon="6.33301"><ele></ele><time>2024-5-29T22:5:44Z</time></trkpt>
<trkpt lat="46.59087" lon="6.33299"><ele></ele><time>2024-5-29T22:5:47Z</time></trkpt>
<trkpt lat="46.59086" lon="6.33297"><ele></ele><time>2024-5-29T22:5:50Z</time></trkpt>
<trkpt lat="46.59084" lon="6.3329"><ele></ele><time>2024-5-29T22:5:53Z</time></trkpt>
<trkpt lat="46.59084" lon="6.33289"><ele></ele><time>2024-5-29T22:5:56Z</time></trkpt>
<trkpt lat="46.59082" lon="6.33287"><ele></ele><time>2024-5-29T22:5:59Z</time></trkpt>
<trkpt lat="46.59079" lon="6.33276"><ele></ele><time>2024-5-29T22:6:2Z</time></trkpt>
<trkpt lat="46.59074" lon="6.33264"><ele></ele><time>2024-5-29T22:6:5Z</time></trkpt>
<trkpt lat="46.59073" lon="6.33262"><ele></ele><time>2024-5-29T22:6:8Z</time></trkpt>
<trkpt lat="46.59068" lon="6.3325"><ele></ele><time>2024-5-29T22:6:11Z</time></trkpt>
<trkpt lat="46.59062" lon="6.33234"><ele></ele><time>2024-5-29T22:6:14Z</time></trkpt>
<trkpt lat="46.59062" lon="6.33232"><ele></ele><time>2024-5-29T22:6:17Z</time></trkpt>
<trkpt lat="46.59058" lon="6.33218"><ele></ele><time>2024-5-29T22:6:20Z</time></trkpt>
<trkpt lat="46.59053" lon="6.3321"><ele></ele><time>2024-5-29T22:6:23Z</time></trkpt>
<trkpt lat="46.59052" lon="6.33208"><ele></ele><time>2024-5-29T22:6:26Z</time></trkpt>
<trkpt lat="46.59049" lon="6.33196"><ele></ele><time>2024-5-29T22:6:29Z</time></trkpt>
<trkpt lat="46.59049" lon="6.33195"><ele></ele><time>2024-5-29T22:6:32Z</time></trkpt>
<trkpt lat="46.59047" lon="6.33186"><ele></ele><time>2024-5-29T22:6:35Z</time></trkpt>
<trkpt lat="46.59046" lon="6.33181"><ele></ele><time>2024-5-29T22:6:38Z</time></trkpt>
<trkpt lat="46.59046" lon="6.3318"><ele></ele><time>2024-5-29T22:6:41Z</time></trkpt>
<trkpt lat="46.59046" lon="6.33174"><ele></ele><time>2024-5-29T22:6:44Z</time></trkpt>
<trkpt lat="46.59047" lon="6.33166"><ele></ele><time>2024-5-29T22:6:47Z</time></trkpt>
<trkpt lat="46.59048" lon="6.33162"><ele></ele><time>2024-5-29T22:6:50Z</time></trkpt>
<trkpt lat="46.59051" lon="6.33156"><ele></ele><time>2024-5-29T22:6:53Z</time></trkpt>
<trkpt lat="46.59053" lon="6.3315"><ele></ele><time>2024-5-29T22:6:56Z</time></trkpt>
<trkpt lat="46.59056" lon="6.33145"><ele></ele><time>2024-5-29T22:6:59Z</time></trkpt>
<trkpt lat="46.59058" lon="6.33141"><ele></ele><time>2024-5-29T22:7:2Z</time></trkpt>
<trkpt lat="46.59061" lon="6.33139"><ele></ele><time>2024-5-29T22:7:5Z</time></trkpt>
<trkpt lat="46.59063" lon="6.33136"><ele></ele><time>2024-5-29T22:7:8Z</time></trkpt>
<trkpt lat="46.59068" lon="6.33129"><ele></ele><time>2024-5-29T22:7:11Z</time></trkpt>
<trkpt lat="46.59069" lon="6.33126"><ele></ele><time>2024-5-29T22:7:14Z</time></trkpt>
<trkpt lat="46.59072" lon="6.33117"><ele></ele><time>2024-5-29T22:7:17Z</time></trkpt>
<trkpt lat="46.59072" lon="6.33116"><ele></ele><time>2024-5-29T22:7:20Z</time></trkpt>
<trkpt lat="46.59072" lon="6.33114"><ele></ele><time>2024-5-29T22:7:23Z</time></trkpt>
<trkpt lat="46.5907" lon="6.33107"><ele></ele><time>2024-5-29T22:7:26Z</time></trkpt>
<trkpt lat="46.59069" lon="6.33102"><ele></ele><time>2024-5-29T22:7:29Z</time></trkpt>
<trkpt lat="46.59069" lon="6.33092"><ele></ele><time>2024-5-29T22:7:32Z</time></trkpt>
<trkpt lat="46.5907" lon="6.33088"><ele></ele><time>2024-5-29T22:7:35Z</time></trkpt>
<trkpt lat="46.59071" lon="6.33076"><ele></ele><time>2024-5-29T22:7:38Z</time></trkpt>
<trkpt lat="46.59071" lon="6.33072"><ele></ele><time>2024-5-29T22:7:41Z</time></trkpt>
<trkpt lat="46.59074" lon="6.33066"><ele></ele><time>2024-5-29T22:7:44Z</time></trkpt>
<trkpt lat="46.59075" lon="6.33063"><ele></ele><time>2024-5-29T22:7:47Z</time></trkpt>
<trkpt lat="46.59075" lon="6.33056"><ele></ele><time>2024-5-29T22:7:50Z</time></trkpt>
<trkpt lat="46.59074" lon="6.3305"><ele></ele><time>2024-5-29T22:7:53Z</time></trkpt>
<trkpt lat="46.59073" lon="6.33044"><ele></ele><time>2024-5-29T22:7:56Z</time></trkpt>
<trkpt lat="46.59072" lon="6.33039"><ele></ele><time>2024-5-29T22:7:59Z</time></trkpt>
<trkpt lat="46.59071" lon="6.33035"><ele></ele><time>2024-5-29T22:8:2Z</time></trkpt>
<trkpt lat="46.59068" lon="6.33029"><ele></ele><time>2024-5-29T22:8:5Z</time></trkpt>
<trkpt lat="46.59067" lon="6.33025"><ele></ele><time>2024-5-29T22:8:8Z</time></trkpt>
<trkpt lat="46.59067" lon="6.33018"><ele></ele><time>2024-5-29T22:8:11Z</time></trkpt>
<trkpt lat="46.59068" lon="6.33013"><ele></ele><time>2024-5-29T22:8:14Z</time></trkpt>
<trkpt lat="46.59069" lon="6.33006"><ele></ele><time>2024-5-29T22:8:17Z</time></trkpt>
<trkpt lat="46.59071" lon="6.32999"><ele></ele><time>2024-5-29T22:8:20Z</time></trkpt>
<trkpt lat="46.59073" lon="6.32995"><ele></ele><time>2024-5-29T22:8:23Z</time></trkpt>
<trkpt lat="46.59075" lon="6.32989"><ele></ele><time>2024-5-29T22:8:26Z</time></trkpt>
<trkpt lat="46.59076" lon="6.32982"><ele></ele><time>2024-5-29T22:8:29Z</time></trkpt>
<trkpt lat="46.59077" lon="6.32977"><ele></ele><time>2024-5-29T22:8:32Z</time></trkpt>
<trkpt lat="46.59078" lon="6.32973"><ele></ele><time>2024-5-29T22:8:35Z</time></trkpt>
<trkpt lat="46.59079" lon="6.32971"><ele></ele><time>2024-5-29T22:8:38Z</time></trkpt>
<trkpt lat="46.5908" lon="6.32969"><ele></ele><time>2024-5-29T22:8:41Z</time></trkpt>
<trkpt lat="46.59081" lon="6.32964"><ele></ele><time>2024-5-29T22:8:44Z</time></trkpt>
<trkpt lat="46.59083" lon="6.32961"><ele></ele><time>2024-5-29T22:8:47Z</time></trkpt>
<trkpt lat="46.59087" lon="6.32955"><ele></ele><time>2024-5-29T22:8:50Z</time></trkpt>
<trkpt lat="46.5909" lon="6.3295"><ele></ele><time>2024-5-29T22:8:53Z</time></trkpt>
<trkpt lat="46.59091" lon="6.32948"><ele></ele><time>2024-5-29T22:8:56Z</time></trkpt>
<trkpt lat="46.59093" lon="6.32945"><ele></ele><time>2024-5-29T22:8:59Z</time></trkpt>
<trkpt lat="46.59095" lon="6.32941"><ele></ele><time>2024-5-29T22:9:2Z</time></trkpt>
<trkpt lat="46.59098" lon="6.32937"><ele></ele><time>2024-5-29T22:9:5Z</time></trkpt>
<trkpt lat="46.59102" lon="6.32931"><ele></ele><time>2024-5-29T22:9:8Z</time></trkpt>
<trkpt lat="46.59105" lon="6.32928"><ele></ele><time>2024-5-29T22:9:11Z</time></trkpt>
<trkpt lat="46.5911" lon="6.32922"><ele></ele><time>2024-5-29T22:9:14Z</time></trkpt>
<trkpt lat="46.59116" lon="6.32914"><ele></ele><time>2024-5-29T22:9:17Z</time></trkpt>
<trkpt lat="46.59118" lon="6.32912"><ele></ele><time>2024-5-29T22:9:20Z</time></trkpt>
<trkpt lat="46.59124" lon="6.32905"><ele></ele><time>2024-5-29T22:9:23Z</time></trkpt>
<trkpt lat="46.5913" lon="6.32894"><ele></ele><time>2024-5-29T22:9:26Z</time></trkpt>
<trkpt lat="46.59137" lon="6.32879"><ele></ele><time>2024-5-29T22:9:29Z</time></trkpt>
<trkpt lat="46.5914" lon="6.32872"><ele></ele><time>2024-5-29T22:9:32Z</time></trkpt>
<trkpt lat="46.59148" lon="6.32855"><ele></ele><time>2024-5-29T22:9:35Z</time></trkpt>
<trkpt lat="46.5915" lon="6.32851"><ele></ele><time>2024-5-29T22:9:38Z</time></trkpt>
<trkpt lat="46.59162" lon="6.32847"><ele></ele><time>2024-5-29T22:9:41Z</time></trkpt>
<trkpt lat="46.59164" lon="6.32849"><ele></ele><time>2024-5-29T22:9:44Z</time></trkpt>
<trkpt lat="46.59168" lon="6.32859"><ele></ele><time>2024-5-29T22:9:47Z</time></trkpt>
<trkpt lat="46.59168" lon="6.32863"><ele></ele><time>2024-5-29T22:9:50Z</time></trkpt>
<trkpt lat="46.59168" lon="6.32869"><ele></ele><time>2024-5-29T22:9:53Z</time></trkpt>
<trkpt lat="46.59168" lon="6.32874"><ele></ele><time>2024-5-29T22:9:56Z</time></trkpt>
<trkpt lat="46.59164" lon="6.32885"><ele></ele><time>2024-5-29T22:9:59Z</time></trkpt>
<trkpt lat="46.59158" lon="6.32897"><ele></ele><time>2024-5-29T22:10:2Z</time></trkpt>
<trkpt lat="46.59157" lon="6.32903"><ele></ele><time>2024-5-29T22:10:5Z</time></trkpt>
<trkpt lat="46.59148" lon="6.32925"><ele></ele><time>2024-5-29T22:10:8Z</time></trkpt>
<trkpt lat="46.59148" lon="6.32928"><ele></ele><time>2024-5-29T22:10:11Z</time></trkpt>
<trkpt lat="46.59146" lon="6.32938"><ele></ele><time>2024-5-29T22:10:14Z</time></trkpt>
<trkpt lat="46.59145" lon="6.32945"><ele></ele><time>2024-5-29T22:10:17Z</time></trkpt>
<trkpt lat="46.59145" lon="6.32954"><ele></ele><time>2024-5-29T22:10:20Z</time></trkpt>
<trkpt lat="46.59143" lon="6.32964"><ele></ele><time>2024-5-29T22:10:23Z</time></trkpt>
<trkpt lat="46.59142" lon="6.32972"><ele></ele><time>2024-5-29T22:10:26Z</time></trkpt>
<trkpt lat="46.59141" lon="6.32983"><ele></ele><time>2024-5-29T22:10:29Z</time></trkpt>
<trkpt lat="46.59142" lon="6.3299"><ele></ele><time>2024-5-29T22:10:32Z</time></trkpt>
<trkpt lat="46.59146" lon="6.33002"><ele></ele><time>2024-5-29T22:10:35Z</time></trkpt>
<trkpt lat="46.59151" lon="6.33008"><ele></ele><time>2024-5-29T22:10:38Z</time></trkpt>
<trkpt lat="46.59158" lon="6.33014"><ele></ele><time>2024-5-29T22:10:41Z</time></trkpt>
<trkpt lat="46.59167" lon="6.3302"><ele></ele><time>2024-5-29T22:10:44Z</time></trkpt>
<trkpt lat="46.59168" lon="6.33022"><ele></ele><time>2024-5-29T22:10:47Z</time></trkpt>
<trkpt lat="46.59172" lon="6.33026"><ele></ele><time>2024-5-29T22:10:50Z</time></trkpt>
<trkpt lat="46.59173" lon="6.33027"><ele></ele><time>2024-5-29T22:10:53Z</time></trkpt>
<trkpt lat="46.59179" lon="6.33032"><ele></ele><time>2024-5-29T22:10:56Z</time></trkpt>
<trkpt lat="46.59182" lon="6.33035"><ele></ele><time>2024-5-29T22:10:59Z</time></trkpt>
<trkpt lat="46.59183" lon="6.33035"><ele></ele><time>2024-5-29T22:11:2Z</time></trkpt>
<trkpt lat="46.59187" lon="6.33038"><ele></ele><time>2024-5-29T22:11:5Z</time></trkpt>
<trkpt lat="46.59191" lon="6.3304"><ele></ele><time>2024-5-29T22:11:8Z</time></trkpt>
<trkpt lat="46.59193" lon="6.33042"><ele></ele><time>2024-5-29T22:11:11Z</time></trkpt>
<trkpt lat="46.59202" lon="6.33048"><ele></ele><time>2024-5-29T22:11:14Z</time></trkpt>
<trkpt lat="46.5921" lon="6.33055"><ele></ele><time>2024-5-29T22:11:17Z</time></trkpt>
<trkpt lat="46.59212" lon="6.33057"><ele></ele><time>2024-5-29T22:11:20Z</time></trkpt>
<trkpt lat="46.59215" lon="6.3306"><ele></ele><time>2024-5-29T22:11:23Z</time></trkpt>
<trkpt lat="46.59217" lon="6.3306"><ele></ele><time>2024-5-29T22:11:26Z</time></trkpt>
<trkpt lat="46.59222" lon="6.33061"><ele></ele><time>2024-5-29T22:11:29Z</time></trkpt>
<trkpt lat="46.59225" lon="6.33059"><ele></ele><time>2024-5-29T22:11:32Z</time></trkpt>
<trkpt lat="46.59231" lon="6.33055"><ele></ele><time>2024-5-29T22:11:35Z</time></trkpt>
<trkpt lat="46.59232" lon="6.33055"><ele></ele><time>2024-5-29T22:11:38Z</time></trkpt>
<trkpt lat="46.59234" lon="6.33052"><ele></ele><time>2024-5-29T22:11:41Z</time></trkpt>
<trkpt lat="46.59235" lon="6.3305"><ele></ele><time>2024-5-29T22:11:44Z</time></trkpt>
<trkpt lat="46.59235" lon="6.33049"><ele></ele><time>2024-5-29T22:11:47Z</time></trkpt>
<trkpt lat="46.59236" lon="6.33047"><ele></ele><time>2024-5-29T22:11:50Z</time></trkpt>
<trkpt lat="46.59241" lon="6.33036"><ele></ele><time>2024-5-29T22:11:53Z</time></trkpt>
<trkpt lat="46.59242" lon="6.33035"><ele></ele><time>2024-5-29T22:11:56Z</time></trkpt>
<trkpt lat="46.59249" lon="6.3303"><ele></ele><time>2024-5-29T22:11:59Z</time></trkpt>
<trkpt lat="46.59254" lon="6.3303"><ele></ele><time>2024-5-29T22:12:2Z</time></trkpt>
<trkpt lat="46.5926" lon="6.33034"><ele></ele><time>2024-5-29T22:12:5Z</time></trkpt>
<trkpt lat="46.59268" lon="6.33043"><ele></ele><time>2024-5-29T22:12:8Z</time></trkpt>
<trkpt lat="46.5927" lon="6.33048"><ele></ele><time>2024-5-29T22:12:11Z</time></trkpt>
<trkpt lat="46.59278" lon="6.33059"><ele></ele><time>2024-5-29T22:12:14Z</time></trkpt>
<trkpt lat="46.59282" lon="6.33063"><ele></ele><time>2024-5-29T22:12:17Z</time></trkpt>
<trkpt lat="46.5929" lon="6.33069"><ele></ele><time>2024-5-29T22:12:20Z</time></trkpt>
<trkpt lat="46.59296" lon="6.33075"><ele></ele><time>2024-5-29T22:12:23Z</time></trkpt>
<trkpt lat="46.59299" lon="6.33078"><ele></ele><time>2024-5-29T22:12:26Z</time></trkpt>
<trkpt lat="46.59305" lon="6.33088"><ele></ele><time>2024-5-29T22:12:29Z</time></trkpt>
<trkpt lat="46.59307" lon="6.33091"><ele></ele><time>2024-5-29T22:12:32Z</time></trkpt>
<trkpt lat="46.59311" lon="6.331"><ele></ele><time>2024-5-29T22:12:35Z</time></trkpt>
<trkpt lat="46.59312" lon="6.33104"><ele></ele><time>2024-5-29T22:12:38Z</time></trkpt>
<trkpt lat="46.59316" lon="6.33115"><ele></ele><time>2024-5-29T22:12:41Z</time></trkpt>
<trkpt lat="46.59318" lon="6.33119"><ele></ele><time>2024-5-29T22:12:44Z</time></trkpt>
<trkpt lat="46.5932" lon="6.33126"><ele></ele><time>2024-5-29T22:12:47Z</time></trkpt>
<trkpt lat="46.59328" lon="6.33133"><ele></ele><time>2024-5-29T22:12:50Z</time></trkpt>
<trkpt lat="46.59332" lon="6.33134"><ele></ele><time>2024-5-29T22:12:53Z</time></trkpt>
<trkpt lat="46.59336" lon="6.33133"><ele></ele><time>2024-5-29T22:12:56Z</time></trkpt>
<trkpt lat="46.59341" lon="6.33132"><ele></ele><time>2024-5-29T22:12:59Z</time></trkpt>
<trkpt lat="46.59346" lon="6.33132"><ele></ele><time>2024-5-29T22:13:2Z</time></trkpt>
<trkpt lat="46.59353" lon="6.33134"><ele></ele><time>2024-5-29T22:13:5Z</time></trkpt>
<trkpt lat="46.59358" lon="6.33138"><ele></ele><time>2024-5-29T22:13:8Z</time></trkpt>
<trkpt lat="46.59363" lon="6.33142"><ele></ele><time>2024-5-29T22:13:11Z</time></trkpt>
<trkpt lat="46.59369" lon="6.33147"><ele></ele><time>2024-5-29T22:13:14Z</time></trkpt>
<trkpt lat="46.59378" lon="6.33151"><ele></ele><time>2024-5-29T22:13:17Z</time></trkpt>
<trkpt lat="46.59381" lon="6.33151"><ele></ele><time>2024-5-29T22:13:20Z</time></trkpt>
<trkpt lat="46.59386" lon="6.33151"><ele></ele><time>2024-5-29T22:13:23Z</time></trkpt>
<trkpt lat="46.59392" lon="6.33151"><ele></ele><time>2024-5-29T22:13:26Z</time></trkpt>
<trkpt lat="46.594" lon="6.33151"><ele></ele><time>2024-5-29T22:13:29Z</time></trkpt>
<trkpt lat="46.59403" lon="6.33151"><ele></ele><time>2024-5-29T22:13:32Z</time></trkpt>
<trkpt lat="46.59406" lon="6.33151"><ele></ele><time>2024-5-29T22:13:35Z</time></trkpt>
<trkpt lat="46.59409" lon="6.33152"><ele></ele><time>2024-5-29T22:13:38Z</time></trkpt>
<trkpt lat="46.59412" lon="6.33154"><ele></ele><time>2024-5-29T22:13:41Z</time></trkpt>
<trkpt lat="46.59419" lon="6.33159"><ele></ele><time>2024-5-29T22:13:44Z</time></trkpt>
<trkpt lat="46.59421" lon="6.3316"><ele></ele><time>2024-5-29T22:13:47Z</time></trkpt>
<trkpt lat="46.59432" lon="6.33166"><ele></ele><time>2024-5-29T22:13:50Z</time></trkpt>
<trkpt lat="46.59445" lon="6.33172"><ele></ele><time>2024-5-29T22:13:53Z</time></trkpt>
<trkpt lat="46.59456" lon="6.33184"><ele></ele><time>2024-5-29T22:13:56Z</time></trkpt>
<trkpt lat="46.59457" lon="6.33186"><ele></ele><time>2024-5-29T22:13:59Z</time></trkpt>
<trkpt lat="46.59461" lon="6.33198"><ele></ele><time>2024-5-29T22:14:2Z</time></trkpt>
<trkpt lat="46.59464" lon="6.3321"><ele></ele><time>2024-5-29T22:14:5Z</time></trkpt>
<trkpt lat="46.59471" lon="6.33224"><ele></ele><time>2024-5-29T22:14:8Z</time></trkpt>
<trkpt lat="46.59472" lon="6.33226"><ele></ele><time>2024-5-29T22:14:11Z</time></trkpt>
<trkpt lat="46.59479" lon="6.3323"><ele></ele><time>2024-5-29T22:14:14Z</time></trkpt>
<trkpt lat="46.59483" lon="6.33229"><ele></ele><time>2024-5-29T22:14:17Z</time></trkpt>
<trkpt lat="46.5949" lon="6.33227"><ele></ele><time>2024-5-29T22:14:20Z</time></trkpt>
<trkpt lat="46.59493" lon="6.33224"><ele></ele><time>2024-5-29T22:14:23Z</time></trkpt>
<trkpt lat="46.59501" lon="6.33222"><ele></ele><time>2024-5-29T22:14:26Z</time></trkpt>
<trkpt lat="46.59505" lon="6.33223"><ele></ele><time>2024-5-29T22:14:29Z</time></trkpt>
<trkpt lat="46.5951" lon="6.33224"><ele></ele><time>2024-5-29T22:14:32Z</time></trkpt>
<trkpt lat="46.59515" lon="6.33229"><ele></ele><time>2024-5-29T22:14:35Z</time></trkpt>
<trkpt lat="46.59518" lon="6.33232"><ele></ele><time>2024-5-29T22:14:38Z</time></trkpt>
<trkpt lat="46.5952" lon="6.33238"><ele></ele><time>2024-5-29T22:14:41Z</time></trkpt>
<trkpt lat="46.59521" lon="6.33245"><ele></ele><time>2024-5-29T22:14:44Z</time></trkpt>
<trkpt lat="46.5952" lon="6.33251"><ele></ele><time>2024-5-29T22:14:47Z</time></trkpt>
<trkpt lat="46.59519" lon="6.33255"><ele></ele><time>2024-5-29T22:14:50Z</time></trkpt>
<trkpt lat="46.59519" lon="6.33257"><ele></ele><time>2024-5-29T22:14:53Z</time></trkpt>
<trkpt lat="46.59515" lon="6.33268"><ele></ele><time>2024-5-29T22:14:56Z</time></trkpt>
<trkpt lat="46.59514" lon="6.33273"><ele></ele><time>2024-5-29T22:14:59Z</time></trkpt>
<trkpt lat="46.59512" lon="6.33284"><ele></ele><time>2024-5-29T22:15:2Z</time></trkpt>
<trkpt lat="46.59512" lon="6.33288"><ele></ele><time>2024-5-29T22:15:5Z</time></trkpt>
<trkpt lat="46.59511" lon="6.33298"><ele></ele><time>2024-5-29T22:15:8Z</time></trkpt>
<trkpt lat="46.59511" lon="6.33302"><ele></ele><time>2024-5-29T22:15:11Z</time></trkpt>
<trkpt lat="46.5951" lon="6.33309"><ele></ele><time>2024-5-29T22:15:14Z</time></trkpt>
<trkpt lat="46.5951" lon="6.33313"><ele></ele><time>2024-5-29T22:15:17Z</time></trkpt>
<trkpt lat="46.59511" lon="6.33322"><ele></ele><time>2024-5-29T22:15:20Z</time></trkpt>
<trkpt lat="46.5951" lon="6.33324"><ele></ele><time>2024-5-29T22:15:23Z</time></trkpt>
<trkpt lat="46.5951" lon="6.33332"><ele></ele><time>2024-5-29T22:15:26Z</time></trkpt>
<trkpt lat="46.59512" lon="6.33338"><ele></ele><time>2024-5-29T22:15:29Z</time></trkpt>
<trkpt lat="46.59513" lon="6.33341"><ele></ele><time>2024-5-29T22:15:32Z</time></trkpt>
<trkpt lat="46.59516" lon="6.33347"><ele></ele><time>2024-5-29T22:15:35Z</time></trkpt>
<trkpt lat="46.59517" lon="6.33348"><ele></ele><time>2024-5-29T22:15:38Z</time></trkpt>
<trkpt lat="46.59523" lon="6.33351"><ele></ele><time>2024-5-29T22:15:41Z</time></trkpt>
<trkpt lat="46.59527" lon="6.33353"><ele></ele><time>2024-5-29T22:15:44Z</time></trkpt>
<trkpt lat="46.59528" lon="6.33353"><ele></ele><time>2024-5-29T22:15:47Z</time></trkpt>
<trkpt lat="46.59534" lon="6.33348"><ele></ele><time>2024-5-29T22:15:50Z</time></trkpt>
<trkpt lat="46.59535" lon="6.33346"><ele></ele><time>2024-5-29T22:15:53Z</time></trkpt>
<trkpt lat="46.59538" lon="6.33339"><ele></ele><time>2024-5-29T22:15:56Z</time></trkpt>
<trkpt lat="46.59538" lon="6.33339"><ele></ele><time>2024-5-29T22:15:59Z</time></trkpt>
<trkpt lat="46.59539" lon="6.33337"><ele></ele><time>2024-5-29T22:16:2Z</time></trkpt>
<trkpt lat="46.59542" lon="6.33333"><ele></ele><time>2024-5-29T22:16:5Z</time></trkpt>
<trkpt lat="46.59543" lon="6.33329"><ele></ele><time>2024-5-29T22:16:8Z</time></trkpt>
<trkpt lat="46.59544" lon="6.33328"><ele></ele><time>2024-5-29T22:16:11Z</time></trkpt>
<trkpt lat="46.59544" lon="6.33326"><ele></ele><time>2024-5-29T22:16:14Z</time></trkpt>
<trkpt lat="46.59545" lon="6.33325"><ele></ele><time>2024-5-29T22:16:17Z</time></trkpt>
<trkpt lat="46.59549" lon="6.33319"><ele></ele><time>2024-5-29T22:16:20Z</time></trkpt>
<trkpt lat="46.59549" lon="6.33316"><ele></ele><time>2024-5-29T22:16:23Z</time></trkpt>
<trkpt lat="46.59554" lon="6.33309"><ele></ele><time>2024-5-29T22:16:26Z</time></trkpt>
<trkpt lat="46.59555" lon="6.33307"><ele></ele><time>2024-5-29T22:16:29Z</time></trkpt>
<trkpt lat="46.59558" lon="6.33304"><ele></ele><time>2024-5-29T22:16:32Z</time></trkpt>
<trkpt lat="46.59558" lon="6.33302"><ele></ele><time>2024-5-29T22:16:35Z</time></trkpt>
<trkpt lat="46.59561" lon="6.33299"><ele></ele><time>2024-5-29T22:16:38Z</time></trkpt>
<trkpt lat="46.59564" lon="6.33296"><ele></ele><time>2024-5-29T22:16:41Z</time></trkpt>
<trkpt lat="46.59566" lon="6.33295"><ele></ele><time>2024-5-29T22:16:44Z</time></trkpt>
<trkpt lat="46.5957" lon="6.33293"><ele></ele><time>2024-5-29T22:16:47Z</time></trkpt>
<trkpt lat="46.59571" lon="6.33291"><ele></ele><time>2024-5-29T22:16:50Z</time></trkpt>
<trkpt lat="46.59578" lon="6.33288"><ele></ele><time>2024-5-29T22:16:53Z</time></trkpt>
<trkpt lat="46.59581" lon="6.33286"><ele></ele><time>2024-5-29T22:16:56Z</time></trkpt>
<trkpt lat="46.59583" lon="6.33285"><ele></ele><time>2024-5-29T22:16:59Z</time></trkpt>
<trkpt lat="46.59585" lon="6.33284"><ele></ele><time>2024-5-29T22:17:2Z</time></trkpt>
<trkpt lat="46.59586" lon="6.33284"><ele></ele><time>2024-5-29T22:17:5Z</time></trkpt>
<trkpt lat="46.59587" lon="6.33284"><ele></ele><time>2024-5-29T22:17:8Z</time></trkpt>
<trkpt lat="46.59591" lon="6.33283"><ele></ele><time>2024-5-29T22:17:11Z</time></trkpt>
<trkpt lat="46.59592" lon="6.33283"><ele></ele><time>2024-5-29T22:17:14Z</time></trkpt>
<trkpt lat="46.59597" lon="6.3328"><ele></ele><time>2024-5-29T22:17:17Z</time></trkpt>
<trkpt lat="46.59598" lon="6.33279"><ele></ele><time>2024-5-29T22:17:20Z</time></trkpt>
<trkpt lat="46.59605" lon="6.33274"><ele></ele><time>2024-5-29T22:17:23Z</time></trkpt>
<trkpt lat="46.59608" lon="6.33271"><ele></ele><time>2024-5-29T22:17:26Z</time></trkpt>
<trkpt lat="46.59611" lon="6.33266"><ele></ele><time>2024-5-29T22:17:29Z</time></trkpt>
<trkpt lat="46.59613" lon="6.33265"><ele></ele><time>2024-5-29T22:17:32Z</time></trkpt>
<trkpt lat="46.59617" lon="6.33261"><ele></ele><time>2024-5-29T22:17:35Z</time></trkpt>
<trkpt lat="46.59619" lon="6.3326"><ele></ele><time>2024-5-29T22:17:38Z</time></trkpt>
<trkpt lat="46.5962" lon="6.33259"><ele></ele><time>2024-5-29T22:17:41Z</time></trkpt>
<trkpt lat="46.59624" lon="6.33258"><ele></ele><time>2024-5-29T22:17:44Z</time></trkpt>
<trkpt lat="46.59625" lon="6.33257"><ele></ele><time>2024-5-29T22:17:47Z</time></trkpt>
<trkpt lat="46.59632" lon="6.33252"><ele></ele><time>2024-5-29T22:17:50Z</time></trkpt>
<trkpt lat="46.59633" lon="6.33252"><ele></ele><time>2024-5-29T22:17:53Z</time></trkpt>
<trkpt lat="46.59641" lon="6.33241"><ele></ele><time>2024-5-29T22:17:56Z</time></trkpt>
<trkpt lat="46.59642" lon="6.3324"><ele></ele><time>2024-5-29T22:17:59Z</time></trkpt>
<trkpt lat="46.59642" lon="6.33237"><ele></ele><time>2024-5-29T22:18:2Z</time></trkpt>
<trkpt lat="46.59643" lon="6.33233"><ele></ele><time>2024-5-29T22:18:5Z</time></trkpt>
<trkpt lat="46.59644" lon="6.33229"><ele></ele><time>2024-5-29T22:18:8Z</time></trkpt>
<trkpt lat="46.59645" lon="6.33224"><ele></ele><time>2024-5-29T22:18:11Z</time></trkpt>
<trkpt lat="46.59646" lon="6.33217"><ele></ele><time>2024-5-29T22:18:14Z</time></trkpt>
<trkpt lat="46.59648" lon="6.33208"><ele></ele><time>2024-5-29T22:18:17Z</time></trkpt>
<trkpt lat="46.59649" lon="6.33205"><ele></ele><time>2024-5-29T22:18:20Z</time></trkpt>
<trkpt lat="46.59649" lon="6.33191"><ele></ele><time>2024-5-29T22:18:23Z</time></trkpt>
<trkpt lat="46.59649" lon="6.33189"><ele></ele><time>2024-5-29T22:18:26Z</time></trkpt>
<trkpt lat="46.59645" lon="6.3318"><ele></ele><time>2024-5-29T22:18:29Z</time></trkpt>
<trkpt lat="46.59645" lon="6.33179"><ele></ele><time>2024-5-29T22:18:32Z</time></trkpt>
<trkpt lat="46.59639" lon="6.33167"><ele></ele><time>2024-5-29T22:18:35Z</time></trkpt>
<trkpt lat="46.59635" lon="6.33158"><ele></ele><time>2024-5-29T22:18:38Z</time></trkpt>
<trkpt lat="46.59634" lon="6.33154"><ele></ele><time>2024-5-29T22:18:41Z</time></trkpt>
<trkpt lat="46.59632" lon="6.33145"><ele></ele><time>2024-5-29T22:18:44Z</time></trkpt>
<trkpt lat="46.59631" lon="6.33141"><ele></ele><time>2024-5-29T22:18:47Z</time></trkpt>
<trkpt lat="46.59631" lon="6.33132"><ele></ele><time>2024-5-29T22:18:50Z</time></trkpt>
<trkpt lat="46.59631" lon="6.3313"><ele></ele><time>2024-5-29T22:18:53Z</time></trkpt>
<trkpt lat="46.59632" lon="6.33119"><ele></ele><time>2024-5-29T22:18:56Z</time></trkpt>
<trkpt lat="46.59633" lon="6.33117"><ele></ele><time>2024-5-29T22:18:59Z</time></trkpt>
<trkpt lat="46.59634" lon="6.3311"><ele></ele><time>2024-5-29T22:19:2Z</time></trkpt>
<trkpt lat="46.59634" lon="6.33105"><ele></ele><time>2024-5-29T22:19:5Z</time></trkpt>
<trkpt lat="46.59635" lon="6.33098"><ele></ele><time>2024-5-29T22:19:8Z</time></trkpt>
<trkpt lat="46.59638" lon="6.33089"><ele></ele><time>2024-5-29T22:19:11Z</time></trkpt>
<trkpt lat="46.59638" lon="6.33087"><ele></ele><time>2024-5-29T22:19:14Z</time></trkpt>
<trkpt lat="46.59641" lon="6.33075"><ele></ele><time>2024-5-29T22:19:17Z</time></trkpt>
<trkpt lat="46.59641" lon="6.33071"><ele></ele><time>2024-5-29T22:19:20Z</time></trkpt>
<trkpt lat="46.59641" lon="6.33069"><ele></ele><time>2024-5-29T22:19:23Z</time></trkpt>
<trkpt lat="46.59642" lon="6.33065"><ele></ele><time>2024-5-29T22:19:26Z</time></trkpt>
<trkpt lat="46.59642" lon="6.33062"><ele></ele><time>2024-5-29T22:19:29Z</time></trkpt>
<trkpt lat="46.59642" lon="6.33056"><ele></ele><time>2024-5-29T22:19:32Z</time></trkpt>
<trkpt lat="46.59644" lon="6.33049"><ele></ele><time>2024-5-29T22:19:35Z</time></trkpt>
<trkpt lat="46.59643" lon="6.33045"><ele></ele><time>2024-5-29T22:19:38Z</time></trkpt>
<trkpt lat="46.59641" lon="6.33036"><ele></ele><time>2024-5-29T22:19:41Z</time></trkpt>
<trkpt lat="46.59639" lon="6.33034"><ele></ele><time>2024-5-29T22:19:44Z</time></trkpt>
<trkpt lat="46.59636" lon="6.33028"><ele></ele><time>2024-5-29T22:19:47Z</time></trkpt>
<trkpt lat="46.59636" lon="6.33027"><ele></ele><time>2024-5-29T22:19:50Z</time></trkpt>
<trkpt lat="46.5963" lon="6.33015"><ele></ele><time>2024-5-29T22:19:53Z</time></trkpt>
<trkpt lat="46.59625" lon="6.32999"><ele></ele><time>2024-5-29T22:19:56Z</time></trkpt>
<trkpt lat="46.59622" lon="6.32981"><ele></ele><time>2024-5-29T22:19:59Z</time></trkpt>
<trkpt lat="46.59621" lon="6.32976"><ele></ele><time>2024-5-29T22:20:2Z</time></trkpt>
<trkpt lat="46.5962" lon="6.32973"><ele></ele><time>2024-5-29T22:20:5Z</time></trkpt>
<trkpt lat="46.59621" lon="6.32953"><ele></ele><time>2024-5-29T22:20:8Z</time></trkpt>
<trkpt lat="46.59623" lon="6.32946"><ele></ele><time>2024-5-29T22:20:11Z</time></trkpt>
<trkpt lat="46.59625" lon="6.32943"><ele></ele><time>2024-5-29T22:20:14Z</time></trkpt>
<trkpt lat="46.59625" lon="6.3294"><ele></ele><time>2024-5-29T22:20:17Z</time></trkpt>
<trkpt lat="46.59628" lon="6.32935"><ele></ele><time>2024-5-29T22:20:20Z</time></trkpt>
<trkpt lat="46.59635" lon="6.32919"><ele></ele><time>2024-5-29T22:20:23Z</time></trkpt>
<trkpt lat="46.59634" lon="6.32903"><ele></ele><time>2024-5-29T22:20:26Z</time></trkpt>
<trkpt lat="46.59633" lon="6.32901"><ele></ele><time>2024-5-29T22:20:29Z</time></trkpt>
<trkpt lat="46.5963" lon="6.32894"><ele></ele><time>2024-5-29T22:20:32Z</time></trkpt>
<trkpt lat="46.59628" lon="6.32884"><ele></ele><time>2024-5-29T22:20:35Z</time></trkpt>
<trkpt lat="46.59627" lon="6.32879"><ele></ele><time>2024-5-29T22:20:38Z</time></trkpt>
<trkpt lat="46.59624" lon="6.32869"><ele></ele><time>2024-5-29T22:20:41Z</time></trkpt>
<trkpt lat="46.59623" lon="6.32864"><ele></ele><time>2024-5-29T22:20:44Z</time></trkpt>
<trkpt lat="46.59622" lon="6.32859"><ele></ele><time>2024-5-29T22:20:47Z</time></trkpt>
<trkpt lat="46.5962" lon="6.32855"><ele></ele><time>2024-5-29T22:20:50Z</time></trkpt>
<trkpt lat="46.59618" lon="6.32841"><ele></ele><time>2024-5-29T22:20:53Z</time></trkpt>
<trkpt lat="46.59615" lon="6.3282"><ele></ele><time>2024-5-29T22:20:56Z</time></trkpt>
<trkpt lat="46.59608" lon="6.32798"><ele></ele><time>2024-5-29T22:20:59Z</time></trkpt>
<trkpt lat="46.59603" lon="6.3279"><ele></ele><time>2024-5-29T22:21:2Z</time></trkpt>
<trkpt lat="46.59603" lon="6.32789"><ele></ele><time>2024-5-29T22:21:5Z</time></trkpt>
<trkpt lat="46.59589" lon="6.32785"><ele></ele><time>2024-5-29T22:21:8Z</time></trkpt>
<trkpt lat="46.59587" lon="6.32785"><ele></ele><time>2024-5-29T22:21:11Z</time></trkpt>
<trkpt lat="46.59578" lon="6.32786"><ele></ele><time>2024-5-29T22:21:14Z</time></trkpt>
<trkpt lat="46.59572" lon="6.32787"><ele></ele><time>2024-5-29T22:21:17Z</time></trkpt>
<trkpt lat="46.5956" lon="6.32785"><ele></ele><time>2024-5-29T22:21:20Z</time></trkpt>
<trkpt lat="46.59558" lon="6.32782"><ele></ele><time>2024-5-29T22:21:23Z</time></trkpt>
<trkpt lat="46.59554" lon="6.32775"><ele></ele><time>2024-5-29T22:21:26Z</time></trkpt>
<trkpt lat="46.59552" lon="6.3277"><ele></ele><time>2024-5-29T22:21:29Z</time></trkpt>
<trkpt lat="46.59546" lon="6.32758"><ele></ele><time>2024-5-29T22:21:32Z</time></trkpt>
<trkpt lat="46.59541" lon="6.32747"><ele></ele><time>2024-5-29T22:21:35Z</time></trkpt>
<trkpt lat="46.5954" lon="6.32743"><ele></ele><time>2024-5-29T22:21:38Z</time></trkpt>
<trkpt lat="46.59536" lon="6.32731"><ele></ele><time>2024-5-29T22:21:41Z</time></trkpt>
<trkpt lat="46.59536" lon="6.32724"><ele></ele><time>2024-5-29T22:21:44Z</time></trkpt>
<trkpt lat="46.59535" lon="6.32717"><ele></ele><time>2024-5-29T22:21:47Z</time></trkpt>
<trkpt lat="46.59536" lon="6.32706"><ele></ele><time>2024-5-29T22:21:50Z</time></trkpt>
<trkpt lat="46.59536" lon="6.32703"><ele></ele><time>2024-5-29T22:21:53Z</time></trkpt>
<trkpt lat="46.59536" lon="6.32698"><ele></ele><time>2024-5-29T22:21:56Z</time></trkpt>
<trkpt lat="46.59536" lon="6.32686"><ele></ele><time>2024-5-29T22:21:59Z</time></trkpt>
<trkpt lat="46.59536" lon="6.32683"><ele></ele><time>2024-5-29T22:22:2Z</time></trkpt>
<trkpt lat="46.59536" lon="6.32675"><ele></ele><time>2024-5-29T22:22:5Z</time></trkpt>
<trkpt lat="46.59538" lon="6.32669"><ele></ele><time>2024-5-29T22:22:8Z</time></trkpt>
<trkpt lat="46.5954" lon="6.32664"><ele></ele><time>2024-5-29T22:22:11Z</time></trkpt>
<trkpt lat="46.59544" lon="6.32658"><ele></ele><time>2024-5-29T22:22:14Z</time></trkpt>
<trkpt lat="46.59547" lon="6.32653"><ele></ele><time>2024-5-29T22:22:17Z</time></trkpt>
<trkpt lat="46.59555" lon="6.32645"><ele></ele><time>2024-5-29T22:22:20Z</time></trkpt>
<trkpt lat="46.59556" lon="6.32644"><ele></ele><time>2024-5-29T22:22:23Z</time></trkpt>
<trkpt lat="46.59564" lon="6.32623"><ele></ele><time>2024-5-29T22:22:26Z</time></trkpt>
<trkpt lat="46.59565" lon="6.32615"><ele></ele><time>2024-5-29T22:22:29Z</time></trkpt>
<trkpt lat="46.59564" lon="6.32602"><ele></ele><time>2024-5-29T22:22:32Z</time></trkpt>
<trkpt lat="46.59558" lon="6.32587"><ele></ele><time>2024-5-29T22:22:35Z</time></trkpt>
<trkpt lat="46.59556" lon="6.32585"><ele></ele><time>2024-5-29T22:22:38Z</time></trkpt>
<trkpt lat="46.59547" lon="6.32577"><ele></ele><time>2024-5-29T22:22:41Z</time></trkpt>
<trkpt lat="46.59542" lon="6.32573"><ele></ele><time>2024-5-29T22:22:44Z</time></trkpt>
<trkpt lat="46.59534" lon="6.32565"><ele></ele><time>2024-5-29T22:22:47Z</time></trkpt>
<trkpt lat="46.59525" lon="6.32554"><ele></ele><time>2024-5-29T22:22:50Z</time></trkpt>
<trkpt lat="46.59524" lon="6.32552"><ele></ele><time>2024-5-29T22:22:53Z</time></trkpt>
<trkpt lat="46.59519" lon="6.32535"><ele></ele><time>2024-5-29T22:22:56Z</time></trkpt>
<trkpt lat="46.59518" lon="6.32533"><ele></ele><time>2024-5-29T22:22:59Z</time></trkpt>
<trkpt lat="46.59514" lon="6.32514"><ele></ele><time>2024-5-29T22:23:2Z</time></trkpt>
<trkpt lat="46.59514" lon="6.325"><ele></ele><time>2024-5-29T22:23:5Z</time></trkpt>
<trkpt lat="46.59515" lon="6.32492"><ele></ele><time>2024-5-29T22:23:8Z</time></trkpt>
<trkpt lat="46.59518" lon="6.32485"><ele></ele><time>2024-5-29T22:23:11Z</time></trkpt>
<trkpt lat="46.59525" lon="6.32478"><ele></ele><time>2024-5-29T22:23:14Z</time></trkpt>
<trkpt lat="46.59527" lon="6.32478"><ele></ele><time>2024-5-29T22:23:17Z</time></trkpt>
<trkpt lat="46.59537" lon="6.32478"><ele></ele><time>2024-5-29T22:23:20Z</time></trkpt>
<trkpt lat="46.59545" lon="6.32485"><ele></ele><time>2024-5-29T22:23:23Z</time></trkpt>
<trkpt lat="46.59549" lon="6.32488"><ele></ele><time>2024-5-29T22:23:26Z</time></trkpt>
<trkpt lat="46.59558" lon="6.32498"><ele></ele><time>2024-5-29T22:23:29Z</time></trkpt>
<trkpt lat="46.59562" lon="6.32503"><ele></ele><time>2024-5-29T22:23:32Z</time></trkpt>
<trkpt lat="46.59579" lon="6.32523"><ele></ele><time>2024-5-29T22:23:35Z</time></trkpt>
<trkpt lat="46.59589" lon="6.32535"><ele></ele><time>2024-5-29T22:23:38Z</time></trkpt>
<trkpt lat="46.59593" lon="6.32539"><ele></ele><time>2024-5-29T22:23:41Z</time></trkpt>
<trkpt lat="46.59616" lon="6.32553"><ele></ele><time>2024-5-29T22:23:44Z</time></trkpt>
<trkpt lat="46.59634" lon="6.32561"><ele></ele><time>2024-5-29T22:23:47Z</time></trkpt>
<trkpt lat="46.5964" lon="6.32564"><ele></ele><time>2024-5-29T22:23:50Z</time></trkpt>
<trkpt lat="46.59647" lon="6.32567"><ele></ele><time>2024-5-29T22:23:53Z</time></trkpt>
<trkpt lat="46.59666" lon="6.32571"><ele></ele><time>2024-5-29T22:23:56Z</time></trkpt>
<trkpt lat="46.59678" lon="6.32575"><ele></ele><time>2024-5-29T22:23:59Z</time></trkpt>
<trkpt lat="46.59696" lon="6.32574"><ele></ele><time>2024-5-29T22:24:2Z</time></trkpt>
<trkpt lat="46.59702" lon="6.32574"><ele></ele><time>2024-5-29T22:24:5Z</time></trkpt>
<trkpt lat="46.59715" lon="6.32573"><ele></ele><time>2024-5-29T22:24:8Z</time></trkpt>
<trkpt lat="46.59722" lon="6.3257"><ele></ele><time>2024-5-29T22:24:11Z</time></trkpt>
<trkpt lat="46.59728" lon="6.32569"><ele></ele><time>2024-5-29T22:24:14Z</time></trkpt>
<trkpt lat="46.59737" lon="6.32571"><ele></ele><time>2024-5-29T22:24:17Z</time></trkpt>
<trkpt lat="46.5974" lon="6.32573"><ele></ele><time>2024-5-29T22:24:20Z</time></trkpt>
<trkpt lat="46.59751" lon="6.3258"><ele></ele><time>2024-5-29T22:24:23Z</time></trkpt>
<trkpt lat="46.59753" lon="6.32583"><ele></ele><time>2024-5-29T22:24:26Z</time></trkpt>
<trkpt lat="46.59761" lon="6.32594"><ele></ele><time>2024-5-29T22:24:29Z</time></trkpt>
<trkpt lat="46.59765" lon="6.32599"><ele></ele><time>2024-5-29T22:24:32Z</time></trkpt>
<trkpt lat="46.5977" lon="6.32607"><ele></ele><time>2024-5-29T22:24:35Z</time></trkpt>
<trkpt lat="46.59772" lon="6.32609"><ele></ele><time>2024-5-29T22:24:38Z</time></trkpt>
<trkpt lat="46.59778" lon="6.32616"><ele></ele><time>2024-5-29T22:24:41Z</time></trkpt>
<trkpt lat="46.59782" lon="6.32618"><ele></ele><time>2024-5-29T22:24:44Z</time></trkpt>
<trkpt lat="46.59786" lon="6.3262"><ele></ele><time>2024-5-29T22:24:47Z</time></trkpt>
<trkpt lat="46.59787" lon="6.32621"><ele></ele><time>2024-5-29T22:24:50Z</time></trkpt>
<trkpt lat="46.59794" lon="6.32625"><ele></ele><time>2024-5-29T22:24:53Z</time></trkpt>
<trkpt lat="46.59801" lon="6.32627"><ele></ele><time>2024-5-29T22:24:56Z</time></trkpt>
<trkpt lat="46.59802" lon="6.32628"><ele></ele><time>2024-5-29T22:24:59Z</time></trkpt>
<trkpt lat="46.59808" lon="6.32632"><ele></ele><time>2024-5-29T22:25:2Z</time></trkpt>
<trkpt lat="46.59811" lon="6.32633"><ele></ele><time>2024-5-29T22:25:5Z</time></trkpt>
<trkpt lat="46.59817" lon="6.32635"><ele></ele><time>2024-5-29T22:25:8Z</time></trkpt>
<trkpt lat="46.59818" lon="6.32634"><ele></ele><time>2024-5-29T22:25:11Z</time></trkpt>
<trkpt lat="46.5982" lon="6.32635"><ele></ele><time>2024-5-29T22:25:14Z</time></trkpt>
<trkpt lat="46.59824" lon="6.32637"><ele></ele><time>2024-5-29T22:25:17Z</time></trkpt>
<trkpt lat="46.59828" lon="6.3264"><ele></ele><time>2024-5-29T22:25:20Z</time></trkpt>
<trkpt lat="46.59831" lon="6.32643"><ele></ele><time>2024-5-29T22:25:23Z</time></trkpt>
<trkpt lat="46.59835" lon="6.32645"><ele></ele><time>2024-5-29T22:25:26Z</time></trkpt>
<trkpt lat="46.59839" lon="6.32646"><ele></ele><time>2024-5-29T22:25:29Z</time></trkpt>
<trkpt lat="46.59843" lon="6.32645"><ele></ele><time>2024-5-29T22:25:32Z</time></trkpt>
<trkpt lat="46.59845" lon="6.32645"><ele></ele><time>2024-5-29T22:25:35Z</time></trkpt>
<trkpt lat="46.5985" lon="6.32643"><ele></ele><time>2024-5-29T22:25:38Z</time></trkpt>
<trkpt lat="46.59854" lon="6.3264"><ele></ele><time>2024-5-29T22:25:41Z</time></trkpt>
<trkpt lat="46.59858" lon="6.32634"><ele></ele><time>2024-5-29T22:25:44Z</time></trkpt>
<trkpt lat="46.5986" lon="6.32627"><ele></ele><time>2024-5-29T22:25:47Z</time></trkpt>
<trkpt lat="46.59863" lon="6.32623"><ele></ele><time>2024-5-29T22:25:50Z</time></trkpt>
<trkpt lat="46.59865" lon="6.32618"><ele></ele><time>2024-5-29T22:25:53Z</time></trkpt>
<trkpt lat="46.59872" lon="6.32615"><ele></ele><time>2024-5-29T22:25:56Z</time></trkpt>
<trkpt lat="46.59873" lon="6.32615"><ele></ele><time>2024-5-29T22:25:59Z</time></trkpt>
<trkpt lat="46.59881" lon="6.32614"><ele></ele><time>2024-5-29T22:26:2Z</time></trkpt>
<trkpt lat="46.59882" lon="6.32614"><ele></ele><time>2024-5-29T22:26:5Z</time></trkpt>
<trkpt lat="46.59891" lon="6.32615"><ele></ele><time>2024-5-29T22:26:8Z</time></trkpt>
<trkpt lat="46.59893" lon="6.32617"><ele></ele><time>2024-5-29T22:26:11Z</time></trkpt>
<trkpt lat="46.59901" lon="6.3262"><ele></ele><time>2024-5-29T22:26:14Z</time></trkpt>
<trkpt lat="46.59905" lon="6.32621"><ele></ele><time>2024-5-29T22:26:17Z</time></trkpt>
<trkpt lat="46.59914" lon="6.32626"><ele></ele><time>2024-5-29T22:26:20Z</time></trkpt>
<trkpt lat="46.59925" lon="6.32641"><ele></ele><time>2024-5-29T22:26:23Z</time></trkpt>
<trkpt lat="46.59942" lon="6.3266"><ele></ele><time>2024-5-29T22:26:26Z</time></trkpt>
<trkpt lat="46.5996" lon="6.32681"><ele></ele><time>2024-5-29T22:26:29Z</time></trkpt>
<trkpt lat="46.59979" lon="6.32702"><ele></ele><time>2024-5-29T22:26:32Z</time></trkpt>
<trkpt lat="46.59984" lon="6.32705"><ele></ele><time>2024-5-29T22:26:35Z</time></trkpt>
<trkpt lat="46.60005" lon="6.32716"><ele></ele><time>2024-5-29T22:26:38Z</time></trkpt>
<trkpt lat="46.60009" lon="6.32716"><ele></ele><time>2024-5-29T22:26:41Z</time></trkpt>
<trkpt lat="46.60011" lon="6.32717"><ele></ele><time>2024-5-29T22:26:44Z</time></trkpt>
<trkpt lat="46.60012" lon="6.32717"><ele></ele><time>2024-5-29T22:26:47Z</time></trkpt>
<trkpt lat="46.60018" lon="6.32714"><ele></ele><time>2024-5-29T22:26:50Z</time></trkpt>
<trkpt lat="46.60026" lon="6.3271"><ele></ele><time>2024-5-29T22:26:53Z</time></trkpt>
<trkpt lat="46.60032" lon="6.32704"><ele></ele><time>2024-5-29T22:26:56Z</time></trkpt>
<trkpt lat="46.60033" lon="6.32702"><ele></ele><time>2024-5-29T22:26:59Z</time></trkpt>
<trkpt lat="46.6004" lon="6.32697"><ele></ele><time>2024-5-29T22:27:2Z</time></trkpt>
<trkpt lat="46.6005" lon="6.32693"><ele></ele><time>2024-5-29T22:27:5Z</time></trkpt>
<trkpt lat="46.60051" lon="6.32692"><ele></ele><time>2024-5-29T22:27:8Z</time></trkpt>
<trkpt lat="46.60057" lon="6.32689"><ele></ele><time>2024-5-29T22:27:11Z</time></trkpt>
<trkpt lat="46.60061" lon="6.32685"><ele></ele><time>2024-5-29T22:27:14Z</time></trkpt>
<trkpt lat="46.60065" lon="6.32681"><ele></ele><time>2024-5-29T22:27:17Z</time></trkpt>
<trkpt lat="46.60068" lon="6.32678"><ele></ele><time>2024-5-29T22:27:20Z</time></trkpt>
<trkpt lat="46.60071" lon="6.32671"><ele></ele><time>2024-5-29T22:27:23Z</time></trkpt>
<trkpt lat="46.60072" lon="6.32668"><ele></ele><time>2024-5-29T22:27:26Z</time></trkpt>
<trkpt lat="46.60074" lon="6.32664"><ele></ele><time>2024-5-29T22:27:29Z</time></trkpt>
<trkpt lat="46.60074" lon="6.32662"><ele></ele><time>2024-5-29T22:27:32Z</time></trkpt>
<trkpt lat="46.60076" lon="6.32658"><ele></ele><time>2024-5-29T22:27:35Z</time></trkpt>
<trkpt lat="46.6008" lon="6.32652"><ele></ele><time>2024-5-29T22:27:38Z</time></trkpt>
<trkpt lat="46.60084" lon="6.3265"><ele></ele><time>2024-5-29T22:27:41Z</time></trkpt>
<trkpt lat="46.60094" lon="6.32646"><ele></ele><time>2024-5-29T22:27:44Z</time></trkpt>
<trkpt lat="46.60103" lon="6.32631"><ele></ele><time>2024-5-29T22:27:47Z</time></trkpt>
<trkpt lat="46.60108" lon="6.3261"><ele></ele><time>2024-5-29T22:27:50Z</time></trkpt>
<trkpt lat="46.60108" lon="6.32607"><ele></ele><time>2024-5-29T22:27:53Z</time></trkpt>
<trkpt lat="46.60107" lon="6.32595"><ele></ele><time>2024-5-29T22:27:56Z</time></trkpt>
<trkpt lat="46.60106" lon="6.3259"><ele></ele><time>2024-5-29T22:27:59Z</time></trkpt>
<trkpt lat="46.60095" lon="6.32569"><ele></ele><time>2024-5-29T22:28:2Z</time></trkpt>
<trkpt lat="46.60092" lon="6.32561"><ele></ele><time>2024-5-29T22:28:5Z</time></trkpt>
<trkpt lat="46.60088" lon="6.32549"><ele></ele><time>2024-5-29T22:28:8Z</time></trkpt>
<trkpt lat="46.60085" lon="6.32538"><ele></ele><time>2024-5-29T22:28:11Z</time></trkpt>
<trkpt lat="46.60081" lon="6.32521"><ele></ele><time>2024-5-29T22:28:14Z</time></trkpt>
<trkpt lat="46.6008" lon="6.32505"><ele></ele><time>2024-5-29T22:28:17Z</time></trkpt>
<trkpt lat="46.6008" lon="6.32502"><ele></ele><time>2024-5-29T22:28:20Z</time></trkpt>
<trkpt lat="46.60078" lon="6.32493"><ele></ele><time>2024-5-29T22:28:23Z</time></trkpt>
<trkpt lat="46.60076" lon="6.32484"><ele></ele><time>2024-5-29T22:28:26Z</time></trkpt>
<trkpt lat="46.60074" lon="6.32478"><ele></ele><time>2024-5-29T22:28:29Z</time></trkpt>
<trkpt lat="46.60069" lon="6.32471"><ele></ele><time>2024-5-29T22:28:32Z</time></trkpt>
<trkpt lat="46.60062" lon="6.32464"><ele></ele><time>2024-5-29T22:28:35Z</time></trkpt>
<trkpt lat="46.60055" lon="6.32458"><ele></ele><time>2024-5-29T22:28:38Z</time></trkpt>
<trkpt lat="46.6004" lon="6.32448"><ele></ele><time>2024-5-29T22:28:41Z</time></trkpt>
<trkpt lat="46.6003" lon="6.32442"><ele></ele><time>2024-5-29T22:28:44Z</time></trkpt>
<trkpt lat="46.60018" lon="6.32434"><ele></ele><time>2024-5-29T22:28:47Z</time></trkpt>
<trkpt lat="46.60013" lon="6.3243"><ele></ele><time>2024-5-29T22:28:50Z</time></trkpt>
<trkpt lat="46.60005" lon="6.32415"><ele></ele><time>2024-5-29T22:28:53Z</time></trkpt>
<trkpt lat="46.60005" lon="6.32412"><ele></ele><time>2024-5-29T22:28:56Z</time></trkpt>
<trkpt lat="46.60005" lon="6.32404"><ele></ele><time>2024-5-29T22:28:59Z</time></trkpt>
<trkpt lat="46.60006" lon="6.32396"><ele></ele><time>2024-5-29T22:29:2Z</time></trkpt>
<trkpt lat="46.60009" lon="6.32388"><ele></ele><time>2024-5-29T22:29:5Z</time></trkpt>
<trkpt lat="46.60011" lon="6.32382"><ele></ele><time>2024-5-29T22:29:8Z</time></trkpt>
<trkpt lat="46.60013" lon="6.32376"><ele></ele><time>2024-5-29T22:29:11Z</time></trkpt>
<trkpt lat="46.60014" lon="6.32371"><ele></ele><time>2024-5-29T22:29:14Z</time></trkpt>
<trkpt lat="46.60014" lon="6.32367"><ele></ele><time>2024-5-29T22:29:17Z</time></trkpt>
<trkpt lat="46.60015" lon="6.32363"><ele></ele><time>2024-5-29T22:29:20Z</time></trkpt>
<trkpt lat="46.60013" lon="6.32357"><ele></ele><time>2024-5-29T22:29:23Z</time></trkpt>
<trkpt lat="46.60011" lon="6.3235"><ele></ele><time>2024-5-29T22:29:26Z</time></trkpt>
<trkpt lat="46.60009" lon="6.32347"><ele></ele><time>2024-5-29T22:29:29Z</time></trkpt>
<trkpt lat="46.60008" lon="6.32344"><ele></ele><time>2024-5-29T22:29:32Z</time></trkpt>
<trkpt lat="46.60005" lon="6.32339"><ele></ele><time>2024-5-29T22:29:35Z</time></trkpt>
<trkpt lat="46.60005" lon="6.32337"><ele></ele><time>2024-5-29T22:29:38Z</time></trkpt>
<trkpt lat="46.60003" lon="6.32335"><ele></ele><time>2024-5-29T22:29:41Z</time></trkpt>
<trkpt lat="46.60003" lon="6.32334"><ele></ele><time>2024-5-29T22:29:44Z</time></trkpt>
<trkpt lat="46.6" lon="6.32331"><ele></ele><time>2024-5-29T22:29:47Z</time></trkpt>
<trkpt lat="46.59999" lon="6.32329"><ele></ele><time>2024-5-29T22:29:50Z</time></trkpt>
<trkpt lat="46.59998" lon="6.32328"><ele></ele><time>2024-5-29T22:29:53Z</time></trkpt>
<trkpt lat="46.59991" lon="6.32319"><ele></ele><time>2024-5-29T22:29:56Z</time></trkpt>
<trkpt lat="46.5999" lon="6.32317"><ele></ele><time>2024-5-29T22:29:59Z</time></trkpt>
<trkpt lat="46.59985" lon="6.3231"><ele></ele><time>2024-5-29T22:30:2Z</time></trkpt>
<trkpt lat="46.59982" lon="6.32307"><ele></ele><time>2024-5-29T22:30:5Z</time></trkpt>
<trkpt lat="46.59979" lon="6.32303"><ele></ele><time>2024-5-29T22:30:8Z</time></trkpt>
<trkpt lat="46.59973" lon="6.32295"><ele></ele><time>2024-5-29T22:30:11Z</time></trkpt>
<trkpt lat="46.59971" lon="6.32285"><ele></ele><time>2024-5-29T22:30:14Z</time></trkpt>
<trkpt lat="46.59971" lon="6.32283"><ele></ele><time>2024-5-29T22:30:17Z</time></trkpt>
<trkpt lat="46.5997" lon="6.3228"><ele></ele><time>2024-5-29T22:30:20Z</time></trkpt>
<trkpt lat="46.59969" lon="6.3227"><ele></ele><time>2024-5-29T22:30:23Z</time></trkpt>
<trkpt lat="46.59968" lon="6.32266"><ele></ele><time>2024-5-29T22:30:26Z</time></trkpt>
<trkpt lat="46.59968" lon="6.32265"><ele></ele><time>2024-5-29T22:30:29Z</time></trkpt>
<trkpt lat="46.59969" lon="6.32262"><ele></ele><time>2024-5-29T22:30:32Z</time></trkpt>
<trkpt lat="46.59969" lon="6.3226"><ele></ele><time>2024-5-29T22:30:35Z</time></trkpt>
<trkpt lat="46.59969" lon="6.32246"><ele></ele><time>2024-5-29T22:30:38Z</time></trkpt>
<trkpt lat="46.59968" lon="6.32244"><ele></ele><time>2024-5-29T22:30:41Z</time></trkpt>
<trkpt lat="46.59969" lon="6.32235"><ele></ele><time>2024-5-29T22:30:44Z</time></trkpt>
<trkpt lat="46.59969" lon="6.32232"><ele></ele><time>2024-5-29T22:30:47Z</time></trkpt>
<trkpt lat="46.59969" lon="6.32227"><ele></ele><time>2024-5-29T22:30:50Z</time></trkpt>
<trkpt lat="46.59969" lon="6.32224"><ele></ele><time>2024-5-29T22:30:53Z</time></trkpt>
<trkpt lat="46.5997" lon="6.32214"><ele></ele><time>2024-5-29T22:30:56Z</time></trkpt>
<trkpt lat="46.5997" lon="6.32213"><ele></ele><time>2024-5-29T22:30:59Z</time></trkpt>
<trkpt lat="46.59971" lon="6.32209"><ele></ele><time>2024-5-29T22:31:2Z</time></trkpt>
<trkpt lat="46.59972" lon="6.32206"><ele></ele><time>2024-5-29T22:31:5Z</time></trkpt>
<trkpt lat="46.59975" lon="6.32198"><ele></ele><time>2024-5-29T22:31:8Z</time></trkpt>
<trkpt lat="46.59975" lon="6.32197"><ele></ele><time>2024-5-29T22:31:11Z</time></trkpt>
<trkpt lat="46.59977" lon="6.32191"><ele></ele><time>2024-5-29T22:31:14Z</time></trkpt>
<trkpt lat="46.59979" lon="6.32188"><ele></ele><time>2024-5-29T22:31:17Z</time></trkpt>
<trkpt lat="46.5998" lon="6.32185"><ele></ele><time>2024-5-29T22:31:20Z</time></trkpt>
<trkpt lat="46.59982" lon="6.32178"><ele></ele><time>2024-5-29T22:31:23Z</time></trkpt>
<trkpt lat="46.59983" lon="6.32177"><ele></ele><time>2024-5-29T22:31:26Z</time></trkpt>
<trkpt lat="46.59984" lon="6.32171"><ele></ele><time>2024-5-29T22:31:29Z</time></trkpt>
<trkpt lat="46.59984" lon="6.32168"><ele></ele><time>2024-5-29T22:31:32Z</time></trkpt>
<trkpt lat="46.59985" lon="6.32168"><ele></ele><time>2024-5-29T22:31:35Z</time></trkpt>
<trkpt lat="46.59986" lon="6.32165"><ele></ele><time>2024-5-29T22:31:38Z</time></trkpt>
<trkpt lat="46.59987" lon="6.32159"><ele></ele><time>2024-5-29T22:31:41Z</time></trkpt>
<trkpt lat="46.59987" lon="6.32157"><ele></ele><time>2024-5-29T22:31:44Z</time></trkpt>
<trkpt lat="46.59987" lon="6.32156"><ele></ele><time>2024-5-29T22:31:47Z</time></trkpt>
<trkpt lat="46.59987" lon="6.32149"><ele></ele><time>2024-5-29T22:31:50Z</time></trkpt>
<trkpt lat="46.59987" lon="6.32146"><ele></ele><time>2024-5-29T22:31:53Z</time></trkpt>
<trkpt lat="46.59986" lon="6.32143"><ele></ele><time>2024-5-29T22:31:56Z</time></trkpt>
<trkpt lat="46.59986" lon="6.32142"><ele></ele><time>2024-5-29T22:31:59Z</time></trkpt>
<trkpt lat="46.59985" lon="6.32137"><ele></ele><time>2024-5-29T22:32:2Z</time></trkpt>
<trkpt lat="46.59985" lon="6.32134"><ele></ele><time>2024-5-29T22:32:5Z</time></trkpt>
<trkpt lat="46.59984" lon="6.32132"><ele></ele><time>2024-5-29T22:32:8Z</time></trkpt>
<trkpt lat="46.59984" lon="6.32131"><ele></ele><time>2024-5-29T22:32:11Z</time></trkpt>
<trkpt lat="46.59983" lon="6.32129"><ele></ele><time>2024-5-29T22:32:14Z</time></trkpt>
<trkpt lat="46.59983" lon="6.32129"><ele></ele><time>2024-5-29T22:32:17Z</time></trkpt>
<trkpt lat="46.59982" lon="6.32127"><ele></ele><time>2024-5-29T22:32:20Z</time></trkpt>
<trkpt lat="46.59982" lon="6.32126"><ele></ele><time>2024-5-29T22:32:23Z</time></trkpt>
<trkpt lat="46.5998" lon="6.32121"><ele></ele><time>2024-5-29T22:32:26Z</time></trkpt>
<trkpt lat="46.59979" lon="6.32118"><ele></ele><time>2024-5-29T22:32:29Z</time></trkpt>
<trkpt lat="46.59978" lon="6.32116"><ele></ele><time>2024-5-29T22:32:32Z</time></trkpt>
<trkpt lat="46.59978" lon="6.32115"><ele></ele><time>2024-5-29T22:32:35Z</time></trkpt>
<trkpt lat="46.59978" lon="6.32113"><ele></ele><time>2024-5-29T22:32:38Z</time></trkpt>
<trkpt lat="46.59978" lon="6.32111"><ele></ele><time>2024-5-29T22:32:41Z</time></trkpt>
<trkpt lat="46.59977" lon="6.32109"><ele></ele><time>2024-5-29T22:32:44Z</time></trkpt>
<trkpt lat="46.59977" lon="6.32108"><ele></ele><time>2024-5-29T22:32:47Z</time></trkpt>
<trkpt lat="46.59974" lon="6.32104"><ele></ele><time>2024-5-29T22:32:50Z</time></trkpt>
<trkpt lat="46.59972" lon="6.32104"><ele></ele><time>2024-5-29T22:32:53Z</time></trkpt>
<trkpt lat="46.5997" lon="6.32104"><ele></ele><time>2024-5-29T22:32:56Z</time></trkpt>
<trkpt lat="46.5997" lon="6.32103"><ele></ele><time>2024-5-29T22:32:59Z</time></trkpt>
<trkpt lat="46.59966" lon="6.32098"><ele></ele><time>2024-5-29T22:33:2Z</time></trkpt>
<trkpt lat="46.59965" lon="6.32096"><ele></ele><time>2024-5-29T22:33:5Z</time></trkpt>
<trkpt lat="46.59962" lon="6.32091"><ele></ele><time>2024-5-29T22:33:8Z</time></trkpt>
<trkpt lat="46.5996" lon="6.32088"><ele></ele><time>2024-5-29T22:33:11Z</time></trkpt>
<trkpt lat="46.59958" lon="6.32085"><ele></ele><time>2024-5-29T22:33:14Z</time></trkpt>
<trkpt lat="46.59955" lon="6.32082"><ele></ele><time>2024-5-29T22:33:17Z</time></trkpt>
<trkpt lat="46.59954" lon="6.3208"><ele></ele><time>2024-5-29T22:33:20Z</time></trkpt>
<trkpt lat="46.5995" lon="6.3207"><ele></ele><time>2024-5-29T22:33:23Z</time></trkpt>
<trkpt lat="46.59948" lon="6.32063"><ele></ele><time>2024-5-29T22:33:26Z</time></trkpt>
<trkpt lat="46.59945" lon="6.32053"><ele></ele><time>2024-5-29T22:33:29Z</time></trkpt>
<trkpt lat="46.59943" lon="6.32042"><ele></ele><time>2024-5-29T22:33:32Z</time></trkpt>
<trkpt lat="46.59943" lon="6.32041"><ele></ele><time>2024-5-29T22:33:35Z</time></trkpt>
<trkpt lat="46.59942" lon="6.32035"><ele></ele><time>2024-5-29T22:33:38Z</time></trkpt>
<trkpt lat="46.59942" lon="6.32031"><ele></ele><time>2024-5-29T22:33:41Z</time></trkpt>
<trkpt lat="46.59942" lon="6.32026"><ele></ele><time>2024-5-29T22:33:44Z</time></trkpt>
<trkpt lat="46.59942" lon="6.32017"><ele></ele><time>2024-5-29T22:33:47Z</time></trkpt>
<trkpt lat="46.59943" lon="6.32013"><ele></ele><time>2024-5-29T22:33:50Z</time></trkpt>
<trkpt lat="46.59944" lon="6.31999"><ele></ele><time>2024-5-29T22:33:53Z</time></trkpt>
<trkpt lat="46.59944" lon="6.31991"><ele></ele><time>2024-5-29T22:33:56Z</time></trkpt>
<trkpt lat="46.59943" lon="6.31981"><ele></ele><time>2024-5-29T22:33:59Z</time></trkpt>
<trkpt lat="46.59942" lon="6.31975"><ele></ele><time>2024-5-29T22:34:2Z</time></trkpt>
<trkpt lat="46.59939" lon="6.31965"><ele></ele><time>2024-5-29T22:34:5Z</time></trkpt>
<trkpt lat="46.59938" lon="6.31962"><ele></ele><time>2024-5-29T22:34:8Z</time></trkpt>
<trkpt lat="46.59936" lon="6.31954"><ele></ele><time>2024-5-29T22:34:11Z</time></trkpt>
<trkpt lat="46.59933" lon="6.3194"><ele></ele><time>2024-5-29T22:34:14Z</time></trkpt>
<trkpt lat="46.59932" lon="6.31937"><ele></ele><time>2024-5-29T22:34:17Z</time></trkpt>
<trkpt lat="46.59929" lon="6.31928"><ele></ele><time>2024-5-29T22:34:20Z</time></trkpt>
<trkpt lat="46.59928" lon="6.3192"><ele></ele><time>2024-5-29T22:34:23Z</time></trkpt>
<trkpt lat="46.59927" lon="6.31916"><ele></ele><time>2024-5-29T22:34:26Z</time></trkpt>
<trkpt lat="46.59926" lon="6.31902"><ele></ele><time>2024-5-29T22:34:29Z</time></trkpt>
<trkpt lat="46.59926" lon="6.31898"><ele></ele><time>2024-5-29T22:34:32Z</time></trkpt>
<trkpt lat="46.59926" lon="6.31878"><ele></ele><time>2024-5-29T22:34:35Z</time></trkpt>
<trkpt lat="46.59926" lon="6.31874"><ele></ele><time>2024-5-29T22:34:38Z</time></trkpt>
<trkpt lat="46.59932" lon="6.31858"><ele></ele><time>2024-5-29T22:34:41Z</time></trkpt>
<trkpt lat="46.59934" lon="6.31853"><ele></ele><time>2024-5-29T22:34:44Z</time></trkpt>
<trkpt lat="46.5994" lon="6.31846"><ele></ele><time>2024-5-29T22:34:47Z</time></trkpt>
<trkpt lat="46.59952" lon="6.31841"><ele></ele><time>2024-5-29T22:34:50Z</time></trkpt>
<trkpt lat="46.59954" lon="6.31843"><ele></ele><time>2024-5-29T22:34:53Z</time></trkpt>
<trkpt lat="46.59955" lon="6.31845"><ele></ele><time>2024-5-29T22:34:56Z</time></trkpt>
<trkpt lat="46.59961" lon="6.31854"><ele></ele><time>2024-5-29T22:34:59Z</time></trkpt>
<trkpt lat="46.59969" lon="6.31864"><ele></ele><time>2024-5-29T22:35:2Z</time></trkpt>
<trkpt lat="46.59971" lon="6.31868"><ele></ele><time>2024-5-29T22:35:5Z</time></trkpt>
<trkpt lat="46.59983" lon="6.31885"><ele></ele><time>2024-5-29T22:35:8Z</time></trkpt>
<trkpt lat="46.59987" lon="6.31889"><ele></ele><time>2024-5-29T22:35:11Z</time></trkpt>
<trkpt lat="46.59989" lon="6.31894"><ele></ele><time>2024-5-29T22:35:14Z</time></trkpt>
<trkpt lat="46.59995" lon="6.31902"><ele></ele><time>2024-5-29T22:35:17Z</time></trkpt>
<trkpt lat="46.60008" lon="6.31916"><ele></ele><time>2024-5-29T22:35:20Z</time></trkpt>
<trkpt lat="46.6001" lon="6.31917"><ele></ele><time>2024-5-29T22:35:23Z</time></trkpt>
<trkpt lat="46.6003" lon="6.31922"><ele></ele><time>2024-5-29T22:35:26Z</time></trkpt>
<trkpt lat="46.60033" lon="6.31923"><ele></ele><time>2024-5-29T22:35:29Z</time></trkpt>
<trkpt lat="46.60045" lon="6.31923"><ele></ele><time>2024-5-29T22:35:32Z</time></trkpt>
<trkpt lat="46.60059" lon="6.31917"><ele></ele><time>2024-5-29T22:35:35Z</time></trkpt>
<trkpt lat="46.60061" lon="6.31917"><ele></ele><time>2024-5-29T22:35:38Z</time></trkpt>
<trkpt lat="46.60071" lon="6.31914"><ele></ele><time>2024-5-29T22:35:41Z</time></trkpt>
<trkpt lat="46.60078" lon="6.31911"><ele></ele><time>2024-5-29T22:35:44Z</time></trkpt>
<trkpt lat="46.60095" lon="6.31903"><ele></ele><time>2024-5-29T22:35:47Z</time></trkpt>
<trkpt lat="46.60099" lon="6.31895"><ele></ele><time>2024-5-29T22:35:50Z</time></trkpt>
<trkpt lat="46.60096" lon="6.31889"><ele></ele><time>2024-5-29T22:35:53Z</time></trkpt>
<trkpt lat="46.60094" lon="6.31888"><ele></ele><time>2024-5-29T22:35:56Z</time></trkpt>
<trkpt lat="46.60091" lon="6.31886"><ele></ele><time>2024-5-29T22:35:59Z</time></trkpt>
<trkpt lat="46.60091" lon="6.31886"><ele></ele><time>2024-5-29T22:36:2Z</time></trkpt>
<trkpt lat="46.6009" lon="6.31885"><ele></ele><time>2024-5-29T22:36:5Z</time></trkpt>
<trkpt lat="46.60088" lon="6.3188"><ele></ele><time>2024-5-29T22:36:8Z</time></trkpt>
<trkpt lat="46.60084" lon="6.31875"><ele></ele><time>2024-5-29T22:36:11Z</time></trkpt>
<trkpt lat="46.60083" lon="6.31874"><ele></ele><time>2024-5-29T22:36:14Z</time></trkpt>
<trkpt lat="46.6008" lon="6.3187"><ele></ele><time>2024-5-29T22:36:17Z</time></trkpt>
<trkpt lat="46.60077" lon="6.31862"><ele></ele><time>2024-5-29T22:36:20Z</time></trkpt>
<trkpt lat="46.60075" lon="6.31857"><ele></ele><time>2024-5-29T22:36:23Z</time></trkpt>
<trkpt lat="46.60073" lon="6.31852"><ele></ele><time>2024-5-29T22:36:26Z</time></trkpt>
<trkpt lat="46.6007" lon="6.31845"><ele></ele><time>2024-5-29T22:36:29Z</time></trkpt>
<trkpt lat="46.60069" lon="6.31843"><ele></ele><time>2024-5-29T22:36:32Z</time></trkpt>
<trkpt lat="46.60066" lon="6.31838"><ele></ele><time>2024-5-29T22:36:35Z</time></trkpt>
<trkpt lat="46.60063" lon="6.31835"><ele></ele><time>2024-5-29T22:36:38Z</time></trkpt>
<trkpt lat="46.60062" lon="6.31835"><ele></ele><time>2024-5-29T22:36:41Z</time></trkpt>
<trkpt lat="46.60061" lon="6.31833"><ele></ele><time>2024-5-29T22:36:44Z</time></trkpt>
<trkpt lat="46.60055" lon="6.31832"><ele></ele><time>2024-5-29T22:36:47Z</time></trkpt>
<trkpt lat="46.60053" lon="6.31831"><ele></ele><time>2024-5-29T22:36:50Z</time></trkpt>
<trkpt lat="46.60048" lon="6.31827"><ele></ele><time>2024-5-29T22:36:53Z</time></trkpt>
<trkpt lat="46.60046" lon="6.31825"><ele></ele><time>2024-5-29T22:36:56Z</time></trkpt>
<trkpt lat="46.60039" lon="6.31816"><ele></ele><time>2024-5-29T22:36:59Z</time></trkpt>
<trkpt lat="46.60033" lon="6.31815"><ele></ele><time>2024-5-29T22:37:2Z</time></trkpt>
<trkpt lat="46.60026" lon="6.31817"><ele></ele><time>2024-5-29T22:37:5Z</time></trkpt>
<trkpt lat="46.60025" lon="6.31817"><ele></ele><time>2024-5-29T22:37:8Z</time></trkpt>
<trkpt lat="46.60021" lon="6.31817"><ele></ele><time>2024-5-29T22:37:11Z</time></trkpt>
<trkpt lat="46.60017" lon="6.31822"><ele></ele><time>2024-5-29T22:37:14Z</time></trkpt>
<trkpt lat="46.60016" lon="6.31823"><ele></ele><time>2024-5-29T22:37:17Z</time></trkpt>
<trkpt lat="46.60012" lon="6.31828"><ele></ele><time>2024-5-29T22:37:20Z</time></trkpt>
<trkpt lat="46.60009" lon="6.31834"><ele></ele><time>2024-5-29T22:37:23Z</time></trkpt>
<trkpt lat="46.60006" lon="6.31843"><ele></ele><time>2024-5-29T22:37:26Z</time></trkpt>
<trkpt lat="46.60006" lon="6.31844"><ele></ele><time>2024-5-29T22:37:29Z</time></trkpt>
<trkpt lat="46.60005" lon="6.31853"><ele></ele><time>2024-5-29T22:37:32Z</time></trkpt>
<trkpt lat="46.60003" lon="6.3186"><ele></ele><time>2024-5-29T22:37:35Z</time></trkpt>
<trkpt lat="46.60003" lon="6.31863"><ele></ele><time>2024-5-29T22:37:38Z</time></trkpt>
<trkpt lat="46.60005" lon="6.31865"><ele></ele><time>2024-5-29T22:37:41Z</time></trkpt>
<trkpt lat="46.60005" lon="6.31866"><ele></ele><time>2024-5-29T22:37:44Z</time></trkpt>
<trkpt lat="46.60002" lon="6.31866"><ele></ele><time>2024-5-29T22:37:47Z</time></trkpt>
<trkpt lat="46.60003" lon="6.31866"><ele></ele><time>2024-5-29T22:37:50Z</time></trkpt>
<trkpt lat="46.60003" lon="6.31867"><ele></ele><time>2024-5-29T22:37:53Z</time></trkpt>
<trkpt lat="46.60003" lon="6.31866"><ele></ele><time>2024-5-29T22:37:56Z</time></trkpt>
<trkpt lat="46.60003" lon="6.31867"><ele></ele><time>2024-5-29T22:37:59Z</time></trkpt>
<trkpt lat="46.60003" lon="6.31867"><ele></ele><time>2024-5-29T22:38:2Z</time></trkpt>
<trkpt lat="46.60003" lon="6.31867"><ele></ele><time>2024-5-29T22:38:5Z</time></trkpt>
<trkpt lat="46.60003" lon="6.31867"><ele></ele><time>2024-5-29T22:38:8Z</time></trkpt>
<trkpt lat="46.60003" lon="6.31867"><ele></ele><time>2024-5-29T22:38:11Z</time></trkpt>
<trkpt lat="46.60003" lon="6.31867"><ele></ele><time>2024-5-29T22:38:14Z</time></trkpt>
<trkpt lat="46.60002" lon="6.31867"><ele></ele><time>2024-5-29T22:38:17Z</time></trkpt>
<trkpt lat="46.60001" lon="6.31866"><ele></ele><time>2024-5-29T22:38:20Z</time></trkpt>
<trkpt lat="46.6" lon="6.31862"><ele></ele><time>2024-5-29T22:38:23Z</time></trkpt>
<trkpt lat="46.59999" lon="6.31862"><ele></ele><time>2024-5-29T22:38:26Z</time></trkpt>
<trkpt lat="46.59999" lon="6.31863"><ele></ele><time>2024-5-29T22:38:29Z</time></trkpt>
<trkpt lat="46.59997" lon="6.31864"><ele></ele><time>2024-5-29T22:38:32Z</time></trkpt>
<trkpt lat="46.59996" lon="6.31864"><ele></ele><time>2024-5-29T22:38:35Z</time></trkpt>
<trkpt lat="46.59996" lon="6.31865"><ele></ele><time>2024-5-29T22:38:38Z</time></trkpt>
<trkpt lat="46.59996" lon="6.31865"><ele></ele><time>2024-5-29T22:38:41Z</time></trkpt>
<trkpt lat="46.59996" lon="6.31865"><ele></ele><time>2024-5-29T22:38:44Z</time></trkpt>
<trkpt lat="46.59996" lon="6.31865"><ele></ele><time>2024-5-29T22:38:47Z</time></trkpt>
<trkpt lat="46.59996" lon="6.31865"><ele></ele><time>2024-5-29T22:38:50Z</time></trkpt>
<trkpt lat="46.59996" lon="6.31864"><ele></ele><time>2024-5-29T22:38:53Z</time></trkpt>
<trkpt lat="46.59996" lon="6.31864"><ele></ele><time>2024-5-29T22:38:56Z</time></trkpt>
<trkpt lat="46.59996" lon="6.31864"><ele></ele><time>2024-5-29T22:38:59Z</time></trkpt>
<trkpt lat="46.59996" lon="6.31864"><ele></ele><time>2024-5-29T22:39:2Z</time></trkpt>
<trkpt lat="46.59996" lon="6.31864"><ele></ele><time>2024-5-29T22:39:5Z</time></trkpt>
<trkpt lat="46.59996" lon="6.31863"><ele></ele><time>2024-5-29T22:39:8Z</time></trkpt>
<trkpt lat="46.59998" lon="6.31863"><ele></ele><time>2024-5-29T22:39:11Z</time></trkpt>
<trkpt lat="46.59997" lon="6.31862"><ele></ele><time>2024-5-29T22:39:14Z</time></trkpt>
<trkpt lat="46.59995" lon="6.31862"><ele></ele><time>2024-5-29T22:39:17Z</time></trkpt>
<trkpt lat="46.59996" lon="6.3186"><ele></ele><time>2024-5-29T22:39:20Z</time></trkpt>
<trkpt lat="46.59996" lon="6.31862"><ele></ele><time>2024-5-29T22:39:23Z</time></trkpt>
<trkpt lat="46.59996" lon="6.31862"><ele></ele><time>2024-5-29T22:39:26Z</time></trkpt>
<trkpt lat="46.59995" lon="6.31863"><ele></ele><time>2024-5-29T22:39:29Z</time></trkpt>
<trkpt lat="46.59996" lon="6.31864"><ele></ele><time>2024-5-29T22:39:32Z</time></trkpt>
<trkpt lat="46.59996" lon="6.31864"><ele></ele><time>2024-5-29T22:39:35Z</time></trkpt>
<trkpt lat="46.59996" lon="6.31864"><ele></ele><time>2024-5-29T22:39:38Z</time></trkpt>
<trkpt lat="46.59996" lon="6.31864"><ele></ele><time>2024-5-29T22:39:41Z</time></trkpt>
<trkpt lat="46.59996" lon="6.31864"><ele></ele><time>2024-5-29T22:39:44Z</time></trkpt>
<trkpt lat="46.59996" lon="6.31864"><ele></ele><time>2024-5-29T22:39:47Z</time></trkpt>
<trkpt lat="46.59996" lon="6.31864"><ele></ele><time>2024-5-29T22:39:50Z</time></trkpt>
<trkpt lat="46.59996" lon="6.31864"><ele></ele><time>2024-5-29T22:39:53Z</time></trkpt>
<trkpt lat="46.59995" lon="6.31864"><ele></ele><time>2024-5-29T22:39:56Z</time></trkpt>
<trkpt lat="46.59996" lon="6.31864"><ele></ele><time>2024-5-29T22:39:59Z</time></trkpt>
<trkpt lat="46.59996" lon="6.31863"><ele></ele><time>2024-5-29T22:40:2Z</time></trkpt>
<trkpt lat="46.59997" lon="6.31863"><ele></ele><time>2024-5-29T22:40:5Z</time></trkpt>
<trkpt lat="46.59997" lon="6.31863"><ele></ele><time>2024-5-29T22:40:8Z</time></trkpt>
<trkpt lat="46.59998" lon="6.31862"><ele></ele><time>2024-5-29T22:40:11Z</time></trkpt>
<trkpt lat="46.59998" lon="6.31864"><ele></ele><time>2024-5-29T22:40:14Z</time></trkpt>
<trkpt lat="46.59996" lon="6.31866"><ele></ele><time>2024-5-29T22:40:17Z</time></trkpt>
<trkpt lat="46.59996" lon="6.31865"><ele></ele><time>2024-5-29T22:40:20Z</time></trkpt>
<trkpt lat="46.59995" lon="6.31865"><ele></ele><time>2024-5-29T22:40:23Z</time></trkpt>
<trkpt lat="46.59996" lon="6.31865"><ele></ele><time>2024-5-29T22:40:26Z</time></trkpt>
<trkpt lat="46.59996" lon="6.31865"><ele></ele><time>2024-5-29T22:40:29Z</time></trkpt>
<trkpt lat="46.59996" lon="6.31863"><ele></ele><time>2024-5-29T22:40:32Z</time></trkpt>
<trkpt lat="46.59995" lon="6.31863"><ele></ele><time>2024-5-29T22:40:35Z</time></trkpt>
<trkpt lat="46.59995" lon="6.31864"><ele></ele><time>2024-5-29T22:40:38Z</time></trkpt>
<trkpt lat="46.59995" lon="6.31864"><ele></ele><time>2024-5-29T22:40:41Z</time></trkpt>
<trkpt lat="46.59996" lon="6.31863"><ele></ele><time>2024-5-29T22:40:44Z</time></trkpt>
<trkpt lat="46.59996" lon="6.31861"><ele></ele><time>2024-5-29T22:40:47Z</time></trkpt>
<trkpt lat="46.59997" lon="6.31862"><ele></ele><time>2024-5-29T22:40:50Z</time></trkpt>
<trkpt lat="46.59997" lon="6.31862"><ele></ele><time>2024-5-29T22:40:53Z</time></trkpt>
<trkpt lat="46.59997" lon="6.31862"><ele></ele><time>2024-5-29T22:40:56Z</time></trkpt>
<trkpt lat="46.59996" lon="6.31863"><ele></ele><time>2024-5-29T22:40:59Z</time></trkpt>
<trkpt lat="46.59996" lon="6.31863"><ele></ele><time>2024-5-29T22:41:2Z</time></trkpt>
<trkpt lat="46.59997" lon="6.31863"><ele></ele><time>2024-5-29T22:41:5Z</time></trkpt>
<trkpt lat="46.59996" lon="6.31863"><ele></ele><time>2024-5-29T22:41:8Z</time></trkpt>
<trkpt lat="46.59997" lon="6.31863"><ele></ele><time>2024-5-29T22:41:11Z</time></trkpt>
<trkpt lat="46.59997" lon="6.31862"><ele></ele><time>2024-5-29T22:41:14Z</time></trkpt>
<trkpt lat="46.59997" lon="6.31863"><ele></ele><time>2024-5-29T22:41:17Z</time></trkpt>
<trkpt lat="46.59996" lon="6.31864"><ele></ele><time>2024-5-29T22:41:20Z</time></trkpt>
<trkpt lat="46.59996" lon="6.31863"><ele></ele><time>2024-5-29T22:41:23Z</time></trkpt>
<trkpt lat="46.59996" lon="6.31863"><ele></ele><time>2024-5-29T22:41:26Z</time></trkpt>
<trkpt lat="46.59996" lon="6.31863"><ele></ele><time>2024-5-29T22:41:29Z</time></trkpt>
<trkpt lat="46.59996" lon="6.31865"><ele></ele><time>2024-5-29T22:41:32Z</time></trkpt>
<trkpt lat="46.59996" lon="6.31865"><ele></ele><time>2024-5-29T22:41:35Z</time></trkpt>
<trkpt lat="46.59996" lon="6.31864"><ele></ele><time>2024-5-29T22:41:38Z</time></trkpt>
<trkpt lat="46.59997" lon="6.31863"><ele></ele><time>2024-5-29T22:41:41Z</time></trkpt>
<trkpt lat="46.59996" lon="6.31863"><ele></ele><time>2024-5-29T22:41:44Z</time></trkpt>
<trkpt lat="46.59996" lon="6.31864"><ele></ele><time>2024-5-29T22:41:47Z</time></trkpt>
<trkpt lat="46.59996" lon="6.31864"><ele></ele><time>2024-5-29T22:41:50Z</time></trkpt>
<trkpt lat="46.59997" lon="6.31865"><ele></ele><time>2024-5-29T22:41:53Z</time></trkpt>
<trkpt lat="46.59996" lon="6.31865"><ele></ele><time>2024-5-29T22:41:56Z</time></trkpt>
<trkpt lat="46.59997" lon="6.31864"><ele></ele><time>2024-5-29T22:41:59Z</time></trkpt>
<trkpt lat="46.59997" lon="6.31863"><ele></ele><time>2024-5-29T22:42:2Z</time></trkpt>
<trkpt lat="46.59998" lon="6.31862"><ele></ele><time>2024-5-29T22:42:5Z</time></trkpt>
<trkpt lat="46.59996" lon="6.31865"><ele></ele><time>2024-5-29T22:42:8Z</time></trkpt>
<trkpt lat="46.59995" lon="6.31864"><ele></ele><time>2024-5-29T22:42:11Z</time></trkpt>
<trkpt lat="46.59995" lon="6.31863"><ele></ele><time>2024-5-29T22:42:14Z</time></trkpt>
<trkpt lat="46.59996" lon="6.31863"><ele></ele><time>2024-5-29T22:42:17Z</time></trkpt>
<trkpt lat="46.59996" lon="6.31863"><ele></ele><time>2024-5-29T22:42:20Z</time></trkpt>
<trkpt lat="46.59996" lon="6.31864"><ele></ele><time>2024-5-29T22:42:23Z</time></trkpt>
<trkpt lat="46.59997" lon="6.31865"><ele></ele><time>2024-5-29T22:42:26Z</time></trkpt>
<trkpt lat="46.59997" lon="6.31865"><ele></ele><time>2024-5-29T22:42:29Z</time></trkpt>
<trkpt lat="46.59997" lon="6.31866"><ele></ele><time>2024-5-29T22:42:32Z</time></trkpt>
<trkpt lat="46.59995" lon="6.31866"><ele></ele><time>2024-5-29T22:42:35Z</time></trkpt>
<trkpt lat="46.59995" lon="6.31865"><ele></ele><time>2024-5-29T22:42:38Z</time></trkpt>
<trkpt lat="46.59998" lon="6.31864"><ele></ele><time>2024-5-29T22:42:41Z</time></trkpt>
<trkpt lat="46.59997" lon="6.31865"><ele></ele><time>2024-5-29T22:42:44Z</time></trkpt>
<trkpt lat="46.59997" lon="6.31866"><ele></ele><time>2024-5-29T22:42:47Z</time></trkpt>
<trkpt lat="46.59997" lon="6.31865"><ele></ele><time>2024-5-29T22:42:50Z</time></trkpt>
<trkpt lat="46.59995" lon="6.31865"><ele></ele><time>2024-5-29T22:42:53Z</time></trkpt>
<trkpt lat="46.59994" lon="6.31865"><ele></ele><time>2024-5-29T22:42:56Z</time></trkpt>
<trkpt lat="46.59995" lon="6.31864"><ele></ele><time>2024-5-29T22:42:59Z</time></trkpt>
<trkpt lat="46.59994" lon="6.31861"><ele></ele><time>2024-5-29T22:43:2Z</time></trkpt>
<trkpt lat="46.59994" lon="6.31864"><ele></ele><time>2024-5-29T22:43:5Z</time></trkpt>
<trkpt lat="46.59997" lon="6.31865"><ele></ele><time>2024-5-29T22:43:8Z</time></trkpt>
<trkpt lat="46.59995" lon="6.31866"><ele></ele><time>2024-5-29T22:43:11Z</time></trkpt>
<trkpt lat="46.59993" lon="6.31868"><ele></ele><time>2024-5-29T22:43:14Z</time></trkpt>
<trkpt lat="46.59993" lon="6.31869"><ele></ele><time>2024-5-29T22:43:17Z</time></trkpt>
<trkpt lat="46.59995" lon="6.31864"><ele></ele><time>2024-5-29T22:43:20Z</time></trkpt>
<trkpt lat="46.59995" lon="6.31864"><ele></ele><time>2024-5-29T22:43:23Z</time></trkpt>
<trkpt lat="46.59995" lon="6.31864"><ele></ele><time>2024-5-29T22:43:26Z</time></trkpt>
<trkpt lat="46.59995" lon="6.31864"><ele></ele><time>2024-5-29T22:43:29Z</time></trkpt>
<trkpt lat="46.59996" lon="6.31862"><ele></ele><time>2024-5-29T22:43:32Z</time></trkpt>
<trkpt lat="46.59995" lon="6.31862"><ele></ele><time>2024-5-29T22:43:35Z</time></trkpt>
<trkpt lat="46.59995" lon="6.31862"><ele></ele><time>2024-5-29T22:43:38Z</time></trkpt>
<trkpt lat="46.59995" lon="6.31862"><ele></ele><time>2024-5-29T22:43:41Z</time></trkpt>
<trkpt lat="46.59997" lon="6.31862"><ele></ele><time>2024-5-29T22:43:44Z</time></trkpt>
<trkpt lat="46.59997" lon="6.31862"><ele></ele><time>2024-5-29T22:43:47Z</time></trkpt>
<trkpt lat="46.59999" lon="6.31861"><ele></ele><time>2024-5-29T22:43:50Z</time></trkpt>
<trkpt lat="46.60002" lon="6.31861"><ele></ele><time>2024-5-29T22:43:53Z</time></trkpt>
<trkpt lat="46.6" lon="6.31858"><ele></ele><time>2024-5-29T22:43:56Z</time></trkpt>
<trkpt lat="46.59997" lon="6.3186"><ele></ele><time>2024-5-29T22:43:59Z</time></trkpt>
<trkpt lat="46.59998" lon="6.31863"><ele></ele><time>2024-5-29T22:44:2Z</time></trkpt>
<trkpt lat="46.59998" lon="6.31863"><ele></ele><time>2024-5-29T22:44:5Z</time></trkpt>
<trkpt lat="46.59997" lon="6.31863"><ele></ele><time>2024-5-29T22:44:8Z</time></trkpt>
<trkpt lat="46.59997" lon="6.3186"><ele></ele><time>2024-5-29T22:44:11Z</time></trkpt>
<trkpt lat="46.59996" lon="6.31862"><ele></ele><time>2024-5-29T22:44:14Z</time></trkpt>
<trkpt lat="46.59996" lon="6.31862"><ele></ele><time>2024-5-29T22:44:17Z</time></trkpt>
<trkpt lat="46.59996" lon="6.31863"><ele></ele><time>2024-5-29T22:44:20Z</time></trkpt>
<trkpt lat="46.59996" lon="6.31864"><ele></ele><time>2024-5-29T22:44:23Z</time></trkpt>
<trkpt lat="46.59996" lon="6.31864"><ele></ele><time>2024-5-29T22:44:26Z</time></trkpt>
<trkpt lat="46.59995" lon="6.31865"><ele></ele><time>2024-5-29T22:44:29Z</time></trkpt>
<trkpt lat="46.59995" lon="6.31864"><ele></ele><time>2024-5-29T22:44:32Z</time></trkpt>
<trkpt lat="46.59995" lon="6.31864"><ele></ele><time>2024-5-29T22:44:35Z</time></trkpt>
<trkpt lat="46.59994" lon="6.31863"><ele></ele><time>2024-5-29T22:44:38Z</time></trkpt>
<trkpt lat="46.59997" lon="6.31862"><ele></ele><time>2024-5-29T22:44:41Z</time></trkpt>
<trkpt lat="46.59997" lon="6.31863"><ele></ele><time>2024-5-29T22:44:44Z</time></trkpt>
<trkpt lat="46.59995" lon="6.31862"><ele></ele><time>2024-5-29T22:44:47Z</time></trkpt>
<trkpt lat="46.59994" lon="6.3186"><ele></ele><time>2024-5-29T22:44:50Z</time></trkpt>
<trkpt lat="46.59994" lon="6.3186"><ele></ele><time>2024-5-29T22:44:53Z</time></trkpt>
<trkpt lat="46.59997" lon="6.31861"><ele></ele><time>2024-5-29T22:44:56Z</time></trkpt>
<trkpt lat="46.59997" lon="6.31861"><ele></ele><time>2024-5-29T22:44:59Z</time></trkpt>
<trkpt lat="46.59996" lon="6.31863"><ele></ele><time>2024-5-29T22:45:2Z</time></trkpt>
<trkpt lat="46.59997" lon="6.31863"><ele></ele><time>2024-5-29T22:45:5Z</time></trkpt>
<trkpt lat="46.59997" lon="6.31863"><ele></ele><time>2024-5-29T22:45:8Z</time></trkpt>
<trkpt lat="46.59997" lon="6.31863"><ele></ele><time>2024-5-29T22:45:11Z</time></trkpt>
<trkpt lat="46.59996" lon="6.31862"><ele></ele><time>2024-5-29T22:45:14Z</time></trkpt>
<trkpt lat="46.59996" lon="6.31863"><ele></ele><time>2024-5-29T22:45:17Z</time></trkpt>
<trkpt lat="46.59996" lon="6.31861"><ele></ele><time>2024-5-29T22:45:20Z</time></trkpt>
<trkpt lat="46.59996" lon="6.31864"><ele></ele><time>2024-5-29T22:45:23Z</time></trkpt>
<trkpt lat="46.59996" lon="6.31864"><ele></ele><time>2024-5-29T22:45:26Z</time></trkpt>
<trkpt lat="46.59995" lon="6.31864"><ele></ele><time>2024-5-29T22:45:29Z</time></trkpt>
<trkpt lat="46.59995" lon="6.31864"><ele></ele><time>2024-5-29T22:45:32Z</time></trkpt>
<trkpt lat="46.59995" lon="6.31864"><ele></ele><time>2024-5-29T22:45:35Z</time></trkpt>
<trkpt lat="46.59995" lon="6.31864"><ele></ele><time>2024-5-29T22:45:38Z</time></trkpt>
<trkpt lat="46.59995" lon="6.31862"><ele></ele><time>2024-5-29T22:45:41Z</time></trkpt>
<trkpt lat="46.59995" lon="6.31862"><ele></ele><time>2024-5-29T22:45:44Z</time></trkpt>
<trkpt lat="46.59996" lon="6.31865"><ele></ele><time>2024-5-29T22:45:47Z</time></trkpt>
<trkpt lat="46.59997" lon="6.31863"><ele></ele><time>2024-5-29T22:45:50Z</time></trkpt>
<trkpt lat="46.59995" lon="6.31862"><ele></ele><time>2024-5-29T22:45:53Z</time></trkpt>
<trkpt lat="46.59996" lon="6.31862"><ele></ele><time>2024-5-29T22:45:56Z</time></trkpt>
<trkpt lat="46.59999" lon="6.31861"><ele></ele><time>2024-5-29T22:45:59Z</time></trkpt>
<trkpt lat="46.59999" lon="6.31862"><ele></ele><time>2024-5-29T22:46:2Z</time></trkpt>
<trkpt lat="46.59998" lon="6.31864"><ele></ele><time>2024-5-29T22:46:5Z</time></trkpt>
<trkpt lat="46.59997" lon="6.31865"><ele></ele><time>2024-5-29T22:46:8Z</time></trkpt>
<trkpt lat="46.59997" lon="6.31867"><ele></ele><time>2024-5-29T22:46:11Z</time></trkpt>
<trkpt lat="46.59994" lon="6.31867"><ele></ele><time>2024-5-29T22:46:14Z</time></trkpt>
<trkpt lat="46.59994" lon="6.31867"><ele></ele><time>2024-5-29T22:46:17Z</time></trkpt>
<trkpt lat="46.59994" lon="6.31867"><ele></ele><time>2024-5-29T22:46:20Z</time></trkpt>
<trkpt lat="46.59995" lon="6.31865"><ele></ele><time>2024-5-29T22:46:23Z</time></trkpt>
<trkpt lat="46.59995" lon="6.31864"><ele></ele><time>2024-5-29T22:46:26Z</time></trkpt>
<trkpt lat="46.59995" lon="6.31864"><ele></ele><time>2024-5-29T22:46:29Z</time></trkpt>
<trkpt lat="46.59995" lon="6.31866"><ele></ele><time>2024-5-29T22:46:32Z</time></trkpt>
<trkpt lat="46.59995" lon="6.31866"><ele></ele><time>2024-5-29T22:46:35Z</time></trkpt>
<trkpt lat="46.59995" lon="6.31865"><ele></ele><time>2024-5-29T22:46:38Z</time></trkpt>
<trkpt lat="46.59995" lon="6.31863"><ele></ele><time>2024-5-29T22:46:41Z</time></trkpt>
<trkpt lat="46.59995" lon="6.31862"><ele></ele><time>2024-5-29T22:46:44Z</time></trkpt>
<trkpt lat="46.59996" lon="6.31862"><ele></ele><time>2024-5-29T22:46:47Z</time></trkpt>
<trkpt lat="46.59996" lon="6.31862"><ele></ele><time>2024-5-29T22:46:50Z</time></trkpt>
<trkpt lat="46.59996" lon="6.31862"><ele></ele><time>2024-5-29T22:46:53Z</time></trkpt>
<trkpt lat="46.59996" lon="6.31863"><ele></ele><time>2024-5-29T22:46:56Z</time></trkpt>
<trkpt lat="46.59994" lon="6.31864"><ele></ele><time>2024-5-29T22:46:59Z</time></trkpt>
<trkpt lat="46.59996" lon="6.31865"><ele></ele><time>2024-5-29T22:47:2Z</time></trkpt>
<trkpt lat="46.59996" lon="6.31865"><ele></ele><time>2024-5-29T22:47:5Z</time></trkpt>
<trkpt lat="46.59996" lon="6.31864"><ele></ele><time>2024-5-29T22:47:8Z</time></trkpt>
<trkpt lat="46.59996" lon="6.31864"><ele></ele><time>2024-5-29T22:47:11Z</time></trkpt>
<trkpt lat="46.59996" lon="6.31863"><ele></ele><time>2024-5-29T22:47:14Z</time></trkpt>
<trkpt lat="46.59996" lon="6.31862"><ele></ele><time>2024-5-29T22:47:17Z</time></trkpt>
<trkpt lat="46.59996" lon="6.31862"><ele></ele><time>2024-5-29T22:47:20Z</time></trkpt>
<trkpt lat="46.59995" lon="6.31862"><ele></ele><time>2024-5-29T22:47:23Z</time></trkpt>
<trkpt lat="46.59994" lon="6.31863"><ele></ele><time>2024-5-29T22:47:26Z</time></trkpt>
<trkpt lat="46.59996" lon="6.31862"><ele></ele><time>2024-5-29T22:47:29Z</time></trkpt>
<trkpt lat="46.59996" lon="6.31864"><ele></ele><time>2024-5-29T22:47:32Z</time></trkpt>
<trkpt lat="46.59995" lon="6.31863"><ele></ele><time>2024-5-29T22:47:35Z</time></trkpt>
<trkpt lat="46.59995" lon="6.31863"><ele></ele><time>2024-5-29T22:47:38Z</time></trkpt>
<trkpt lat="46.59995" lon="6.31863"><ele></ele><time>2024-5-29T22:47:41Z</time></trkpt>
<trkpt lat="46.59995" lon="6.31863"><ele></ele><time>2024-5-29T22:47:44Z</time></trkpt>
<trkpt lat="46.59995" lon="6.31862"><ele></ele><time>2024-5-29T22:47:47Z</time></trkpt>
<trkpt lat="46.59995" lon="6.31863"><ele></ele><time>2024-5-29T22:47:50Z</time></trkpt>
<trkpt lat="46.59995" lon="6.31862"><ele></ele><time>2024-5-29T22:47:53Z</time></trkpt>
<trkpt lat="46.59995" lon="6.31862"><ele></ele><time>2024-5-29T22:47:56Z</time></trkpt>
<trkpt lat="46.59995" lon="6.31862"><ele></ele><time>2024-5-29T22:47:59Z</time></trkpt>
<trkpt lat="46.59996" lon="6.31862"><ele></ele><time>2024-5-29T22:48:2Z</time></trkpt>
<trkpt lat="46.59996" lon="6.31862"><ele></ele><time>2024-5-29T22:48:5Z</time></trkpt>
<trkpt lat="46.59996" lon="6.31862"><ele></ele><time>2024-5-29T22:48:8Z</time></trkpt>
<trkpt lat="46.59996" lon="6.31862"><ele></ele><time>2024-5-29T22:48:11Z</time></trkpt>
<trkpt lat="46.59997" lon="6.31861"><ele></ele><time>2024-5-29T22:48:14Z</time></trkpt>
<trkpt lat="46.59995" lon="6.31863"><ele></ele><time>2024-5-29T22:48:17Z</time></trkpt>
<trkpt lat="46.59996" lon="6.31864"><ele></ele><time>2024-5-29T22:48:20Z</time></trkpt>
<trkpt lat="46.59996" lon="6.31864"><ele></ele><time>2024-5-29T22:48:23Z</time></trkpt>
<trkpt lat="46.59995" lon="6.31864"><ele></ele><time>2024-5-29T22:48:26Z</time></trkpt>
<trkpt lat="46.59995" lon="6.31864"><ele></ele><time>2024-5-29T22:48:29Z</time></trkpt>
<trkpt lat="46.59995" lon="6.31866"><ele></ele><time>2024-5-29T22:48:32Z</time></trkpt>
<trkpt lat="46.59996" lon="6.31868"><ele></ele><time>2024-5-29T22:48:35Z</time></trkpt>
<trkpt lat="46.59996" lon="6.31866"><ele></ele><time>2024-5-29T22:48:38Z</time></trkpt>
<trkpt lat="46.59996" lon="6.31865"><ele></ele><time>2024-5-29T22:48:41Z</time></trkpt>
<trkpt lat="46.59996" lon="6.31865"><ele></ele><time>2024-5-29T22:48:44Z</time></trkpt>
<trkpt lat="46.59996" lon="6.31865"><ele></ele><time>2024-5-29T22:48:47Z</time></trkpt>
<trkpt lat="46.59996" lon="6.31864"><ele></ele><time>2024-5-29T22:48:50Z</time></trkpt>
<trkpt lat="46.59995" lon="6.31865"><ele></ele><time>2024-5-29T22:48:53Z</time></trkpt>
<trkpt lat="46.59995" lon="6.31864"><ele></ele><time>2024-5-29T22:48:56Z</time></trkpt>
<trkpt lat="46.59995" lon="6.31864"><ele></ele><time>2024-5-29T22:48:59Z</time></trkpt>
<trkpt lat="46.59996" lon="6.31862"><ele></ele><time>2024-5-29T22:49:2Z</time></trkpt>
<trkpt lat="46.59997" lon="6.31862"><ele></ele><time>2024-5-29T22:49:5Z</time></trkpt>
<trkpt lat="46.59997" lon="6.31863"><ele></ele><time>2024-5-29T22:49:8Z</time></trkpt>
<trkpt lat="46.59996" lon="6.31862"><ele></ele><time>2024-5-29T22:49:11Z</time></trkpt>
<trkpt lat="46.59997" lon="6.31861"><ele></ele><time>2024-5-29T22:49:14Z</time></trkpt>
<trkpt lat="46.59996" lon="6.31862"><ele></ele><time>2024-5-29T22:49:17Z</time></trkpt>
<trkpt lat="46.59996" lon="6.31862"><ele></ele><time>2024-5-29T22:49:20Z</time></trkpt>
<trkpt lat="46.59996" lon="6.31861"><ele></ele><time>2024-5-29T22:49:23Z</time></trkpt>
<trkpt lat="46.59996" lon="6.31862"><ele></ele><time>2024-5-29T22:49:26Z</time></trkpt>
<trkpt lat="46.59996" lon="6.31862"><ele></ele><time>2024-5-29T22:49:29Z</time></trkpt>
<trkpt lat="46.59997" lon="6.31863"><ele></ele><time>2024-5-29T22:49:32Z</time></trkpt>
<trkpt lat="46.59997" lon="6.31863"><ele></ele><time>2024-5-29T22:49:35Z</time></trkpt>
<trkpt lat="46.59995" lon="6.31864"><ele></ele><time>2024-5-29T22:49:38Z</time></trkpt>
<trkpt lat="46.59996" lon="6.31865"><ele></ele><time>2024-5-29T22:49:41Z</time></trkpt>
<trkpt lat="46.59996" lon="6.31865"><ele></ele><time>2024-5-29T22:49:44Z</time></trkpt>
<trkpt lat="46.59997" lon="6.31864"><ele></ele><time>2024-5-29T22:49:47Z</time></trkpt>
<trkpt lat="46.59997" lon="6.31864"><ele></ele><time>2024-5-29T22:49:50Z</time></trkpt>
<trkpt lat="46.59997" lon="6.31864"><ele></ele><time>2024-5-29T22:49:53Z</time></trkpt>
<trkpt lat="46.59996" lon="6.31864"><ele></ele><time>2024-5-29T22:49:56Z</time></trkpt>
<trkpt lat="46.59996" lon="6.31863"><ele></ele><time>2024-5-29T22:49:59Z</time></trkpt>
<trkpt lat="46.59996" lon="6.31862"><ele></ele><time>2024-5-29T22:50:2Z</time></trkpt>
<trkpt lat="46.59996" lon="6.31862"><ele></ele><time>2024-5-29T22:50:5Z</time></trkpt>
<trkpt lat="46.59996" lon="6.31863"><ele></ele><time>2024-5-29T22:50:8Z</time></trkpt>
<trkpt lat="46.59996" lon="6.31865"><ele></ele><time>2024-5-29T22:50:11Z</time></trkpt>
<trkpt lat="46.59996" lon="6.31865"><ele></ele><time>2024-5-29T22:50:14Z</time></trkpt>
<trkpt lat="46.59997" lon="6.31865"><ele></ele><time>2024-5-29T22:50:17Z</time></trkpt>
<trkpt lat="46.59997" lon="6.31864"><ele></ele><time>2024-5-29T22:50:20Z</time></trkpt>
<trkpt lat="46.59999" lon="6.31863"><ele></ele><time>2024-5-29T22:50:23Z</time></trkpt>
<trkpt lat="46.6" lon="6.31865"><ele></ele><time>2024-5-29T22:50:26Z</time></trkpt>
<trkpt lat="46.60001" lon="6.31865"><ele></ele><time>2024-5-29T22:50:29Z</time></trkpt>
<trkpt lat="46.60002" lon="6.31863"><ele></ele><time>2024-5-29T22:50:32Z</time></trkpt>
<trkpt lat="46.60002" lon="6.31863"><ele></ele><time>2024-5-29T22:50:35Z</time></trkpt>
<trkpt lat="46.60003" lon="6.31863"><ele></ele><time>2024-5-29T22:50:38Z</time></trkpt>
<trkpt lat="46.60004" lon="6.31864"><ele></ele><time>2024-5-29T22:50:41Z</time></trkpt>
<trkpt lat="46.60005" lon="6.31864"><ele></ele><time>2024-5-29T22:50:44Z</time></trkpt>
<trkpt lat="46.60005" lon="6.31863"><ele></ele><time>2024-5-29T22:50:47Z</time></trkpt>
<trkpt lat="46.60006" lon="6.31863"><ele></ele><time>2024-5-29T22:50:50Z</time></trkpt>
<trkpt lat="46.60006" lon="6.31864"><ele></ele><time>2024-5-29T22:50:53Z</time></trkpt>
<trkpt lat="46.60005" lon="6.31866"><ele></ele><time>2024-5-29T22:50:56Z</time></trkpt>
<trkpt lat="46.60003" lon="6.31864"><ele></ele><time>2024-5-29T22:50:59Z</time></trkpt>
<trkpt lat="46.60003" lon="6.31861"><ele></ele><time>2024-5-29T22:51:2Z</time></trkpt>
<trkpt lat="46.60006" lon="6.31856"><ele></ele><time>2024-5-29T22:51:5Z</time></trkpt>
<trkpt lat="46.60014" lon="6.31855"><ele></ele><time>2024-5-29T22:51:8Z</time></trkpt>
<trkpt lat="46.60019" lon="6.31854"><ele></ele><time>2024-5-29T22:51:11Z</time></trkpt>
<trkpt lat="46.60022" lon="6.31853"><ele></ele><time>2024-5-29T22:51:14Z</time></trkpt>
<trkpt lat="46.60027" lon="6.31849"><ele></ele><time>2024-5-29T22:51:17Z</time></trkpt>
<trkpt lat="46.60028" lon="6.31847"><ele></ele><time>2024-5-29T22:51:20Z</time></trkpt>
<trkpt lat="46.6003" lon="6.31846"><ele></ele><time>2024-5-29T22:51:23Z</time></trkpt>
<trkpt lat="46.60038" lon="6.31838"><ele></ele><time>2024-5-29T22:51:26Z</time></trkpt>
<trkpt lat="46.60046" lon="6.31836"><ele></ele><time>2024-5-29T22:51:29Z</time></trkpt>
<trkpt lat="46.6005" lon="6.31834"><ele></ele><time>2024-5-29T22:51:32Z</time></trkpt>
<trkpt lat="46.60052" lon="6.31833"><ele></ele><time>2024-5-29T22:51:35Z</time></trkpt>
<trkpt lat="46.60055" lon="6.31833"><ele></ele><time>2024-5-29T22:51:38Z</time></trkpt>
<trkpt lat="46.60063" lon="6.31835"><ele></ele><time>2024-5-29T22:51:41Z</time></trkpt>
<trkpt lat="46.60067" lon="6.31839"><ele></ele><time>2024-5-29T22:51:44Z</time></trkpt>
<trkpt lat="46.60069" lon="6.31842"><ele></ele><time>2024-5-29T22:51:47Z</time></trkpt>
<trkpt lat="46.60075" lon="6.31853"><ele></ele><time>2024-5-29T22:51:50Z</time></trkpt>
<trkpt lat="46.60076" lon="6.31857"><ele></ele><time>2024-5-29T22:51:53Z</time></trkpt>
<trkpt lat="46.60077" lon="6.31868"><ele></ele><time>2024-5-29T22:51:56Z</time></trkpt>
<trkpt lat="46.60082" lon="6.3188"><ele></ele><time>2024-5-29T22:51:59Z</time></trkpt>
<trkpt lat="46.6009" lon="6.3189"><ele></ele><time>2024-5-29T22:52:2Z</time></trkpt>
<trkpt lat="46.60096" lon="6.31896"><ele></ele><time>2024-5-29T22:52:5Z</time></trkpt>
<trkpt lat="46.60099" lon="6.31905"><ele></ele><time>2024-5-29T22:52:8Z</time></trkpt>
<trkpt lat="46.601" lon="6.31913"><ele></ele><time>2024-5-29T22:52:11Z</time></trkpt>
<trkpt lat="46.60106" lon="6.31927"><ele></ele><time>2024-5-29T22:52:14Z</time></trkpt>
<trkpt lat="46.60115" lon="6.31937"><ele></ele><time>2024-5-29T22:52:17Z</time></trkpt>
<trkpt lat="46.60117" lon="6.31939"><ele></ele><time>2024-5-29T22:52:20Z</time></trkpt>
<trkpt lat="46.60132" lon="6.31942"><ele></ele><time>2024-5-29T22:52:23Z</time></trkpt>
<trkpt lat="46.60152" lon="6.31939"><ele></ele><time>2024-5-29T22:52:26Z</time></trkpt>
<trkpt lat="46.60169" lon="6.31944"><ele></ele><time>2024-5-29T22:52:29Z</time></trkpt>
<trkpt lat="46.60177" lon="6.3195"><ele></ele><time>2024-5-29T22:52:32Z</time></trkpt>
<trkpt lat="46.6018" lon="6.31951"><ele></ele><time>2024-5-29T22:52:35Z</time></trkpt>
<trkpt lat="46.60187" lon="6.31956"><ele></ele><time>2024-5-29T22:52:38Z</time></trkpt>
<trkpt lat="46.60205" lon="6.31959"><ele></ele><time>2024-5-29T22:52:41Z</time></trkpt>
<trkpt lat="46.60219" lon="6.31957"><ele></ele><time>2024-5-29T22:52:44Z</time></trkpt>
<trkpt lat="46.60226" lon="6.31954"><ele></ele><time>2024-5-29T22:52:47Z</time></trkpt>
<trkpt lat="46.6023" lon="6.31953"><ele></ele><time>2024-5-29T22:52:50Z</time></trkpt>
<trkpt lat="46.60239" lon="6.3195"><ele></ele><time>2024-5-29T22:52:53Z</time></trkpt>
<trkpt lat="46.60251" lon="6.31947"><ele></ele><time>2024-5-29T22:52:56Z</time></trkpt>
<trkpt lat="46.60259" lon="6.31945"><ele></ele><time>2024-5-29T22:52:59Z</time></trkpt>
<trkpt lat="46.60264" lon="6.31945"><ele></ele><time>2024-5-29T22:53:2Z</time></trkpt>
<trkpt lat="46.60272" lon="6.31945"><ele></ele><time>2024-5-29T22:53:5Z</time></trkpt>
<trkpt lat="46.60276" lon="6.31946"><ele></ele><time>2024-5-29T22:53:8Z</time></trkpt>
<trkpt lat="46.6028" lon="6.31948"><ele></ele><time>2024-5-29T22:53:11Z</time></trkpt>
<trkpt lat="46.60284" lon="6.3195"><ele></ele><time>2024-5-29T22:53:14Z</time></trkpt>
<trkpt lat="46.60288" lon="6.31954"><ele></ele><time>2024-5-29T22:53:17Z</time></trkpt>
<trkpt lat="46.60297" lon="6.31959"><ele></ele><time>2024-5-29T22:53:20Z</time></trkpt>
<trkpt lat="46.60307" lon="6.31964"><ele></ele><time>2024-5-29T22:53:23Z</time></trkpt>
<trkpt lat="46.60317" lon="6.31968"><ele></ele><time>2024-5-29T22:53:26Z</time></trkpt>
<trkpt lat="46.60326" lon="6.31972"><ele></ele><time>2024-5-29T22:53:29Z</time></trkpt>
<trkpt lat="46.60335" lon="6.31976"><ele></ele><time>2024-5-29T22:53:32Z</time></trkpt>
<trkpt lat="46.60339" lon="6.3198"><ele></ele><time>2024-5-29T22:53:35Z</time></trkpt>
<trkpt lat="46.60347" lon="6.31988"><ele></ele><time>2024-5-29T22:53:38Z</time></trkpt>
<trkpt lat="46.60357" lon="6.31998"><ele></ele><time>2024-5-29T22:53:41Z</time></trkpt>
<trkpt lat="46.60363" lon="6.31998"><ele></ele><time>2024-5-29T22:53:44Z</time></trkpt>
<trkpt lat="46.60365" lon="6.31991"><ele></ele><time>2024-5-29T22:53:47Z</time></trkpt>
<trkpt lat="46.60363" lon="6.31987"><ele></ele><time>2024-5-29T22:53:50Z</time></trkpt>
<trkpt lat="46.60361" lon="6.31985"><ele></ele><time>2024-5-29T22:53:53Z</time></trkpt>
<trkpt lat="46.60351" lon="6.31976"><ele></ele><time>2024-5-29T22:53:56Z</time></trkpt>
<trkpt lat="46.60348" lon="6.31972"><ele></ele><time>2024-5-29T22:53:59Z</time></trkpt>
<trkpt lat="46.6034" lon="6.31962"><ele></ele><time>2024-5-29T22:54:2Z</time></trkpt>
<trkpt lat="46.60338" lon="6.31958"><ele></ele><time>2024-5-29T22:54:5Z</time></trkpt>
<trkpt lat="46.60328" lon="6.31946"><ele></ele><time>2024-5-29T22:54:8Z</time></trkpt>
<trkpt lat="46.6032" lon="6.31932"><ele></ele><time>2024-5-29T22:54:11Z</time></trkpt>
<trkpt lat="46.60318" lon="6.31927"><ele></ele><time>2024-5-29T22:54:14Z</time></trkpt>
<trkpt lat="46.60311" lon="6.31913"><ele></ele><time>2024-5-29T22:54:17Z</time></trkpt>
<trkpt lat="46.60303" lon="6.31896"><ele></ele><time>2024-5-29T22:54:20Z</time></trkpt>
<trkpt lat="46.603" lon="6.31893"><ele></ele><time>2024-5-29T22:54:23Z</time></trkpt>
<trkpt lat="46.60295" lon="6.31884"><ele></ele><time>2024-5-29T22:54:26Z</time></trkpt>
<trkpt lat="46.60288" lon="6.3187"><ele></ele><time>2024-5-29T22:54:29Z</time></trkpt>
<trkpt lat="46.60284" lon="6.31861"><ele></ele><time>2024-5-29T22:54:32Z</time></trkpt>
<trkpt lat="46.60282" lon="6.31856"><ele></ele><time>2024-5-29T22:54:35Z</time></trkpt>
<trkpt lat="46.60276" lon="6.31842"><ele></ele><time>2024-5-29T22:54:38Z</time></trkpt>
<trkpt lat="46.60272" lon="6.31833"><ele></ele><time>2024-5-29T22:54:41Z</time></trkpt>
<trkpt lat="46.60269" lon="6.31829"><ele></ele><time>2024-5-29T22:54:44Z</time></trkpt>
<trkpt lat="46.60261" lon="6.31808"><ele></ele><time>2024-5-29T22:54:47Z</time></trkpt>
<trkpt lat="46.60258" lon="6.31799"><ele></ele><time>2024-5-29T22:54:50Z</time></trkpt>
<trkpt lat="46.60257" lon="6.31794"><ele></ele><time>2024-5-29T22:54:53Z</time></trkpt>
<trkpt lat="46.60255" lon="6.31789"><ele></ele><time>2024-5-29T22:54:56Z</time></trkpt>
<trkpt lat="46.60252" lon="6.3177"><ele></ele><time>2024-5-29T22:54:59Z</time></trkpt>
<trkpt lat="46.60251" lon="6.31759"><ele></ele><time>2024-5-29T22:55:2Z</time></trkpt>
<trkpt lat="46.6025" lon="6.31753"><ele></ele><time>2024-5-29T22:55:5Z</time></trkpt>
<trkpt lat="46.60245" lon="6.31735"><ele></ele><time>2024-5-29T22:55:8Z</time></trkpt>
<trkpt lat="46.60242" lon="6.31722"><ele></ele><time>2024-5-29T22:55:11Z</time></trkpt>
<trkpt lat="46.60239" lon="6.31708"><ele></ele><time>2024-5-29T22:55:14Z</time></trkpt>
<trkpt lat="46.60236" lon="6.31695"><ele></ele><time>2024-5-29T22:55:17Z</time></trkpt>
<trkpt lat="46.60235" lon="6.31681"><ele></ele><time>2024-5-29T22:55:20Z</time></trkpt>
<trkpt lat="46.60231" lon="6.31661"><ele></ele><time>2024-5-29T22:55:23Z</time></trkpt>
<trkpt lat="46.60229" lon="6.31649"><ele></ele><time>2024-5-29T22:55:26Z</time></trkpt>
<trkpt lat="46.60228" lon="6.31643"><ele></ele><time>2024-5-29T22:55:29Z</time></trkpt>
<trkpt lat="46.60225" lon="6.31623"><ele></ele><time>2024-5-29T22:55:32Z</time></trkpt>
<trkpt lat="46.60222" lon="6.31611"><ele></ele><time>2024-5-29T22:55:35Z</time></trkpt>
<trkpt lat="46.60221" lon="6.31598"><ele></ele><time>2024-5-29T22:55:38Z</time></trkpt>
<trkpt lat="46.60221" lon="6.31591"><ele></ele><time>2024-5-29T22:55:41Z</time></trkpt>
<trkpt lat="46.60223" lon="6.31579"><ele></ele><time>2024-5-29T22:55:44Z</time></trkpt>
<trkpt lat="46.60225" lon="6.31572"><ele></ele><time>2024-5-29T22:55:47Z</time></trkpt>
<trkpt lat="46.60226" lon="6.31566"><ele></ele><time>2024-5-29T22:55:50Z</time></trkpt>
<trkpt lat="46.6023" lon="6.31553"><ele></ele><time>2024-5-29T22:55:53Z</time></trkpt>
<trkpt lat="46.60233" lon="6.31538"><ele></ele><time>2024-5-29T22:55:56Z</time></trkpt>
<trkpt lat="46.6024" lon="6.31523"><ele></ele><time>2024-5-29T22:55:59Z</time></trkpt>
<trkpt lat="46.60242" lon="6.31513"><ele></ele><time>2024-5-29T22:56:2Z</time></trkpt>
<trkpt lat="46.60241" lon="6.3151"><ele></ele><time>2024-5-29T22:56:5Z</time></trkpt>
<trkpt lat="46.6024" lon="6.31508"><ele></ele><time>2024-5-29T22:56:8Z</time></trkpt>
<trkpt lat="46.60238" lon="6.31497"><ele></ele><time>2024-5-29T22:56:11Z</time></trkpt>
<trkpt lat="46.60236" lon="6.31489"><ele></ele><time>2024-5-29T22:56:14Z</time></trkpt>
<trkpt lat="46.60234" lon="6.31477"><ele></ele><time>2024-5-29T22:56:17Z</time></trkpt>
<trkpt lat="46.60231" lon="6.3147"><ele></ele><time>2024-5-29T22:56:20Z</time></trkpt>
<trkpt lat="46.60229" lon="6.31468"><ele></ele><time>2024-5-29T22:56:23Z</time></trkpt>
<trkpt lat="46.60217" lon="6.31453"><ele></ele><time>2024-5-29T22:56:26Z</time></trkpt>
<trkpt lat="46.60213" lon="6.31444"><ele></ele><time>2024-5-29T22:56:29Z</time></trkpt>
<trkpt lat="46.60211" lon="6.31438"><ele></ele><time>2024-5-29T22:56:32Z</time></trkpt>
<trkpt lat="46.60209" lon="6.31436"><ele></ele><time>2024-5-29T22:56:35Z</time></trkpt>
<trkpt lat="46.60209" lon="6.31436"><ele></ele><time>2024-5-29T22:56:38Z</time></trkpt>
<trkpt lat="46.60208" lon="6.31435"><ele></ele><time>2024-5-29T22:56:41Z</time></trkpt>
<trkpt lat="46.60205" lon="6.31431"><ele></ele><time>2024-5-29T22:56:44Z</time></trkpt>
<trkpt lat="46.60198" lon="6.31423"><ele></ele><time>2024-5-29T22:56:47Z</time></trkpt>
<trkpt lat="46.60191" lon="6.31416"><ele></ele><time>2024-5-29T22:56:50Z</time></trkpt>
<trkpt lat="46.60179" lon="6.31401"><ele></ele><time>2024-5-29T22:56:53Z</time></trkpt>
<trkpt lat="46.60174" lon="6.31392"><ele></ele><time>2024-5-29T22:56:56Z</time></trkpt>
<trkpt lat="46.60169" lon="6.31385"><ele></ele><time>2024-5-29T22:56:59Z</time></trkpt>
<trkpt lat="46.60159" lon="6.31372"><ele></ele><time>2024-5-29T22:57:2Z</time></trkpt>
<trkpt lat="46.60156" lon="6.31367"><ele></ele><time>2024-5-29T22:57:5Z</time></trkpt>
<trkpt lat="46.60152" lon="6.3136"><ele></ele><time>2024-5-29T22:57:8Z</time></trkpt>
<trkpt lat="46.60149" lon="6.31356"><ele></ele><time>2024-5-29T22:57:11Z</time></trkpt>
<trkpt lat="46.60144" lon="6.31345"><ele></ele><time>2024-5-29T22:57:14Z</time></trkpt>
<trkpt lat="46.6014" lon="6.31337"><ele></ele><time>2024-5-29T22:57:17Z</time></trkpt>
<trkpt lat="46.60137" lon="6.31332"><ele></ele><time>2024-5-29T22:57:20Z</time></trkpt>
<trkpt lat="46.60135" lon="6.31329"><ele></ele><time>2024-5-29T22:57:23Z</time></trkpt>
<trkpt lat="46.60134" lon="6.31327"><ele></ele><time>2024-5-29T22:57:26Z</time></trkpt>
<trkpt lat="46.60132" lon="6.31324"><ele></ele><time>2024-5-29T22:57:29Z</time></trkpt>
<trkpt lat="46.60128" lon="6.31318"><ele></ele><time>2024-5-29T22:57:32Z</time></trkpt>
<trkpt lat="46.60123" lon="6.31308"><ele></ele><time>2024-5-29T22:57:35Z</time></trkpt>
<trkpt lat="46.60118" lon="6.31298"><ele></ele><time>2024-5-29T22:57:38Z</time></trkpt>
<trkpt lat="46.6011" lon="6.31282"><ele></ele><time>2024-5-29T22:57:41Z</time></trkpt>
<trkpt lat="46.601" lon="6.31264"><ele></ele><time>2024-5-29T22:57:44Z</time></trkpt>
<trkpt lat="46.60092" lon="6.31247"><ele></ele><time>2024-5-29T22:57:47Z</time></trkpt>
<trkpt lat="46.60087" lon="6.31237"><ele></ele><time>2024-5-29T22:57:50Z</time></trkpt>
<trkpt lat="46.60085" lon="6.31235"><ele></ele><time>2024-5-29T22:57:53Z</time></trkpt>
<trkpt lat="46.60079" lon="6.31222"><ele></ele><time>2024-5-29T22:57:56Z</time></trkpt>
<trkpt lat="46.60072" lon="6.3121"><ele></ele><time>2024-5-29T22:57:59Z</time></trkpt>
<trkpt lat="46.60067" lon="6.31202"><ele></ele><time>2024-5-29T22:58:2Z</time></trkpt>
<trkpt lat="46.60064" lon="6.31199"><ele></ele><time>2024-5-29T22:58:5Z</time></trkpt>
<trkpt lat="46.60061" lon="6.31192"><ele></ele><time>2024-5-29T22:58:8Z</time></trkpt>
<trkpt lat="46.60062" lon="6.31178"><ele></ele><time>2024-5-29T22:58:11Z</time></trkpt>
<trkpt lat="46.60068" lon="6.31164"><ele></ele><time>2024-5-29T22:58:14Z</time></trkpt>
<trkpt lat="46.60072" lon="6.31161"><ele></ele><time>2024-5-29T22:58:17Z</time></trkpt>
<trkpt lat="46.60078" lon="6.31159"><ele></ele><time>2024-5-29T22:58:20Z</time></trkpt>
<trkpt lat="46.60087" lon="6.31156"><ele></ele><time>2024-5-29T22:58:23Z</time></trkpt>
<trkpt lat="46.6009" lon="6.31156"><ele></ele><time>2024-5-29T22:58:26Z</time></trkpt>
<trkpt lat="46.60096" lon="6.31158"><ele></ele><time>2024-5-29T22:58:29Z</time></trkpt>
<trkpt lat="46.60102" lon="6.31162"><ele></ele><time>2024-5-29T22:58:32Z</time></trkpt>
<trkpt lat="46.60109" lon="6.31163"><ele></ele><time>2024-5-29T22:58:35Z</time></trkpt>
<trkpt lat="46.60116" lon="6.31162"><ele></ele><time>2024-5-29T22:58:38Z</time></trkpt>
<trkpt lat="46.60119" lon="6.3116"><ele></ele><time>2024-5-29T22:58:41Z</time></trkpt>
<trkpt lat="46.60122" lon="6.31158"><ele></ele><time>2024-5-29T22:58:44Z</time></trkpt>
<trkpt lat="46.60124" lon="6.31156"><ele></ele><time>2024-5-29T22:58:47Z</time></trkpt>
<trkpt lat="46.60127" lon="6.31155"><ele></ele><time>2024-5-29T22:58:50Z</time></trkpt>
<trkpt lat="46.60129" lon="6.31152"><ele></ele><time>2024-5-29T22:58:53Z</time></trkpt>
<trkpt lat="46.6013" lon="6.31149"><ele></ele><time>2024-5-29T22:58:56Z</time></trkpt>
<trkpt lat="46.60129" lon="6.31139"><ele></ele><time>2024-5-29T22:58:59Z</time></trkpt>
<trkpt lat="46.60128" lon="6.31136"><ele></ele><time>2024-5-29T22:59:2Z</time></trkpt>
<trkpt lat="46.60125" lon="6.31127"><ele></ele><time>2024-5-29T22:59:5Z</time></trkpt>
<trkpt lat="46.60125" lon="6.31123"><ele></ele><time>2024-5-29T22:59:8Z</time></trkpt>
<trkpt lat="46.60126" lon="6.31121"><ele></ele><time>2024-5-29T22:59:11Z</time></trkpt>
<trkpt lat="46.60127" lon="6.31118"><ele></ele><time>2024-5-29T22:59:14Z</time></trkpt>
<trkpt lat="46.60127" lon="6.31115"><ele></ele><time>2024-5-29T22:59:17Z</time></trkpt>
<trkpt lat="46.60128" lon="6.3111"><ele></ele><time>2024-5-29T22:59:20Z</time></trkpt>
<trkpt lat="46.6013" lon="6.31101"><ele></ele><time>2024-5-29T22:59:23Z</time></trkpt>
<trkpt lat="46.60131" lon="6.31095"><ele></ele><time>2024-5-29T22:59:26Z</time></trkpt>
<trkpt lat="46.60132" lon="6.31087"><ele></ele><time>2024-5-29T22:59:29Z</time></trkpt>
<trkpt lat="46.60132" lon="6.31083"><ele></ele><time>2024-5-29T22:59:32Z</time></trkpt>
<trkpt lat="46.6013" lon="6.31074"><ele></ele><time>2024-5-29T22:59:35Z</time></trkpt>
<trkpt lat="46.60126" lon="6.31059"><ele></ele><time>2024-5-29T22:59:38Z</time></trkpt>
<trkpt lat="46.60125" lon="6.31055"><ele></ele><time>2024-5-29T22:59:41Z</time></trkpt>
<trkpt lat="46.60124" lon="6.31051"><ele></ele><time>2024-5-29T22:59:44Z</time></trkpt>
<trkpt lat="46.60121" lon="6.31046"><ele></ele><time>2024-5-29T22:59:47Z</time></trkpt>
<trkpt lat="46.6012" lon="6.31043"><ele></ele><time>2024-5-29T22:59:50Z</time></trkpt>
<trkpt lat="46.60118" lon="6.31043"><ele></ele><time>2024-5-29T22:59:53Z</time></trkpt>
<trkpt lat="46.60112" lon="6.31042"><ele></ele><time>2024-5-29T22:59:56Z</time></trkpt>
<trkpt lat="46.60111" lon="6.31041"><ele></ele><time>2024-5-29T22:59:59Z</time></trkpt>
<trkpt lat="46.60109" lon="6.31037"><ele></ele><time>2024-5-29T23:0:2Z</time></trkpt>
<trkpt lat="46.60108" lon="6.31025"><ele></ele><time>2024-5-29T23:0:5Z</time></trkpt>
<trkpt lat="46.60107" lon="6.3102"><ele></ele><time>2024-5-29T23:0:8Z</time></trkpt>
<trkpt lat="46.60105" lon="6.31012"><ele></ele><time>2024-5-29T23:0:11Z</time></trkpt>
<trkpt lat="46.60101" lon="6.31"><ele></ele><time>2024-5-29T23:0:14Z</time></trkpt>
<trkpt lat="46.60101" lon="6.30998"><ele></ele><time>2024-5-29T23:0:17Z</time></trkpt>
<trkpt lat="46.60098" lon="6.30992"><ele></ele><time>2024-5-29T23:0:20Z</time></trkpt>
<trkpt lat="46.60095" lon="6.30982"><ele></ele><time>2024-5-29T23:0:23Z</time></trkpt>
<trkpt lat="46.60095" lon="6.30977"><ele></ele><time>2024-5-29T23:0:26Z</time></trkpt>
<trkpt lat="46.60098" lon="6.30972"><ele></ele><time>2024-5-29T23:0:29Z</time></trkpt>
<trkpt lat="46.60099" lon="6.30972"><ele></ele><time>2024-5-29T23:0:32Z</time></trkpt>
<trkpt lat="46.60101" lon="6.30971"><ele></ele><time>2024-5-29T23:0:35Z</time></trkpt>
<trkpt lat="46.60103" lon="6.30965"><ele></ele><time>2024-5-29T23:0:38Z</time></trkpt>
<trkpt lat="46.6011" lon="6.30959"><ele></ele><time>2024-5-29T23:0:41Z</time></trkpt>
<trkpt lat="46.60115" lon="6.30957"><ele></ele><time>2024-5-29T23:0:44Z</time></trkpt>
<trkpt lat="46.60126" lon="6.30952"><ele></ele><time>2024-5-29T23:0:47Z</time></trkpt>
<trkpt lat="46.60129" lon="6.30951"><ele></ele><time>2024-5-29T23:0:50Z</time></trkpt>
<trkpt lat="46.60133" lon="6.30948"><ele></ele><time>2024-5-29T23:0:53Z</time></trkpt>
<trkpt lat="46.60135" lon="6.30944"><ele></ele><time>2024-5-29T23:0:56Z</time></trkpt>
<trkpt lat="46.60142" lon="6.30941"><ele></ele><time>2024-5-29T23:0:59Z</time></trkpt>
<trkpt lat="46.60145" lon="6.30938"><ele></ele><time>2024-5-29T23:1:2Z</time></trkpt>
<trkpt lat="46.60151" lon="6.30934"><ele></ele><time>2024-5-29T23:1:5Z</time></trkpt>
<trkpt lat="46.60155" lon="6.30933"><ele></ele><time>2024-5-29T23:1:8Z</time></trkpt>
<trkpt lat="46.60157" lon="6.30932"><ele></ele><time>2024-5-29T23:1:11Z</time></trkpt>
<trkpt lat="46.6016" lon="6.30933"><ele></ele><time>2024-5-29T23:1:14Z</time></trkpt>
<trkpt lat="46.60162" lon="6.30937"><ele></ele><time>2024-5-29T23:1:17Z</time></trkpt>
<trkpt lat="46.60173" lon="6.30949"><ele></ele><time>2024-5-29T23:1:20Z</time></trkpt>
<trkpt lat="46.60174" lon="6.30951"><ele></ele><time>2024-5-29T23:1:23Z</time></trkpt>
<trkpt lat="46.60178" lon="6.30955"><ele></ele><time>2024-5-29T23:1:26Z</time></trkpt>
<trkpt lat="46.6018" lon="6.30958"><ele></ele><time>2024-5-29T23:1:29Z</time></trkpt>
<trkpt lat="46.60187" lon="6.30969"><ele></ele><time>2024-5-29T23:1:32Z</time></trkpt>
<trkpt lat="46.602" lon="6.3099"><ele></ele><time>2024-5-29T23:1:35Z</time></trkpt>
<trkpt lat="46.60208" lon="6.31005"><ele></ele><time>2024-5-29T23:1:38Z</time></trkpt>
<trkpt lat="46.60217" lon="6.31024"><ele></ele><time>2024-5-29T23:1:41Z</time></trkpt>
<trkpt lat="46.60225" lon="6.31038"><ele></ele><time>2024-5-29T23:1:44Z</time></trkpt>
<trkpt lat="46.60239" lon="6.31058"><ele></ele><time>2024-5-29T23:1:47Z</time></trkpt>
<trkpt lat="46.60261" lon="6.31076"><ele></ele><time>2024-5-29T23:1:50Z</time></trkpt>
<trkpt lat="46.60278" lon="6.31087"><ele></ele><time>2024-5-29T23:1:53Z</time></trkpt>
<trkpt lat="46.60283" lon="6.31091"><ele></ele><time>2024-5-29T23:1:56Z</time></trkpt>
<trkpt lat="46.60302" lon="6.3111"><ele></ele><time>2024-5-29T23:1:59Z</time></trkpt>
<trkpt lat="46.60306" lon="6.31115"><ele></ele><time>2024-5-29T23:2:2Z</time></trkpt>
<trkpt lat="46.60325" lon="6.31146"><ele></ele><time>2024-5-29T23:2:5Z</time></trkpt>
<trkpt lat="46.60335" lon="6.31162"><ele></ele><time>2024-5-29T23:2:8Z</time></trkpt>
<trkpt lat="46.60337" lon="6.31166"><ele></ele><time>2024-5-29T23:2:11Z</time></trkpt>
<trkpt lat="46.60348" lon="6.31178"><ele></ele><time>2024-5-29T23:2:14Z</time></trkpt>
<trkpt lat="46.60352" lon="6.31181"><ele></ele><time>2024-5-29T23:2:17Z</time></trkpt>
<trkpt lat="46.60356" lon="6.31182"><ele></ele><time>2024-5-29T23:2:20Z</time></trkpt>
<trkpt lat="46.60361" lon="6.31182"><ele></ele><time>2024-5-29T23:2:23Z</time></trkpt>
<trkpt lat="46.6037" lon="6.3118"><ele></ele><time>2024-5-29T23:2:26Z</time></trkpt>
<trkpt lat="46.60379" lon="6.31183"><ele></ele><time>2024-5-29T23:2:29Z</time></trkpt>
<trkpt lat="46.6039" lon="6.31191"><ele></ele><time>2024-5-29T23:2:32Z</time></trkpt>
<trkpt lat="46.60409" lon="6.31201"><ele></ele><time>2024-5-29T23:2:35Z</time></trkpt>
<trkpt lat="46.60412" lon="6.31203"><ele></ele><time>2024-5-29T23:2:38Z</time></trkpt>
<trkpt lat="46.60432" lon="6.3122"><ele></ele><time>2024-5-29T23:2:41Z</time></trkpt>
<trkpt lat="46.60436" lon="6.31223"><ele></ele><time>2024-5-29T23:2:44Z</time></trkpt>
<trkpt lat="46.60446" lon="6.31233"><ele></ele><time>2024-5-29T23:2:47Z</time></trkpt>
<trkpt lat="46.60457" lon="6.31248"><ele></ele><time>2024-5-29T23:2:50Z</time></trkpt>
<trkpt lat="46.60468" lon="6.31265"><ele></ele><time>2024-5-29T23:2:53Z</time></trkpt>
<trkpt lat="46.60473" lon="6.31274"><ele></ele><time>2024-5-29T23:2:56Z</time></trkpt>
<trkpt lat="46.60475" lon="6.31279"><ele></ele><time>2024-5-29T23:2:59Z</time></trkpt>
<trkpt lat="46.6049" lon="6.31302"><ele></ele><time>2024-5-29T23:3:2Z</time></trkpt>
<trkpt lat="46.60498" lon="6.31317"><ele></ele><time>2024-5-29T23:3:5Z</time></trkpt>
<trkpt lat="46.60502" lon="6.31324"><ele></ele><time>2024-5-29T23:3:8Z</time></trkpt>
<trkpt lat="46.60506" lon="6.31332"><ele></ele><time>2024-5-29T23:3:11Z</time></trkpt>
<trkpt lat="46.60512" lon="6.31343"><ele></ele><time>2024-5-29T23:3:14Z</time></trkpt>
<trkpt lat="46.60527" lon="6.31368"><ele></ele><time>2024-5-29T23:3:17Z</time></trkpt>
<trkpt lat="46.60547" lon="6.31396"><ele></ele><time>2024-5-29T23:3:20Z</time></trkpt>
<trkpt lat="46.60553" lon="6.31404"><ele></ele><time>2024-5-29T23:3:23Z</time></trkpt>
<trkpt lat="46.60566" lon="6.3142"><ele></ele><time>2024-5-29T23:3:26Z</time></trkpt>
<trkpt lat="46.60581" lon="6.31439"><ele></ele><time>2024-5-29T23:3:29Z</time></trkpt>
<trkpt lat="46.60594" lon="6.31458"><ele></ele><time>2024-5-29T23:3:32Z</time></trkpt>
<trkpt lat="46.60597" lon="6.31463"><ele></ele><time>2024-5-29T23:3:35Z</time></trkpt>
<trkpt lat="46.60603" lon="6.31472"><ele></ele><time>2024-5-29T23:3:38Z</time></trkpt>
<trkpt lat="46.60616" lon="6.31492"><ele></ele><time>2024-5-29T23:3:41Z</time></trkpt>
<trkpt lat="46.60623" lon="6.31502"><ele></ele><time>2024-5-29T23:3:44Z</time></trkpt>
<trkpt lat="46.60641" lon="6.31523"><ele></ele><time>2024-5-29T23:3:47Z</time></trkpt>
<trkpt lat="46.60661" lon="6.31553"><ele></ele><time>2024-5-29T23:3:50Z</time></trkpt>
<trkpt lat="46.6068" lon="6.31576"><ele></ele><time>2024-5-29T23:3:53Z</time></trkpt>
<trkpt lat="46.60689" lon="6.31591"><ele></ele><time>2024-5-29T23:3:56Z</time></trkpt>
<trkpt lat="46.607" lon="6.31606"><ele></ele><time>2024-5-29T23:3:59Z</time></trkpt>
<trkpt lat="46.60709" lon="6.31623"><ele></ele><time>2024-5-29T23:4:2Z</time></trkpt>
<trkpt lat="46.60714" lon="6.3163"><ele></ele><time>2024-5-29T23:4:5Z</time></trkpt>
<trkpt lat="46.60729" lon="6.31647"><ele></ele><time>2024-5-29T23:4:8Z</time></trkpt>
<trkpt lat="46.60734" lon="6.31655"><ele></ele><time>2024-5-29T23:4:11Z</time></trkpt>
<trkpt lat="46.60742" lon="6.31657"><ele></ele><time>2024-5-29T23:4:14Z</time></trkpt>
<trkpt lat="46.60745" lon="6.31657"><ele></ele><time>2024-5-29T23:4:17Z</time></trkpt>
<trkpt lat="46.6075" lon="6.31658"><ele></ele><time>2024-5-29T23:4:20Z</time></trkpt>
<trkpt lat="46.6075" lon="6.31659"><ele></ele><time>2024-5-29T23:4:23Z</time></trkpt>
<trkpt lat="46.6075" lon="6.31658"><ele></ele><time>2024-5-29T23:4:26Z</time></trkpt>
<trkpt lat="46.60751" lon="6.31657"><ele></ele><time>2024-5-29T23:4:29Z</time></trkpt>
<trkpt lat="46.6075" lon="6.31657"><ele></ele><time>2024-5-29T23:4:32Z</time></trkpt>
<trkpt lat="46.6075" lon="6.31657"><ele></ele><time>2024-5-29T23:4:35Z</time></trkpt>
<trkpt lat="46.60749" lon="6.31658"><ele></ele><time>2024-5-29T23:4:38Z</time></trkpt>
<trkpt lat="46.6075" lon="6.31657"><ele></ele><time>2024-5-29T23:4:41Z</time></trkpt>
<trkpt lat="46.6075" lon="6.31657"><ele></ele><time>2024-5-29T23:4:44Z</time></trkpt>
<trkpt lat="46.6075" lon="6.31657"><ele></ele><time>2024-5-29T23:4:47Z</time></trkpt>
<trkpt lat="46.60751" lon="6.31657"><ele></ele><time>2024-5-29T23:4:50Z</time></trkpt>
<trkpt lat="46.6075" lon="6.31656"><ele></ele><time>2024-5-29T23:4:53Z</time></trkpt>
<trkpt lat="46.6075" lon="6.31656"><ele></ele><time>2024-5-29T23:4:56Z</time></trkpt>
<trkpt lat="46.6075" lon="6.31654"><ele></ele><time>2024-5-29T23:4:59Z</time></trkpt>
<trkpt lat="46.6075" lon="6.31654"><ele></ele><time>2024-5-29T23:5:2Z</time></trkpt>
<trkpt lat="46.6075" lon="6.31655"><ele></ele><time>2024-5-29T23:5:5Z</time></trkpt>
<trkpt lat="46.6075" lon="6.31655"><ele></ele><time>2024-5-29T23:5:8Z</time></trkpt>
<trkpt lat="46.6075" lon="6.31656"><ele></ele><time>2024-5-29T23:5:11Z</time></trkpt>
<trkpt lat="46.60751" lon="6.31656"><ele></ele><time>2024-5-29T23:5:14Z</time></trkpt>
<trkpt lat="46.60753" lon="6.31655"><ele></ele><time>2024-5-29T23:5:17Z</time></trkpt>
<trkpt lat="46.60753" lon="6.31654"><ele></ele><time>2024-5-29T23:5:20Z</time></trkpt>
<trkpt lat="46.60752" lon="6.31654"><ele></ele><time>2024-5-29T23:5:23Z</time></trkpt>
<trkpt lat="46.60752" lon="6.31653"><ele></ele><time>2024-5-29T23:5:26Z</time></trkpt>
<trkpt lat="46.60752" lon="6.31653"><ele></ele><time>2024-5-29T23:5:29Z</time></trkpt>
<trkpt lat="46.60752" lon="6.31653"><ele></ele><time>2024-5-29T23:5:32Z</time></trkpt>
<trkpt lat="46.60752" lon="6.31652"><ele></ele><time>2024-5-29T23:5:35Z</time></trkpt>
<trkpt lat="46.60754" lon="6.31654"><ele></ele><time>2024-5-29T23:5:38Z</time></trkpt>
<trkpt lat="46.60753" lon="6.31655"><ele></ele><time>2024-5-29T23:5:41Z</time></trkpt>
<trkpt lat="46.6075" lon="6.31657"><ele></ele><time>2024-5-29T23:5:44Z</time></trkpt>
<trkpt lat="46.6075" lon="6.31657"><ele></ele><time>2024-5-29T23:5:47Z</time></trkpt>
<trkpt lat="46.6075" lon="6.31656"><ele></ele><time>2024-5-29T23:5:50Z</time></trkpt>
<trkpt lat="46.6075" lon="6.31656"><ele></ele><time>2024-5-29T23:5:53Z</time></trkpt>
<trkpt lat="46.6075" lon="6.31657"><ele></ele><time>2024-5-29T23:5:56Z</time></trkpt>
<trkpt lat="46.6075" lon="6.31656"><ele></ele><time>2024-5-29T23:5:59Z</time></trkpt>
<trkpt lat="46.60751" lon="6.31655"><ele></ele><time>2024-5-29T23:6:2Z</time></trkpt>
<trkpt lat="46.60751" lon="6.31656"><ele></ele><time>2024-5-29T23:6:5Z</time></trkpt>
<trkpt lat="46.6075" lon="6.31656"><ele></ele><time>2024-5-29T23:6:8Z</time></trkpt>
<trkpt lat="46.60749" lon="6.31656"><ele></ele><time>2024-5-29T23:6:11Z</time></trkpt>
<trkpt lat="46.6075" lon="6.31655"><ele></ele><time>2024-5-29T23:6:14Z</time></trkpt>
<trkpt lat="46.60749" lon="6.31657"><ele></ele><time>2024-5-29T23:6:17Z</time></trkpt>
<trkpt lat="46.60749" lon="6.31657"><ele></ele><time>2024-5-29T23:6:20Z</time></trkpt>
<trkpt lat="46.6075" lon="6.31659"><ele></ele><time>2024-5-29T23:6:23Z</time></trkpt>
<trkpt lat="46.60749" lon="6.31665"><ele></ele><time>2024-5-29T23:6:26Z</time></trkpt>
<trkpt lat="46.60749" lon="6.31682"><ele></ele><time>2024-5-29T23:6:29Z</time></trkpt>
<trkpt lat="46.60756" lon="6.31701"><ele></ele><time>2024-5-29T23:6:32Z</time></trkpt>
<trkpt lat="46.6077" lon="6.31725"><ele></ele><time>2024-5-29T23:6:35Z</time></trkpt>
<trkpt lat="46.60772" lon="6.31729"><ele></ele><time>2024-5-29T23:6:38Z</time></trkpt>
<trkpt lat="46.60786" lon="6.31748"><ele></ele><time>2024-5-29T23:6:41Z</time></trkpt>
<trkpt lat="46.60803" lon="6.31775"><ele></ele><time>2024-5-29T23:6:44Z</time></trkpt>
<trkpt lat="46.60807" lon="6.31787"><ele></ele><time>2024-5-29T23:6:47Z</time></trkpt>
<trkpt lat="46.60808" lon="6.31792"><ele></ele><time>2024-5-29T23:6:50Z</time></trkpt>
<trkpt lat="46.6081" lon="6.31798"><ele></ele><time>2024-5-29T23:6:53Z</time></trkpt>
<trkpt lat="46.60815" lon="6.31808"><ele></ele><time>2024-5-29T23:6:56Z</time></trkpt>
<trkpt lat="46.60826" lon="6.3182"><ele></ele><time>2024-5-29T23:6:59Z</time></trkpt>
<trkpt lat="46.60838" lon="6.31836"><ele></ele><time>2024-5-29T23:7:2Z</time></trkpt>
<trkpt lat="46.60854" lon="6.31853"><ele></ele><time>2024-5-29T23:7:5Z</time></trkpt>
<trkpt lat="46.60866" lon="6.31874"><ele></ele><time>2024-5-29T23:7:8Z</time></trkpt>
<trkpt lat="46.60869" lon="6.31879"><ele></ele><time>2024-5-29T23:7:11Z</time></trkpt>
<trkpt lat="46.60872" lon="6.31885"><ele></ele><time>2024-5-29T23:7:14Z</time></trkpt>
<trkpt lat="46.60886" lon="6.319"><ele></ele><time>2024-5-29T23:7:17Z</time></trkpt>
<trkpt lat="46.60896" lon="6.31905"><ele></ele><time>2024-5-29T23:7:20Z</time></trkpt>
<trkpt lat="46.60908" lon="6.3191"><ele></ele><time>2024-5-29T23:7:23Z</time></trkpt>
<trkpt lat="46.60915" lon="6.3191"><ele></ele><time>2024-5-29T23:7:26Z</time></trkpt>
<trkpt lat="46.60926" lon="6.31907"><ele></ele><time>2024-5-29T23:7:29Z</time></trkpt>
<trkpt lat="46.60936" lon="6.31902"><ele></ele><time>2024-5-29T23:7:32Z</time></trkpt>
<trkpt lat="46.60945" lon="6.31903"><ele></ele><time>2024-5-29T23:7:35Z</time></trkpt>
<trkpt lat="46.6096" lon="6.31913"><ele></ele><time>2024-5-29T23:7:38Z</time></trkpt>
<trkpt lat="46.60963" lon="6.31915"><ele></ele><time>2024-5-29T23:7:41Z</time></trkpt>
<trkpt lat="46.60966" lon="6.31917"><ele></ele><time>2024-5-29T23:7:44Z</time></trkpt>
<trkpt lat="46.60979" lon="6.31937"><ele></ele><time>2024-5-29T23:7:47Z</time></trkpt>
<trkpt lat="46.60987" lon="6.31963"><ele></ele><time>2024-5-29T23:7:50Z</time></trkpt>
<trkpt lat="46.61005" lon="6.31986"><ele></ele><time>2024-5-29T23:7:53Z</time></trkpt>
<trkpt lat="46.61012" lon="6.31994"><ele></ele><time>2024-5-29T23:7:56Z</time></trkpt>
<trkpt lat="46.61022" lon="6.32006"><ele></ele><time>2024-5-29T23:7:59Z</time></trkpt>
<trkpt lat="46.6103" lon="6.32016"><ele></ele><time>2024-5-29T23:8:2Z</time></trkpt>
<trkpt lat="46.61042" lon="6.32033"><ele></ele><time>2024-5-29T23:8:5Z</time></trkpt>
<trkpt lat="46.61051" lon="6.3205"><ele></ele><time>2024-5-29T23:8:8Z</time></trkpt>
<trkpt lat="46.61053" lon="6.32055"><ele></ele><time>2024-5-29T23:8:11Z</time></trkpt>
<trkpt lat="46.61059" lon="6.32066"><ele></ele><time>2024-5-29T23:8:14Z</time></trkpt>
<trkpt lat="46.61067" lon="6.32077"><ele></ele><time>2024-5-29T23:8:17Z</time></trkpt>
<trkpt lat="46.61071" lon="6.32082"><ele></ele><time>2024-5-29T23:8:20Z</time></trkpt>
<trkpt lat="46.6108" lon="6.32094"><ele></ele><time>2024-5-29T23:8:23Z</time></trkpt>
<trkpt lat="46.61084" lon="6.32099"><ele></ele><time>2024-5-29T23:8:26Z</time></trkpt>
<trkpt lat="46.61092" lon="6.32109"><ele></ele><time>2024-5-29T23:8:29Z</time></trkpt>
<trkpt lat="46.611" lon="6.3212"><ele></ele><time>2024-5-29T23:8:32Z</time></trkpt>
<trkpt lat="46.61104" lon="6.32125"><ele></ele><time>2024-5-29T23:8:35Z</time></trkpt>
<trkpt lat="46.61111" lon="6.32135"><ele></ele><time>2024-5-29T23:8:38Z</time></trkpt>
<trkpt lat="46.61115" lon="6.32139"><ele></ele><time>2024-5-29T23:8:41Z</time></trkpt>
<trkpt lat="46.61118" lon="6.32144"><ele></ele><time>2024-5-29T23:8:44Z</time></trkpt>
<trkpt lat="46.61121" lon="6.3215"><ele></ele><time>2024-5-29T23:8:47Z</time></trkpt>
<trkpt lat="46.61123" lon="6.32156"><ele></ele><time>2024-5-29T23:8:50Z</time></trkpt>
<trkpt lat="46.61123" lon="6.32162"><ele></ele><time>2024-5-29T23:8:53Z</time></trkpt>
<trkpt lat="46.61116" lon="6.32183"><ele></ele><time>2024-5-29T23:8:56Z</time></trkpt>
<trkpt lat="46.61108" lon="6.32189"><ele></ele><time>2024-5-29T23:8:59Z</time></trkpt>
<trkpt lat="46.61105" lon="6.32188"><ele></ele><time>2024-5-29T23:9:2Z</time></trkpt>
<trkpt lat="46.61092" lon="6.32174"><ele></ele><time>2024-5-29T23:9:5Z</time></trkpt>
<trkpt lat="46.61078" lon="6.3216"><ele></ele><time>2024-5-29T23:9:8Z</time></trkpt>
<trkpt lat="46.6107" lon="6.32157"><ele></ele><time>2024-5-29T23:9:11Z</time></trkpt>
<trkpt lat="46.61053" lon="6.32162"><ele></ele><time>2024-5-29T23:9:14Z</time></trkpt>
<trkpt lat="46.61041" lon="6.32172"><ele></ele><time>2024-5-29T23:9:17Z</time></trkpt>
<trkpt lat="46.61036" lon="6.32181"><ele></ele><time>2024-5-29T23:9:20Z</time></trkpt>
<trkpt lat="46.61032" lon="6.322"><ele></ele><time>2024-5-29T23:9:23Z</time></trkpt>
<trkpt lat="46.61031" lon="6.32208"><ele></ele><time>2024-5-29T23:9:26Z</time></trkpt>
<trkpt lat="46.61025" lon="6.3225"><ele></ele><time>2024-5-29T23:9:29Z</time></trkpt>
<trkpt lat="46.61026" lon="6.32261"><ele></ele><time>2024-5-29T23:9:32Z</time></trkpt>
<trkpt lat="46.6103" lon="6.32271"><ele></ele><time>2024-5-29T23:9:35Z</time></trkpt>
<trkpt lat="46.61035" lon="6.3228"><ele></ele><time>2024-5-29T23:9:38Z</time></trkpt>
<trkpt lat="46.61041" lon="6.32288"><ele></ele><time>2024-5-29T23:9:41Z</time></trkpt>
<trkpt lat="46.61052" lon="6.32305"><ele></ele><time>2024-5-29T23:9:44Z</time></trkpt>
<trkpt lat="46.61066" lon="6.3233"><ele></ele><time>2024-5-29T23:9:47Z</time></trkpt>
<trkpt lat="46.61071" lon="6.32336"><ele></ele><time>2024-5-29T23:9:50Z</time></trkpt>
<trkpt lat="46.61075" lon="6.32342"><ele></ele><time>2024-5-29T23:9:53Z</time></trkpt>
<trkpt lat="46.61094" lon="6.32364"><ele></ele><time>2024-5-29T23:9:56Z</time></trkpt>
<trkpt lat="46.61098" lon="6.32368"><ele></ele><time>2024-5-29T23:9:59Z</time></trkpt>
<trkpt lat="46.61108" lon="6.32378"><ele></ele><time>2024-5-29T23:10:2Z</time></trkpt>
<trkpt lat="46.61112" lon="6.3238"><ele></ele><time>2024-5-29T23:10:5Z</time></trkpt>
<trkpt lat="46.61115" lon="6.32384"><ele></ele><time>2024-5-29T23:10:8Z</time></trkpt>
<trkpt lat="46.61126" lon="6.32401"><ele></ele><time>2024-5-29T23:10:11Z</time></trkpt>
<trkpt lat="46.61129" lon="6.3242"><ele></ele><time>2024-5-29T23:10:14Z</time></trkpt>
<trkpt lat="46.6113" lon="6.3243"><ele></ele><time>2024-5-29T23:10:17Z</time></trkpt>
<trkpt lat="46.61132" lon="6.3245"><ele></ele><time>2024-5-29T23:10:20Z</time></trkpt>
<trkpt lat="46.61133" lon="6.32469"><ele></ele><time>2024-5-29T23:10:23Z</time></trkpt>
<trkpt lat="46.61131" lon="6.32488"><ele></ele><time>2024-5-29T23:10:26Z</time></trkpt>
<trkpt lat="46.6113" lon="6.32498"><ele></ele><time>2024-5-29T23:10:29Z</time></trkpt>
<trkpt lat="46.61131" lon="6.32519"><ele></ele><time>2024-5-29T23:10:32Z</time></trkpt>
<trkpt lat="46.61132" lon="6.32529"><ele></ele><time>2024-5-29T23:10:35Z</time></trkpt>
<trkpt lat="46.61139" lon="6.3256"><ele></ele><time>2024-5-29T23:10:38Z</time></trkpt>
<trkpt lat="46.61144" lon="6.32583"><ele></ele><time>2024-5-29T23:10:41Z</time></trkpt>
<trkpt lat="46.61152" lon="6.32604"><ele></ele><time>2024-5-29T23:10:44Z</time></trkpt>
<trkpt lat="46.61165" lon="6.32633"><ele></ele><time>2024-5-29T23:10:47Z</time></trkpt>
<trkpt lat="46.6117" lon="6.32643"><ele></ele><time>2024-5-29T23:10:50Z</time></trkpt>
<trkpt lat="46.61181" lon="6.32675"><ele></ele><time>2024-5-29T23:10:53Z</time></trkpt>
<trkpt lat="46.6119" lon="6.32696"><ele></ele><time>2024-5-29T23:10:56Z</time></trkpt>
<trkpt lat="46.612" lon="6.32716"><ele></ele><time>2024-5-29T23:10:59Z</time></trkpt>
<trkpt lat="46.61218" lon="6.32741"><ele></ele><time>2024-5-29T23:11:2Z</time></trkpt>
<trkpt lat="46.61225" lon="6.32747"><ele></ele><time>2024-5-29T23:11:5Z</time></trkpt>
<trkpt lat="46.61246" lon="6.32761"><ele></ele><time>2024-5-29T23:11:8Z</time></trkpt>
<trkpt lat="46.61282" lon="6.32782"><ele></ele><time>2024-5-29T23:11:11Z</time></trkpt>
<trkpt lat="46.61328" lon="6.3281"><ele></ele><time>2024-5-29T23:11:14Z</time></trkpt>
<trkpt lat="46.6134" lon="6.32818"><ele></ele><time>2024-5-29T23:11:17Z</time></trkpt>
<trkpt lat="46.61345" lon="6.32821"><ele></ele><time>2024-5-29T23:11:20Z</time></trkpt>
<trkpt lat="46.61386" lon="6.3284"><ele></ele><time>2024-5-29T23:11:23Z</time></trkpt>
<trkpt lat="46.61402" lon="6.3285"><ele></ele><time>2024-5-29T23:11:26Z</time></trkpt>
<trkpt lat="46.61407" lon="6.32854"><ele></ele><time>2024-5-29T23:11:29Z</time></trkpt>
<trkpt lat="46.61416" lon="6.32863"><ele></ele><time>2024-5-29T23:11:32Z</time></trkpt>
<trkpt lat="46.61442" lon="6.32894"><ele></ele><time>2024-5-29T23:11:35Z</time></trkpt>
<trkpt lat="46.61447" lon="6.32901"><ele></ele><time>2024-5-29T23:11:38Z</time></trkpt>
<trkpt lat="46.61451" lon="6.32909"><ele></ele><time>2024-5-29T23:11:41Z</time></trkpt>
<trkpt lat="46.61463" lon="6.32938"><ele></ele><time>2024-5-29T23:11:44Z</time></trkpt>
<trkpt lat="46.61477" lon="6.32971"><ele></ele><time>2024-5-29T23:11:47Z</time></trkpt>
<trkpt lat="46.61483" lon="6.32982"><ele></ele><time>2024-5-29T23:11:50Z</time></trkpt>
<trkpt lat="46.61491" lon="6.32991"><ele></ele><time>2024-5-29T23:11:53Z</time></trkpt>
<trkpt lat="46.615" lon="6.33"><ele></ele><time>2024-5-29T23:11:56Z</time></trkpt>
<trkpt lat="46.61508" lon="6.33008"><ele></ele><time>2024-5-29T23:11:59Z</time></trkpt>
<trkpt lat="46.61515" lon="6.33015"><ele></ele><time>2024-5-29T23:12:2Z</time></trkpt>
<trkpt lat="46.61521" lon="6.33022"><ele></ele><time>2024-5-29T23:12:5Z</time></trkpt>
<trkpt lat="46.61526" lon="6.3303"><ele></ele><time>2024-5-29T23:12:8Z</time></trkpt>
<trkpt lat="46.61532" lon="6.33049"><ele></ele><time>2024-5-29T23:12:11Z</time></trkpt>
<trkpt lat="46.61536" lon="6.33059"><ele></ele><time>2024-5-29T23:12:14Z</time></trkpt>
<trkpt lat="46.61545" lon="6.3308"><ele></ele><time>2024-5-29T23:12:17Z</time></trkpt>
<trkpt lat="46.6155" lon="6.3309"><ele></ele><time>2024-5-29T23:12:20Z</time></trkpt>
<trkpt lat="46.61556" lon="6.33099"><ele></ele><time>2024-5-29T23:12:23Z</time></trkpt>
<trkpt lat="46.61567" lon="6.33115"><ele></ele><time>2024-5-29T23:12:26Z</time></trkpt>
<trkpt lat="46.61577" lon="6.3313"><ele></ele><time>2024-5-29T23:12:29Z</time></trkpt>
<trkpt lat="46.61587" lon="6.33144"><ele></ele><time>2024-5-29T23:12:32Z</time></trkpt>
<trkpt lat="46.61597" lon="6.33157"><ele></ele><time>2024-5-29T23:12:35Z</time></trkpt>
<trkpt lat="46.61607" lon="6.33169"><ele></ele><time>2024-5-29T23:12:38Z</time></trkpt>
<trkpt lat="46.61616" lon="6.33179"><ele></ele><time>2024-5-29T23:12:41Z</time></trkpt>
<trkpt lat="46.61621" lon="6.33183"><ele></ele><time>2024-5-29T23:12:44Z</time></trkpt>
<trkpt lat="46.61625" lon="6.33187"><ele></ele><time>2024-5-29T23:12:47Z</time></trkpt>
<trkpt lat="46.61638" lon="6.33199"><ele></ele><time>2024-5-29T23:12:50Z</time></trkpt>
<trkpt lat="46.61642" lon="6.33202"><ele></ele><time>2024-5-29T23:12:53Z</time></trkpt>
<trkpt lat="46.61647" lon="6.33205"><ele></ele><time>2024-5-29T23:12:56Z</time></trkpt>
<trkpt lat="46.61653" lon="6.33209"><ele></ele><time>2024-5-29T23:12:59Z</time></trkpt>
<trkpt lat="46.61678" lon="6.3323"><ele></ele><time>2024-5-29T23:13:2Z</time></trkpt>
<trkpt lat="46.61692" lon="6.33239"><ele></ele><time>2024-5-29T23:13:5Z</time></trkpt>
<trkpt lat="46.617" lon="6.33241"><ele></ele><time>2024-5-29T23:13:8Z</time></trkpt>
<trkpt lat="46.61707" lon="6.33242"><ele></ele><time>2024-5-29T23:13:11Z</time></trkpt>
<trkpt lat="46.61715" lon="6.33241"><ele></ele><time>2024-5-29T23:13:14Z</time></trkpt>
<trkpt lat="46.61722" lon="6.3324"><ele></ele><time>2024-5-29T23:13:17Z</time></trkpt>
<trkpt lat="46.61729" lon="6.33238"><ele></ele><time>2024-5-29T23:13:20Z</time></trkpt>
<trkpt lat="46.61736" lon="6.33235"><ele></ele><time>2024-5-29T23:13:23Z</time></trkpt>
<trkpt lat="46.61743" lon="6.3323"><ele></ele><time>2024-5-29T23:13:26Z</time></trkpt>
<trkpt lat="46.6175" lon="6.33225"><ele></ele><time>2024-5-29T23:13:29Z</time></trkpt>
<trkpt lat="46.61764" lon="6.33218"><ele></ele><time>2024-5-29T23:13:32Z</time></trkpt>
<trkpt lat="46.61771" lon="6.33215"><ele></ele><time>2024-5-29T23:13:35Z</time></trkpt>
<trkpt lat="46.61778" lon="6.33213"><ele></ele><time>2024-5-29T23:13:38Z</time></trkpt>
<trkpt lat="46.61792" lon="6.33211"><ele></ele><time>2024-5-29T23:13:41Z</time></trkpt>
<trkpt lat="46.61798" lon="6.33212"><ele></ele><time>2024-5-29T23:13:44Z</time></trkpt>
<trkpt lat="46.61805" lon="6.33213"><ele></ele><time>2024-5-29T23:13:47Z</time></trkpt>
<trkpt lat="46.61811" lon="6.33217"><ele></ele><time>2024-5-29T23:13:50Z</time></trkpt>
<trkpt lat="46.61818" lon="6.33222"><ele></ele><time>2024-5-29T23:13:53Z</time></trkpt>
<trkpt lat="46.61824" lon="6.33228"><ele></ele><time>2024-5-29T23:13:56Z</time></trkpt>
<trkpt lat="46.6183" lon="6.33236"><ele></ele><time>2024-5-29T23:13:59Z</time></trkpt>
<trkpt lat="46.61834" lon="6.33246"><ele></ele><time>2024-5-29T23:14:2Z</time></trkpt>
<trkpt lat="46.61841" lon="6.33266"><ele></ele><time>2024-5-29T23:14:5Z</time></trkpt>
<trkpt lat="46.61846" lon="6.33274"><ele></ele><time>2024-5-29T23:14:8Z</time></trkpt>
<trkpt lat="46.61852" lon="6.33281"><ele></ele><time>2024-5-29T23:14:11Z</time></trkpt>
<trkpt lat="46.61859" lon="6.33287"><ele></ele><time>2024-5-29T23:14:14Z</time></trkpt>
<trkpt lat="46.6187" lon="6.33302"><ele></ele><time>2024-5-29T23:14:17Z</time></trkpt>
<trkpt lat="46.61874" lon="6.33311"><ele></ele><time>2024-5-29T23:14:20Z</time></trkpt>
<trkpt lat="46.61876" lon="6.3332"><ele></ele><time>2024-5-29T23:14:23Z</time></trkpt>
<trkpt lat="46.61879" lon="6.33342"><ele></ele><time>2024-5-29T23:14:26Z</time></trkpt>
<trkpt lat="46.6188" lon="6.33348"><ele></ele><time>2024-5-29T23:14:29Z</time></trkpt>
<trkpt lat="46.61883" lon="6.3337"><ele></ele><time>2024-5-29T23:14:32Z</time></trkpt>
<trkpt lat="46.61885" lon="6.33374"><ele></ele><time>2024-5-29T23:14:35Z</time></trkpt>
<trkpt lat="46.61895" lon="6.33389"><ele></ele><time>2024-5-29T23:14:38Z</time></trkpt>
<trkpt lat="46.61899" lon="6.33393"><ele></ele><time>2024-5-29T23:14:41Z</time></trkpt>
<trkpt lat="46.6191" lon="6.33405"><ele></ele><time>2024-5-29T23:14:44Z</time></trkpt>
<trkpt lat="46.61932" lon="6.33427"><ele></ele><time>2024-5-29T23:14:47Z</time></trkpt>
<trkpt lat="46.61945" lon="6.33444"><ele></ele><time>2024-5-29T23:14:50Z</time></trkpt>
<trkpt lat="46.61948" lon="6.33454"><ele></ele><time>2024-5-29T23:14:53Z</time></trkpt>
<trkpt lat="46.61955" lon="6.33472"><ele></ele><time>2024-5-29T23:14:56Z</time></trkpt>
<trkpt lat="46.61958" lon="6.33478"><ele></ele><time>2024-5-29T23:14:59Z</time></trkpt>
<trkpt lat="46.61967" lon="6.33489"><ele></ele><time>2024-5-29T23:15:2Z</time></trkpt>
<trkpt lat="46.61973" lon="6.33494"><ele></ele><time>2024-5-29T23:15:5Z</time></trkpt>
<trkpt lat="46.61985" lon="6.33505"><ele></ele><time>2024-5-29T23:15:8Z</time></trkpt>
<trkpt lat="46.6199" lon="6.33511"><ele></ele><time>2024-5-29T23:15:11Z</time></trkpt>
<trkpt lat="46.61995" lon="6.33518"><ele></ele><time>2024-5-29T23:15:14Z</time></trkpt>
<trkpt lat="46.62" lon="6.33524"><ele></ele><time>2024-5-29T23:15:17Z</time></trkpt>
<trkpt lat="46.62008" lon="6.33539"><ele></ele><time>2024-5-29T23:15:20Z</time></trkpt>
<trkpt lat="46.62011" lon="6.33547"><ele></ele><time>2024-5-29T23:15:23Z</time></trkpt>
<trkpt lat="46.62014" lon="6.33554"><ele></ele><time>2024-5-29T23:15:26Z</time></trkpt>
<trkpt lat="46.62016" lon="6.3356"><ele></ele><time>2024-5-29T23:15:29Z</time></trkpt>
<trkpt lat="46.62023" lon="6.33571"><ele></ele><time>2024-5-29T23:15:32Z</time></trkpt>
<trkpt lat="46.62028" lon="6.33576"><ele></ele><time>2024-5-29T23:15:35Z</time></trkpt>
<trkpt lat="46.62033" lon="6.33582"><ele></ele><time>2024-5-29T23:15:38Z</time></trkpt>
<trkpt lat="46.62043" lon="6.33595"><ele></ele><time>2024-5-29T23:15:41Z</time></trkpt>
<trkpt lat="46.62053" lon="6.33608"><ele></ele><time>2024-5-29T23:15:44Z</time></trkpt>
<trkpt lat="46.62057" lon="6.33615"><ele></ele><time>2024-5-29T23:15:47Z</time></trkpt>
<trkpt lat="46.62062" lon="6.33622"><ele></ele><time>2024-5-29T23:15:50Z</time></trkpt>
<trkpt lat="46.62068" lon="6.33638"><ele></ele><time>2024-5-29T23:15:53Z</time></trkpt>
<trkpt lat="46.62073" lon="6.33656"><ele></ele><time>2024-5-29T23:15:56Z</time></trkpt>
<trkpt lat="46.62075" lon="6.33666"><ele></ele><time>2024-5-29T23:15:59Z</time></trkpt>
<trkpt lat="46.62079" lon="6.33684"><ele></ele><time>2024-5-29T23:16:2Z</time></trkpt>
<trkpt lat="46.62083" lon="6.33699"><ele></ele><time>2024-5-29T23:16:5Z</time></trkpt>
<trkpt lat="46.62088" lon="6.33713"><ele></ele><time>2024-5-29T23:16:8Z</time></trkpt>
<trkpt lat="46.621" lon="6.33731"><ele></ele><time>2024-5-29T23:16:11Z</time></trkpt>
<trkpt lat="46.62109" lon="6.3374"><ele></ele><time>2024-5-29T23:16:14Z</time></trkpt>
<trkpt lat="46.62113" lon="6.33745"><ele></ele><time>2024-5-29T23:16:17Z</time></trkpt>
<trkpt lat="46.62117" lon="6.33748"><ele></ele><time>2024-5-29T23:16:20Z</time></trkpt>
<trkpt lat="46.62125" lon="6.33756"><ele></ele><time>2024-5-29T23:16:23Z</time></trkpt>
<trkpt lat="46.62132" lon="6.33763"><ele></ele><time>2024-5-29T23:16:26Z</time></trkpt>
<trkpt lat="46.62143" lon="6.33774"><ele></ele><time>2024-5-29T23:16:29Z</time></trkpt>
<trkpt lat="46.62146" lon="6.33778"><ele></ele><time>2024-5-29T23:16:32Z</time></trkpt>
<trkpt lat="46.62149" lon="6.33782"><ele></ele><time>2024-5-29T23:16:35Z</time></trkpt>
<trkpt lat="46.62156" lon="6.33791"><ele></ele><time>2024-5-29T23:16:38Z</time></trkpt>
<trkpt lat="46.62164" lon="6.33803"><ele></ele><time>2024-5-29T23:16:41Z</time></trkpt>
<trkpt lat="46.62169" lon="6.33809"><ele></ele><time>2024-5-29T23:16:44Z</time></trkpt>
<trkpt lat="46.6218" lon="6.33823"><ele></ele><time>2024-5-29T23:16:47Z</time></trkpt>
<trkpt lat="46.62185" lon="6.33832"><ele></ele><time>2024-5-29T23:16:50Z</time></trkpt>
<trkpt lat="46.6219" lon="6.33841"><ele></ele><time>2024-5-29T23:16:53Z</time></trkpt>
<trkpt lat="46.62195" lon="6.33849"><ele></ele><time>2024-5-29T23:16:56Z</time></trkpt>
<trkpt lat="46.622" lon="6.33857"><ele></ele><time>2024-5-29T23:16:59Z</time></trkpt>
<trkpt lat="46.62213" lon="6.33878"><ele></ele><time>2024-5-29T23:17:2Z</time></trkpt>
<trkpt lat="46.62229" lon="6.339"><ele></ele><time>2024-5-29T23:17:5Z</time></trkpt>
<trkpt lat="46.62237" lon="6.33914"><ele></ele><time>2024-5-29T23:17:8Z</time></trkpt>
<trkpt lat="46.62244" lon="6.33929"><ele></ele><time>2024-5-29T23:17:11Z</time></trkpt>
<trkpt lat="46.62251" lon="6.33953"><ele></ele><time>2024-5-29T23:17:14Z</time></trkpt>
<trkpt lat="46.62255" lon="6.33969"><ele></ele><time>2024-5-29T23:17:17Z</time></trkpt>
<trkpt lat="46.62263" lon="6.33992"><ele></ele><time>2024-5-29T23:17:20Z</time></trkpt>
<trkpt lat="46.62268" lon="6.34006"><ele></ele><time>2024-5-29T23:17:23Z</time></trkpt>
<trkpt lat="46.62273" lon="6.34018"><ele></ele><time>2024-5-29T23:17:26Z</time></trkpt>
<trkpt lat="46.62279" lon="6.34025"><ele></ele><time>2024-5-29T23:17:29Z</time></trkpt>
<trkpt lat="46.62283" lon="6.34029"><ele></ele><time>2024-5-29T23:17:32Z</time></trkpt>
<trkpt lat="46.62287" lon="6.34033"><ele></ele><time>2024-5-29T23:17:35Z</time></trkpt>
<trkpt lat="46.62295" lon="6.34041"><ele></ele><time>2024-5-29T23:17:38Z</time></trkpt>
<trkpt lat="46.623" lon="6.34043"><ele></ele><time>2024-5-29T23:17:41Z</time></trkpt>
<trkpt lat="46.62305" lon="6.34045"><ele></ele><time>2024-5-29T23:17:44Z</time></trkpt>
<trkpt lat="46.62311" lon="6.34046"><ele></ele><time>2024-5-29T23:17:47Z</time></trkpt>
<trkpt lat="46.62317" lon="6.34046"><ele></ele><time>2024-5-29T23:17:50Z</time></trkpt>
<trkpt lat="46.62322" lon="6.34047"><ele></ele><time>2024-5-29T23:17:53Z</time></trkpt>
<trkpt lat="46.62328" lon="6.34048"><ele></ele><time>2024-5-29T23:17:56Z</time></trkpt>
<trkpt lat="46.62334" lon="6.34048"><ele></ele><time>2024-5-29T23:17:59Z</time></trkpt>
<trkpt lat="46.62341" lon="6.34047"><ele></ele><time>2024-5-29T23:18:2Z</time></trkpt>
<trkpt lat="46.62349" lon="6.34048"><ele></ele><time>2024-5-29T23:18:5Z</time></trkpt>
<trkpt lat="46.62357" lon="6.34048"><ele></ele><time>2024-5-29T23:18:8Z</time></trkpt>
<trkpt lat="46.62365" lon="6.34051"><ele></ele><time>2024-5-29T23:18:11Z</time></trkpt>
<trkpt lat="46.62372" lon="6.34055"><ele></ele><time>2024-5-29T23:18:14Z</time></trkpt>
<trkpt lat="46.62393" lon="6.34071"><ele></ele><time>2024-5-29T23:18:17Z</time></trkpt>
<trkpt lat="46.62408" lon="6.34083"><ele></ele><time>2024-5-29T23:18:20Z</time></trkpt>
<trkpt lat="46.62425" lon="6.34094"><ele></ele><time>2024-5-29T23:18:23Z</time></trkpt>
<trkpt lat="46.62434" lon="6.341"><ele></ele><time>2024-5-29T23:18:26Z</time></trkpt>
<trkpt lat="46.6244" lon="6.34109"><ele></ele><time>2024-5-29T23:18:29Z</time></trkpt>
<trkpt lat="46.62448" lon="6.34132"><ele></ele><time>2024-5-29T23:18:32Z</time></trkpt>
<trkpt lat="46.62456" lon="6.34155"><ele></ele><time>2024-5-29T23:18:35Z</time></trkpt>
<trkpt lat="46.62462" lon="6.34164"><ele></ele><time>2024-5-29T23:18:38Z</time></trkpt>
<trkpt lat="46.62468" lon="6.34172"><ele></ele><time>2024-5-29T23:18:41Z</time></trkpt>
<trkpt lat="46.62475" lon="6.34179"><ele></ele><time>2024-5-29T23:18:44Z</time></trkpt>
<trkpt lat="46.62489" lon="6.34196"><ele></ele><time>2024-5-29T23:18:47Z</time></trkpt>
<trkpt lat="46.62493" lon="6.34207"><ele></ele><time>2024-5-29T23:18:50Z</time></trkpt>
<trkpt lat="46.62498" lon="6.34218"><ele></ele><time>2024-5-29T23:18:53Z</time></trkpt>
<trkpt lat="46.62507" lon="6.34239"><ele></ele><time>2024-5-29T23:18:56Z</time></trkpt>
<trkpt lat="46.62515" lon="6.34262"><ele></ele><time>2024-5-29T23:18:59Z</time></trkpt>
<trkpt lat="46.62529" lon="6.34306"><ele></ele><time>2024-5-29T23:19:2Z</time></trkpt>
<trkpt lat="46.62535" lon="6.34327"><ele></ele><time>2024-5-29T23:19:5Z</time></trkpt>
<trkpt lat="46.62543" lon="6.34365"><ele></ele><time>2024-5-29T23:19:8Z</time></trkpt>
<trkpt lat="46.62544" lon="6.34372"><ele></ele><time>2024-5-29T23:19:11Z</time></trkpt>
<trkpt lat="46.62545" lon="6.34388"><ele></ele><time>2024-5-29T23:19:14Z</time></trkpt>
<trkpt lat="46.62546" lon="6.34403"><ele></ele><time>2024-5-29T23:19:17Z</time></trkpt>
<trkpt lat="46.62549" lon="6.34425"><ele></ele><time>2024-5-29T23:19:20Z</time></trkpt>
<trkpt lat="46.62556" lon="6.34464"><ele></ele><time>2024-5-29T23:19:23Z</time></trkpt>
<trkpt lat="46.62558" lon="6.34469"><ele></ele><time>2024-5-29T23:19:26Z</time></trkpt>
<trkpt lat="46.62562" lon="6.34479"><ele></ele><time>2024-5-29T23:19:29Z</time></trkpt>
<trkpt lat="46.62569" lon="6.34487"><ele></ele><time>2024-5-29T23:19:32Z</time></trkpt>
<trkpt lat="46.62594" lon="6.34501"><ele></ele><time>2024-5-29T23:19:35Z</time></trkpt>
<trkpt lat="46.62605" lon="6.34506"><ele></ele><time>2024-5-29T23:19:38Z</time></trkpt>
<trkpt lat="46.62615" lon="6.34514"><ele></ele><time>2024-5-29T23:19:41Z</time></trkpt>
<trkpt lat="46.62635" lon="6.34533"><ele></ele><time>2024-5-29T23:19:44Z</time></trkpt>
<trkpt lat="46.62638" lon="6.34537"><ele></ele><time>2024-5-29T23:19:47Z</time></trkpt>
<trkpt lat="46.62666" lon="6.34568"><ele></ele><time>2024-5-29T23:19:50Z</time></trkpt>
<trkpt lat="46.62673" lon="6.34576"><ele></ele><time>2024-5-29T23:19:53Z</time></trkpt>
<trkpt lat="46.62692" lon="6.34596"><ele></ele><time>2024-5-29T23:19:56Z</time></trkpt>
<trkpt lat="46.62713" lon="6.34619"><ele></ele><time>2024-5-29T23:19:59Z</time></trkpt>
<trkpt lat="46.62736" lon="6.34644"><ele></ele><time>2024-5-29T23:20:2Z</time></trkpt>
<trkpt lat="46.62745" lon="6.34654"><ele></ele><time>2024-5-29T23:20:5Z</time></trkpt>
<trkpt lat="46.6275" lon="6.34659"><ele></ele><time>2024-5-29T23:20:8Z</time></trkpt>
<trkpt lat="46.62754" lon="6.34664"><ele></ele><time>2024-5-29T23:20:11Z</time></trkpt>
<trkpt lat="46.62763" lon="6.34674"><ele></ele><time>2024-5-29T23:20:14Z</time></trkpt>
<trkpt lat="46.62785" lon="6.347"><ele></ele><time>2024-5-29T23:20:17Z</time></trkpt>
<trkpt lat="46.62789" lon="6.34707"><ele></ele><time>2024-5-29T23:20:20Z</time></trkpt>
<trkpt lat="46.62794" lon="6.34722"><ele></ele><time>2024-5-29T23:20:23Z</time></trkpt>
<trkpt lat="46.62795" lon="6.34729"><ele></ele><time>2024-5-29T23:20:26Z</time></trkpt>
<trkpt lat="46.62804" lon="6.34769"><ele></ele><time>2024-5-29T23:20:29Z</time></trkpt>
<trkpt lat="46.62811" lon="6.3479"><ele></ele><time>2024-5-29T23:20:32Z</time></trkpt>
<trkpt lat="46.62821" lon="6.34806"><ele></ele><time>2024-5-29T23:20:35Z</time></trkpt>
<trkpt lat="46.62825" lon="6.34809"><ele></ele><time>2024-5-29T23:20:38Z</time></trkpt>
<trkpt lat="46.6285" lon="6.34825"><ele></ele><time>2024-5-29T23:20:41Z</time></trkpt>
<trkpt lat="46.62861" lon="6.3483"><ele></ele><time>2024-5-29T23:20:44Z</time></trkpt>
<trkpt lat="46.62865" lon="6.34834"><ele></ele><time>2024-5-29T23:20:47Z</time></trkpt>
<trkpt lat="46.6288" lon="6.34839"><ele></ele><time>2024-5-29T23:20:50Z</time></trkpt>
<trkpt lat="46.62886" lon="6.34839"><ele></ele><time>2024-5-29T23:20:53Z</time></trkpt>
<trkpt lat="46.62893" lon="6.34843"><ele></ele><time>2024-5-29T23:20:56Z</time></trkpt>
<trkpt lat="46.62896" lon="6.34843"><ele></ele><time>2024-5-29T23:20:59Z</time></trkpt>
<trkpt lat="46.62905" lon="6.34845"><ele></ele><time>2024-5-29T23:21:2Z</time></trkpt>
<trkpt lat="46.62912" lon="6.34846"><ele></ele><time>2024-5-29T23:21:5Z</time></trkpt>
<trkpt lat="46.62913" lon="6.34845"><ele></ele><time>2024-5-29T23:21:8Z</time></trkpt>
<trkpt lat="46.62923" lon="6.34848"><ele></ele><time>2024-5-29T23:21:11Z</time></trkpt>
<trkpt lat="46.62924" lon="6.34848"><ele></ele><time>2024-5-29T23:21:14Z</time></trkpt>
<trkpt lat="46.62932" lon="6.3485"><ele></ele><time>2024-5-29T23:21:17Z</time></trkpt>
<trkpt lat="46.62939" lon="6.34854"><ele></ele><time>2024-5-29T23:21:20Z</time></trkpt>
<trkpt lat="46.62942" lon="6.34856"><ele></ele><time>2024-5-29T23:21:23Z</time></trkpt>
<trkpt lat="46.62954" lon="6.34862"><ele></ele><time>2024-5-29T23:21:26Z</time></trkpt>
<trkpt lat="46.62957" lon="6.34863"><ele></ele><time>2024-5-29T23:21:29Z</time></trkpt>
<trkpt lat="46.62967" lon="6.34868"><ele></ele><time>2024-5-29T23:21:32Z</time></trkpt>
<trkpt lat="46.6297" lon="6.3487"><ele></ele><time>2024-5-29T23:21:35Z</time></trkpt>
<trkpt lat="46.62979" lon="6.34873"><ele></ele><time>2024-5-29T23:21:38Z</time></trkpt>
<trkpt lat="46.62982" lon="6.34875"><ele></ele><time>2024-5-29T23:21:41Z</time></trkpt>
<trkpt lat="46.62991" lon="6.34877"><ele></ele><time>2024-5-29T23:21:44Z</time></trkpt>
<trkpt lat="46.62994" lon="6.34878"><ele></ele><time>2024-5-29T23:21:47Z</time></trkpt>
<trkpt lat="46.62998" lon="6.34879"><ele></ele><time>2024-5-29T23:21:50Z</time></trkpt>
<trkpt lat="46.63001" lon="6.3488"><ele></ele><time>2024-5-29T23:21:53Z</time></trkpt>
<trkpt lat="46.63011" lon="6.34881"><ele></ele><time>2024-5-29T23:21:56Z</time></trkpt>
<trkpt lat="46.63015" lon="6.34883"><ele></ele><time>2024-5-29T23:21:59Z</time></trkpt>
<trkpt lat="46.63016" lon="6.34883"><ele></ele><time>2024-5-29T23:22:2Z</time></trkpt>
<trkpt lat="46.6302" lon="6.34883"><ele></ele><time>2024-5-29T23:22:5Z</time></trkpt>
<trkpt lat="46.63023" lon="6.34884"><ele></ele><time>2024-5-29T23:22:8Z</time></trkpt>
<trkpt lat="46.63035" lon="6.34887"><ele></ele><time>2024-5-29T23:22:11Z</time></trkpt>
<trkpt lat="46.63036" lon="6.34888"><ele></ele><time>2024-5-29T23:22:14Z</time></trkpt>
<trkpt lat="46.63038" lon="6.34892"><ele></ele><time>2024-5-29T23:22:17Z</time></trkpt>
<trkpt lat="46.63038" lon="6.34896"><ele></ele><time>2024-5-29T23:22:20Z</time></trkpt>
<trkpt lat="46.63037" lon="6.34904"><ele></ele><time>2024-5-29T23:22:23Z</time></trkpt>
<trkpt lat="46.63038" lon="6.34914"><ele></ele><time>2024-5-29T23:22:26Z</time></trkpt>
<trkpt lat="46.6304" lon="6.34922"><ele></ele><time>2024-5-29T23:22:29Z</time></trkpt>
<trkpt lat="46.63042" lon="6.34933"><ele></ele><time>2024-5-29T23:22:32Z</time></trkpt>
<trkpt lat="46.63043" lon="6.34937"><ele></ele><time>2024-5-29T23:22:35Z</time></trkpt>
<trkpt lat="46.63056" lon="6.34954"><ele></ele><time>2024-5-29T23:22:38Z</time></trkpt>
<trkpt lat="46.63068" lon="6.34965"><ele></ele><time>2024-5-29T23:22:41Z</time></trkpt>
<trkpt lat="46.6307" lon="6.34968"><ele></ele><time>2024-5-29T23:22:44Z</time></trkpt>
<trkpt lat="46.63075" lon="6.34975"><ele></ele><time>2024-5-29T23:22:47Z</time></trkpt>
<trkpt lat="46.63076" lon="6.34976"><ele></ele><time>2024-5-29T23:22:50Z</time></trkpt>
<trkpt lat="46.63077" lon="6.34987"><ele></ele><time>2024-5-29T23:22:53Z</time></trkpt>
<trkpt lat="46.63074" lon="6.34993"><ele></ele><time>2024-5-29T23:22:56Z</time></trkpt>
<trkpt lat="46.63073" lon="6.34994"><ele></ele><time>2024-5-29T23:22:59Z</time></trkpt>
<trkpt lat="46.63064" lon="6.34997"><ele></ele><time>2024-5-29T23:23:2Z</time></trkpt>
<trkpt lat="46.63055" lon="6.35001"><ele></ele><time>2024-5-29T23:23:5Z</time></trkpt>
<trkpt lat="46.63051" lon="6.35001"><ele></ele><time>2024-5-29T23:23:8Z</time></trkpt>
<trkpt lat="46.6304" lon="6.35003"><ele></ele><time>2024-5-29T23:23:11Z</time></trkpt>
<trkpt lat="46.63039" lon="6.35003"><ele></ele><time>2024-5-29T23:23:14Z</time></trkpt>
<trkpt lat="46.63035" lon="6.35004"><ele></ele><time>2024-5-29T23:23:17Z</time></trkpt>
<trkpt lat="46.63033" lon="6.35005"><ele></ele><time>2024-5-29T23:23:20Z</time></trkpt>
<trkpt lat="46.6303" lon="6.35007"><ele></ele><time>2024-5-29T23:23:23Z</time></trkpt>
<trkpt lat="46.63027" lon="6.35008"><ele></ele><time>2024-5-29T23:23:26Z</time></trkpt>
<trkpt lat="46.63026" lon="6.35008"><ele></ele><time>2024-5-29T23:23:29Z</time></trkpt>
<trkpt lat="46.6302" lon="6.35009"><ele></ele><time>2024-5-29T23:23:32Z</time></trkpt>
<trkpt lat="46.63016" lon="6.3501"><ele></ele><time>2024-5-29T23:23:35Z</time></trkpt>
<trkpt lat="46.63007" lon="6.35014"><ele></ele><time>2024-5-29T23:23:38Z</time></trkpt>
<trkpt lat="46.63006" lon="6.35015"><ele></ele><time>2024-5-29T23:23:41Z</time></trkpt>
<trkpt lat="46.63001" lon="6.35019"><ele></ele><time>2024-5-29T23:23:44Z</time></trkpt>
<trkpt lat="46.62994" lon="6.35022"><ele></ele><time>2024-5-29T23:23:47Z</time></trkpt>
<trkpt lat="46.62993" lon="6.35022"><ele></ele><time>2024-5-29T23:23:50Z</time></trkpt>
<trkpt lat="46.62989" lon="6.35026"><ele></ele><time>2024-5-29T23:23:53Z</time></trkpt>
<trkpt lat="46.62987" lon="6.35027"><ele></ele><time>2024-5-29T23:23:56Z</time></trkpt>
<trkpt lat="46.62985" lon="6.35028"><ele></ele><time>2024-5-29T23:23:59Z</time></trkpt>
<trkpt lat="46.62974" lon="6.35035"><ele></ele><time>2024-5-29T23:24:2Z</time></trkpt>
<trkpt lat="46.6296" lon="6.35043"><ele></ele><time>2024-5-29T23:24:5Z</time></trkpt>
<trkpt lat="46.62959" lon="6.35043"><ele></ele><time>2024-5-29T23:24:8Z</time></trkpt>
<trkpt lat="46.62958" lon="6.35044"><ele></ele><time>2024-5-29T23:24:11Z</time></trkpt>
<trkpt lat="46.62945" lon="6.35054"><ele></ele><time>2024-5-29T23:24:14Z</time></trkpt>
<trkpt lat="46.62929" lon="6.3506"><ele></ele><time>2024-5-29T23:24:17Z</time></trkpt>
<trkpt lat="46.62923" lon="6.35059"><ele></ele><time>2024-5-29T23:24:20Z</time></trkpt>
<trkpt lat="46.62916" lon="6.35058"><ele></ele><time>2024-5-29T23:24:23Z</time></trkpt>
<trkpt lat="46.62914" lon="6.35058"><ele></ele><time>2024-5-29T23:24:26Z</time></trkpt>
<trkpt lat="46.62905" lon="6.35056"><ele></ele><time>2024-5-29T23:24:29Z</time></trkpt>
<trkpt lat="46.62904" lon="6.35055"><ele></ele><time>2024-5-29T23:24:32Z</time></trkpt>
<trkpt lat="46.62897" lon="6.35054"><ele></ele><time>2024-5-29T23:24:35Z</time></trkpt>
<trkpt lat="46.62896" lon="6.35054"><ele></ele><time>2024-5-29T23:24:38Z</time></trkpt>
<trkpt lat="46.62895" lon="6.35053"><ele></ele><time>2024-5-29T23:24:41Z</time></trkpt>
<trkpt lat="46.62887" lon="6.35053"><ele></ele><time>2024-5-29T23:24:44Z</time></trkpt>
<trkpt lat="46.62885" lon="6.35052"><ele></ele><time>2024-5-29T23:24:47Z</time></trkpt>
<trkpt lat="46.62881" lon="6.3505"><ele></ele><time>2024-5-29T23:24:50Z</time></trkpt>
<trkpt lat="46.62873" lon="6.3505"><ele></ele><time>2024-5-29T23:24:53Z</time></trkpt>
<trkpt lat="46.62867" lon="6.35051"><ele></ele><time>2024-5-29T23:24:56Z</time></trkpt>
<trkpt lat="46.62864" lon="6.35051"><ele></ele><time>2024-5-29T23:24:59Z</time></trkpt>
<trkpt lat="46.62863" lon="6.35051"><ele></ele><time>2024-5-29T23:25:2Z</time></trkpt>
<trkpt lat="46.6286" lon="6.35051"><ele></ele><time>2024-5-29T23:25:5Z</time></trkpt>
<trkpt lat="46.62859" lon="6.35051"><ele></ele><time>2024-5-29T23:25:8Z</time></trkpt>
<trkpt lat="46.62857" lon="6.35052"><ele></ele><time>2024-5-29T23:25:11Z</time></trkpt>
<trkpt lat="46.62854" lon="6.35052"><ele></ele><time>2024-5-29T23:25:14Z</time></trkpt>
<trkpt lat="46.62851" lon="6.35052"><ele></ele><time>2024-5-29T23:25:17Z</time></trkpt>
<trkpt lat="46.62845" lon="6.35052"><ele></ele><time>2024-5-29T23:25:20Z</time></trkpt>
<trkpt lat="46.62842" lon="6.35053"><ele></ele><time>2024-5-29T23:25:23Z</time></trkpt>
<trkpt lat="46.62838" lon="6.35054"><ele></ele><time>2024-5-29T23:25:26Z</time></trkpt>
<trkpt lat="46.62832" lon="6.35055"><ele></ele><time>2024-5-29T23:25:29Z</time></trkpt>
<trkpt lat="46.62831" lon="6.35055"><ele></ele><time>2024-5-29T23:25:32Z</time></trkpt>
<trkpt lat="46.62825" lon="6.35056"><ele></ele><time>2024-5-29T23:25:35Z</time></trkpt>
<trkpt lat="46.62822" lon="6.35056"><ele></ele><time>2024-5-29T23:25:38Z</time></trkpt>
<trkpt lat="46.62816" lon="6.35059"><ele></ele><time>2024-5-29T23:25:41Z</time></trkpt>
<trkpt lat="46.62813" lon="6.3506"><ele></ele><time>2024-5-29T23:25:44Z</time></trkpt>
<trkpt lat="46.62807" lon="6.35062"><ele></ele><time>2024-5-29T23:25:47Z</time></trkpt>
<trkpt lat="46.628" lon="6.35065"><ele></ele><time>2024-5-29T23:25:50Z</time></trkpt>
<trkpt lat="46.62799" lon="6.35066"><ele></ele><time>2024-5-29T23:25:53Z</time></trkpt>
<trkpt lat="46.62792" lon="6.3507"><ele></ele><time>2024-5-29T23:25:56Z</time></trkpt>
<trkpt lat="46.62788" lon="6.35072"><ele></ele><time>2024-5-29T23:25:59Z</time></trkpt>
<trkpt lat="46.62783" lon="6.35074"><ele></ele><time>2024-5-29T23:26:2Z</time></trkpt>
<trkpt lat="46.62781" lon="6.35074"><ele></ele><time>2024-5-29T23:26:5Z</time></trkpt>
<trkpt lat="46.62779" lon="6.35075"><ele></ele><time>2024-5-29T23:26:8Z</time></trkpt>
<trkpt lat="46.62778" lon="6.35075"><ele></ele><time>2024-5-29T23:26:11Z</time></trkpt>
<trkpt lat="46.62776" lon="6.35076"><ele></ele><time>2024-5-29T23:26:14Z</time></trkpt>
<trkpt lat="46.62774" lon="6.35077"><ele></ele><time>2024-5-29T23:26:17Z</time></trkpt>
<trkpt lat="46.62769" lon="6.35079"><ele></ele><time>2024-5-29T23:26:20Z</time></trkpt>
<trkpt lat="46.62768" lon="6.3508"><ele></ele><time>2024-5-29T23:26:23Z</time></trkpt>
<trkpt lat="46.62761" lon="6.35085"><ele></ele><time>2024-5-29T23:26:26Z</time></trkpt>
<trkpt lat="46.62758" lon="6.35086"><ele></ele><time>2024-5-29T23:26:29Z</time></trkpt>
<trkpt lat="46.62755" lon="6.35086"><ele></ele><time>2024-5-29T23:26:32Z</time></trkpt>
<trkpt lat="46.62752" lon="6.35089"><ele></ele><time>2024-5-29T23:26:35Z</time></trkpt>
<trkpt lat="46.62749" lon="6.35093"><ele></ele><time>2024-5-29T23:26:38Z</time></trkpt>
<trkpt lat="46.62747" lon="6.35095"><ele></ele><time>2024-5-29T23:26:41Z</time></trkpt>
<trkpt lat="46.62747" lon="6.35096"><ele></ele><time>2024-5-29T23:26:44Z</time></trkpt>
<trkpt lat="46.62746" lon="6.35099"><ele></ele><time>2024-5-29T23:26:47Z</time></trkpt>
<trkpt lat="46.62748" lon="6.35104"><ele></ele><time>2024-5-29T23:26:50Z</time></trkpt>
<trkpt lat="46.62748" lon="6.35105"><ele></ele><time>2024-5-29T23:26:53Z</time></trkpt>
<trkpt lat="46.62751" lon="6.35109"><ele></ele><time>2024-5-29T23:26:56Z</time></trkpt>
<trkpt lat="46.62753" lon="6.3511"><ele></ele><time>2024-5-29T23:26:59Z</time></trkpt>
<trkpt lat="46.62754" lon="6.35111"><ele></ele><time>2024-5-29T23:27:2Z</time></trkpt>
<trkpt lat="46.62756" lon="6.35112"><ele></ele><time>2024-5-29T23:27:5Z</time></trkpt>
<trkpt lat="46.62757" lon="6.35113"><ele></ele><time>2024-5-29T23:27:8Z</time></trkpt>
<trkpt lat="46.62758" lon="6.35114"><ele></ele><time>2024-5-29T23:27:11Z</time></trkpt>
<trkpt lat="46.6276" lon="6.35115"><ele></ele><time>2024-5-29T23:27:14Z</time></trkpt>
<trkpt lat="46.62767" lon="6.35119"><ele></ele><time>2024-5-29T23:27:17Z</time></trkpt>
<trkpt lat="46.62773" lon="6.35123"><ele></ele><time>2024-5-29T23:27:20Z</time></trkpt>
<trkpt lat="46.62776" lon="6.35125"><ele></ele><time>2024-5-29T23:27:23Z</time></trkpt>
<trkpt lat="46.6278" lon="6.35129"><ele></ele><time>2024-5-29T23:27:26Z</time></trkpt>
<trkpt lat="46.62782" lon="6.3513"><ele></ele><time>2024-5-29T23:27:29Z</time></trkpt>
<trkpt lat="46.62786" lon="6.35132"><ele></ele><time>2024-5-29T23:27:32Z</time></trkpt>
<trkpt lat="46.62788" lon="6.35134"><ele></ele><time>2024-5-29T23:27:35Z</time></trkpt>
<trkpt lat="46.62792" lon="6.35136"><ele></ele><time>2024-5-29T23:27:38Z</time></trkpt>
<trkpt lat="46.62795" lon="6.35139"><ele></ele><time>2024-5-29T23:27:41Z</time></trkpt>
<trkpt lat="46.628" lon="6.35146"><ele></ele><time>2024-5-29T23:27:44Z</time></trkpt>
<trkpt lat="46.62806" lon="6.35152"><ele></ele><time>2024-5-29T23:27:47Z</time></trkpt>
<trkpt lat="46.62807" lon="6.35154"><ele></ele><time>2024-5-29T23:27:50Z</time></trkpt>
<trkpt lat="46.62808" lon="6.35155"><ele></ele><time>2024-5-29T23:27:53Z</time></trkpt>
<trkpt lat="46.6281" lon="6.35156"><ele></ele><time>2024-5-29T23:27:56Z</time></trkpt>
<trkpt lat="46.62814" lon="6.35159"><ele></ele><time>2024-5-29T23:27:59Z</time></trkpt>
<trkpt lat="46.62818" lon="6.35161"><ele></ele><time>2024-5-29T23:28:2Z</time></trkpt>
<trkpt lat="46.6282" lon="6.35162"><ele></ele><time>2024-5-29T23:28:5Z</time></trkpt>
<trkpt lat="46.62824" lon="6.35166"><ele></ele><time>2024-5-29T23:28:8Z</time></trkpt>
<trkpt lat="46.62828" lon="6.35169"><ele></ele><time>2024-5-29T23:28:11Z</time></trkpt>
<trkpt lat="46.6283" lon="6.35171"><ele></ele><time>2024-5-29T23:28:14Z</time></trkpt>
<trkpt lat="46.62832" lon="6.35173"><ele></ele><time>2024-5-29T23:28:17Z</time></trkpt>
<trkpt lat="46.62837" lon="6.35175"><ele></ele><time>2024-5-29T23:28:20Z</time></trkpt>
<trkpt lat="46.62842" lon="6.35178"><ele></ele><time>2024-5-29T23:28:23Z</time></trkpt>
<trkpt lat="46.62846" lon="6.35182"><ele></ele><time>2024-5-29T23:28:26Z</time></trkpt>
<trkpt lat="46.62848" lon="6.35181"><ele></ele><time>2024-5-29T23:28:29Z</time></trkpt>
<trkpt lat="46.62852" lon="6.35184"><ele></ele><time>2024-5-29T23:28:32Z</time></trkpt>
<trkpt lat="46.62856" lon="6.35187"><ele></ele><time>2024-5-29T23:28:35Z</time></trkpt>
<trkpt lat="46.62861" lon="6.35189"><ele></ele><time>2024-5-29T23:28:38Z</time></trkpt>
<trkpt lat="46.62868" lon="6.35193"><ele></ele><time>2024-5-29T23:28:41Z</time></trkpt>
<trkpt lat="46.62872" lon="6.35195"><ele></ele><time>2024-5-29T23:28:44Z</time></trkpt>
<trkpt lat="46.62879" lon="6.35198"><ele></ele><time>2024-5-29T23:28:47Z</time></trkpt>
<trkpt lat="46.62881" lon="6.35199"><ele></ele><time>2024-5-29T23:28:50Z</time></trkpt>
<trkpt lat="46.62887" lon="6.35202"><ele></ele><time>2024-5-29T23:28:53Z</time></trkpt>
<trkpt lat="46.6289" lon="6.35204"><ele></ele><time>2024-5-29T23:28:56Z</time></trkpt>
<trkpt lat="46.62893" lon="6.35203"><ele></ele><time>2024-5-29T23:28:59Z</time></trkpt>
<trkpt lat="46.62895" lon="6.35204"><ele></ele><time>2024-5-29T23:29:2Z</time></trkpt>
<trkpt lat="46.62897" lon="6.35206"><ele></ele><time>2024-5-29T23:29:5Z</time></trkpt>
<trkpt lat="46.629" lon="6.35208"><ele></ele><time>2024-5-29T23:29:8Z</time></trkpt>
<trkpt lat="46.629" lon="6.35208"><ele></ele><time>2024-5-29T23:29:11Z</time></trkpt>
<trkpt lat="46.62903" lon="6.35208"><ele></ele><time>2024-5-29T23:29:14Z</time></trkpt>
<trkpt lat="46.62906" lon="6.3521"><ele></ele><time>2024-5-29T23:29:17Z</time></trkpt>
<trkpt lat="46.6291" lon="6.35212"><ele></ele><time>2024-5-29T23:29:20Z</time></trkpt>
<trkpt lat="46.62914" lon="6.35218"><ele></ele><time>2024-5-29T23:29:23Z</time></trkpt>
<trkpt lat="46.62914" lon="6.35219"><ele></ele><time>2024-5-29T23:29:26Z</time></trkpt>
<trkpt lat="46.62917" lon="6.35225"><ele></ele><time>2024-5-29T23:29:29Z</time></trkpt>
<trkpt lat="46.62917" lon="6.35226"><ele></ele><time>2024-5-29T23:29:32Z</time></trkpt>
<trkpt lat="46.62919" lon="6.35232"><ele></ele><time>2024-5-29T23:29:35Z</time></trkpt>
<trkpt lat="46.62918" lon="6.35234"><ele></ele><time>2024-5-29T23:29:38Z</time></trkpt>
<trkpt lat="46.62918" lon="6.35235"><ele></ele><time>2024-5-29T23:29:41Z</time></trkpt>
<trkpt lat="46.62913" lon="6.35242"><ele></ele><time>2024-5-29T23:29:44Z</time></trkpt>
<trkpt lat="46.62911" lon="6.35248"><ele></ele><time>2024-5-29T23:29:47Z</time></trkpt>
<trkpt lat="46.62909" lon="6.35249"><ele></ele><time>2024-5-29T23:29:50Z</time></trkpt>
<trkpt lat="46.62905" lon="6.35253"><ele></ele><time>2024-5-29T23:29:53Z</time></trkpt>
<trkpt lat="46.62902" lon="6.35256"><ele></ele><time>2024-5-29T23:29:56Z</time></trkpt>
<trkpt lat="46.62899" lon="6.35257"><ele></ele><time>2024-5-29T23:29:59Z</time></trkpt>
<trkpt lat="46.62895" lon="6.35258"><ele></ele><time>2024-5-29T23:30:2Z</time></trkpt>
<trkpt lat="46.62894" lon="6.35259"><ele></ele><time>2024-5-29T23:30:5Z</time></trkpt>
<trkpt lat="46.62892" lon="6.35263"><ele></ele><time>2024-5-29T23:30:8Z</time></trkpt>
<trkpt lat="46.6289" lon="6.35264"><ele></ele><time>2024-5-29T23:30:11Z</time></trkpt>
<trkpt lat="46.62885" lon="6.35265"><ele></ele><time>2024-5-29T23:30:14Z</time></trkpt>
<trkpt lat="46.6288" lon="6.35268"><ele></ele><time>2024-5-29T23:30:17Z</time></trkpt>
<trkpt lat="46.62879" lon="6.35269"><ele></ele><time>2024-5-29T23:30:20Z</time></trkpt>
<trkpt lat="46.62873" lon="6.35273"><ele></ele><time>2024-5-29T23:30:23Z</time></trkpt>
<trkpt lat="46.62872" lon="6.35273"><ele></ele><time>2024-5-29T23:30:26Z</time></trkpt>
<trkpt lat="46.62868" lon="6.35274"><ele></ele><time>2024-5-29T23:30:29Z</time></trkpt>
<trkpt lat="46.62861" lon="6.35277"><ele></ele><time>2024-5-29T23:30:32Z</time></trkpt>
<trkpt lat="46.6286" lon="6.35278"><ele></ele><time>2024-5-29T23:30:35Z</time></trkpt>
<trkpt lat="46.62853" lon="6.35281"><ele></ele><time>2024-5-29T23:30:38Z</time></trkpt>
<trkpt lat="46.62851" lon="6.35282"><ele></ele><time>2024-5-29T23:30:41Z</time></trkpt>
<trkpt lat="46.62847" lon="6.35282"><ele></ele><time>2024-5-29T23:30:44Z</time></trkpt>
<trkpt lat="46.62844" lon="6.35282"><ele></ele><time>2024-5-29T23:30:47Z</time></trkpt>
<trkpt lat="46.62843" lon="6.35283"><ele></ele><time>2024-5-29T23:30:50Z</time></trkpt>
<trkpt lat="46.62839" lon="6.35285"><ele></ele><time>2024-5-29T23:30:53Z</time></trkpt>
<trkpt lat="46.62835" lon="6.35285"><ele></ele><time>2024-5-29T23:30:56Z</time></trkpt>
<trkpt lat="46.62834" lon="6.35286"><ele></ele><time>2024-5-29T23:30:59Z</time></trkpt>
<trkpt lat="46.62825" lon="6.35288"><ele></ele><time>2024-5-29T23:31:2Z</time></trkpt>
<trkpt lat="46.62818" lon="6.35292"><ele></ele><time>2024-5-29T23:31:5Z</time></trkpt>
<trkpt lat="46.62815" lon="6.35292"><ele></ele><time>2024-5-29T23:31:8Z</time></trkpt>
<trkpt lat="46.62811" lon="6.35295"><ele></ele><time>2024-5-29T23:31:11Z</time></trkpt>
<trkpt lat="46.62808" lon="6.35297"><ele></ele><time>2024-5-29T23:31:14Z</time></trkpt>
<trkpt lat="46.62806" lon="6.35297"><ele></ele><time>2024-5-29T23:31:17Z</time></trkpt>
<trkpt lat="46.62804" lon="6.35298"><ele></ele><time>2024-5-29T23:31:20Z</time></trkpt>
<trkpt lat="46.62804" lon="6.35298"><ele></ele><time>2024-5-29T23:31:23Z</time></trkpt>
<trkpt lat="46.62804" lon="6.35299"><ele></ele><time>2024-5-29T23:31:26Z</time></trkpt>
<trkpt lat="46.62804" lon="6.35299"><ele></ele><time>2024-5-29T23:31:29Z</time></trkpt>
<trkpt lat="46.62804" lon="6.35299"><ele></ele><time>2024-5-29T23:31:32Z</time></trkpt>
<trkpt lat="46.62804" lon="6.35299"><ele></ele><time>2024-5-29T23:31:35Z</time></trkpt>
<trkpt lat="46.62804" lon="6.35299"><ele></ele><time>2024-5-29T23:31:38Z</time></trkpt>
<trkpt lat="46.62804" lon="6.35299"><ele></ele><time>2024-5-29T23:31:41Z</time></trkpt>
<trkpt lat="46.62804" lon="6.35299"><ele></ele><time>2024-5-29T23:31:44Z</time></trkpt>
<trkpt lat="46.62804" lon="6.35299"><ele></ele><time>2024-5-29T23:31:47Z</time></trkpt>
<trkpt lat="46.62803" lon="6.35298"><ele></ele><time>2024-5-29T23:31:50Z</time></trkpt>
<trkpt lat="46.62802" lon="6.35298"><ele></ele><time>2024-5-29T23:31:53Z</time></trkpt>
<trkpt lat="46.62798" lon="6.35303"><ele></ele><time>2024-5-29T23:31:56Z</time></trkpt>
<trkpt lat="46.62797" lon="6.35304"><ele></ele><time>2024-5-29T23:31:59Z</time></trkpt>
<trkpt lat="46.62793" lon="6.35306"><ele></ele><time>2024-5-29T23:32:2Z</time></trkpt>
<trkpt lat="46.6279" lon="6.35306"><ele></ele><time>2024-5-29T23:32:5Z</time></trkpt>
<trkpt lat="46.62787" lon="6.35309"><ele></ele><time>2024-5-29T23:32:8Z</time></trkpt>
<trkpt lat="46.6278" lon="6.35314"><ele></ele><time>2024-5-29T23:32:11Z</time></trkpt>
<trkpt lat="46.62778" lon="6.35315"><ele></ele><time>2024-5-29T23:32:14Z</time></trkpt>
<trkpt lat="46.62771" lon="6.35318"><ele></ele><time>2024-5-29T23:32:17Z</time></trkpt>
<trkpt lat="46.62768" lon="6.35322"><ele></ele><time>2024-5-29T23:32:20Z</time></trkpt>
<trkpt lat="46.62766" lon="6.35322"><ele></ele><time>2024-5-29T23:32:23Z</time></trkpt>
<trkpt lat="46.62765" lon="6.35323"><ele></ele><time>2024-5-29T23:32:26Z</time></trkpt>
<trkpt lat="46.62762" lon="6.35325"><ele></ele><time>2024-5-29T23:32:29Z</time></trkpt>
<trkpt lat="46.62758" lon="6.35328"><ele></ele><time>2024-5-29T23:32:32Z</time></trkpt>
<trkpt lat="46.62753" lon="6.35333"><ele></ele><time>2024-5-29T23:32:35Z</time></trkpt>
<trkpt lat="46.62752" lon="6.35335"><ele></ele><time>2024-5-29T23:32:38Z</time></trkpt>
<trkpt lat="46.62745" lon="6.35341"><ele></ele><time>2024-5-29T23:32:41Z</time></trkpt>
<trkpt lat="46.62743" lon="6.35344"><ele></ele><time>2024-5-29T23:32:44Z</time></trkpt>
<trkpt lat="46.62734" lon="6.35356"><ele></ele><time>2024-5-29T23:32:47Z</time></trkpt>
<trkpt lat="46.62732" lon="6.35359"><ele></ele><time>2024-5-29T23:32:50Z</time></trkpt>
<trkpt lat="46.62725" lon="6.35368"><ele></ele><time>2024-5-29T23:32:53Z</time></trkpt>
<trkpt lat="46.62725" lon="6.35369"><ele></ele><time>2024-5-29T23:32:56Z</time></trkpt>
<trkpt lat="46.62722" lon="6.35381"><ele></ele><time>2024-5-29T23:32:59Z</time></trkpt>
<trkpt lat="46.62721" lon="6.35392"><ele></ele><time>2024-5-29T23:33:2Z</time></trkpt>
<trkpt lat="46.62723" lon="6.35402"><ele></ele><time>2024-5-29T23:33:5Z</time></trkpt>
<trkpt lat="46.62723" lon="6.35402"><ele></ele><time>2024-5-29T23:33:8Z</time></trkpt>
<trkpt lat="46.62722" lon="6.35403"><ele></ele><time>2024-5-29T23:33:11Z</time></trkpt>
<trkpt lat="46.62722" lon="6.35403"><ele></ele><time>2024-5-29T23:33:14Z</time></trkpt>
<trkpt lat="46.62722" lon="6.35403"><ele></ele><time>2024-5-29T23:33:17Z</time></trkpt>
<trkpt lat="46.62722" lon="6.35402"><ele></ele><time>2024-5-29T23:33:20Z</time></trkpt>
<trkpt lat="46.62723" lon="6.35401"><ele></ele><time>2024-5-29T23:33:23Z</time></trkpt>
<trkpt lat="46.62723" lon="6.35402"><ele></ele><time>2024-5-29T23:33:26Z</time></trkpt>
<trkpt lat="46.62725" lon="6.35403"><ele></ele><time>2024-5-29T23:33:29Z</time></trkpt>
<trkpt lat="46.62727" lon="6.3541"><ele></ele><time>2024-5-29T23:33:32Z</time></trkpt>
<trkpt lat="46.62731" lon="6.35431"><ele></ele><time>2024-5-29T23:33:35Z</time></trkpt>
<trkpt lat="46.62734" lon="6.35453"><ele></ele><time>2024-5-29T23:33:38Z</time></trkpt>
<trkpt lat="46.62738" lon="6.35472"><ele></ele><time>2024-5-29T23:33:41Z</time></trkpt>
<trkpt lat="46.62744" lon="6.35496"><ele></ele><time>2024-5-29T23:33:44Z</time></trkpt>
<trkpt lat="46.62751" lon="6.35518"><ele></ele><time>2024-5-29T23:33:47Z</time></trkpt>
<trkpt lat="46.62756" lon="6.35528"><ele></ele><time>2024-5-29T23:33:50Z</time></trkpt>
<trkpt lat="46.6276" lon="6.35538"><ele></ele><time>2024-5-29T23:33:53Z</time></trkpt>
<trkpt lat="46.62769" lon="6.35558"><ele></ele><time>2024-5-29T23:33:56Z</time></trkpt>
<trkpt lat="46.62775" lon="6.35567"><ele></ele><time>2024-5-29T23:33:59Z</time></trkpt>
<trkpt lat="46.62781" lon="6.3558"><ele></ele><time>2024-5-29T23:34:2Z</time></trkpt>
<trkpt lat="46.62782" lon="6.35586"><ele></ele><time>2024-5-29T23:34:5Z</time></trkpt>
<trkpt lat="46.6279" lon="6.35594"><ele></ele><time>2024-5-29T23:34:8Z</time></trkpt>
<trkpt lat="46.62797" lon="6.356"><ele></ele><time>2024-5-29T23:34:11Z</time></trkpt>
<trkpt lat="46.62804" lon="6.35602"><ele></ele><time>2024-5-29T23:34:14Z</time></trkpt>
<trkpt lat="46.62808" lon="6.35604"><ele></ele><time>2024-5-29T23:34:17Z</time></trkpt>
<trkpt lat="46.62812" lon="6.35606"><ele></ele><time>2024-5-29T23:34:20Z</time></trkpt>
<trkpt lat="46.62815" lon="6.35609"><ele></ele><time>2024-5-29T23:34:23Z</time></trkpt>
<trkpt lat="46.62819" lon="6.35612"><ele></ele><time>2024-5-29T23:34:26Z</time></trkpt>
<trkpt lat="46.62826" lon="6.35617"><ele></ele><time>2024-5-29T23:34:29Z</time></trkpt>
<trkpt lat="46.62829" lon="6.3562"><ele></ele><time>2024-5-29T23:34:32Z</time></trkpt>
<trkpt lat="46.62833" lon="6.35624"><ele></ele><time>2024-5-29T23:34:35Z</time></trkpt>
<trkpt lat="46.62839" lon="6.35629"><ele></ele><time>2024-5-29T23:34:38Z</time></trkpt>
<trkpt lat="46.62847" lon="6.35631"><ele></ele><time>2024-5-29T23:34:41Z</time></trkpt>
<trkpt lat="46.62854" lon="6.35633"><ele></ele><time>2024-5-29T23:34:44Z</time></trkpt>
<trkpt lat="46.62866" lon="6.35634"><ele></ele><time>2024-5-29T23:34:47Z</time></trkpt>
<trkpt lat="46.6287" lon="6.35633"><ele></ele><time>2024-5-29T23:34:50Z</time></trkpt>
<trkpt lat="46.62874" lon="6.35631"><ele></ele><time>2024-5-29T23:34:53Z</time></trkpt>
<trkpt lat="46.62887" lon="6.35629"><ele></ele><time>2024-5-29T23:34:56Z</time></trkpt>
<trkpt lat="46.62895" lon="6.35626"><ele></ele><time>2024-5-29T23:34:59Z</time></trkpt>
<trkpt lat="46.62903" lon="6.35627"><ele></ele><time>2024-5-29T23:35:2Z</time></trkpt>
<trkpt lat="46.6291" lon="6.3563"><ele></ele><time>2024-5-29T23:35:5Z</time></trkpt>
<trkpt lat="46.62915" lon="6.35631"><ele></ele><time>2024-5-29T23:35:8Z</time></trkpt>
<trkpt lat="46.6292" lon="6.35633"><ele></ele><time>2024-5-29T23:35:11Z</time></trkpt>
<trkpt lat="46.62928" lon="6.35638"><ele></ele><time>2024-5-29T23:35:14Z</time></trkpt>
<trkpt lat="46.6293" lon="6.3564"><ele></ele><time>2024-5-29T23:35:17Z</time></trkpt>
<trkpt lat="46.62932" lon="6.35644"><ele></ele><time>2024-5-29T23:35:20Z</time></trkpt>
<trkpt lat="46.62935" lon="6.35653"><ele></ele><time>2024-5-29T23:35:23Z</time></trkpt>
<trkpt lat="46.62938" lon="6.35662"><ele></ele><time>2024-5-29T23:35:26Z</time></trkpt>
<trkpt lat="46.62939" lon="6.35666"><ele></ele><time>2024-5-29T23:35:29Z</time></trkpt>
<trkpt lat="46.62944" lon="6.35673"><ele></ele><time>2024-5-29T23:35:32Z</time></trkpt>
<trkpt lat="46.62947" lon="6.35677"><ele></ele><time>2024-5-29T23:35:35Z</time></trkpt>
<trkpt lat="46.62952" lon="6.35679"><ele></ele><time>2024-5-29T23:35:38Z</time></trkpt>
<trkpt lat="46.62958" lon="6.35686"><ele></ele><time>2024-5-29T23:35:41Z</time></trkpt>
<trkpt lat="46.62961" lon="6.35693"><ele></ele><time>2024-5-29T23:35:44Z</time></trkpt>
<trkpt lat="46.62964" lon="6.35699"><ele></ele><time>2024-5-29T23:35:47Z</time></trkpt>
<trkpt lat="46.62968" lon="6.35703"><ele></ele><time>2024-5-29T23:35:50Z</time></trkpt>
<trkpt lat="46.6297" lon="6.35705"><ele></ele><time>2024-5-29T23:35:53Z</time></trkpt>
<trkpt lat="46.62975" lon="6.35706"><ele></ele><time>2024-5-29T23:35:56Z</time></trkpt>
<trkpt lat="46.62978" lon="6.35706"><ele></ele><time>2024-5-29T23:35:59Z</time></trkpt>
<trkpt lat="46.62982" lon="6.35704"><ele></ele><time>2024-5-29T23:36:2Z</time></trkpt>
<trkpt lat="46.62988" lon="6.35703"><ele></ele><time>2024-5-29T23:36:5Z</time></trkpt>
<trkpt lat="46.62995" lon="6.35704"><ele></ele><time>2024-5-29T23:36:8Z</time></trkpt>
<trkpt lat="46.63002" lon="6.35703"><ele></ele><time>2024-5-29T23:36:11Z</time></trkpt>
<trkpt lat="46.63008" lon="6.35702"><ele></ele><time>2024-5-29T23:36:14Z</time></trkpt>
<trkpt lat="46.63018" lon="6.357"><ele></ele><time>2024-5-29T23:36:17Z</time></trkpt>
<trkpt lat="46.63021" lon="6.357"><ele></ele><time>2024-5-29T23:36:20Z</time></trkpt>
<trkpt lat="46.6303" lon="6.35699"><ele></ele><time>2024-5-29T23:36:23Z</time></trkpt>
<trkpt lat="46.63036" lon="6.357"><ele></ele><time>2024-5-29T23:36:26Z</time></trkpt>
<trkpt lat="46.63045" lon="6.35698"><ele></ele><time>2024-5-29T23:36:29Z</time></trkpt>
<trkpt lat="46.63049" lon="6.357"><ele></ele><time>2024-5-29T23:36:32Z</time></trkpt>
<trkpt lat="46.6305" lon="6.35701"><ele></ele><time>2024-5-29T23:36:35Z</time></trkpt>
<trkpt lat="46.63055" lon="6.35705"><ele></ele><time>2024-5-29T23:36:38Z</time></trkpt>
<trkpt lat="46.63058" lon="6.35707"><ele></ele><time>2024-5-29T23:36:41Z</time></trkpt>
<trkpt lat="46.63063" lon="6.35711"><ele></ele><time>2024-5-29T23:36:44Z</time></trkpt>
<trkpt lat="46.63068" lon="6.35716"><ele></ele><time>2024-5-29T23:36:47Z</time></trkpt>
<trkpt lat="46.63071" lon="6.3572"><ele></ele><time>2024-5-29T23:36:50Z</time></trkpt>
<trkpt lat="46.63074" lon="6.35723"><ele></ele><time>2024-5-29T23:36:53Z</time></trkpt>
<trkpt lat="46.63081" lon="6.35727"><ele></ele><time>2024-5-29T23:36:56Z</time></trkpt>
<trkpt lat="46.63085" lon="6.35728"><ele></ele><time>2024-5-29T23:36:59Z</time></trkpt>
<trkpt lat="46.63093" lon="6.35725"><ele></ele><time>2024-5-29T23:37:2Z</time></trkpt>
<trkpt lat="46.63094" lon="6.35724"><ele></ele><time>2024-5-29T23:37:5Z</time></trkpt>
<trkpt lat="46.63094" lon="6.35723"><ele></ele><time>2024-5-29T23:37:8Z</time></trkpt>
<trkpt lat="46.63096" lon="6.35723"><ele></ele><time>2024-5-29T23:37:11Z</time></trkpt>
<trkpt lat="46.63101" lon="6.35728"><ele></ele><time>2024-5-29T23:37:14Z</time></trkpt>
<trkpt lat="46.63105" lon="6.35727"><ele></ele><time>2024-5-29T23:37:17Z</time></trkpt>
<trkpt lat="46.63105" lon="6.35727"><ele></ele><time>2024-5-29T23:37:20Z</time></trkpt>
<trkpt lat="46.63107" lon="6.35726"><ele></ele><time>2024-5-29T23:37:23Z</time></trkpt>
<trkpt lat="46.63103" lon="6.35727"><ele></ele><time>2024-5-29T23:37:26Z</time></trkpt>
<trkpt lat="46.63104" lon="6.35727"><ele></ele><time>2024-5-29T23:37:29Z</time></trkpt>
<trkpt lat="46.63107" lon="6.3573"><ele></ele><time>2024-5-29T23:37:32Z</time></trkpt>
<trkpt lat="46.63111" lon="6.35739"><ele></ele><time>2024-5-29T23:37:35Z</time></trkpt>
<trkpt lat="46.63113" lon="6.35744"><ele></ele><time>2024-5-29T23:37:38Z</time></trkpt>
<trkpt lat="46.63114" lon="6.35749"><ele></ele><time>2024-5-29T23:37:41Z</time></trkpt>
<trkpt lat="46.63116" lon="6.35755"><ele></ele><time>2024-5-29T23:37:44Z</time></trkpt>
<trkpt lat="46.63117" lon="6.35756"><ele></ele><time>2024-5-29T23:37:47Z</time></trkpt>
<trkpt lat="46.63119" lon="6.35758"><ele></ele><time>2024-5-29T23:37:50Z</time></trkpt>
<trkpt lat="46.6312" lon="6.35759"><ele></ele><time>2024-5-29T23:37:53Z</time></trkpt>
<trkpt lat="46.63124" lon="6.35765"><ele></ele><time>2024-5-29T23:37:56Z</time></trkpt>
<trkpt lat="46.63124" lon="6.35766"><ele></ele><time>2024-5-29T23:37:59Z</time></trkpt>
<trkpt lat="46.63124" lon="6.35768"><ele></ele><time>2024-5-29T23:38:2Z</time></trkpt>
<trkpt lat="46.63125" lon="6.35772"><ele></ele><time>2024-5-29T23:38:5Z</time></trkpt>
<trkpt lat="46.63126" lon="6.35774"><ele></ele><time>2024-5-29T23:38:8Z</time></trkpt>
<trkpt lat="46.63126" lon="6.35775"><ele></ele><time>2024-5-29T23:38:11Z</time></trkpt>
<trkpt lat="46.63128" lon="6.3578"><ele></ele><time>2024-5-29T23:38:14Z</time></trkpt>
<trkpt lat="46.63131" lon="6.35782"><ele></ele><time>2024-5-29T23:38:17Z</time></trkpt>
<trkpt lat="46.63131" lon="6.35783"><ele></ele><time>2024-5-29T23:38:20Z</time></trkpt>
<trkpt lat="46.63133" lon="6.35785"><ele></ele><time>2024-5-29T23:38:23Z</time></trkpt>
<trkpt lat="46.63135" lon="6.35784"><ele></ele><time>2024-5-29T23:38:26Z</time></trkpt>
<trkpt lat="46.63138" lon="6.35784"><ele></ele><time>2024-5-29T23:38:29Z</time></trkpt>
<trkpt lat="46.63145" lon="6.35786"><ele></ele><time>2024-5-29T23:38:32Z</time></trkpt>
<trkpt lat="46.6315" lon="6.35788"><ele></ele><time>2024-5-29T23:38:35Z</time></trkpt>
<trkpt lat="46.63156" lon="6.3579"><ele></ele><time>2024-5-29T23:38:38Z</time></trkpt>
<trkpt lat="46.63161" lon="6.3579"><ele></ele><time>2024-5-29T23:38:41Z</time></trkpt>
<trkpt lat="46.63163" lon="6.3579"><ele></ele><time>2024-5-29T23:38:44Z</time></trkpt>
<trkpt lat="46.63167" lon="6.35791"><ele></ele><time>2024-5-29T23:38:47Z</time></trkpt>
<trkpt lat="46.63171" lon="6.35793"><ele></ele><time>2024-5-29T23:38:50Z</time></trkpt>
<trkpt lat="46.63177" lon="6.35797"><ele></ele><time>2024-5-29T23:38:53Z</time></trkpt>
<trkpt lat="46.6318" lon="6.35799"><ele></ele><time>2024-5-29T23:38:56Z</time></trkpt>
<trkpt lat="46.63189" lon="6.35807"><ele></ele><time>2024-5-29T23:38:59Z</time></trkpt>
<trkpt lat="46.63192" lon="6.3581"><ele></ele><time>2024-5-29T23:39:2Z</time></trkpt>
<trkpt lat="46.63196" lon="6.35813"><ele></ele><time>2024-5-29T23:39:5Z</time></trkpt>
<trkpt lat="46.63204" lon="6.35827"><ele></ele><time>2024-5-29T23:39:8Z</time></trkpt>
<trkpt lat="46.63206" lon="6.35831"><ele></ele><time>2024-5-29T23:39:11Z</time></trkpt>
<trkpt lat="46.63208" lon="6.35835"><ele></ele><time>2024-5-29T23:39:14Z</time></trkpt>
<trkpt lat="46.63211" lon="6.35846"><ele></ele><time>2024-5-29T23:39:17Z</time></trkpt>
<trkpt lat="46.63211" lon="6.3585"><ele></ele><time>2024-5-29T23:39:20Z</time></trkpt>
<trkpt lat="46.63212" lon="6.35855"><ele></ele><time>2024-5-29T23:39:23Z</time></trkpt>
<trkpt lat="46.63213" lon="6.35865"><ele></ele><time>2024-5-29T23:39:26Z</time></trkpt>
<trkpt lat="46.63215" lon="6.35873"><ele></ele><time>2024-5-29T23:39:29Z</time></trkpt>
<trkpt lat="46.63216" lon="6.35878"><ele></ele><time>2024-5-29T23:39:32Z</time></trkpt>
<trkpt lat="46.63218" lon="6.35887"><ele></ele><time>2024-5-29T23:39:35Z</time></trkpt>
<trkpt lat="46.6322" lon="6.35891"><ele></ele><time>2024-5-29T23:39:38Z</time></trkpt>
<trkpt lat="46.63221" lon="6.35893"><ele></ele><time>2024-5-29T23:39:41Z</time></trkpt>
<trkpt lat="46.63222" lon="6.35895"><ele></ele><time>2024-5-29T23:39:44Z</time></trkpt>
<trkpt lat="46.63225" lon="6.35898"><ele></ele><time>2024-5-29T23:39:47Z</time></trkpt>
<trkpt lat="46.63229" lon="6.35902"><ele></ele><time>2024-5-29T23:39:50Z</time></trkpt>
<trkpt lat="46.63235" lon="6.35905"><ele></ele><time>2024-5-29T23:39:53Z</time></trkpt>
<trkpt lat="46.6324" lon="6.35906"><ele></ele><time>2024-5-29T23:39:56Z</time></trkpt>
<trkpt lat="46.63243" lon="6.35907"><ele></ele><time>2024-5-29T23:39:59Z</time></trkpt>
<trkpt lat="46.63248" lon="6.35907"><ele></ele><time>2024-5-29T23:40:2Z</time></trkpt>
<trkpt lat="46.63254" lon="6.35906"><ele></ele><time>2024-5-29T23:40:5Z</time></trkpt>
<trkpt lat="46.63257" lon="6.35905"><ele></ele><time>2024-5-29T23:40:8Z</time></trkpt>
<trkpt lat="46.63259" lon="6.35905"><ele></ele><time>2024-5-29T23:40:11Z</time></trkpt>
<trkpt lat="46.63265" lon="6.35905"><ele></ele><time>2024-5-29T23:40:14Z</time></trkpt>
<trkpt lat="46.63268" lon="6.35904"><ele></ele><time>2024-5-29T23:40:17Z</time></trkpt>
<trkpt lat="46.63271" lon="6.35903"><ele></ele><time>2024-5-29T23:40:20Z</time></trkpt>
<trkpt lat="46.63273" lon="6.35902"><ele></ele><time>2024-5-29T23:40:23Z</time></trkpt>
<trkpt lat="46.63278" lon="6.35902"><ele></ele><time>2024-5-29T23:40:26Z</time></trkpt>
<trkpt lat="46.63283" lon="6.35903"><ele></ele><time>2024-5-29T23:40:29Z</time></trkpt>
<trkpt lat="46.63285" lon="6.35904"><ele></ele><time>2024-5-29T23:40:32Z</time></trkpt>
<trkpt lat="46.63288" lon="6.35904"><ele></ele><time>2024-5-29T23:40:35Z</time></trkpt>
<trkpt lat="46.63291" lon="6.35904"><ele></ele><time>2024-5-29T23:40:38Z</time></trkpt>
<trkpt lat="46.63293" lon="6.35903"><ele></ele><time>2024-5-29T23:40:41Z</time></trkpt>
<trkpt lat="46.63295" lon="6.35902"><ele></ele><time>2024-5-29T23:40:44Z</time></trkpt>
<trkpt lat="46.633" lon="6.35902"><ele></ele><time>2024-5-29T23:40:47Z</time></trkpt>
<trkpt lat="46.63302" lon="6.35901"><ele></ele><time>2024-5-29T23:40:50Z</time></trkpt>
<trkpt lat="46.63304" lon="6.359"><ele></ele><time>2024-5-29T23:40:53Z</time></trkpt>
<trkpt lat="46.63305" lon="6.35898"><ele></ele><time>2024-5-29T23:40:56Z</time></trkpt>
<trkpt lat="46.63307" lon="6.35896"><ele></ele><time>2024-5-29T23:40:59Z</time></trkpt>
<trkpt lat="46.63309" lon="6.35895"><ele></ele><time>2024-5-29T23:41:2Z</time></trkpt>
<trkpt lat="46.63312" lon="6.35895"><ele></ele><time>2024-5-29T23:41:5Z</time></trkpt>
<trkpt lat="46.63315" lon="6.35895"><ele></ele><time>2024-5-29T23:41:8Z</time></trkpt>
<trkpt lat="46.63317" lon="6.35895"><ele></ele><time>2024-5-29T23:41:11Z</time></trkpt>
<trkpt lat="46.63322" lon="6.35894"><ele></ele><time>2024-5-29T23:41:14Z</time></trkpt>
<trkpt lat="46.63323" lon="6.35893"><ele></ele><time>2024-5-29T23:41:17Z</time></trkpt>
<trkpt lat="46.63339" lon="6.35884"><ele></ele><time>2024-5-29T23:41:20Z</time></trkpt>
<trkpt lat="46.63355" lon="6.35873"><ele></ele><time>2024-5-29T23:41:23Z</time></trkpt>
<trkpt lat="46.63358" lon="6.35871"><ele></ele><time>2024-5-29T23:41:26Z</time></trkpt>
<trkpt lat="46.63365" lon="6.35868"><ele></ele><time>2024-5-29T23:41:29Z</time></trkpt>
<trkpt lat="46.63372" lon="6.35867"><ele></ele><time>2024-5-29T23:41:32Z</time></trkpt>
<trkpt lat="46.63377" lon="6.35866"><ele></ele><time>2024-5-29T23:41:35Z</time></trkpt>
<trkpt lat="46.63391" lon="6.35861"><ele></ele><time>2024-5-29T23:41:38Z</time></trkpt>
<trkpt lat="46.63407" lon="6.35856"><ele></ele><time>2024-5-29T23:41:41Z</time></trkpt>
<trkpt lat="46.63417" lon="6.35855"><ele></ele><time>2024-5-29T23:41:44Z</time></trkpt>
<trkpt lat="46.63421" lon="6.35855"><ele></ele><time>2024-5-29T23:41:47Z</time></trkpt>
<trkpt lat="46.63446" lon="6.35854"><ele></ele><time>2024-5-29T23:41:50Z</time></trkpt>
<trkpt lat="46.63459" lon="6.3585"><ele></ele><time>2024-5-29T23:41:53Z</time></trkpt>
<trkpt lat="46.63472" lon="6.35842"><ele></ele><time>2024-5-29T23:41:56Z</time></trkpt>
<trkpt lat="46.63488" lon="6.35829"><ele></ele><time>2024-5-29T23:41:59Z</time></trkpt>
<trkpt lat="46.63507" lon="6.35817"><ele></ele><time>2024-5-29T23:42:2Z</time></trkpt>
<trkpt lat="46.63512" lon="6.35816"><ele></ele><time>2024-5-29T23:42:5Z</time></trkpt>
<trkpt lat="46.63523" lon="6.35815"><ele></ele><time>2024-5-29T23:42:8Z</time></trkpt>
<trkpt lat="46.63529" lon="6.35816"><ele></ele><time>2024-5-29T23:42:11Z</time></trkpt>
<trkpt lat="46.63536" lon="6.35818"><ele></ele><time>2024-5-29T23:42:14Z</time></trkpt>
<trkpt lat="46.63554" lon="6.35827"><ele></ele><time>2024-5-29T23:42:17Z</time></trkpt>
<trkpt lat="46.6356" lon="6.3583"><ele></ele><time>2024-5-29T23:42:20Z</time></trkpt>
<trkpt lat="46.63572" lon="6.35833"><ele></ele><time>2024-5-29T23:42:23Z</time></trkpt>
<trkpt lat="46.63583" lon="6.3583"><ele></ele><time>2024-5-29T23:42:26Z</time></trkpt>
<trkpt lat="46.63588" lon="6.35827"><ele></ele><time>2024-5-29T23:42:29Z</time></trkpt>
<trkpt lat="46.63605" lon="6.3582"><ele></ele><time>2024-5-29T23:42:32Z</time></trkpt>
<trkpt lat="46.6361" lon="6.35821"><ele></ele><time>2024-5-29T23:42:35Z</time></trkpt>
<trkpt lat="46.63622" lon="6.35824"><ele></ele><time>2024-5-29T23:42:38Z</time></trkpt>
<trkpt lat="46.63634" lon="6.35825"><ele></ele><time>2024-5-29T23:42:41Z</time></trkpt>
<trkpt lat="46.6364" lon="6.35823"><ele></ele><time>2024-5-29T23:42:44Z</time></trkpt>
<trkpt lat="46.63646" lon="6.35819"><ele></ele><time>2024-5-29T23:42:47Z</time></trkpt>
<trkpt lat="46.63651" lon="6.35816"><ele></ele><time>2024-5-29T23:42:50Z</time></trkpt>
<trkpt lat="46.63655" lon="6.35811"><ele></ele><time>2024-5-29T23:42:53Z</time></trkpt>
<trkpt lat="46.63659" lon="6.35808"><ele></ele><time>2024-5-29T23:42:56Z</time></trkpt>
<trkpt lat="46.63663" lon="6.35804"><ele></ele><time>2024-5-29T23:42:59Z</time></trkpt>
<trkpt lat="46.63667" lon="6.35801"><ele></ele><time>2024-5-29T23:43:2Z</time></trkpt>
<trkpt lat="46.63676" lon="6.35799"><ele></ele><time>2024-5-29T23:43:5Z</time></trkpt>
<trkpt lat="46.63683" lon="6.35801"><ele></ele><time>2024-5-29T23:43:8Z</time></trkpt>
<trkpt lat="46.63687" lon="6.35803"><ele></ele><time>2024-5-29T23:43:11Z</time></trkpt>
<trkpt lat="46.63693" lon="6.35807"><ele></ele><time>2024-5-29T23:43:14Z</time></trkpt>
<trkpt lat="46.63698" lon="6.35811"><ele></ele><time>2024-5-29T23:43:17Z</time></trkpt>
<trkpt lat="46.63699" lon="6.35815"><ele></ele><time>2024-5-29T23:43:20Z</time></trkpt>
<trkpt lat="46.63699" lon="6.35824"><ele></ele><time>2024-5-29T23:43:23Z</time></trkpt>
<trkpt lat="46.63697" lon="6.35829"><ele></ele><time>2024-5-29T23:43:26Z</time></trkpt>
<trkpt lat="46.63695" lon="6.35835"><ele></ele><time>2024-5-29T23:43:29Z</time></trkpt>
<trkpt lat="46.63689" lon="6.3585"><ele></ele><time>2024-5-29T23:43:32Z</time></trkpt>
<trkpt lat="46.63686" lon="6.35858"><ele></ele><time>2024-5-29T23:43:35Z</time></trkpt>
<trkpt lat="46.63675" lon="6.35873"><ele></ele><time>2024-5-29T23:43:38Z</time></trkpt>
<trkpt lat="46.63668" lon="6.35879"><ele></ele><time>2024-5-29T23:43:41Z</time></trkpt>
<trkpt lat="46.63659" lon="6.35885"><ele></ele><time>2024-5-29T23:43:44Z</time></trkpt>
<trkpt lat="46.63651" lon="6.35891"><ele></ele><time>2024-5-29T23:43:47Z</time></trkpt>
<trkpt lat="46.63633" lon="6.35901"><ele></ele><time>2024-5-29T23:43:50Z</time></trkpt>
<trkpt lat="46.63625" lon="6.35905"><ele></ele><time>2024-5-29T23:43:53Z</time></trkpt>
<trkpt lat="46.63615" lon="6.35908"><ele></ele><time>2024-5-29T23:43:56Z</time></trkpt>
<trkpt lat="46.63606" lon="6.3591"><ele></ele><time>2024-5-29T23:43:59Z</time></trkpt>
<trkpt lat="46.63597" lon="6.35913"><ele></ele><time>2024-5-29T23:44:2Z</time></trkpt>
<trkpt lat="46.6358" lon="6.35922"><ele></ele><time>2024-5-29T23:44:5Z</time></trkpt>
<trkpt lat="46.63565" lon="6.35936"><ele></ele><time>2024-5-29T23:44:8Z</time></trkpt>
<trkpt lat="46.63549" lon="6.35951"><ele></ele><time>2024-5-29T23:44:11Z</time></trkpt>
<trkpt lat="46.6354" lon="6.35959"><ele></ele><time>2024-5-29T23:44:14Z</time></trkpt>
<trkpt lat="46.63531" lon="6.35966"><ele></ele><time>2024-5-29T23:44:17Z</time></trkpt>
<trkpt lat="46.63521" lon="6.35972"><ele></ele><time>2024-5-29T23:44:20Z</time></trkpt>
<trkpt lat="46.63511" lon="6.35978"><ele></ele><time>2024-5-29T23:44:23Z</time></trkpt>
<trkpt lat="46.63494" lon="6.35989"><ele></ele><time>2024-5-29T23:44:26Z</time></trkpt>
<trkpt lat="46.63487" lon="6.35995"><ele></ele><time>2024-5-29T23:44:29Z</time></trkpt>
<trkpt lat="46.6348" lon="6.36001"><ele></ele><time>2024-5-29T23:44:32Z</time></trkpt>
<trkpt lat="46.63476" lon="6.36008"><ele></ele><time>2024-5-29T23:44:35Z</time></trkpt>
<trkpt lat="46.63473" lon="6.36015"><ele></ele><time>2024-5-29T23:44:38Z</time></trkpt>
<trkpt lat="46.63473" lon="6.36022"><ele></ele><time>2024-5-29T23:44:41Z</time></trkpt>
<trkpt lat="46.63474" lon="6.36028"><ele></ele><time>2024-5-29T23:44:44Z</time></trkpt>
<trkpt lat="46.63477" lon="6.36033"><ele></ele><time>2024-5-29T23:44:47Z</time></trkpt>
<trkpt lat="46.63481" lon="6.36038"><ele></ele><time>2024-5-29T23:44:50Z</time></trkpt>
<trkpt lat="46.63487" lon="6.36042"><ele></ele><time>2024-5-29T23:44:53Z</time></trkpt>
<trkpt lat="46.63494" lon="6.36046"><ele></ele><time>2024-5-29T23:44:56Z</time></trkpt>
<trkpt lat="46.63502" lon="6.36049"><ele></ele><time>2024-5-29T23:44:59Z</time></trkpt>
<trkpt lat="46.63512" lon="6.3605"><ele></ele><time>2024-5-29T23:45:2Z</time></trkpt>
<trkpt lat="46.63521" lon="6.36051"><ele></ele><time>2024-5-29T23:45:5Z</time></trkpt>
<trkpt lat="46.63531" lon="6.3605"><ele></ele><time>2024-5-29T23:45:8Z</time></trkpt>
<trkpt lat="46.63552" lon="6.36047"><ele></ele><time>2024-5-29T23:45:11Z</time></trkpt>
<trkpt lat="46.63561" lon="6.36049"><ele></ele><time>2024-5-29T23:45:14Z</time></trkpt>
<trkpt lat="46.63568" lon="6.36056"><ele></ele><time>2024-5-29T23:45:17Z</time></trkpt>
<trkpt lat="46.63573" lon="6.36066"><ele></ele><time>2024-5-29T23:45:20Z</time></trkpt>
<trkpt lat="46.63574" lon="6.36078"><ele></ele><time>2024-5-29T23:45:23Z</time></trkpt>
<trkpt lat="46.63573" lon="6.36089"><ele></ele><time>2024-5-29T23:45:26Z</time></trkpt>
<trkpt lat="46.6357" lon="6.36111"><ele></ele><time>2024-5-29T23:45:29Z</time></trkpt>
<trkpt lat="46.63571" lon="6.36134"><ele></ele><time>2024-5-29T23:45:32Z</time></trkpt>
<trkpt lat="46.63576" lon="6.36154"><ele></ele><time>2024-5-29T23:45:35Z</time></trkpt>
<trkpt lat="46.63584" lon="6.36184"><ele></ele><time>2024-5-29T23:45:38Z</time></trkpt>
<trkpt lat="46.63593" lon="6.36215"><ele></ele><time>2024-5-29T23:45:41Z</time></trkpt>
<trkpt lat="46.63597" lon="6.36224"><ele></ele><time>2024-5-29T23:45:44Z</time></trkpt>
<trkpt lat="46.636" lon="6.36232"><ele></ele><time>2024-5-29T23:45:47Z</time></trkpt>
<trkpt lat="46.63602" lon="6.36241"><ele></ele><time>2024-5-29T23:45:50Z</time></trkpt>
<trkpt lat="46.63603" lon="6.36249"><ele></ele><time>2024-5-29T23:45:53Z</time></trkpt>
<trkpt lat="46.63602" lon="6.36258"><ele></ele><time>2024-5-29T23:45:56Z</time></trkpt>
<trkpt lat="46.636" lon="6.36267"><ele></ele><time>2024-5-29T23:45:59Z</time></trkpt>
<trkpt lat="46.63595" lon="6.36286"><ele></ele><time>2024-5-29T23:46:2Z</time></trkpt>
<trkpt lat="46.63594" lon="6.36297"><ele></ele><time>2024-5-29T23:46:5Z</time></trkpt>
<trkpt lat="46.63592" lon="6.36308"><ele></ele><time>2024-5-29T23:46:8Z</time></trkpt>
<trkpt lat="46.63591" lon="6.3632"><ele></ele><time>2024-5-29T23:46:11Z</time></trkpt>
<trkpt lat="46.63589" lon="6.36333"><ele></ele><time>2024-5-29T23:46:14Z</time></trkpt>
<trkpt lat="46.63588" lon="6.36346"><ele></ele><time>2024-5-29T23:46:17Z</time></trkpt>
<trkpt lat="46.63587" lon="6.3636"><ele></ele><time>2024-5-29T23:46:20Z</time></trkpt>
<trkpt lat="46.63586" lon="6.36374"><ele></ele><time>2024-5-29T23:46:23Z</time></trkpt>
<trkpt lat="46.63585" lon="6.36389"><ele></ele><time>2024-5-29T23:46:26Z</time></trkpt>
<trkpt lat="46.63583" lon="6.36404"><ele></ele><time>2024-5-29T23:46:29Z</time></trkpt>
<trkpt lat="46.63582" lon="6.3642"><ele></ele><time>2024-5-29T23:46:32Z</time></trkpt>
<trkpt lat="46.63581" lon="6.36437"><ele></ele><time>2024-5-29T23:46:35Z</time></trkpt>
<trkpt lat="46.6358" lon="6.36454"><ele></ele><time>2024-5-29T23:46:38Z</time></trkpt>
<trkpt lat="46.63581" lon="6.36471"><ele></ele><time>2024-5-29T23:46:41Z</time></trkpt>
<trkpt lat="46.63582" lon="6.36501"><ele></ele><time>2024-5-29T23:46:44Z</time></trkpt>
<trkpt lat="46.63582" lon="6.36516"><ele></ele><time>2024-5-29T23:46:47Z</time></trkpt>
<trkpt lat="46.63582" lon="6.36529"><ele></ele><time>2024-5-29T23:46:50Z</time></trkpt>
<trkpt lat="46.6358" lon="6.36542"><ele></ele><time>2024-5-29T23:46:53Z</time></trkpt>
<trkpt lat="46.63578" lon="6.36553"><ele></ele><time>2024-5-29T23:46:56Z</time></trkpt>
<trkpt lat="46.63576" lon="6.36565"><ele></ele><time>2024-5-29T23:46:59Z</time></trkpt>
<trkpt lat="46.63573" lon="6.36577"><ele></ele><time>2024-5-29T23:47:2Z</time></trkpt>
<trkpt lat="46.6357" lon="6.36595"><ele></ele><time>2024-5-29T23:47:5Z</time></trkpt>
<trkpt lat="46.63568" lon="6.36602"><ele></ele><time>2024-5-29T23:47:8Z</time></trkpt>
<trkpt lat="46.63557" lon="6.36635"><ele></ele><time>2024-5-29T23:47:11Z</time></trkpt>
<trkpt lat="46.63553" lon="6.36643"><ele></ele><time>2024-5-29T23:47:14Z</time></trkpt>
<trkpt lat="46.63547" lon="6.3665"><ele></ele><time>2024-5-29T23:47:17Z</time></trkpt>
<trkpt lat="46.63541" lon="6.36656"><ele></ele><time>2024-5-29T23:47:20Z</time></trkpt>
<trkpt lat="46.63536" lon="6.36663"><ele></ele><time>2024-5-29T23:47:23Z</time></trkpt>
<trkpt lat="46.63531" lon="6.36669"><ele></ele><time>2024-5-29T23:47:26Z</time></trkpt>
<trkpt lat="46.63525" lon="6.36676"><ele></ele><time>2024-5-29T23:47:29Z</time></trkpt>
<trkpt lat="46.63515" lon="6.36689"><ele></ele><time>2024-5-29T23:47:32Z</time></trkpt>
<trkpt lat="46.63497" lon="6.36712"><ele></ele><time>2024-5-29T23:47:35Z</time></trkpt>
<trkpt lat="46.6349" lon="6.36723"><ele></ele><time>2024-5-29T23:47:38Z</time></trkpt>
<trkpt lat="46.63464" lon="6.36752"><ele></ele><time>2024-5-29T23:47:41Z</time></trkpt>
<trkpt lat="46.63452" lon="6.36762"><ele></ele><time>2024-5-29T23:47:44Z</time></trkpt>
<trkpt lat="46.63438" lon="6.36767"><ele></ele><time>2024-5-29T23:47:47Z</time></trkpt>
<trkpt lat="46.63416" lon="6.36773"><ele></ele><time>2024-5-29T23:47:50Z</time></trkpt>
<trkpt lat="46.63408" lon="6.36772"><ele></ele><time>2024-5-29T23:47:53Z</time></trkpt>
<trkpt lat="46.63393" lon="6.36765"><ele></ele><time>2024-5-29T23:47:56Z</time></trkpt>
<trkpt lat="46.63386" lon="6.36761"><ele></ele><time>2024-5-29T23:47:59Z</time></trkpt>
<trkpt lat="46.6338" lon="6.36755"><ele></ele><time>2024-5-29T23:48:2Z</time></trkpt>
<trkpt lat="46.63373" lon="6.36749"><ele></ele><time>2024-5-29T23:48:5Z</time></trkpt>
<trkpt lat="46.63361" lon="6.36737"><ele></ele><time>2024-5-29T23:48:8Z</time></trkpt>
<trkpt lat="46.63342" lon="6.36718"><ele></ele><time>2024-5-29T23:48:11Z</time></trkpt>
<trkpt lat="46.63328" lon="6.36706"><ele></ele><time>2024-5-29T23:48:14Z</time></trkpt>
<trkpt lat="46.63314" lon="6.36697"><ele></ele><time>2024-5-29T23:48:17Z</time></trkpt>
<trkpt lat="46.63306" lon="6.36695"><ele></ele><time>2024-5-29T23:48:20Z</time></trkpt>
<trkpt lat="46.63299" lon="6.36694"><ele></ele><time>2024-5-29T23:48:23Z</time></trkpt>
<trkpt lat="46.63264" lon="6.36697"><ele></ele><time>2024-5-29T23:48:26Z</time></trkpt>
<trkpt lat="46.6323" lon="6.36708"><ele></ele><time>2024-5-29T23:48:29Z</time></trkpt>
<trkpt lat="46.63204" lon="6.36714"><ele></ele><time>2024-5-29T23:48:32Z</time></trkpt>
<trkpt lat="46.63195" lon="6.36714"><ele></ele><time>2024-5-29T23:48:35Z</time></trkpt>
<trkpt lat="46.63164" lon="6.36711"><ele></ele><time>2024-5-29T23:48:38Z</time></trkpt>
<trkpt lat="46.63155" lon="6.36708"><ele></ele><time>2024-5-29T23:48:41Z</time></trkpt>
<trkpt lat="46.63151" lon="6.36705"><ele></ele><time>2024-5-29T23:48:44Z</time></trkpt>
<trkpt lat="46.63136" lon="6.367"><ele></ele><time>2024-5-29T23:48:47Z</time></trkpt>
<trkpt lat="46.63117" lon="6.36692"><ele></ele><time>2024-5-29T23:48:50Z</time></trkpt>
<trkpt lat="46.63107" lon="6.36689"><ele></ele><time>2024-5-29T23:48:53Z</time></trkpt>
<trkpt lat="46.63102" lon="6.3669"><ele></ele><time>2024-5-29T23:48:56Z</time></trkpt>
<trkpt lat="46.63097" lon="6.36691"><ele></ele><time>2024-5-29T23:48:59Z</time></trkpt>
<trkpt lat="46.63087" lon="6.36696"><ele></ele><time>2024-5-29T23:49:2Z</time></trkpt>
<trkpt lat="46.63081" lon="6.367"><ele></ele><time>2024-5-29T23:49:5Z</time></trkpt>
<trkpt lat="46.6307" lon="6.36708"><ele></ele><time>2024-5-29T23:49:8Z</time></trkpt>
<trkpt lat="46.63054" lon="6.36723"><ele></ele><time>2024-5-29T23:49:11Z</time></trkpt>
<trkpt lat="46.63049" lon="6.36728"><ele></ele><time>2024-5-29T23:49:14Z</time></trkpt>
<trkpt lat="46.63037" lon="6.36739"><ele></ele><time>2024-5-29T23:49:17Z</time></trkpt>
<trkpt lat="46.63025" lon="6.36752"><ele></ele><time>2024-5-29T23:49:20Z</time></trkpt>
<trkpt lat="46.63019" lon="6.36761"><ele></ele><time>2024-5-29T23:49:23Z</time></trkpt>
<trkpt lat="46.63014" lon="6.36772"><ele></ele><time>2024-5-29T23:49:26Z</time></trkpt>
<trkpt lat="46.63006" lon="6.36799"><ele></ele><time>2024-5-29T23:49:29Z</time></trkpt>
<trkpt lat="46.63003" lon="6.36812"><ele></ele><time>2024-5-29T23:49:32Z</time></trkpt>
<trkpt lat="46.62991" lon="6.36849"><ele></ele><time>2024-5-29T23:49:35Z</time></trkpt>
<trkpt lat="46.62986" lon="6.36861"><ele></ele><time>2024-5-29T23:49:38Z</time></trkpt>
<trkpt lat="46.62981" lon="6.36872"><ele></ele><time>2024-5-29T23:49:41Z</time></trkpt>
<trkpt lat="46.62959" lon="6.36917"><ele></ele><time>2024-5-29T23:49:44Z</time></trkpt>
<trkpt lat="46.62954" lon="6.3693"><ele></ele><time>2024-5-29T23:49:47Z</time></trkpt>
<trkpt lat="46.62948" lon="6.36942"><ele></ele><time>2024-5-29T23:49:50Z</time></trkpt>
<trkpt lat="46.62937" lon="6.36968"><ele></ele><time>2024-5-29T23:49:53Z</time></trkpt>
<trkpt lat="46.62924" lon="6.37002"><ele></ele><time>2024-5-29T23:49:56Z</time></trkpt>
<trkpt lat="46.6292" lon="6.37014"><ele></ele><time>2024-5-29T23:49:59Z</time></trkpt>
<trkpt lat="46.62905" lon="6.37057"><ele></ele><time>2024-5-29T23:50:2Z</time></trkpt>
<trkpt lat="46.62901" lon="6.37068"><ele></ele><time>2024-5-29T23:50:5Z</time></trkpt>
<trkpt lat="46.62897" lon="6.37089"><ele></ele><time>2024-5-29T23:50:8Z</time></trkpt>
<trkpt lat="46.62894" lon="6.37121"><ele></ele><time>2024-5-29T23:50:11Z</time></trkpt>
<trkpt lat="46.62893" lon="6.37131"><ele></ele><time>2024-5-29T23:50:14Z</time></trkpt>
<trkpt lat="46.62884" lon="6.37177"><ele></ele><time>2024-5-29T23:50:17Z</time></trkpt>
<trkpt lat="46.62875" lon="6.37197"><ele></ele><time>2024-5-29T23:50:20Z</time></trkpt>
<trkpt lat="46.62871" lon="6.37202"><ele></ele><time>2024-5-29T23:50:23Z</time></trkpt>
<trkpt lat="46.62867" lon="6.37206"><ele></ele><time>2024-5-29T23:50:26Z</time></trkpt>
<trkpt lat="46.6286" lon="6.37212"><ele></ele><time>2024-5-29T23:50:29Z</time></trkpt>
<trkpt lat="46.62856" lon="6.37214"><ele></ele><time>2024-5-29T23:50:32Z</time></trkpt>
<trkpt lat="46.62836" lon="6.37217"><ele></ele><time>2024-5-29T23:50:35Z</time></trkpt>
<trkpt lat="46.628" lon="6.37215"><ele></ele><time>2024-5-29T23:50:38Z</time></trkpt>
<trkpt lat="46.62793" lon="6.37209"><ele></ele><time>2024-5-29T23:50:41Z</time></trkpt>
<trkpt lat="46.62786" lon="6.37201"><ele></ele><time>2024-5-29T23:50:44Z</time></trkpt>
<trkpt lat="46.62772" lon="6.37173"><ele></ele><time>2024-5-29T23:50:47Z</time></trkpt>
<trkpt lat="46.62756" lon="6.37135"><ele></ele><time>2024-5-29T23:50:50Z</time></trkpt>
<trkpt lat="46.62737" lon="6.37099"><ele></ele><time>2024-5-29T23:50:53Z</time></trkpt>
<trkpt lat="46.62714" lon="6.37056"><ele></ele><time>2024-5-29T23:50:56Z</time></trkpt>
<trkpt lat="46.62693" lon="6.37033"><ele></ele><time>2024-5-29T23:50:59Z</time></trkpt>
<trkpt lat="46.6268" lon="6.37022"><ele></ele><time>2024-5-29T23:51:2Z</time></trkpt>
<trkpt lat="46.62656" lon="6.37006"><ele></ele><time>2024-5-29T23:51:5Z</time></trkpt>
<trkpt lat="46.62642" lon="6.37"><ele></ele><time>2024-5-29T23:51:8Z</time></trkpt>
<trkpt lat="46.62627" lon="6.36996"><ele></ele><time>2024-5-29T23:51:11Z</time></trkpt>
<trkpt lat="46.62595" lon="6.36986"><ele></ele><time>2024-5-29T23:51:14Z</time></trkpt>
<trkpt lat="46.62589" lon="6.36985"><ele></ele><time>2024-5-29T23:51:17Z</time></trkpt>
<trkpt lat="46.62557" lon="6.36971"><ele></ele><time>2024-5-29T23:51:20Z</time></trkpt>
<trkpt lat="46.62538" lon="6.36961"><ele></ele><time>2024-5-29T23:51:23Z</time></trkpt>
<trkpt lat="46.62529" lon="6.36956"><ele></ele><time>2024-5-29T23:51:26Z</time></trkpt>
<trkpt lat="46.62524" lon="6.36954"><ele></ele><time>2024-5-29T23:51:29Z</time></trkpt>
<trkpt lat="46.62496" lon="6.36945"><ele></ele><time>2024-5-29T23:51:32Z</time></trkpt>
<trkpt lat="46.6249" lon="6.36943"><ele></ele><time>2024-5-29T23:51:35Z</time></trkpt>
<trkpt lat="46.62469" lon="6.36939"><ele></ele><time>2024-5-29T23:51:38Z</time></trkpt>
<trkpt lat="46.62453" lon="6.36938"><ele></ele><time>2024-5-29T23:51:41Z</time></trkpt>
<trkpt lat="46.62423" lon="6.36931"><ele></ele><time>2024-5-29T23:51:44Z</time></trkpt>
<trkpt lat="46.62401" lon="6.36929"><ele></ele><time>2024-5-29T23:51:47Z</time></trkpt>
<trkpt lat="46.62394" lon="6.3693"><ele></ele><time>2024-5-29T23:51:50Z</time></trkpt>
<trkpt lat="46.62379" lon="6.36935"><ele></ele><time>2024-5-29T23:51:53Z</time></trkpt>
<trkpt lat="46.62371" lon="6.36939"><ele></ele><time>2024-5-29T23:51:56Z</time></trkpt>
<trkpt lat="46.62355" lon="6.36949"><ele></ele><time>2024-5-29T23:51:59Z</time></trkpt>
<trkpt lat="46.62341" lon="6.3696"><ele></ele><time>2024-5-29T23:52:2Z</time></trkpt>
<trkpt lat="46.62333" lon="6.36965"><ele></ele><time>2024-5-29T23:52:5Z</time></trkpt>
<trkpt lat="46.62325" lon="6.3697"><ele></ele><time>2024-5-29T23:52:8Z</time></trkpt>
<trkpt lat="46.62315" lon="6.36972"><ele></ele><time>2024-5-29T23:52:11Z</time></trkpt>
<trkpt lat="46.62305" lon="6.36973"><ele></ele><time>2024-5-29T23:52:14Z</time></trkpt>
<trkpt lat="46.62295" lon="6.36974"><ele></ele><time>2024-5-29T23:52:17Z</time></trkpt>
<trkpt lat="46.62283" lon="6.36971"><ele></ele><time>2024-5-29T23:52:20Z</time></trkpt>
<trkpt lat="46.62272" lon="6.36968"><ele></ele><time>2024-5-29T23:52:23Z</time></trkpt>
<trkpt lat="46.62261" lon="6.36966"><ele></ele><time>2024-5-29T23:52:26Z</time></trkpt>
<trkpt lat="46.62239" lon="6.36964"><ele></ele><time>2024-5-29T23:52:29Z</time></trkpt>
<trkpt lat="46.62218" lon="6.36966"><ele></ele><time>2024-5-29T23:52:32Z</time></trkpt>
<trkpt lat="46.62209" lon="6.36967"><ele></ele><time>2024-5-29T23:52:35Z</time></trkpt>
<trkpt lat="46.62193" lon="6.3697"><ele></ele><time>2024-5-29T23:52:38Z</time></trkpt>
<trkpt lat="46.62185" lon="6.36972"><ele></ele><time>2024-5-29T23:52:41Z</time></trkpt>
<trkpt lat="46.62169" lon="6.36975"><ele></ele><time>2024-5-29T23:52:44Z</time></trkpt>
<trkpt lat="46.62161" lon="6.36974"><ele></ele><time>2024-5-29T23:52:47Z</time></trkpt>
<trkpt lat="46.62152" lon="6.36971"><ele></ele><time>2024-5-29T23:52:50Z</time></trkpt>
<trkpt lat="46.62143" lon="6.36968"><ele></ele><time>2024-5-29T23:52:53Z</time></trkpt>
<trkpt lat="46.62123" lon="6.36962"><ele></ele><time>2024-5-29T23:52:56Z</time></trkpt>
<trkpt lat="46.62113" lon="6.3696"><ele></ele><time>2024-5-29T23:52:59Z</time></trkpt>
<trkpt lat="46.62102" lon="6.36957"><ele></ele><time>2024-5-29T23:53:2Z</time></trkpt>
<trkpt lat="46.62092" lon="6.36954"><ele></ele><time>2024-5-29T23:53:5Z</time></trkpt>
<trkpt lat="46.6207" lon="6.36948"><ele></ele><time>2024-5-29T23:53:8Z</time></trkpt>
<trkpt lat="46.62059" lon="6.36944"><ele></ele><time>2024-5-29T23:53:11Z</time></trkpt>
<trkpt lat="46.62046" lon="6.3694"><ele></ele><time>2024-5-29T23:53:14Z</time></trkpt>
<trkpt lat="46.62034" lon="6.36938"><ele></ele><time>2024-5-29T23:53:17Z</time></trkpt>
<trkpt lat="46.62023" lon="6.36934"><ele></ele><time>2024-5-29T23:53:20Z</time></trkpt>
<trkpt lat="46.62012" lon="6.36929"><ele></ele><time>2024-5-29T23:53:23Z</time></trkpt>
<trkpt lat="46.62" lon="6.36927"><ele></ele><time>2024-5-29T23:53:26Z</time></trkpt>
<trkpt lat="46.6199" lon="6.36924"><ele></ele><time>2024-5-29T23:53:29Z</time></trkpt>
<trkpt lat="46.6198" lon="6.36925"><ele></ele><time>2024-5-29T23:53:32Z</time></trkpt>
<trkpt lat="46.61972" lon="6.36929"><ele></ele><time>2024-5-29T23:53:35Z</time></trkpt>
<trkpt lat="46.61963" lon="6.36935"><ele></ele><time>2024-5-29T23:53:38Z</time></trkpt>
<trkpt lat="46.61935" lon="6.36957"><ele></ele><time>2024-5-29T23:53:41Z</time></trkpt>
<trkpt lat="46.61925" lon="6.36961"><ele></ele><time>2024-5-29T23:53:44Z</time></trkpt>
<trkpt lat="46.61913" lon="6.36965"><ele></ele><time>2024-5-29T23:53:47Z</time></trkpt>
<trkpt lat="46.61902" lon="6.36969"><ele></ele><time>2024-5-29T23:53:50Z</time></trkpt>
<trkpt lat="46.61891" lon="6.36973"><ele></ele><time>2024-5-29T23:53:53Z</time></trkpt>
<trkpt lat="46.61872" lon="6.3698"><ele></ele><time>2024-5-29T23:53:56Z</time></trkpt>
<trkpt lat="46.61864" lon="6.36982"><ele></ele><time>2024-5-29T23:53:59Z</time></trkpt>
<trkpt lat="46.61857" lon="6.36984"><ele></ele><time>2024-5-29T23:54:2Z</time></trkpt>
<trkpt lat="46.61851" lon="6.36984"><ele></ele><time>2024-5-29T23:54:5Z</time></trkpt>
<trkpt lat="46.61841" lon="6.36985"><ele></ele><time>2024-5-29T23:54:8Z</time></trkpt>
<trkpt lat="46.61837" lon="6.36983"><ele></ele><time>2024-5-29T23:54:11Z</time></trkpt>
<trkpt lat="46.61833" lon="6.36979"><ele></ele><time>2024-5-29T23:54:14Z</time></trkpt>
<trkpt lat="46.61831" lon="6.36971"><ele></ele><time>2024-5-29T23:54:17Z</time></trkpt>
<trkpt lat="46.61823" lon="6.36956"><ele></ele><time>2024-5-29T23:54:20Z</time></trkpt>
<trkpt lat="46.61809" lon="6.36947"><ele></ele><time>2024-5-29T23:54:23Z</time></trkpt>
<trkpt lat="46.61795" lon="6.36953"><ele></ele><time>2024-5-29T23:54:26Z</time></trkpt>
<trkpt lat="46.61791" lon="6.36971"><ele></ele><time>2024-5-29T23:54:29Z</time></trkpt>
<trkpt lat="46.61791" lon="6.36983"><ele></ele><time>2024-5-29T23:54:32Z</time></trkpt>
<trkpt lat="46.61791" lon="6.36996"><ele></ele><time>2024-5-29T23:54:35Z</time></trkpt>
<trkpt lat="46.61792" lon="6.37008"><ele></ele><time>2024-5-29T23:54:38Z</time></trkpt>
<trkpt lat="46.61795" lon="6.37028"><ele></ele><time>2024-5-29T23:54:41Z</time></trkpt>
<trkpt lat="46.61799" lon="6.37038"><ele></ele><time>2024-5-29T23:54:44Z</time></trkpt>
<trkpt lat="46.61804" lon="6.37047"><ele></ele><time>2024-5-29T23:54:47Z</time></trkpt>
<trkpt lat="46.6181" lon="6.37054"><ele></ele><time>2024-5-29T23:54:50Z</time></trkpt>
<trkpt lat="46.61823" lon="6.37067"><ele></ele><time>2024-5-29T23:54:53Z</time></trkpt>
<trkpt lat="46.61831" lon="6.37073"><ele></ele><time>2024-5-29T23:54:56Z</time></trkpt>
<trkpt lat="46.61848" lon="6.37086"><ele></ele><time>2024-5-29T23:54:59Z</time></trkpt>
<trkpt lat="46.61857" lon="6.37091"><ele></ele><time>2024-5-29T23:55:2Z</time></trkpt>
<trkpt lat="46.61866" lon="6.37095"><ele></ele><time>2024-5-29T23:55:5Z</time></trkpt>
<trkpt lat="46.61885" lon="6.37099"><ele></ele><time>2024-5-29T23:55:8Z</time></trkpt>
<trkpt lat="46.619" lon="6.37103"><ele></ele><time>2024-5-29T23:55:11Z</time></trkpt>
<trkpt lat="46.61906" lon="6.37106"><ele></ele><time>2024-5-29T23:55:14Z</time></trkpt>
<trkpt lat="46.61911" lon="6.37111"><ele></ele><time>2024-5-29T23:55:17Z</time></trkpt>
<trkpt lat="46.61916" lon="6.3712"><ele></ele><time>2024-5-29T23:55:20Z</time></trkpt>
<trkpt lat="46.6192" lon="6.3713"><ele></ele><time>2024-5-29T23:55:23Z</time></trkpt>
<trkpt lat="46.61925" lon="6.3714"><ele></ele><time>2024-5-29T23:55:26Z</time></trkpt>
<trkpt lat="46.61929" lon="6.37151"><ele></ele><time>2024-5-29T23:55:29Z</time></trkpt>
<trkpt lat="46.61947" lon="6.37185"><ele></ele><time>2024-5-29T23:55:32Z</time></trkpt>
<trkpt lat="46.61953" lon="6.37198"><ele></ele><time>2024-5-29T23:55:35Z</time></trkpt>
<trkpt lat="46.6196" lon="6.37211"><ele></ele><time>2024-5-29T23:55:38Z</time></trkpt>
<trkpt lat="46.61967" lon="6.37224"><ele></ele><time>2024-5-29T23:55:41Z</time></trkpt>
<trkpt lat="46.61975" lon="6.37236"><ele></ele><time>2024-5-29T23:55:44Z</time></trkpt>
<trkpt lat="46.61984" lon="6.37248"><ele></ele><time>2024-5-29T23:55:47Z</time></trkpt>
<trkpt lat="46.61994" lon="6.37258"><ele></ele><time>2024-5-29T23:55:50Z</time></trkpt>
<trkpt lat="46.62002" lon="6.37267"><ele></ele><time>2024-5-29T23:55:53Z</time></trkpt>
<trkpt lat="46.62009" lon="6.37275"><ele></ele><time>2024-5-29T23:55:56Z</time></trkpt>
<trkpt lat="46.62015" lon="6.37281"><ele></ele><time>2024-5-29T23:55:59Z</time></trkpt>
<trkpt lat="46.62018" lon="6.37288"><ele></ele><time>2024-5-29T23:56:2Z</time></trkpt>
<trkpt lat="46.62015" lon="6.37302"><ele></ele><time>2024-5-29T23:56:5Z</time></trkpt>
<trkpt lat="46.62002" lon="6.37305"><ele></ele><time>2024-5-29T23:56:8Z</time></trkpt>
<trkpt lat="46.61996" lon="6.37303"><ele></ele><time>2024-5-29T23:56:11Z</time></trkpt>
<trkpt lat="46.6199" lon="6.373"><ele></ele><time>2024-5-29T23:56:14Z</time></trkpt>
<trkpt lat="46.61976" lon="6.37295"><ele></ele><time>2024-5-29T23:56:17Z</time></trkpt>
<trkpt lat="46.61969" lon="6.37292"><ele></ele><time>2024-5-29T23:56:20Z</time></trkpt>
<trkpt lat="46.61954" lon="6.37285"><ele></ele><time>2024-5-29T23:56:23Z</time></trkpt>
<trkpt lat="46.61938" lon="6.37278"><ele></ele><time>2024-5-29T23:56:26Z</time></trkpt>
<trkpt lat="46.61929" lon="6.37277"><ele></ele><time>2024-5-29T23:56:29Z</time></trkpt>
<trkpt lat="46.61915" lon="6.37284"><ele></ele><time>2024-5-29T23:56:32Z</time></trkpt>
<trkpt lat="46.61909" lon="6.3729"><ele></ele><time>2024-5-29T23:56:35Z</time></trkpt>
<trkpt lat="46.61895" lon="6.373"><ele></ele><time>2024-5-29T23:56:38Z</time></trkpt>
<trkpt lat="46.61887" lon="6.37301"><ele></ele><time>2024-5-29T23:56:41Z</time></trkpt>
<trkpt lat="46.6188" lon="6.37299"><ele></ele><time>2024-5-29T23:56:44Z</time></trkpt>
<trkpt lat="46.61874" lon="6.37295"><ele></ele><time>2024-5-29T23:56:47Z</time></trkpt>
<trkpt lat="46.61867" lon="6.37289"><ele></ele><time>2024-5-29T23:56:50Z</time></trkpt>
<trkpt lat="46.61862" lon="6.3728"><ele></ele><time>2024-5-29T23:56:53Z</time></trkpt>
<trkpt lat="46.61857" lon="6.37271"><ele></ele><time>2024-5-29T23:56:56Z</time></trkpt>
<trkpt lat="46.61849" lon="6.37262"><ele></ele><time>2024-5-29T23:56:59Z</time></trkpt>
<trkpt lat="46.61842" lon="6.37256"><ele></ele><time>2024-5-29T23:57:2Z</time></trkpt>
<trkpt lat="46.61828" lon="6.37257"><ele></ele><time>2024-5-29T23:57:5Z</time></trkpt>
<trkpt lat="46.61825" lon="6.37271"><ele></ele><time>2024-5-29T23:57:8Z</time></trkpt>
<trkpt lat="46.61827" lon="6.37278"><ele></ele><time>2024-5-29T23:57:11Z</time></trkpt>
<trkpt lat="46.61833" lon="6.37282"><ele></ele><time>2024-5-29T23:57:14Z</time></trkpt>
<trkpt lat="46.61839" lon="6.37288"><ele></ele><time>2024-5-29T23:57:17Z</time></trkpt>
<trkpt lat="46.61843" lon="6.37296"><ele></ele><time>2024-5-29T23:57:20Z</time></trkpt>
<trkpt lat="46.61849" lon="6.37318"><ele></ele><time>2024-5-29T23:57:23Z</time></trkpt>
<trkpt lat="46.61856" lon="6.37341"><ele></ele><time>2024-5-29T23:57:26Z</time></trkpt>
<trkpt lat="46.6186" lon="6.37351"><ele></ele><time>2024-5-29T23:57:29Z</time></trkpt>
<trkpt lat="46.61869" lon="6.37365"><ele></ele><time>2024-5-29T23:57:32Z</time></trkpt>
<trkpt lat="46.61886" lon="6.37371"><ele></ele><time>2024-5-29T23:57:35Z</time></trkpt>
<trkpt lat="46.61894" lon="6.37377"><ele></ele><time>2024-5-29T23:57:38Z</time></trkpt>
<trkpt lat="46.61899" lon="6.37388"><ele></ele><time>2024-5-29T23:57:41Z</time></trkpt>
<trkpt lat="46.61903" lon="6.37401"><ele></ele><time>2024-5-29T23:57:44Z</time></trkpt>
<trkpt lat="46.61907" lon="6.37413"><ele></ele><time>2024-5-29T23:57:47Z</time></trkpt>
<trkpt lat="46.61919" lon="6.37437"><ele></ele><time>2024-5-29T23:57:50Z</time></trkpt>
<trkpt lat="46.61924" lon="6.37447"><ele></ele><time>2024-5-29T23:57:53Z</time></trkpt>
<trkpt lat="46.61929" lon="6.37468"><ele></ele><time>2024-5-29T23:57:56Z</time></trkpt>
<trkpt lat="46.61929" lon="6.37478"><ele></ele><time>2024-5-29T23:57:59Z</time></trkpt>
<trkpt lat="46.61926" lon="6.37485"><ele></ele><time>2024-5-29T23:58:2Z</time></trkpt>
<trkpt lat="46.61921" lon="6.37489"><ele></ele><time>2024-5-29T23:58:5Z</time></trkpt>
<trkpt lat="46.61916" lon="6.3749"><ele></ele><time>2024-5-29T23:58:8Z</time></trkpt>
<trkpt lat="46.61909" lon="6.37487"><ele></ele><time>2024-5-29T23:58:11Z</time></trkpt>
<trkpt lat="46.61894" lon="6.37478"><ele></ele><time>2024-5-29T23:58:14Z</time></trkpt>
<trkpt lat="46.61886" lon="6.37473"><ele></ele><time>2024-5-29T23:58:17Z</time></trkpt>
<trkpt lat="46.61876" lon="6.37467"><ele></ele><time>2024-5-29T23:58:20Z</time></trkpt>
<trkpt lat="46.61866" lon="6.37461"><ele></ele><time>2024-5-29T23:58:23Z</time></trkpt>
<trkpt lat="46.61845" lon="6.3745"><ele></ele><time>2024-5-29T23:58:26Z</time></trkpt>
<trkpt lat="46.61834" lon="6.37447"><ele></ele><time>2024-5-29T23:58:29Z</time></trkpt>
<trkpt lat="46.61821" lon="6.37444"><ele></ele><time>2024-5-29T23:58:32Z</time></trkpt>
<trkpt lat="46.61808" lon="6.37444"><ele></ele><time>2024-5-29T23:58:35Z</time></trkpt>
<trkpt lat="46.61783" lon="6.37441"><ele></ele><time>2024-5-29T23:58:38Z</time></trkpt>
<trkpt lat="46.61771" lon="6.37438"><ele></ele><time>2024-5-29T23:58:41Z</time></trkpt>
<trkpt lat="46.61746" lon="6.37427"><ele></ele><time>2024-5-29T23:58:44Z</time></trkpt>
<trkpt lat="46.61734" lon="6.3742"><ele></ele><time>2024-5-29T23:58:47Z</time></trkpt>
<trkpt lat="46.61723" lon="6.37413"><ele></ele><time>2024-5-29T23:58:50Z</time></trkpt>
<trkpt lat="46.61699" lon="6.37403"><ele></ele><time>2024-5-29T23:58:53Z</time></trkpt>
<trkpt lat="46.61677" lon="6.37396"><ele></ele><time>2024-5-29T23:58:56Z</time></trkpt>
<trkpt lat="46.61666" lon="6.37392"><ele></ele><time>2024-5-29T23:58:59Z</time></trkpt>
<trkpt lat="46.61646" lon="6.37384"><ele></ele><time>2024-5-29T23:59:2Z</time></trkpt>
<trkpt lat="46.61627" lon="6.37373"><ele></ele><time>2024-5-29T23:59:5Z</time></trkpt>
<trkpt lat="46.61609" lon="6.3736"><ele></ele><time>2024-5-29T23:59:8Z</time></trkpt>
<trkpt lat="46.61599" lon="6.37357"><ele></ele><time>2024-5-29T23:59:11Z</time></trkpt>
<trkpt lat="46.61589" lon="6.37357"><ele></ele><time>2024-5-29T23:59:14Z</time></trkpt>
<trkpt lat="46.6158" lon="6.37362"><ele></ele><time>2024-5-29T23:59:17Z</time></trkpt>
<trkpt lat="46.61573" lon="6.37369"><ele></ele><time>2024-5-29T23:59:20Z</time></trkpt>
<trkpt lat="46.6156" lon="6.37379"><ele></ele><time>2024-5-29T23:59:23Z</time></trkpt>
<trkpt lat="46.61551" lon="6.37381"><ele></ele><time>2024-5-29T23:59:26Z</time></trkpt>
<trkpt lat="46.61542" lon="6.3738"><ele></ele><time>2024-5-29T23:59:29Z</time></trkpt>
<trkpt lat="46.61524" lon="6.37379"><ele></ele><time>2024-5-29T23:59:32Z</time></trkpt>
<trkpt lat="46.61507" lon="6.37392"><ele></ele><time>2024-5-29T23:59:35Z</time></trkpt>
<trkpt lat="46.61499" lon="6.37402"><ele></ele><time>2024-5-29T23:59:38Z</time></trkpt>
<trkpt lat="46.61492" lon="6.37411"><ele></ele><time>2024-5-29T23:59:41Z</time></trkpt>
<trkpt lat="46.61484" lon="6.37418"><ele></ele><time>2024-5-29T23:59:44Z</time></trkpt>
<trkpt lat="46.61476" lon="6.37425"><ele></ele><time>2024-5-29T23:59:47Z</time></trkpt>
<trkpt lat="46.61466" lon="6.3743"><ele></ele><time>2024-5-29T23:59:50Z</time></trkpt>
<trkpt lat="46.61456" lon="6.37433"><ele></ele><time>2024-5-29T23:59:53Z</time></trkpt>
<trkpt lat="46.61445" lon="6.37436"><ele></ele><time>2024-5-29T23:59:56Z</time></trkpt>
<trkpt lat="46.61435" lon="6.37438"><ele></ele><time>2024-5-29T23:59:59Z</time></trkpt>
<trkpt lat="46.61425" lon="6.37438"><ele></ele><time>2024-5-30T0:0:2Z</time></trkpt>
<trkpt lat="46.61415" lon="6.37437"><ele></ele><time>2024-5-30T0:0:5Z</time></trkpt>
<trkpt lat="46.61406" lon="6.37436"><ele></ele><time>2024-5-30T0:0:8Z</time></trkpt>
<trkpt lat="46.61398" lon="6.37435"><ele></ele><time>2024-5-30T0:0:11Z</time></trkpt>
<trkpt lat="46.61391" lon="6.37435"><ele></ele><time>2024-5-30T0:0:14Z</time></trkpt>
<trkpt lat="46.61384" lon="6.37434"><ele></ele><time>2024-5-30T0:0:17Z</time></trkpt>
<trkpt lat="46.61378" lon="6.37433"><ele></ele><time>2024-5-30T0:0:20Z</time></trkpt>
<trkpt lat="46.61372" lon="6.37432"><ele></ele><time>2024-5-30T0:0:23Z</time></trkpt>
<trkpt lat="46.61361" lon="6.3743"><ele></ele><time>2024-5-30T0:0:26Z</time></trkpt>
<trkpt lat="46.61357" lon="6.37429"><ele></ele><time>2024-5-30T0:0:29Z</time></trkpt>
<trkpt lat="46.61346" lon="6.37424"><ele></ele><time>2024-5-30T0:0:32Z</time></trkpt>
<trkpt lat="46.61341" lon="6.37421"><ele></ele><time>2024-5-30T0:0:35Z</time></trkpt>
<trkpt lat="46.61333" lon="6.37417"><ele></ele><time>2024-5-30T0:0:38Z</time></trkpt>
<trkpt lat="46.61318" lon="6.37409"><ele></ele><time>2024-5-30T0:0:41Z</time></trkpt>
<trkpt lat="46.61308" lon="6.37407"><ele></ele><time>2024-5-30T0:0:44Z</time></trkpt>
<trkpt lat="46.61298" lon="6.37407"><ele></ele><time>2024-5-30T0:0:47Z</time></trkpt>
<trkpt lat="46.61289" lon="6.37408"><ele></ele><time>2024-5-30T0:0:50Z</time></trkpt>
<trkpt lat="46.61279" lon="6.37412"><ele></ele><time>2024-5-30T0:0:53Z</time></trkpt>
<trkpt lat="46.61268" lon="6.37417"><ele></ele><time>2024-5-30T0:0:56Z</time></trkpt>
<trkpt lat="46.61258" lon="6.37421"><ele></ele><time>2024-5-30T0:0:59Z</time></trkpt>
<trkpt lat="46.61246" lon="6.37426"><ele></ele><time>2024-5-30T0:1:2Z</time></trkpt>
<trkpt lat="46.61234" lon="6.37429"><ele></ele><time>2024-5-30T0:1:5Z</time></trkpt>
<trkpt lat="46.61223" lon="6.37434"><ele></ele><time>2024-5-30T0:1:8Z</time></trkpt>
<trkpt lat="46.61211" lon="6.37439"><ele></ele><time>2024-5-30T0:1:11Z</time></trkpt>
<trkpt lat="46.612" lon="6.37446"><ele></ele><time>2024-5-30T0:1:14Z</time></trkpt>
<trkpt lat="46.61189" lon="6.37453"><ele></ele><time>2024-5-30T0:1:17Z</time></trkpt>
<trkpt lat="46.61179" lon="6.3746"><ele></ele><time>2024-5-30T0:1:20Z</time></trkpt>
<trkpt lat="46.61169" lon="6.37467"><ele></ele><time>2024-5-30T0:1:23Z</time></trkpt>
<trkpt lat="46.61159" lon="6.37471"><ele></ele><time>2024-5-30T0:1:26Z</time></trkpt>
<trkpt lat="46.61148" lon="6.37473"><ele></ele><time>2024-5-30T0:1:29Z</time></trkpt>
<trkpt lat="46.61137" lon="6.37475"><ele></ele><time>2024-5-30T0:1:32Z</time></trkpt>
<trkpt lat="46.61126" lon="6.37475"><ele></ele><time>2024-5-30T0:1:35Z</time></trkpt>
<trkpt lat="46.61104" lon="6.37476"><ele></ele><time>2024-5-30T0:1:38Z</time></trkpt>
<trkpt lat="46.61094" lon="6.37477"><ele></ele><time>2024-5-30T0:1:41Z</time></trkpt>
<trkpt lat="46.61084" lon="6.37481"><ele></ele><time>2024-5-30T0:1:44Z</time></trkpt>
<trkpt lat="46.61074" lon="6.37487"><ele></ele><time>2024-5-30T0:1:47Z</time></trkpt>
<trkpt lat="46.61064" lon="6.37495"><ele></ele><time>2024-5-30T0:1:50Z</time></trkpt>
<trkpt lat="46.61055" lon="6.37505"><ele></ele><time>2024-5-30T0:1:53Z</time></trkpt>
<trkpt lat="46.61046" lon="6.37515"><ele></ele><time>2024-5-30T0:1:56Z</time></trkpt>
<trkpt lat="46.61026" lon="6.3753"><ele></ele><time>2024-5-30T0:1:59Z</time></trkpt>
<trkpt lat="46.61015" lon="6.37536"><ele></ele><time>2024-5-30T0:2:2Z</time></trkpt>
<trkpt lat="46.61004" lon="6.37539"><ele></ele><time>2024-5-30T0:2:5Z</time></trkpt>
<trkpt lat="46.60992" lon="6.37543"><ele></ele><time>2024-5-30T0:2:8Z</time></trkpt>
<trkpt lat="46.60981" lon="6.37547"><ele></ele><time>2024-5-30T0:2:11Z</time></trkpt>
<trkpt lat="46.6097" lon="6.37553"><ele></ele><time>2024-5-30T0:2:14Z</time></trkpt>
<trkpt lat="46.60958" lon="6.37559"><ele></ele><time>2024-5-30T0:2:17Z</time></trkpt>
<trkpt lat="46.60947" lon="6.37565"><ele></ele><time>2024-5-30T0:2:20Z</time></trkpt>
<trkpt lat="46.60924" lon="6.37574"><ele></ele><time>2024-5-30T0:2:23Z</time></trkpt>
<trkpt lat="46.60913" lon="6.37578"><ele></ele><time>2024-5-30T0:2:26Z</time></trkpt>
<trkpt lat="46.60891" lon="6.37589"><ele></ele><time>2024-5-30T0:2:29Z</time></trkpt>
<trkpt lat="46.60868" lon="6.376"><ele></ele><time>2024-5-30T0:2:32Z</time></trkpt>
<trkpt lat="46.60846" lon="6.37612"><ele></ele><time>2024-5-30T0:2:35Z</time></trkpt>
<trkpt lat="46.60825" lon="6.37625"><ele></ele><time>2024-5-30T0:2:38Z</time></trkpt>
<trkpt lat="46.60803" lon="6.37637"><ele></ele><time>2024-5-30T0:2:41Z</time></trkpt>
<trkpt lat="46.60792" lon="6.37643"><ele></ele><time>2024-5-30T0:2:44Z</time></trkpt>
<trkpt lat="46.60772" lon="6.37653"><ele></ele><time>2024-5-30T0:2:47Z</time></trkpt>
<trkpt lat="46.60764" lon="6.37659"><ele></ele><time>2024-5-30T0:2:50Z</time></trkpt>
<trkpt lat="46.60756" lon="6.37666"><ele></ele><time>2024-5-30T0:2:53Z</time></trkpt>
<trkpt lat="46.6075" lon="6.37675"><ele></ele><time>2024-5-30T0:2:56Z</time></trkpt>
<trkpt lat="46.60745" lon="6.37684"><ele></ele><time>2024-5-30T0:2:59Z</time></trkpt>
<trkpt lat="46.60736" lon="6.37694"><ele></ele><time>2024-5-30T0:3:2Z</time></trkpt>
<trkpt lat="46.60731" lon="6.37695"><ele></ele><time>2024-5-30T0:3:5Z</time></trkpt>
<trkpt lat="46.60726" lon="6.37693"><ele></ele><time>2024-5-30T0:3:8Z</time></trkpt>
<trkpt lat="46.60718" lon="6.37686"><ele></ele><time>2024-5-30T0:3:11Z</time></trkpt>
<trkpt lat="46.60694" lon="6.3767"><ele></ele><time>2024-5-30T0:3:14Z</time></trkpt>
<trkpt lat="46.60685" lon="6.37666"><ele></ele><time>2024-5-30T0:3:17Z</time></trkpt>
<trkpt lat="46.60681" lon="6.37664"><ele></ele><time>2024-5-30T0:3:20Z</time></trkpt>
<trkpt lat="46.60666" lon="6.37664"><ele></ele><time>2024-5-30T0:3:23Z</time></trkpt>
<trkpt lat="46.60646" lon="6.3766"><ele></ele><time>2024-5-30T0:3:26Z</time></trkpt>
<trkpt lat="46.60633" lon="6.37653"><ele></ele><time>2024-5-30T0:3:29Z</time></trkpt>
<trkpt lat="46.60611" lon="6.37637"><ele></ele><time>2024-5-30T0:3:32Z</time></trkpt>
<trkpt lat="46.60607" lon="6.37632"><ele></ele><time>2024-5-30T0:3:35Z</time></trkpt>
<trkpt lat="46.6059" lon="6.37619"><ele></ele><time>2024-5-30T0:3:38Z</time></trkpt>
<trkpt lat="46.60586" lon="6.37616"><ele></ele><time>2024-5-30T0:3:41Z</time></trkpt>
<trkpt lat="46.6056" lon="6.37604"><ele></ele><time>2024-5-30T0:3:44Z</time></trkpt>
<trkpt lat="46.60544" lon="6.37592"><ele></ele><time>2024-5-30T0:3:47Z</time></trkpt>
<trkpt lat="46.60528" lon="6.37583"><ele></ele><time>2024-5-30T0:3:50Z</time></trkpt>
<trkpt lat="46.60521" lon="6.37577"><ele></ele><time>2024-5-30T0:3:53Z</time></trkpt>
<trkpt lat="46.60514" lon="6.37573"><ele></ele><time>2024-5-30T0:3:56Z</time></trkpt>
<trkpt lat="46.605" lon="6.37563"><ele></ele><time>2024-5-30T0:3:59Z</time></trkpt>
<trkpt lat="46.60493" lon="6.37558"><ele></ele><time>2024-5-30T0:4:2Z</time></trkpt>
<trkpt lat="46.6046" lon="6.37532"><ele></ele><time>2024-5-30T0:4:5Z</time></trkpt>
<trkpt lat="46.60434" lon="6.37511"><ele></ele><time>2024-5-30T0:4:8Z</time></trkpt>
<trkpt lat="46.60431" lon="6.37508"><ele></ele><time>2024-5-30T0:4:11Z</time></trkpt>
<trkpt lat="46.60414" lon="6.37495"><ele></ele><time>2024-5-30T0:4:14Z</time></trkpt>
<trkpt lat="46.6041" lon="6.37493"><ele></ele><time>2024-5-30T0:4:17Z</time></trkpt>
<trkpt lat="46.60399" lon="6.37484"><ele></ele><time>2024-5-30T0:4:20Z</time></trkpt>
<trkpt lat="46.60391" lon="6.37477"><ele></ele><time>2024-5-30T0:4:23Z</time></trkpt>
<trkpt lat="46.60387" lon="6.37472"><ele></ele><time>2024-5-30T0:4:26Z</time></trkpt>
<trkpt lat="46.60383" lon="6.37468"><ele></ele><time>2024-5-30T0:4:29Z</time></trkpt>
<trkpt lat="46.60365" lon="6.37455"><ele></ele><time>2024-5-30T0:4:32Z</time></trkpt>
<trkpt lat="46.60342" lon="6.37443"><ele></ele><time>2024-5-30T0:4:35Z</time></trkpt>
<trkpt lat="46.60333" lon="6.37443"><ele></ele><time>2024-5-30T0:4:38Z</time></trkpt>
<trkpt lat="46.60319" lon="6.37446"><ele></ele><time>2024-5-30T0:4:41Z</time></trkpt>
<trkpt lat="46.60295" lon="6.37448"><ele></ele><time>2024-5-30T0:4:44Z</time></trkpt>
<trkpt lat="46.60291" lon="6.37448"><ele></ele><time>2024-5-30T0:4:47Z</time></trkpt>
<trkpt lat="46.60275" lon="6.37448"><ele></ele><time>2024-5-30T0:4:50Z</time></trkpt>
<trkpt lat="46.60251" lon="6.37449"><ele></ele><time>2024-5-30T0:4:53Z</time></trkpt>
<trkpt lat="46.60225" lon="6.3744"><ele></ele><time>2024-5-30T0:4:56Z</time></trkpt>
<trkpt lat="46.6022" lon="6.37436"><ele></ele><time>2024-5-30T0:4:59Z</time></trkpt>
<trkpt lat="46.60213" lon="6.37426"><ele></ele><time>2024-5-30T0:5:2Z</time></trkpt>
<trkpt lat="46.60213" lon="6.37424"><ele></ele><time>2024-5-30T0:5:5Z</time></trkpt>
<trkpt lat="46.60212" lon="6.37421"><ele></ele><time>2024-5-30T0:5:8Z</time></trkpt>
<trkpt lat="46.60212" lon="6.37412"><ele></ele><time>2024-5-30T0:5:11Z</time></trkpt>
<trkpt lat="46.60211" lon="6.37398"><ele></ele><time>2024-5-30T0:5:14Z</time></trkpt>
<trkpt lat="46.60212" lon="6.37393"><ele></ele><time>2024-5-30T0:5:17Z</time></trkpt>
<trkpt lat="46.60213" lon="6.3739"><ele></ele><time>2024-5-30T0:5:20Z</time></trkpt>
<trkpt lat="46.60211" lon="6.37375"><ele></ele><time>2024-5-30T0:5:23Z</time></trkpt>
<trkpt lat="46.60208" lon="6.37356"><ele></ele><time>2024-5-30T0:5:26Z</time></trkpt>
<trkpt lat="46.60207" lon="6.37348"><ele></ele><time>2024-5-30T0:5:29Z</time></trkpt>
<trkpt lat="46.60205" lon="6.37343"><ele></ele><time>2024-5-30T0:5:32Z</time></trkpt>
<trkpt lat="46.60186" lon="6.37319"><ele></ele><time>2024-5-30T0:5:35Z</time></trkpt>
<trkpt lat="46.60181" lon="6.37315"><ele></ele><time>2024-5-30T0:5:38Z</time></trkpt>
<trkpt lat="46.60176" lon="6.37312"><ele></ele><time>2024-5-30T0:5:41Z</time></trkpt>
<trkpt lat="46.60163" lon="6.37307"><ele></ele><time>2024-5-30T0:5:44Z</time></trkpt>
<trkpt lat="46.60138" lon="6.37293"><ele></ele><time>2024-5-30T0:5:47Z</time></trkpt>
<trkpt lat="46.60114" lon="6.37275"><ele></ele><time>2024-5-30T0:5:50Z</time></trkpt>
<trkpt lat="46.60106" lon="6.37267"><ele></ele><time>2024-5-30T0:5:53Z</time></trkpt>
<trkpt lat="46.60103" lon="6.37254"><ele></ele><time>2024-5-30T0:5:56Z</time></trkpt>
<trkpt lat="46.60105" lon="6.3724"><ele></ele><time>2024-5-30T0:5:59Z</time></trkpt>
<trkpt lat="46.60111" lon="6.37222"><ele></ele><time>2024-5-30T0:6:2Z</time></trkpt>
<trkpt lat="46.60119" lon="6.37203"><ele></ele><time>2024-5-30T0:6:5Z</time></trkpt>
<trkpt lat="46.60126" lon="6.37183"><ele></ele><time>2024-5-30T0:6:8Z</time></trkpt>
<trkpt lat="46.6013" lon="6.37172"><ele></ele><time>2024-5-30T0:6:11Z</time></trkpt>
<trkpt lat="46.60136" lon="6.37148"><ele></ele><time>2024-5-30T0:6:14Z</time></trkpt>
<trkpt lat="46.60138" lon="6.37126"><ele></ele><time>2024-5-30T0:6:17Z</time></trkpt>
<trkpt lat="46.60137" lon="6.37115"><ele></ele><time>2024-5-30T0:6:20Z</time></trkpt>
<trkpt lat="46.60135" lon="6.37105"><ele></ele><time>2024-5-30T0:6:23Z</time></trkpt>
<trkpt lat="46.60125" lon="6.37074"><ele></ele><time>2024-5-30T0:6:26Z</time></trkpt>
<trkpt lat="46.60122" lon="6.37065"><ele></ele><time>2024-5-30T0:6:29Z</time></trkpt>
<trkpt lat="46.60118" lon="6.37046"><ele></ele><time>2024-5-30T0:6:32Z</time></trkpt>
<trkpt lat="46.60118" lon="6.37028"><ele></ele><time>2024-5-30T0:6:35Z</time></trkpt>
<trkpt lat="46.60118" lon="6.37019"><ele></ele><time>2024-5-30T0:6:38Z</time></trkpt>
<trkpt lat="46.6012" lon="6.36978"><ele></ele><time>2024-5-30T0:6:41Z</time></trkpt>
<trkpt lat="46.6012" lon="6.36968"><ele></ele><time>2024-5-30T0:6:44Z</time></trkpt>
<trkpt lat="46.60118" lon="6.36958"><ele></ele><time>2024-5-30T0:6:47Z</time></trkpt>
<trkpt lat="46.60109" lon="6.36922"><ele></ele><time>2024-5-30T0:6:50Z</time></trkpt>
<trkpt lat="46.601" lon="6.369"><ele></ele><time>2024-5-30T0:6:53Z</time></trkpt>
<trkpt lat="46.60092" lon="6.36882"><ele></ele><time>2024-5-30T0:6:56Z</time></trkpt>
<trkpt lat="46.60086" lon="6.36872"><ele></ele><time>2024-5-30T0:6:59Z</time></trkpt>
<trkpt lat="46.6007" lon="6.36846"><ele></ele><time>2024-5-30T0:7:2Z</time></trkpt>
<trkpt lat="46.60063" lon="6.36834"><ele></ele><time>2024-5-30T0:7:5Z</time></trkpt>
<trkpt lat="46.60061" lon="6.36831"><ele></ele><time>2024-5-30T0:7:8Z</time></trkpt>
<trkpt lat="46.60057" lon="6.3683"><ele></ele><time>2024-5-30T0:7:11Z</time></trkpt>
<trkpt lat="46.60054" lon="6.3683"><ele></ele><time>2024-5-30T0:7:14Z</time></trkpt>
<trkpt lat="46.60051" lon="6.36834"><ele></ele><time>2024-5-30T0:7:17Z</time></trkpt>
<trkpt lat="46.60047" lon="6.36847"><ele></ele><time>2024-5-30T0:7:20Z</time></trkpt>
<trkpt lat="46.60045" lon="6.36886"><ele></ele><time>2024-5-30T0:7:23Z</time></trkpt>
<trkpt lat="46.60043" lon="6.36917"><ele></ele><time>2024-5-30T0:7:26Z</time></trkpt>
<trkpt lat="46.60042" lon="6.36937"><ele></ele><time>2024-5-30T0:7:29Z</time></trkpt>
<trkpt lat="46.60041" lon="6.36946"><ele></ele><time>2024-5-30T0:7:32Z</time></trkpt>
<trkpt lat="46.6004" lon="6.36953"><ele></ele><time>2024-5-30T0:7:35Z</time></trkpt>
<trkpt lat="46.60039" lon="6.36975"><ele></ele><time>2024-5-30T0:7:38Z</time></trkpt>
<trkpt lat="46.60038" lon="6.36988"><ele></ele><time>2024-5-30T0:7:41Z</time></trkpt>
<trkpt lat="46.60037" lon="6.36999"><ele></ele><time>2024-5-30T0:7:44Z</time></trkpt>
<trkpt lat="46.60036" lon="6.3701"><ele></ele><time>2024-5-30T0:7:47Z</time></trkpt>
<trkpt lat="46.60034" lon="6.37014"><ele></ele><time>2024-5-30T0:7:50Z</time></trkpt>
<trkpt lat="46.60033" lon="6.37014"><ele></ele><time>2024-5-30T0:7:53Z</time></trkpt>
</trkseg></trk></gpx>